<?xml version='1.0' encoding='UTF-8'?><gpx version="1.1" creator="JPX - https://github.com/jenetics/jpx" xmlns="http://www.topografix.com/GPX/1/1"><trk><trkseg><trkpt lat="43.7741337" lon="11.2630017"><ele>57.0</ele><time>2026-04-11T07:20:48.672Z</time></trkpt><trkpt lat="43.7740025" lon="11.2629541"><ele>57.0</ele><time>2026-04-11T07:20:52.672Z</time></trkpt><trkpt lat="43.7740387" lon="11.2628775"><ele>57.0</ele><time>2026-04-11T07:21:03.922Z</time></trkpt><trkpt lat="43.774085" lon="11.2627944"><ele>57.0</ele><time>2026-04-11T07:21:09.922Z</time></trkpt><trkpt lat="43.774125" lon="11.2627033"><ele>57.0</ele><time>2026-04-11T07:21:12.922Z</time></trkpt><trkpt lat="43.7741667" lon="11.2626117"><ele>57.0</ele><time>2026-04-11T07:21:16.922Z</time></trkpt><trkpt lat="43.774215" lon="11.26251"><ele>57.0</ele><time>2026-04-11T07:21:21.922Z</time></trkpt><trkpt lat="43.7742567" lon="11.2624217"><ele>57.0</ele><time>2026-04-11T07:21:26.922Z</time></trkpt><trkpt lat="43.774345" lon="11.2623733"><ele>57.0</ele><time>2026-04-11T07:21:29.923Z</time></trkpt><trkpt lat="43.7744183" lon="11.2623983"><ele>57.0</ele><time>2026-04-11T07:21:32.922Z</time></trkpt><trkpt lat="43.7744917" lon="11.2623583"><ele>57.0</ele><time>2026-04-11T07:21:37.922Z</time></trkpt><trkpt lat="43.7745483" lon="11.2623167"><ele>57.0</ele><time>2026-04-11T07:21:41.922Z</time></trkpt><trkpt lat="43.7746" lon="11.2622517"><ele>56.5</ele><time>2026-04-11T07:21:45.922Z</time></trkpt><trkpt lat="43.7746483" lon="11.2621767"><ele>56.0</ele><time>2026-04-11T07:21:47.922Z</time></trkpt><trkpt lat="43.7747" lon="11.262095"><ele>55.5</ele><time>2026-04-11T07:21:49.923Z</time></trkpt><trkpt lat="43.77474" lon="11.26201"><ele>55.0</ele><time>2026-04-11T07:21:51.922Z</time></trkpt><trkpt lat="43.7747817" lon="11.2619233"><ele>54.5</ele><time>2026-04-11T07:21:53.923Z</time></trkpt><trkpt lat="43.7748217" lon="11.2618367"><ele>54.0</ele><time>2026-04-11T07:21:55.923Z</time></trkpt><trkpt lat="43.774865" lon="11.261745"><ele>54.0</ele><time>2026-04-11T07:21:57.922Z</time></trkpt><trkpt lat="43.7749117" lon="11.2616583"><ele>54.0</ele><time>2026-04-11T07:21:59.922Z</time></trkpt><trkpt lat="43.7749683" lon="11.2615617"><ele>54.0</ele><time>2026-04-11T07:22:01.923Z</time></trkpt><trkpt lat="43.775015" lon="11.2614617"><ele>54.0</ele><time>2026-04-11T07:22:03.922Z</time></trkpt><trkpt lat="43.775055" lon="11.2613767"><ele>54.0</ele><time>2026-04-11T07:22:05.922Z</time></trkpt><trkpt lat="43.77509" lon="11.2613"><ele>54.0</ele><time>2026-04-11T07:22:08.922Z</time></trkpt><trkpt lat="43.7751383" lon="11.2611983"><ele>54.0</ele><time>2026-04-11T07:22:11.923Z</time></trkpt><trkpt lat="43.7751833" lon="11.2611033"><ele>54.0</ele><time>2026-04-11T07:22:13.923Z</time></trkpt><trkpt lat="43.775225" lon="11.2610133"><ele>54.0</ele><time>2026-04-11T07:22:15.923Z</time></trkpt><trkpt lat="43.7752683" lon="11.2609217"><ele>54.0</ele><time>2026-04-11T07:22:18.922Z</time></trkpt><trkpt lat="43.775305" lon="11.2608433"><ele>54.0</ele><time>2026-04-11T07:22:20.922Z</time></trkpt><trkpt lat="43.7753433" lon="11.2607633"><ele>54.0</ele><time>2026-04-11T07:22:23.922Z</time></trkpt><trkpt lat="43.77538" lon="11.260685"><ele>54.0</ele><time>2026-04-11T07:22:27.922Z</time></trkpt><trkpt lat="43.7754167" lon="11.2606067"><ele>55.400000000000006</ele><time>2026-04-11T07:22:31.922Z</time></trkpt><trkpt lat="43.7754533" lon="11.2605283"><ele>56.800000000000004</ele><time>2026-04-11T07:22:34.922Z</time></trkpt><trkpt lat="43.775495" lon="11.26044"><ele>58.199999999999996</ele><time>2026-04-11T07:22:36.923Z</time></trkpt><trkpt lat="43.7755317" lon="11.2601483"><ele>59.599999999999994</ele><time>2026-04-11T07:22:38.922Z</time></trkpt><trkpt lat="43.7755617" lon="11.2600583"><ele>61.0</ele><time>2026-04-11T07:22:39.923Z</time></trkpt><trkpt lat="43.7756333" lon="11.2599717"><ele>60.99999999999999</ele><time>2026-04-11T07:22:42.922Z</time></trkpt><trkpt lat="43.7756583" lon="11.25989"><ele>61.0</ele><time>2026-04-11T07:22:44.922Z</time></trkpt><trkpt lat="43.7756583" lon="11.2597917"><ele>61.0</ele><time>2026-04-11T07:22:47.923Z</time></trkpt><trkpt lat="43.775635" lon="11.2596867"><ele>61.0</ele><time>2026-04-11T07:22:50.922Z</time></trkpt><trkpt lat="43.775595" lon="11.2596133"><ele>60.99999999999999</ele><time>2026-04-11T07:22:52.922Z</time></trkpt><trkpt lat="43.7755217" lon="11.2595367"><ele>61.0</ele><time>2026-04-11T07:22:55.922Z</time></trkpt><trkpt lat="43.775435" lon="11.2594783"><ele>60.8</ele><time>2026-04-11T07:22:58.922Z</time></trkpt><trkpt lat="43.7753717" lon="11.25944"><ele>60.599999999999994</ele><time>2026-04-11T07:23:00.922Z</time></trkpt><trkpt lat="43.7752933" lon="11.25939"><ele>60.4</ele><time>2026-04-11T07:23:03.922Z</time></trkpt><trkpt lat="43.77524" lon="11.25928"><ele>60.2</ele><time>2026-04-11T07:23:05.923Z</time></trkpt><trkpt lat="43.7751933" lon="11.2591767"><ele>60.0</ele><time>2026-04-11T07:23:07.922Z</time></trkpt><trkpt lat="43.7751167" lon="11.2589"><ele>60.0</ele><time>2026-04-11T07:23:09.922Z</time></trkpt><trkpt lat="43.7750783" lon="11.2588233"><ele>60.0</ele><time>2026-04-11T07:23:11.922Z</time></trkpt><trkpt lat="43.7750233" lon="11.2587583"><ele>60.0</ele><time>2026-04-11T07:23:13.922Z</time></trkpt><trkpt lat="43.7749517" lon="11.2586817"><ele>60.0</ele><time>2026-04-11T07:23:16.922Z</time></trkpt><trkpt lat="43.7749033" lon="11.2585967"><ele>60.0</ele><time>2026-04-11T07:23:19.922Z</time></trkpt><trkpt lat="43.7748233" lon="11.2585533"><ele>60.0</ele><time>2026-04-11T07:23:22.923Z</time></trkpt><trkpt lat="43.774745" lon="11.2585133"><ele>60.0</ele><time>2026-04-11T07:23:25.923Z</time></trkpt><trkpt lat="43.7746767" lon="11.258435"><ele>60.0</ele><time>2026-04-11T07:23:28.922Z</time></trkpt><trkpt lat="43.7746283" lon="11.258365"><ele>60.0</ele><time>2026-04-11T07:23:30.922Z</time></trkpt><trkpt lat="43.7745517" lon="11.2583317"><ele>60.0</ele><time>2026-04-11T07:23:32.922Z</time></trkpt><trkpt lat="43.7744833" lon="11.2582983"><ele>60.0</ele><time>2026-04-11T07:23:34.922Z</time></trkpt><trkpt lat="43.774425" lon="11.2582617"><ele>60.0</ele><time>2026-04-11T07:23:36.922Z</time></trkpt><trkpt lat="43.7743367" lon="11.2582517"><ele>60.0</ele><time>2026-04-11T07:23:38.922Z</time></trkpt><trkpt lat="43.7742667" lon="11.25816"><ele>60.0</ele><time>2026-04-11T07:23:40.922Z</time></trkpt><trkpt lat="43.7742083" lon="11.2580483"><ele>60.0</ele><time>2026-04-11T07:23:42.922Z</time></trkpt><trkpt lat="43.7741467" lon="11.2579467"><ele>60.0</ele><time>2026-04-11T07:23:44.922Z</time></trkpt><trkpt lat="43.7740883" lon="11.2578817"><ele>60.0</ele><time>2026-04-11T07:23:46.922Z</time></trkpt><trkpt lat="43.7740267" lon="11.2577767"><ele>60.0</ele><time>2026-04-11T07:23:49.922Z</time></trkpt><trkpt lat="43.7739967" lon="11.25768"><ele>60.0</ele><time>2026-04-11T07:23:52.923Z</time></trkpt><trkpt lat="43.7739567" lon="11.2576"><ele>60.0</ele><time>2026-04-11T07:23:58.923Z</time></trkpt><trkpt lat="43.77392" lon="11.2574967"><ele>60.0</ele><time>2026-04-11T07:24:01.922Z</time></trkpt><trkpt lat="43.77395" lon="11.2573883"><ele>60.0</ele><time>2026-04-11T07:24:03.922Z</time></trkpt><trkpt lat="43.7739033" lon="11.257255"><ele>60.0</ele><time>2026-04-11T07:24:06.922Z</time></trkpt><trkpt lat="43.77383" lon="11.2571483"><ele>60.0</ele><time>2026-04-11T07:24:08.923Z</time></trkpt><trkpt lat="43.7737883" lon="11.257055"><ele>60.0</ele><time>2026-04-11T07:24:10.923Z</time></trkpt><trkpt lat="43.7737317" lon="11.25694"><ele>60.0</ele><time>2026-04-11T07:24:12.922Z</time></trkpt><trkpt lat="43.7736817" lon="11.2567817"><ele>60.0</ele><time>2026-04-11T07:24:15.922Z</time></trkpt><trkpt lat="43.7736783" lon="11.256645"><ele>60.0</ele><time>2026-04-11T07:24:17.922Z</time></trkpt><trkpt lat="43.7736533" lon="11.25652"><ele>60.6</ele><time>2026-04-11T07:24:19.922Z</time></trkpt><trkpt lat="43.77362" lon="11.256375"><ele>61.2</ele><time>2026-04-11T07:24:21.923Z</time></trkpt><trkpt lat="43.7735767" lon="11.2562133"><ele>61.8</ele><time>2026-04-11T07:24:23.922Z</time></trkpt><trkpt lat="43.773555" lon="11.2560967"><ele>62.4</ele><time>2026-04-11T07:24:24.922Z</time></trkpt><trkpt lat="43.773535" lon="11.2559667"><ele>63.0</ele><time>2026-04-11T07:24:25.922Z</time></trkpt><trkpt lat="43.77353" lon="11.25587"><ele>61.333333333333336</ele><time>2026-04-11T07:24:26.922Z</time></trkpt><trkpt lat="43.7735133" lon="11.2557083"><ele>59.66666666666667</ele><time>2026-04-11T07:24:28.922Z</time></trkpt><trkpt lat="43.773485" lon="11.25556"><ele>58.0</ele><time>2026-04-11T07:24:30.922Z</time></trkpt><trkpt lat="43.7734683" lon="11.2554683"><ele>56.333333333333336</ele><time>2026-04-11T07:24:32.922Z</time></trkpt><trkpt lat="43.7734567" lon="11.2553533"><ele>54.66666666666667</ele><time>2026-04-11T07:24:35.922Z</time></trkpt><trkpt lat="43.7734583" lon="11.2552633"><ele>53.0</ele><time>2026-04-11T07:24:37.922Z</time></trkpt><trkpt lat="43.7734667" lon="11.255165"><ele>52.833333333333336</ele><time>2026-04-11T07:24:39.923Z</time></trkpt><trkpt lat="43.773445" lon="11.2550567"><ele>52.66666666666667</ele><time>2026-04-11T07:24:41.922Z</time></trkpt><trkpt lat="43.7733983" lon="11.2549817"><ele>52.5</ele><time>2026-04-11T07:24:43.922Z</time></trkpt><trkpt lat="43.773355" lon="11.2548983"><ele>52.33333333333333</ele><time>2026-04-11T07:24:45.922Z</time></trkpt><trkpt lat="43.7733" lon="11.2548067"><ele>52.166666666666664</ele><time>2026-04-11T07:24:47.922Z</time></trkpt><trkpt lat="43.773235" lon="11.254755"><ele>52.0</ele><time>2026-04-11T07:24:50.923Z</time></trkpt><trkpt lat="43.7731567" lon="11.25466"><ele>53.0</ele><time>2026-04-11T07:24:53.922Z</time></trkpt><trkpt lat="43.7730783" lon="11.2545833"><ele>54.0</ele><time>2026-04-11T07:24:55.922Z</time></trkpt><trkpt lat="43.7729817" lon="11.2545533"><ele>55.0</ele><time>2026-04-11T07:24:57.922Z</time></trkpt><trkpt lat="43.7728867" lon="11.254535"><ele>56.0</ele><time>2026-04-11T07:24:59.923Z</time></trkpt><trkpt lat="43.7728083" lon="11.2545333"><ele>57.0</ele><time>2026-04-11T07:25:01.922Z</time></trkpt><trkpt lat="43.7727167" lon="11.2545383"><ele>58.2</ele><time>2026-04-11T07:25:03.922Z</time></trkpt><trkpt lat="43.772615" lon="11.2545433"><ele>59.400000000000006</ele><time>2026-04-11T07:25:05.922Z</time></trkpt><trkpt lat="43.7725133" lon="11.254525"><ele>60.599999999999994</ele><time>2026-04-11T07:25:07.922Z</time></trkpt><trkpt lat="43.7724183" lon="11.2545183"><ele>61.8</ele><time>2026-04-11T07:25:09.923Z</time></trkpt><trkpt lat="43.7723233" lon="11.2545067"><ele>63.0</ele><time>2026-04-11T07:25:11.923Z</time></trkpt><trkpt lat="43.772215" lon="11.2544867"><ele>63.0</ele><time>2026-04-11T07:25:13.923Z</time></trkpt><trkpt lat="43.7721383" lon="11.254475"><ele>63.0</ele><time>2026-04-11T07:25:15.922Z</time></trkpt><trkpt lat="43.7720567" lon="11.254465"><ele>63.0</ele><time>2026-04-11T07:25:17.922Z</time></trkpt><trkpt lat="43.7719733" lon="11.254435"><ele>63.0</ele><time>2026-04-11T07:25:20.922Z</time></trkpt><trkpt lat="43.7718983" lon="11.2544183"><ele>63.0</ele><time>2026-04-11T07:25:22.923Z</time></trkpt><trkpt lat="43.7718267" lon="11.254355"><ele>63.0</ele><time>2026-04-11T07:25:25.922Z</time></trkpt><trkpt lat="43.7718033" lon="11.254265"><ele>63.166666666666664</ele><time>2026-04-11T07:25:27.922Z</time></trkpt><trkpt lat="43.7717617" lon="11.2541767"><ele>63.33333333333333</ele><time>2026-04-11T07:25:29.922Z</time></trkpt><trkpt lat="43.7717017" lon="11.254105"><ele>63.5</ele><time>2026-04-11T07:25:31.922Z</time></trkpt><trkpt lat="43.7716467" lon="11.2540017"><ele>63.666666666666664</ele><time>2026-04-11T07:25:33.923Z</time></trkpt><trkpt lat="43.77161" lon="11.253885"><ele>63.83333333333333</ele><time>2026-04-11T07:25:35.922Z</time></trkpt><trkpt lat="43.7715767" lon="11.2537533"><ele>64.0</ele><time>2026-04-11T07:25:37.922Z</time></trkpt><trkpt lat="43.7715533" lon="11.2536283"><ele>63.99999999999999</ele><time>2026-04-11T07:25:39.922Z</time></trkpt><trkpt lat="43.7715283" lon="11.2535267"><ele>64.0</ele><time>2026-04-11T07:25:41.923Z</time></trkpt><trkpt lat="43.7715033" lon="11.2534183"><ele>64.0</ele><time>2026-04-11T07:25:43.922Z</time></trkpt><trkpt lat="43.771485" lon="11.2533033"><ele>64.0</ele><time>2026-04-11T07:25:45.923Z</time></trkpt><trkpt lat="43.7714917" lon="11.2532017"><ele>63.99999999999999</ele><time>2026-04-11T07:25:47.922Z</time></trkpt><trkpt lat="43.771505" lon="11.2530967"><ele>64.0</ele><time>2026-04-11T07:25:49.922Z</time></trkpt><trkpt lat="43.7715" lon="11.253005"><ele>63.99999999999999</ele><time>2026-04-11T07:25:51.922Z</time></trkpt><trkpt lat="43.77148" lon="11.2529033"><ele>64.0</ele><time>2026-04-11T07:25:53.922Z</time></trkpt><trkpt lat="43.771415" lon="11.25289"><ele>64.0</ele><time>2026-04-11T07:25:56.923Z</time></trkpt><trkpt lat="43.771345" lon="11.2528867"><ele>64.0</ele><time>2026-04-11T07:25:58.923Z</time></trkpt><trkpt lat="43.7712667" lon="11.2528883"><ele>63.99999999999999</ele><time>2026-04-11T07:26:00.922Z</time></trkpt><trkpt lat="43.771185" lon="11.2528267"><ele>64.0</ele><time>2026-04-11T07:26:03.922Z</time></trkpt><trkpt lat="43.7711333" lon="11.2527383"><ele>63.99999999999999</ele><time>2026-04-11T07:26:05.922Z</time></trkpt><trkpt lat="43.77111" lon="11.2526117"><ele>64.0</ele><time>2026-04-11T07:26:07.923Z</time></trkpt><trkpt lat="43.771105" lon="11.2524883"><ele>64.0</ele><time>2026-04-11T07:26:09.922Z</time></trkpt><trkpt lat="43.7710983" lon="11.2523717"><ele>64.0</ele><time>2026-04-11T07:26:11.922Z</time></trkpt><trkpt lat="43.7710417" lon="11.25233"><ele>63.99999999999999</ele><time>2026-04-11T07:26:13.923Z</time></trkpt><trkpt lat="43.7709717" lon="11.2522967"><ele>64.0</ele><time>2026-04-11T07:26:15.922Z</time></trkpt><trkpt lat="43.77088" lon="11.25222"><ele>64.14285714285714</ele><time>2026-04-11T07:26:18.923Z</time></trkpt><trkpt lat="43.77081" lon="11.2522017"><ele>64.28571428571428</ele><time>2026-04-11T07:26:20.922Z</time></trkpt><trkpt lat="43.77073" lon="11.2521617"><ele>64.42857142857143</ele><time>2026-04-11T07:26:23.923Z</time></trkpt><trkpt lat="43.77066" lon="11.2521317"><ele>64.57142857142857</ele><time>2026-04-11T07:26:26.923Z</time></trkpt><trkpt lat="43.7705867" lon="11.252095"><ele>64.71428571428572</ele><time>2026-04-11T07:26:30.922Z</time></trkpt><trkpt lat="43.770535" lon="11.2520433"><ele>64.85714285714286</ele><time>2026-04-11T07:26:32.922Z</time></trkpt><trkpt lat="43.770525" lon="11.2519383"><ele>65.0</ele><time>2026-04-11T07:26:34.923Z</time></trkpt><trkpt lat="43.7704633" lon="11.2518783"><ele>65.0</ele><time>2026-04-11T07:26:35.923Z</time></trkpt><trkpt lat="43.7704067" lon="11.2518233"><ele>65.0</ele><time>2026-04-11T07:26:36.922Z</time></trkpt><trkpt lat="43.7703933" lon="11.251735"><ele>65.0</ele><time>2026-04-11T07:26:38.922Z</time></trkpt><trkpt lat="43.7704083" lon="11.251645"><ele>65.0</ele><time>2026-04-11T07:26:40.923Z</time></trkpt><trkpt lat="43.7704133" lon="11.251545"><ele>65.0</ele><time>2026-04-11T07:26:43.922Z</time></trkpt><trkpt lat="43.7703533" lon="11.2514617"><ele>65.0</ele><time>2026-04-11T07:26:45.922Z</time></trkpt><trkpt lat="43.770285" lon="11.25135"><ele>64.2</ele><time>2026-04-11T07:26:47.922Z</time></trkpt><trkpt lat="43.7701983" lon="11.2512217"><ele>63.4</ele><time>2026-04-11T07:26:49.923Z</time></trkpt><trkpt lat="43.7701183" lon="11.2511283"><ele>62.599999999999994</ele><time>2026-04-11T07:26:51.922Z</time></trkpt><trkpt lat="43.770045" lon="11.251065"><ele>61.8</ele><time>2026-04-11T07:26:53.922Z</time></trkpt><trkpt lat="43.7699867" lon="11.2510117"><ele>61.0</ele><time>2026-04-11T07:26:55.923Z</time></trkpt><trkpt lat="43.7699217" lon="11.25096"><ele>60.428571428571416</ele><time>2026-04-11T07:26:57.922Z</time></trkpt><trkpt lat="43.76985" lon="11.2508967"><ele>59.857142857142854</ele><time>2026-04-11T07:26:59.922Z</time></trkpt><trkpt lat="43.7697867" lon="11.2508383"><ele>59.28571428571428</ele><time>2026-04-11T07:27:01.922Z</time></trkpt><trkpt lat="43.7697217" lon="11.2507883"><ele>58.71428571428571</ele><time>2026-04-11T07:27:03.923Z</time></trkpt><trkpt lat="43.7696583" lon="11.2507367"><ele>58.14285714285714</ele><time>2026-04-11T07:27:05.922Z</time></trkpt><trkpt lat="43.76959" lon="11.2507233"><ele>57.57142857142857</ele><time>2026-04-11T07:27:07.923Z</time></trkpt><trkpt lat="43.769525" lon="11.250745"><ele>57.0</ele><time>2026-04-11T07:27:12.923Z</time></trkpt><trkpt lat="43.7694333" lon="11.2507767"><ele>57.0</ele><time>2026-04-11T07:27:55.922Z</time></trkpt><trkpt lat="43.7693867" lon="11.250875"><ele>57.0</ele><time>2026-04-11T07:27:58.922Z</time></trkpt><trkpt lat="43.7693383" lon="11.2509633"><ele>57.0</ele><time>2026-04-11T07:28:00.923Z</time></trkpt><trkpt lat="43.769295" lon="11.25108"><ele>57.0</ele><time>2026-04-11T07:28:02.922Z</time></trkpt><trkpt lat="43.769255" lon="11.2511933"><ele>57.0</ele><time>2026-04-11T07:28:04.922Z</time></trkpt><trkpt lat="43.7692267" lon="11.2513083"><ele>57.0</ele><time>2026-04-11T07:28:06.922Z</time></trkpt><trkpt lat="43.76919" lon="11.2514183"><ele>56.0</ele><time>2026-04-11T07:28:08.923Z</time></trkpt><trkpt lat="43.7691583" lon="11.25152"><ele>54.99999999999999</ele><time>2026-04-11T07:28:10.922Z</time></trkpt><trkpt lat="43.7691317" lon="11.2516233"><ele>54.0</ele><time>2026-04-11T07:28:12.922Z</time></trkpt><trkpt lat="43.7691017" lon="11.2517267"><ele>53.0</ele><time>2026-04-11T07:28:14.922Z</time></trkpt><trkpt lat="43.76908" lon="11.2518167"><ele>52.0</ele><time>2026-04-11T07:28:16.922Z</time></trkpt><trkpt lat="43.7690517" lon="11.2519033"><ele>51.0</ele><time>2026-04-11T07:28:19.922Z</time></trkpt><trkpt lat="43.769035" lon="11.2519983"><ele>50.0</ele><time>2026-04-11T07:28:29.923Z</time></trkpt><trkpt lat="43.7690117" lon="11.2520867"><ele>50.00000000000001</ele><time>2026-04-11T07:28:38.922Z</time></trkpt><trkpt lat="43.7689833" lon="11.25218"><ele>50.0</ele><time>2026-04-11T07:28:41.922Z</time></trkpt><trkpt lat="43.7689467" lon="11.2522983"><ele>50.0</ele><time>2026-04-11T07:28:44.922Z</time></trkpt><trkpt lat="43.7689167" lon="11.25238"><ele>50.0</ele><time>2026-04-11T07:28:46.922Z</time></trkpt><trkpt lat="43.7688867" lon="11.2524633"><ele>50.00000000000001</ele><time>2026-04-11T07:28:48.923Z</time></trkpt><trkpt lat="43.7688433" lon="11.2525533"><ele>50.0</ele><time>2026-04-11T07:28:50.922Z</time></trkpt><trkpt lat="43.7688017" lon="11.2526517"><ele>50.8</ele><time>2026-04-11T07:28:52.922Z</time></trkpt><trkpt lat="43.7687583" lon="11.2527583"><ele>51.6</ele><time>2026-04-11T07:28:54.923Z</time></trkpt><trkpt lat="43.7687117" lon="11.2528717"><ele>52.400000000000006</ele><time>2026-04-11T07:28:56.922Z</time></trkpt><trkpt lat="43.7686633" lon="11.2529883"><ele>53.2</ele><time>2026-04-11T07:28:58.923Z</time></trkpt><trkpt lat="43.7686167" lon="11.25311"><ele>54.0</ele><time>2026-04-11T07:29:00.922Z</time></trkpt><trkpt lat="43.7685833" lon="11.253225"><ele>53.285714285714285</ele><time>2026-04-11T07:29:02.922Z</time></trkpt><trkpt lat="43.7685583" lon="11.25332"><ele>52.57142857142857</ele><time>2026-04-11T07:29:04.923Z</time></trkpt><trkpt lat="43.76853" lon="11.2534117"><ele>51.85714285714286</ele><time>2026-04-11T07:29:06.922Z</time></trkpt><trkpt lat="43.7684967" lon="11.2535"><ele>51.14285714285714</ele><time>2026-04-11T07:29:08.922Z</time></trkpt><trkpt lat="43.768465" lon="11.25359"><ele>50.42857142857143</ele><time>2026-04-11T07:29:10.922Z</time></trkpt><trkpt lat="43.7684383" lon="11.2536833"><ele>49.714285714285715</ele><time>2026-04-11T07:29:12.922Z</time></trkpt><trkpt lat="43.7684167" lon="11.2537967"><ele>49.0</ele><time>2026-04-11T07:29:14.922Z</time></trkpt><trkpt lat="43.7683983" lon="11.2539"><ele>50.166666666666664</ele><time>2026-04-11T07:29:16.922Z</time></trkpt><trkpt lat="43.7683767" lon="11.25401"><ele>51.33333333333333</ele><time>2026-04-11T07:29:18.922Z</time></trkpt><trkpt lat="43.7683383" lon="11.2541083"><ele>52.5</ele><time>2026-04-11T07:29:20.922Z</time></trkpt><trkpt lat="43.7683233" lon="11.254205"><ele>53.66666666666667</ele><time>2026-04-11T07:29:22.922Z</time></trkpt><trkpt lat="43.7683017" lon="11.2543067"><ele>54.833333333333336</ele><time>2026-04-11T07:29:24.923Z</time></trkpt><trkpt lat="43.7682567" lon="11.2544083"><ele>56.0</ele><time>2026-04-11T07:29:26.922Z</time></trkpt><trkpt lat="43.7682017" lon="11.2545"><ele>56.00000000000001</ele><time>2026-04-11T07:29:28.922Z</time></trkpt><trkpt lat="43.7681633" lon="11.254605"><ele>56.0</ele><time>2026-04-11T07:29:30.923Z</time></trkpt><trkpt lat="43.7681217" lon="11.2547067"><ele>56.0</ele><time>2026-04-11T07:29:32.922Z</time></trkpt><trkpt lat="43.7680883" lon="11.2547883"><ele>56.0</ele><time>2026-04-11T07:29:34.922Z</time></trkpt><trkpt lat="43.768035" lon="11.254875"><ele>56.00000000000001</ele><time>2026-04-11T07:29:36.923Z</time></trkpt><trkpt lat="43.7679717" lon="11.2549567"><ele>56.0</ele><time>2026-04-11T07:29:38.922Z</time></trkpt><trkpt lat="43.7679133" lon="11.255035"><ele>55.42857142857143</ele><time>2026-04-11T07:29:40.922Z</time></trkpt><trkpt lat="43.7678617" lon="11.2550983"><ele>54.85714285714286</ele><time>2026-04-11T07:29:42.922Z</time></trkpt><trkpt lat="43.767815" lon="11.25519"><ele>54.285714285714285</ele><time>2026-04-11T07:29:44.922Z</time></trkpt><trkpt lat="43.7677783" lon="11.255275"><ele>53.714285714285715</ele><time>2026-04-11T07:29:46.922Z</time></trkpt><trkpt lat="43.7677567" lon="11.255375"><ele>53.142857142857146</ele><time>2026-04-11T07:29:48.923Z</time></trkpt><trkpt lat="43.767725" lon="11.2554617"><ele>52.57142857142857</ele><time>2026-04-11T07:29:50.922Z</time></trkpt><trkpt lat="43.767695" lon="11.255555"><ele>52.0</ele><time>2026-04-11T07:29:52.923Z</time></trkpt><trkpt lat="43.7676383" lon="11.2556533"><ele>51.99999999999999</ele><time>2026-04-11T07:29:54.922Z</time></trkpt><trkpt lat="43.7675917" lon="11.2557617"><ele>52.0</ele><time>2026-04-11T07:29:56.922Z</time></trkpt><trkpt lat="43.7675567" lon="11.2558667"><ele>52.0</ele><time>2026-04-11T07:29:58.922Z</time></trkpt><trkpt lat="43.7675267" lon="11.25598"><ele>52.0</ele><time>2026-04-11T07:30:00.922Z</time></trkpt><trkpt lat="43.7675017" lon="11.2560683"><ele>51.99999999999999</ele><time>2026-04-11T07:30:02.922Z</time></trkpt><trkpt lat="43.7674883" lon="11.256165"><ele>52.0</ele><time>2026-04-11T07:30:04.922Z</time></trkpt><trkpt lat="43.76747" lon="11.25628"><ele>51.99999999999999</ele><time>2026-04-11T07:30:06.922Z</time></trkpt><trkpt lat="43.767445" lon="11.2564067"><ele>52.0</ele><time>2026-04-11T07:30:08.922Z</time></trkpt><trkpt lat="43.7674217" lon="11.2565167"><ele>52.0</ele><time>2026-04-11T07:30:10.922Z</time></trkpt><trkpt lat="43.767395" lon="11.2566317"><ele>52.0</ele><time>2026-04-11T07:30:12.923Z</time></trkpt><trkpt lat="43.7673667" lon="11.2567517"><ele>51.99999999999999</ele><time>2026-04-11T07:30:14.922Z</time></trkpt><trkpt lat="43.7673483" lon="11.2568667"><ele>52.0</ele><time>2026-04-11T07:30:16.923Z</time></trkpt><trkpt lat="43.7673483" lon="11.256975"><ele>52.2</ele><time>2026-04-11T07:30:18.922Z</time></trkpt><trkpt lat="43.767325" lon="11.25709"><ele>52.400000000000006</ele><time>2026-04-11T07:30:20.922Z</time></trkpt><trkpt lat="43.7673017" lon="11.2572067"><ele>52.599999999999994</ele><time>2026-04-11T07:30:22.923Z</time></trkpt><trkpt lat="43.767275" lon="11.2573233"><ele>52.8</ele><time>2026-04-11T07:30:24.923Z</time></trkpt><trkpt lat="43.767245" lon="11.2574433"><ele>53.0</ele><time>2026-04-11T07:30:26.922Z</time></trkpt><trkpt lat="43.767205" lon="11.2575683"><ele>53.16666666666667</ele><time>2026-04-11T07:30:28.922Z</time></trkpt><trkpt lat="43.767175" lon="11.2576917"><ele>53.333333333333336</ele><time>2026-04-11T07:30:30.922Z</time></trkpt><trkpt lat="43.7671483" lon="11.2578133"><ele>53.5</ele><time>2026-04-11T07:30:32.923Z</time></trkpt><trkpt lat="43.76711" lon="11.25792"><ele>53.66666666666667</ele><time>2026-04-11T07:30:34.922Z</time></trkpt><trkpt lat="43.7670733" lon="11.25802"><ele>53.833333333333336</ele><time>2026-04-11T07:30:36.922Z</time></trkpt><trkpt lat="43.7670483" lon="11.2581267"><ele>54.0</ele><time>2026-04-11T07:30:38.922Z</time></trkpt><trkpt lat="43.7670317" lon="11.2582483"><ele>54.333333333333336</ele><time>2026-04-11T07:30:40.923Z</time></trkpt><trkpt lat="43.7670117" lon="11.2583633"><ele>54.66666666666667</ele><time>2026-04-11T07:30:42.923Z</time></trkpt><trkpt lat="43.7669917" lon="11.2584783"><ele>55.0</ele><time>2026-04-11T07:30:44.922Z</time></trkpt><trkpt lat="43.7669833" lon="11.2586017"><ele>55.333333333333336</ele><time>2026-04-11T07:30:46.922Z</time></trkpt><trkpt lat="43.7669667" lon="11.2587083"><ele>55.66666666666667</ele><time>2026-04-11T07:30:48.922Z</time></trkpt><trkpt lat="43.7669467" lon="11.258805"><ele>56.0</ele><time>2026-04-11T07:30:50.922Z</time></trkpt><trkpt lat="43.766925" lon="11.258895"><ele>56.16666666666667</ele><time>2026-04-11T07:30:52.922Z</time></trkpt><trkpt lat="43.7668783" lon="11.25896"><ele>56.333333333333336</ele><time>2026-04-11T07:30:54.922Z</time></trkpt><trkpt lat="43.766795" lon="11.258955"><ele>56.5</ele><time>2026-04-11T07:30:57.922Z</time></trkpt><trkpt lat="43.7667317" lon="11.25893"><ele>56.66666666666667</ele><time>2026-04-11T07:30:59.922Z</time></trkpt><trkpt lat="43.7666683" lon="11.2589033"><ele>56.833333333333336</ele><time>2026-04-11T07:31:01.922Z</time></trkpt><trkpt lat="43.76658" lon="11.2588683"><ele>57.0</ele><time>2026-04-11T07:31:04.922Z</time></trkpt><trkpt lat="43.7664917" lon="11.2588367"><ele>55.333333333333336</ele><time>2026-04-11T07:31:07.923Z</time></trkpt><trkpt lat="43.7664167" lon="11.2588083"><ele>53.666666666666664</ele><time>2026-04-11T07:31:10.922Z</time></trkpt><trkpt lat="43.7663333" lon="11.25877"><ele>52.0</ele><time>2026-04-11T07:31:13.922Z</time></trkpt><trkpt lat="43.76625" lon="11.2587317"><ele>50.33333333333333</ele><time>2026-04-11T07:31:16.923Z</time></trkpt><trkpt lat="43.76619" lon="11.2587"><ele>48.666666666666664</ele><time>2026-04-11T07:31:18.922Z</time></trkpt><trkpt lat="43.7661017" lon="11.25865"><ele>47.0</ele><time>2026-04-11T07:31:21.923Z</time></trkpt><trkpt lat="43.766015" lon="11.2586183"><ele>46.57142857142857</ele><time>2026-04-11T07:31:24.922Z</time></trkpt><trkpt lat="43.765925" lon="11.2585867"><ele>46.14285714285714</ele><time>2026-04-11T07:31:27.922Z</time></trkpt><trkpt lat="43.7658583" lon="11.2585583"><ele>45.714285714285715</ele><time>2026-04-11T07:31:29.922Z</time></trkpt><trkpt lat="43.765795" lon="11.258525"><ele>45.285714285714285</ele><time>2026-04-11T07:31:31.922Z</time></trkpt><trkpt lat="43.76573" lon="11.2584917"><ele>44.857142857142854</ele><time>2026-04-11T07:31:33.922Z</time></trkpt><trkpt lat="43.7656667" lon="11.258465"><ele>44.42857142857143</ele><time>2026-04-11T07:31:35.922Z</time></trkpt><trkpt lat="43.7655983" lon="11.2585117"><ele>44.0</ele><time>2026-04-11T07:31:38.922Z</time></trkpt><trkpt lat="43.7655433" lon="11.2585567"><ele>44.0</ele><time>2026-04-11T07:31:41.922Z</time></trkpt><trkpt lat="43.7655" lon="11.2586317"><ele>44.0</ele><time>2026-04-11T07:31:45.923Z</time></trkpt><trkpt lat="43.7654783" lon="11.2587417"><ele>44.0</ele><time>2026-04-11T07:31:48.922Z</time></trkpt><trkpt lat="43.76547" lon="11.2588333"><ele>44.0</ele><time>2026-04-11T07:31:50.923Z</time></trkpt><trkpt lat="43.7654583" lon="11.2589367"><ele>44.0</ele><time>2026-04-11T07:31:52.922Z</time></trkpt><trkpt lat="43.7654517" lon="11.2590433"><ele>44.0</ele><time>2026-04-11T07:31:54.922Z</time></trkpt><trkpt lat="43.7654417" lon="11.2591483"><ele>44.0</ele><time>2026-04-11T07:31:56.923Z</time></trkpt><trkpt lat="43.765435" lon="11.2592517"><ele>43.83333333333333</ele><time>2026-04-11T07:31:58.923Z</time></trkpt><trkpt lat="43.7654317" lon="11.25937"><ele>43.666666666666664</ele><time>2026-04-11T07:32:00.923Z</time></trkpt><trkpt lat="43.765415" lon="11.2594933"><ele>43.5</ele><time>2026-04-11T07:32:02.922Z</time></trkpt><trkpt lat="43.7654033" lon="11.25961"><ele>43.333333333333336</ele><time>2026-04-11T07:32:04.922Z</time></trkpt><trkpt lat="43.7653917" lon="11.2597183"><ele>43.16666666666667</ele><time>2026-04-11T07:32:06.923Z</time></trkpt><trkpt lat="43.7653783" lon="11.259825"><ele>43.0</ele><time>2026-04-11T07:32:08.923Z</time></trkpt><trkpt lat="43.76537" lon="11.2599283"><ele>43.333333333333336</ele><time>2026-04-11T07:32:10.923Z</time></trkpt><trkpt lat="43.7653583" lon="11.260045"><ele>43.66666666666667</ele><time>2026-04-11T07:32:12.922Z</time></trkpt><trkpt lat="43.765345" lon="11.26017"><ele>44.0</ele><time>2026-04-11T07:32:14.922Z</time></trkpt><trkpt lat="43.7653317" lon="11.26029"><ele>44.333333333333336</ele><time>2026-04-11T07:32:16.922Z</time></trkpt><trkpt lat="43.7653183" lon="11.2604183"><ele>44.666666666666664</ele><time>2026-04-11T07:32:18.923Z</time></trkpt><trkpt lat="43.7653067" lon="11.2605417"><ele>45.0</ele><time>2026-04-11T07:32:20.922Z</time></trkpt><trkpt lat="43.7652967" lon="11.26067"><ele>45.6</ele><time>2026-04-11T07:32:22.922Z</time></trkpt><trkpt lat="43.7652867" lon="11.2608"><ele>46.2</ele><time>2026-04-11T07:32:24.922Z</time></trkpt><trkpt lat="43.76527" lon="11.2609167"><ele>46.8</ele><time>2026-04-11T07:32:26.922Z</time></trkpt><trkpt lat="43.7652567" lon="11.261035"><ele>47.4</ele><time>2026-04-11T07:32:28.922Z</time></trkpt><trkpt lat="43.76527" lon="11.2611783"><ele>48.0</ele><time>2026-04-11T07:32:30.922Z</time></trkpt><trkpt lat="43.7652533" lon="11.2613033"><ele>48.0</ele><time>2026-04-11T07:32:32.923Z</time></trkpt><trkpt lat="43.7652333" lon="11.2614217"><ele>48.0</ele><time>2026-04-11T07:32:34.922Z</time></trkpt><trkpt lat="43.7652117" lon="11.26154"><ele>48.0</ele><time>2026-04-11T07:32:36.922Z</time></trkpt><trkpt lat="43.7651983" lon="11.2616733"><ele>48.0</ele><time>2026-04-11T07:32:38.922Z</time></trkpt><trkpt lat="43.7651867" lon="11.2617967"><ele>48.0</ele><time>2026-04-11T07:32:40.922Z</time></trkpt><trkpt lat="43.765175" lon="11.2619283"><ele>49.4</ele><time>2026-04-11T07:32:42.923Z</time></trkpt><trkpt lat="43.7651633" lon="11.2620583"><ele>50.8</ele><time>2026-04-11T07:32:44.922Z</time></trkpt><trkpt lat="43.7651483" lon="11.262185"><ele>52.2</ele><time>2026-04-11T07:32:46.922Z</time></trkpt><trkpt lat="43.765135" lon="11.26231"><ele>53.6</ele><time>2026-04-11T07:32:48.922Z</time></trkpt><trkpt lat="43.765125" lon="11.26244"><ele>55.0</ele><time>2026-04-11T07:32:50.923Z</time></trkpt><trkpt lat="43.7651133" lon="11.262555"><ele>54.99999999999999</ele><time>2026-04-11T07:32:52.922Z</time></trkpt><trkpt lat="43.7651133" lon="11.2626667"><ele>55.0</ele><time>2026-04-11T07:32:54.922Z</time></trkpt><trkpt lat="43.7651017" lon="11.2627933"><ele>55.0</ele><time>2026-04-11T07:32:56.922Z</time></trkpt><trkpt lat="43.76509" lon="11.26292"><ele>55.0</ele><time>2026-04-11T07:32:58.922Z</time></trkpt><trkpt lat="43.76508" lon="11.2630433"><ele>54.99999999999999</ele><time>2026-04-11T07:33:00.923Z</time></trkpt><trkpt lat="43.7650583" lon="11.2631617"><ele>55.0</ele><time>2026-04-11T07:33:02.922Z</time></trkpt><trkpt lat="43.7650533" lon="11.263285"><ele>54.166666666666664</ele><time>2026-04-11T07:33:04.922Z</time></trkpt><trkpt lat="43.76505" lon="11.2634067"><ele>53.33333333333333</ele><time>2026-04-11T07:33:06.922Z</time></trkpt><trkpt lat="43.7650433" lon="11.2635167"><ele>52.5</ele><time>2026-04-11T07:33:08.922Z</time></trkpt><trkpt lat="43.765035" lon="11.2636217"><ele>51.66666666666667</ele><time>2026-04-11T07:33:10.922Z</time></trkpt><trkpt lat="43.7650267" lon="11.26373"><ele>50.833333333333336</ele><time>2026-04-11T07:33:12.922Z</time></trkpt><trkpt lat="43.7650167" lon="11.26383"><ele>50.0</ele><time>2026-04-11T07:33:14.923Z</time></trkpt><trkpt lat="43.7649983" lon="11.26394"><ele>50.50000000000001</ele><time>2026-04-11T07:33:16.922Z</time></trkpt><trkpt lat="43.7649833" lon="11.26406"><ele>51.0</ele><time>2026-04-11T07:33:18.922Z</time></trkpt><trkpt lat="43.7649683" lon="11.264175"><ele>51.5</ele><time>2026-04-11T07:33:20.922Z</time></trkpt><trkpt lat="43.7649467" lon="11.2642933"><ele>52.0</ele><time>2026-04-11T07:33:22.923Z</time></trkpt><trkpt lat="43.7649333" lon="11.2644033"><ele>52.50000000000001</ele><time>2026-04-11T07:33:24.923Z</time></trkpt><trkpt lat="43.7649183" lon="11.2645217"><ele>53.0</ele><time>2026-04-11T07:33:26.923Z</time></trkpt><trkpt lat="43.76491" lon="11.2646217"><ele>53.00000000000001</ele><time>2026-04-11T07:33:28.922Z</time></trkpt><trkpt lat="43.7649017" lon="11.2647283"><ele>53.0</ele><time>2026-04-11T07:33:30.922Z</time></trkpt><trkpt lat="43.7648917" lon="11.2648383"><ele>53.0</ele><time>2026-04-11T07:33:32.922Z</time></trkpt><trkpt lat="43.7648783" lon="11.2649533"><ele>53.0</ele><time>2026-04-11T07:33:34.922Z</time></trkpt><trkpt lat="43.7648667" lon="11.265065"><ele>53.00000000000001</ele><time>2026-04-11T07:33:36.922Z</time></trkpt><trkpt lat="43.7648583" lon="11.265175"><ele>53.0</ele><time>2026-04-11T07:33:38.922Z</time></trkpt><trkpt lat="43.76485" lon="11.265275"><ele>53.16666666666667</ele><time>2026-04-11T07:33:40.922Z</time></trkpt><trkpt lat="43.76484" lon="11.2653817"><ele>53.333333333333336</ele><time>2026-04-11T07:33:42.923Z</time></trkpt><trkpt lat="43.7648283" lon="11.2654767"><ele>53.5</ele><time>2026-04-11T07:33:44.922Z</time></trkpt><trkpt lat="43.7648083" lon="11.2655967"><ele>53.66666666666667</ele><time>2026-04-11T07:33:46.922Z</time></trkpt><trkpt lat="43.764795" lon="11.2657067"><ele>53.833333333333336</ele><time>2026-04-11T07:33:48.923Z</time></trkpt><trkpt lat="43.7647817" lon="11.26583"><ele>54.0</ele><time>2026-04-11T07:33:50.922Z</time></trkpt><trkpt lat="43.7647767" lon="11.2659667"><ele>53.5</ele><time>2026-04-11T07:33:52.922Z</time></trkpt><trkpt lat="43.7647633" lon="11.2660767"><ele>53.0</ele><time>2026-04-11T07:33:54.922Z</time></trkpt><trkpt lat="43.7647517" lon="11.2661983"><ele>52.5</ele><time>2026-04-11T07:33:56.922Z</time></trkpt><trkpt lat="43.7647417" lon="11.2663083"><ele>52.0</ele><time>2026-04-11T07:33:58.922Z</time></trkpt><trkpt lat="43.7647217" lon="11.2663967"><ele>51.5</ele><time>2026-04-11T07:34:00.922Z</time></trkpt><trkpt lat="43.7646983" lon="11.2664867"><ele>51.0</ele><time>2026-04-11T07:34:02.922Z</time></trkpt><trkpt lat="43.76469" lon="11.2666117"><ele>51.0</ele><time>2026-04-11T07:34:04.922Z</time></trkpt><trkpt lat="43.764685" lon="11.26676"><ele>51.0</ele><time>2026-04-11T07:34:06.923Z</time></trkpt><trkpt lat="43.76467" lon="11.2668883"><ele>51.0</ele><time>2026-04-11T07:34:08.922Z</time></trkpt><trkpt lat="43.7646567" lon="11.2670233"><ele>51.0</ele><time>2026-04-11T07:34:10.922Z</time></trkpt><trkpt lat="43.7646483" lon="11.26716"><ele>51.0</ele><time>2026-04-11T07:34:12.922Z</time></trkpt><trkpt lat="43.7646367" lon="11.2672983"><ele>50.8</ele><time>2026-04-11T07:34:14.922Z</time></trkpt><trkpt lat="43.7646233" lon="11.267425"><ele>50.599999999999994</ele><time>2026-04-11T07:34:16.923Z</time></trkpt><trkpt lat="43.7646033" lon="11.2675467"><ele>50.4</ele><time>2026-04-11T07:34:18.922Z</time></trkpt><trkpt lat="43.7645933" lon="11.2676667"><ele>50.2</ele><time>2026-04-11T07:34:20.922Z</time></trkpt><trkpt lat="43.7645767" lon="11.26778"><ele>50.0</ele><time>2026-04-11T07:34:22.922Z</time></trkpt><trkpt lat="43.7645717" lon="11.2679167"><ele>50.00000000000001</ele><time>2026-04-11T07:34:24.923Z</time></trkpt><trkpt lat="43.764565" lon="11.2680483"><ele>50.0</ele><time>2026-04-11T07:34:26.923Z</time></trkpt><trkpt lat="43.7645517" lon="11.2681567"><ele>50.0</ele><time>2026-04-11T07:34:28.922Z</time></trkpt><trkpt lat="43.7645283" lon="11.26825"><ele>50.0</ele><time>2026-04-11T07:34:30.922Z</time></trkpt><trkpt lat="43.7645117" lon="11.2683633"><ele>50.00000000000001</ele><time>2026-04-11T07:34:32.922Z</time></trkpt><trkpt lat="43.7645" lon="11.2684717"><ele>50.0</ele><time>2026-04-11T07:34:34.922Z</time></trkpt><trkpt lat="43.7644883" lon="11.26858"><ele>50.00000000000001</ele><time>2026-04-11T07:34:36.922Z</time></trkpt><trkpt lat="43.76449" lon="11.2687283"><ele>50.0</ele><time>2026-04-11T07:34:38.922Z</time></trkpt><trkpt lat="43.7644717" lon="11.2688317"><ele>50.0</ele><time>2026-04-11T07:34:40.922Z</time></trkpt><trkpt lat="43.76446" lon="11.2689467"><ele>50.0</ele><time>2026-04-11T07:34:42.923Z</time></trkpt><trkpt lat="43.7644467" lon="11.2690517"><ele>50.00000000000001</ele><time>2026-04-11T07:34:44.922Z</time></trkpt><trkpt lat="43.7644333" lon="11.269155"><ele>50.0</ele><time>2026-04-11T07:34:46.923Z</time></trkpt><trkpt lat="43.7644267" lon="11.2692417"><ele>50.00000000000001</ele><time>2026-04-11T07:34:48.922Z</time></trkpt><trkpt lat="43.764415" lon="11.26934"><ele>50.0</ele><time>2026-04-11T07:34:50.922Z</time></trkpt><trkpt lat="43.7644" lon="11.269435"><ele>50.0</ele><time>2026-04-11T07:34:52.922Z</time></trkpt><trkpt lat="43.7643833" lon="11.2695383"><ele>50.0</ele><time>2026-04-11T07:34:54.923Z</time></trkpt><trkpt lat="43.764365" lon="11.269685"><ele>50.00000000000001</ele><time>2026-04-11T07:34:57.922Z</time></trkpt><trkpt lat="43.7643417" lon="11.269785"><ele>50.0</ele><time>2026-04-11T07:34:59.922Z</time></trkpt><trkpt lat="43.7643283" lon="11.269935"><ele>50.00000000000001</ele><time>2026-04-11T07:35:01.923Z</time></trkpt><trkpt lat="43.7643133" lon="11.2700533"><ele>50.0</ele><time>2026-04-11T07:35:03.922Z</time></trkpt><trkpt lat="43.7642967" lon="11.270165"><ele>50.0</ele><time>2026-04-11T07:35:05.922Z</time></trkpt><trkpt lat="43.7642883" lon="11.270265"><ele>50.0</ele><time>2026-04-11T07:35:07.922Z</time></trkpt><trkpt lat="43.764275" lon="11.2703633"><ele>50.00000000000001</ele><time>2026-04-11T07:35:09.922Z</time></trkpt><trkpt lat="43.76426" lon="11.27047"><ele>50.0</ele><time>2026-04-11T07:35:12.923Z</time></trkpt><trkpt lat="43.7642117" lon="11.2705467"><ele>50.00000000000001</ele><time>2026-04-11T07:35:16.922Z</time></trkpt><trkpt lat="43.7641367" lon="11.2705833"><ele>50.0</ele><time>2026-04-11T07:35:19.922Z</time></trkpt><trkpt lat="43.76412" lon="11.2707017"><ele>50.0</ele><time>2026-04-11T07:35:22.923Z</time></trkpt><trkpt lat="43.7640933" lon="11.27081"><ele>50.0</ele><time>2026-04-11T07:35:25.922Z</time></trkpt><trkpt lat="43.7640717" lon="11.2708933"><ele>50.00000000000001</ele><time>2026-04-11T07:35:27.922Z</time></trkpt><trkpt lat="43.7640683" lon="11.2710067"><ele>50.0</ele><time>2026-04-11T07:35:30.922Z</time></trkpt><trkpt lat="43.7640333" lon="11.2710883"><ele>50.00000000000001</ele><time>2026-04-11T07:35:32.922Z</time></trkpt><trkpt lat="43.7639967" lon="11.2711767"><ele>50.0</ele><time>2026-04-11T07:35:34.922Z</time></trkpt><trkpt lat="43.7639833" lon="11.271275"><ele>50.0</ele><time>2026-04-11T07:35:36.922Z</time></trkpt><trkpt lat="43.7639817" lon="11.2713833"><ele>50.0</ele><time>2026-04-11T07:35:38.922Z</time></trkpt><trkpt lat="43.7639733" lon="11.271485"><ele>50.0</ele><time>2026-04-11T07:35:40.923Z</time></trkpt><trkpt lat="43.7639617" lon="11.27159"><ele>50.00000000000001</ele><time>2026-04-11T07:35:43.922Z</time></trkpt><trkpt lat="43.7640083" lon="11.271655"><ele>50.0</ele><time>2026-04-11T07:35:48.922Z</time></trkpt><trkpt lat="43.7640717" lon="11.271695"><ele>50.00000000000001</ele><time>2026-04-11T07:35:51.922Z</time></trkpt><trkpt lat="43.7640667" lon="11.2718083"><ele>50.0</ele><time>2026-04-11T07:35:54.923Z</time></trkpt><trkpt lat="43.7640483" lon="11.2718967"><ele>50.0</ele><time>2026-04-11T07:35:56.922Z</time></trkpt><trkpt lat="43.7640367" lon="11.272025"><ele>50.0</ele><time>2026-04-11T07:35:59.922Z</time></trkpt><trkpt lat="43.7640283" lon="11.2721283"><ele>50.00000000000001</ele><time>2026-04-11T07:36:01.922Z</time></trkpt><trkpt lat="43.7640167" lon="11.2722233"><ele>50.0</ele><time>2026-04-11T07:36:03.922Z</time></trkpt><trkpt lat="43.76401" lon="11.2723283"><ele>50.50000000000001</ele><time>2026-04-11T07:36:05.922Z</time></trkpt><trkpt lat="43.76401" lon="11.272435"><ele>51.0</ele><time>2026-04-11T07:36:07.922Z</time></trkpt><trkpt lat="43.764" lon="11.2725333"><ele>51.5</ele><time>2026-04-11T07:36:09.922Z</time></trkpt><trkpt lat="43.7639983" lon="11.2726433"><ele>52.0</ele><time>2026-04-11T07:36:11.922Z</time></trkpt><trkpt lat="43.7639967" lon="11.27275"><ele>52.50000000000001</ele><time>2026-04-11T07:36:13.922Z</time></trkpt><trkpt lat="43.7639867" lon="11.2728533"><ele>53.0</ele><time>2026-04-11T07:36:15.922Z</time></trkpt><trkpt lat="43.7639817" lon="11.272965"><ele>53.00000000000001</ele><time>2026-04-11T07:36:17.922Z</time></trkpt><trkpt lat="43.763985" lon="11.2730733"><ele>53.0</ele><time>2026-04-11T07:36:19.923Z</time></trkpt><trkpt lat="43.76399" lon="11.2731833"><ele>53.0</ele><time>2026-04-11T07:36:21.922Z</time></trkpt><trkpt lat="43.76399" lon="11.2733"><ele>53.0</ele><time>2026-04-11T07:36:23.922Z</time></trkpt><trkpt lat="43.764005" lon="11.273425"><ele>53.00000000000001</ele><time>2026-04-11T07:36:25.923Z</time></trkpt><trkpt lat="43.7640133" lon="11.273535"><ele>53.0</ele><time>2026-04-11T07:36:27.922Z</time></trkpt><trkpt lat="43.7640167" lon="11.273645"><ele>53.16666666666667</ele><time>2026-04-11T07:36:29.922Z</time></trkpt><trkpt lat="43.764015" lon="11.2737667"><ele>53.333333333333336</ele><time>2026-04-11T07:36:31.922Z</time></trkpt><trkpt lat="43.764015" lon="11.273865"><ele>53.5</ele><time>2026-04-11T07:36:33.923Z</time></trkpt><trkpt lat="43.7640183" lon="11.2739617"><ele>53.66666666666667</ele><time>2026-04-11T07:36:35.922Z</time></trkpt><trkpt lat="43.7640167" lon="11.2740717"><ele>53.833333333333336</ele><time>2026-04-11T07:36:37.922Z</time></trkpt><trkpt lat="43.7640117" lon="11.27418"><ele>54.0</ele><time>2026-04-11T07:36:39.922Z</time></trkpt><trkpt lat="43.7640067" lon="11.274285"><ele>53.666666666666664</ele><time>2026-04-11T07:36:41.922Z</time></trkpt><trkpt lat="43.7640017" lon="11.2743933"><ele>53.33333333333333</ele><time>2026-04-11T07:36:43.922Z</time></trkpt><trkpt lat="43.763995" lon="11.2744933"><ele>53.0</ele><time>2026-04-11T07:36:45.922Z</time></trkpt><trkpt lat="43.7639917" lon="11.274615"><ele>52.666666666666664</ele><time>2026-04-11T07:36:47.923Z</time></trkpt><trkpt lat="43.7639983" lon="11.2747467"><ele>52.33333333333333</ele><time>2026-04-11T07:36:49.923Z</time></trkpt><trkpt lat="43.7640033" lon="11.2748533"><ele>52.0</ele><time>2026-04-11T07:36:51.923Z</time></trkpt><trkpt lat="43.7640017" lon="11.27496"><ele>51.666666666666664</ele><time>2026-04-11T07:36:53.922Z</time></trkpt><trkpt lat="43.7639967" lon="11.275075"><ele>51.33333333333333</ele><time>2026-04-11T07:36:55.922Z</time></trkpt><trkpt lat="43.76399" lon="11.2751717"><ele>51.0</ele><time>2026-04-11T07:36:57.922Z</time></trkpt><trkpt lat="43.763985" lon="11.2752733"><ele>50.66666666666667</ele><time>2026-04-11T07:36:59.922Z</time></trkpt><trkpt lat="43.7639867" lon="11.2753733"><ele>50.333333333333336</ele><time>2026-04-11T07:37:01.923Z</time></trkpt><trkpt lat="43.7639983" lon="11.275505"><ele>50.0</ele><time>2026-04-11T07:37:04.922Z</time></trkpt><trkpt lat="43.7640067" lon="11.275605"><ele>49.833333333333336</ele><time>2026-04-11T07:37:06.922Z</time></trkpt><trkpt lat="43.764005" lon="11.275715"><ele>49.66666666666667</ele><time>2026-04-11T07:37:08.922Z</time></trkpt><trkpt lat="43.7640017" lon="11.2758283"><ele>49.5</ele><time>2026-04-11T07:37:10.922Z</time></trkpt><trkpt lat="43.7639967" lon="11.2759433"><ele>49.33333333333333</ele><time>2026-04-11T07:37:12.923Z</time></trkpt><trkpt lat="43.7639967" lon="11.2760367"><ele>49.166666666666664</ele><time>2026-04-11T07:37:14.922Z</time></trkpt><trkpt lat="43.7640117" lon="11.27615"><ele>49.0</ele><time>2026-04-11T07:37:17.922Z</time></trkpt><trkpt lat="43.764025" lon="11.27624"><ele>49.0</ele><time>2026-04-11T07:37:20.923Z</time></trkpt><trkpt lat="43.76403" lon="11.2763583"><ele>49.0</ele><time>2026-04-11T07:37:24.922Z</time></trkpt><trkpt lat="43.7640117" lon="11.2764817"><ele>49.0</ele><time>2026-04-11T07:37:26.922Z</time></trkpt><trkpt lat="43.7640033" lon="11.2766217"><ele>49.0</ele><time>2026-04-11T07:37:28.922Z</time></trkpt><trkpt lat="43.7639967" lon="11.27678"><ele>49.0</ele><time>2026-04-11T07:37:30.923Z</time></trkpt><trkpt lat="43.7639867" lon="11.2769233"><ele>48.99999999999999</ele><time>2026-04-11T07:37:32.923Z</time></trkpt><trkpt lat="43.7639683" lon="11.2770567"><ele>49.0</ele><time>2026-04-11T07:37:34.923Z</time></trkpt><trkpt lat="43.7639717" lon="11.2771683"><ele>49.0</ele><time>2026-04-11T07:37:36.923Z</time></trkpt><trkpt lat="43.7639717" lon="11.27729"><ele>49.0</ele><time>2026-04-11T07:37:38.922Z</time></trkpt><trkpt lat="43.76396" lon="11.2773867"><ele>48.99999999999999</ele><time>2026-04-11T07:37:40.922Z</time></trkpt><trkpt lat="43.7639617" lon="11.2774867"><ele>49.0</ele><time>2026-04-11T07:37:42.923Z</time></trkpt><trkpt lat="43.763975" lon="11.2775883"><ele>48.857142857142854</ele><time>2026-04-11T07:37:44.922Z</time></trkpt><trkpt lat="43.7639883" lon="11.27768"><ele>48.714285714285715</ele><time>2026-04-11T07:37:46.922Z</time></trkpt><trkpt lat="43.7639933" lon="11.277785"><ele>48.57142857142857</ele><time>2026-04-11T07:37:48.923Z</time></trkpt><trkpt lat="43.7639967" lon="11.2778917"><ele>48.42857142857143</ele><time>2026-04-11T07:37:50.922Z</time></trkpt><trkpt lat="43.7640017" lon="11.2779933"><ele>48.285714285714285</ele><time>2026-04-11T07:37:52.922Z</time></trkpt><trkpt lat="43.764005" lon="11.27809"><ele>48.14285714285714</ele><time>2026-04-11T07:37:54.922Z</time></trkpt><trkpt lat="43.764" lon="11.2782017"><ele>48.0</ele><time>2026-04-11T07:37:56.922Z</time></trkpt><trkpt lat="43.76399" lon="11.2783017"><ele>48.333333333333336</ele><time>2026-04-11T07:37:58.923Z</time></trkpt><trkpt lat="43.76398" lon="11.2783883"><ele>48.66666666666667</ele><time>2026-04-11T07:38:00.922Z</time></trkpt><trkpt lat="43.7639717" lon="11.27848"><ele>49.0</ele><time>2026-04-11T07:38:02.922Z</time></trkpt><trkpt lat="43.7639617" lon="11.2785967"><ele>49.333333333333336</ele><time>2026-04-11T07:38:05.922Z</time></trkpt><trkpt lat="43.7639617" lon="11.278725"><ele>49.66666666666667</ele><time>2026-04-11T07:38:08.922Z</time></trkpt><trkpt lat="43.7639483" lon="11.278845"><ele>50.0</ele><time>2026-04-11T07:38:11.922Z</time></trkpt><trkpt lat="43.7639533" lon="11.27896"><ele>50.00000000000001</ele><time>2026-04-11T07:38:14.922Z</time></trkpt><trkpt lat="43.76397" lon="11.2790767"><ele>50.0</ele><time>2026-04-11T07:38:17.922Z</time></trkpt><trkpt lat="43.7639667" lon="11.2791817"><ele>50.0</ele><time>2026-04-11T07:38:19.922Z</time></trkpt><trkpt lat="43.763955" lon="11.279285"><ele>50.0</ele><time>2026-04-11T07:38:21.922Z</time></trkpt><trkpt lat="43.76394" lon="11.2793883"><ele>50.00000000000001</ele><time>2026-04-11T07:38:23.922Z</time></trkpt><trkpt lat="43.7639267" lon="11.2795167"><ele>50.0</ele><time>2026-04-11T07:38:25.923Z</time></trkpt><trkpt lat="43.7639367" lon="11.2796517"><ele>49.833333333333336</ele><time>2026-04-11T07:38:27.922Z</time></trkpt><trkpt lat="43.763935" lon="11.2797767"><ele>49.66666666666667</ele><time>2026-04-11T07:38:29.922Z</time></trkpt><trkpt lat="43.7639267" lon="11.2798867"><ele>49.5</ele><time>2026-04-11T07:38:31.922Z</time></trkpt><trkpt lat="43.7639217" lon="11.279995"><ele>49.33333333333333</ele><time>2026-04-11T07:38:33.922Z</time></trkpt><trkpt lat="43.7639117" lon="11.280095"><ele>49.166666666666664</ele><time>2026-04-11T07:38:35.922Z</time></trkpt><trkpt lat="43.7638967" lon="11.2802267"><ele>49.0</ele><time>2026-04-11T07:38:38.922Z</time></trkpt><trkpt lat="43.7638717" lon="11.28035"><ele>48.99999999999999</ele><time>2026-04-11T07:38:40.923Z</time></trkpt><trkpt lat="43.76386" lon="11.28046"><ele>49.0</ele><time>2026-04-11T07:38:42.922Z</time></trkpt><trkpt lat="43.763875" lon="11.2805767"><ele>49.0</ele><time>2026-04-11T07:38:44.922Z</time></trkpt><trkpt lat="43.76389" lon="11.2806833"><ele>49.0</ele><time>2026-04-11T07:38:46.923Z</time></trkpt><trkpt lat="43.7639083" lon="11.2808017"><ele>48.99999999999999</ele><time>2026-04-11T07:38:48.922Z</time></trkpt><trkpt lat="43.7639383" lon="11.2809117"><ele>49.0</ele><time>2026-04-11T07:38:50.922Z</time></trkpt><trkpt lat="43.7639417" lon="11.281035"><ele>49.666666666666664</ele><time>2026-04-11T07:38:53.922Z</time></trkpt><trkpt lat="43.763965" lon="11.2811583"><ele>50.33333333333333</ele><time>2026-04-11T07:38:56.922Z</time></trkpt><trkpt lat="43.7640117" lon="11.2812333"><ele>51.0</ele><time>2026-04-11T07:38:58.922Z</time></trkpt><trkpt lat="43.764065" lon="11.2812983"><ele>51.66666666666667</ele><time>2026-04-11T07:39:00.922Z</time></trkpt><trkpt lat="43.76413" lon="11.2813883"><ele>52.333333333333336</ele><time>2026-04-11T07:39:03.923Z</time></trkpt><trkpt lat="43.7641833" lon="11.281465"><ele>53.0</ele><time>2026-04-11T07:39:06.922Z</time></trkpt><trkpt lat="43.7641983" lon="11.2815583"><ele>53.00000000000001</ele><time>2026-04-11T07:39:10.922Z</time></trkpt><trkpt lat="43.7641783" lon="11.2816533"><ele>53.0</ele><time>2026-04-11T07:39:14.922Z</time></trkpt><trkpt lat="43.7641867" lon="11.2817533"><ele>53.0</ele><time>2026-04-11T07:39:18.922Z</time></trkpt><trkpt lat="43.7641833" lon="11.281845"><ele>53.0</ele><time>2026-04-11T07:39:21.922Z</time></trkpt><trkpt lat="43.7640983" lon="11.2819183"><ele>53.00000000000001</ele><time>2026-04-11T07:39:24.923Z</time></trkpt><trkpt lat="43.7640267" lon="11.2819667"><ele>53.0</ele><time>2026-04-11T07:39:26.922Z</time></trkpt><trkpt lat="43.7639467" lon="11.2820133"><ele>53.00000000000001</ele><time>2026-04-11T07:39:28.923Z</time></trkpt><trkpt lat="43.7638883" lon="11.282055"><ele>53.0</ele><time>2026-04-11T07:39:30.922Z</time></trkpt><trkpt lat="43.7638267" lon="11.2821033"><ele>53.0</ele><time>2026-04-11T07:39:32.922Z</time></trkpt><trkpt lat="43.76374" lon="11.2821567"><ele>53.0</ele><time>2026-04-11T07:39:35.922Z</time></trkpt><trkpt lat="43.7636867" lon="11.28224"><ele>53.00000000000001</ele><time>2026-04-11T07:39:37.923Z</time></trkpt><trkpt lat="43.7636533" lon="11.2823267"><ele>53.0</ele><time>2026-04-11T07:39:39.923Z</time></trkpt><trkpt lat="43.7636533" lon="11.2824317"><ele>52.599999999999994</ele><time>2026-04-11T07:39:41.923Z</time></trkpt><trkpt lat="43.7636567" lon="11.282565"><ele>52.199999999999996</ele><time>2026-04-11T07:39:43.922Z</time></trkpt><trkpt lat="43.763655" lon="11.282705"><ele>51.8</ele><time>2026-04-11T07:39:45.923Z</time></trkpt><trkpt lat="43.76365" lon="11.28286"><ele>51.4</ele><time>2026-04-11T07:39:47.922Z</time></trkpt><trkpt lat="43.7636283" lon="11.2830067"><ele>51.0</ele><time>2026-04-11T07:39:49.923Z</time></trkpt><trkpt lat="43.7636067" lon="11.28314"><ele>51.0</ele><time>2026-04-11T07:39:51.922Z</time></trkpt><trkpt lat="43.763585" lon="11.2832683"><ele>51.0</ele><time>2026-04-11T07:39:53.922Z</time></trkpt><trkpt lat="43.76358" lon="11.2834117"><ele>51.0</ele><time>2026-04-11T07:39:55.922Z</time></trkpt><trkpt lat="43.7635833" lon="11.2835417"><ele>51.0</ele><time>2026-04-11T07:39:57.922Z</time></trkpt><trkpt lat="43.76358" lon="11.28368"><ele>51.0</ele><time>2026-04-11T07:39:59.922Z</time></trkpt><trkpt lat="43.763575" lon="11.2838067"><ele>51.0</ele><time>2026-04-11T07:40:01.922Z</time></trkpt><trkpt lat="43.7635633" lon="11.283925"><ele>51.0</ele><time>2026-04-11T07:40:03.922Z</time></trkpt><trkpt lat="43.7635383" lon="11.284055"><ele>51.0</ele><time>2026-04-11T07:40:05.922Z</time></trkpt><trkpt lat="43.7635217" lon="11.2841867"><ele>51.0</ele><time>2026-04-11T07:40:07.922Z</time></trkpt><trkpt lat="43.763515" lon="11.2843183"><ele>51.0</ele><time>2026-04-11T07:40:09.923Z</time></trkpt><trkpt lat="43.7635083" lon="11.2844433"><ele>51.0</ele><time>2026-04-11T07:40:11.923Z</time></trkpt><trkpt lat="43.7635033" lon="11.2845833"><ele>51.0</ele><time>2026-04-11T07:40:13.922Z</time></trkpt><trkpt lat="43.7634917" lon="11.284705"><ele>51.0</ele><time>2026-04-11T07:40:15.923Z</time></trkpt><trkpt lat="43.76348" lon="11.284805"><ele>51.0</ele><time>2026-04-11T07:40:17.923Z</time></trkpt><trkpt lat="43.76346" lon="11.2849183"><ele>51.0</ele><time>2026-04-11T07:40:19.923Z</time></trkpt><trkpt lat="43.76345" lon="11.2850517"><ele>51.0</ele><time>2026-04-11T07:40:21.922Z</time></trkpt><trkpt lat="43.7634467" lon="11.2851717"><ele>51.0</ele><time>2026-04-11T07:40:23.922Z</time></trkpt><trkpt lat="43.7634567" lon="11.2852933"><ele>51.0</ele><time>2026-04-11T07:40:25.923Z</time></trkpt><trkpt lat="43.76345" lon="11.2854217"><ele>51.0</ele><time>2026-04-11T07:40:27.922Z</time></trkpt><trkpt lat="43.76344" lon="11.2855417"><ele>51.0</ele><time>2026-04-11T07:40:29.923Z</time></trkpt><trkpt lat="43.7634317" lon="11.2856633"><ele>51.0</ele><time>2026-04-11T07:40:31.922Z</time></trkpt><trkpt lat="43.7634283" lon="11.2857783"><ele>51.0</ele><time>2026-04-11T07:40:33.923Z</time></trkpt><trkpt lat="43.7634217" lon="11.2858933"><ele>51.0</ele><time>2026-04-11T07:40:35.922Z</time></trkpt><trkpt lat="43.7634183" lon="11.2859833"><ele>51.0</ele><time>2026-04-11T07:40:37.922Z</time></trkpt><trkpt lat="43.7634033" lon="11.2860783"><ele>51.0</ele><time>2026-04-11T07:40:43.922Z</time></trkpt><trkpt lat="43.7633833" lon="11.2861783"><ele>51.0</ele><time>2026-04-11T07:40:56.923Z</time></trkpt><trkpt lat="43.7633683" lon="11.2863"><ele>51.0</ele><time>2026-04-11T07:41:00.922Z</time></trkpt><trkpt lat="43.76335" lon="11.2864267"><ele>51.0</ele><time>2026-04-11T07:41:03.922Z</time></trkpt><trkpt lat="43.763355" lon="11.28655"><ele>51.5</ele><time>2026-04-11T07:41:06.923Z</time></trkpt><trkpt lat="43.763345" lon="11.2866467"><ele>52.0</ele><time>2026-04-11T07:41:08.922Z</time></trkpt><trkpt lat="43.7633383" lon="11.2867483"><ele>52.5</ele><time>2026-04-11T07:41:10.923Z</time></trkpt><trkpt lat="43.7633383" lon="11.2868517"><ele>53.0</ele><time>2026-04-11T07:41:12.922Z</time></trkpt><trkpt lat="43.7633533" lon="11.286955"><ele>53.5</ele><time>2026-04-11T07:41:14.923Z</time></trkpt><trkpt lat="43.76336" lon="11.2870717"><ele>54.0</ele><time>2026-04-11T07:41:16.922Z</time></trkpt><trkpt lat="43.7633583" lon="11.2872133"><ele>53.833333333333336</ele><time>2026-04-11T07:41:18.922Z</time></trkpt><trkpt lat="43.7633433" lon="11.2873367"><ele>53.66666666666667</ele><time>2026-04-11T07:41:20.922Z</time></trkpt><trkpt lat="43.7633367" lon="11.2874683"><ele>53.5</ele><time>2026-04-11T07:41:22.922Z</time></trkpt><trkpt lat="43.76333" lon="11.28759"><ele>53.333333333333336</ele><time>2026-04-11T07:41:24.922Z</time></trkpt><trkpt lat="43.7633117" lon="11.2877033"><ele>53.16666666666667</ele><time>2026-04-11T07:41:26.922Z</time></trkpt><trkpt lat="43.7633183" lon="11.287795"><ele>53.0</ele><time>2026-04-11T07:41:28.922Z</time></trkpt><trkpt lat="43.7633183" lon="11.2879283"><ele>53.00000000000001</ele><time>2026-04-11T07:41:31.922Z</time></trkpt><trkpt lat="43.763305" lon="11.2880517"><ele>53.0</ele><time>2026-04-11T07:41:33.922Z</time></trkpt><trkpt lat="43.7632983" lon="11.2881733"><ele>53.0</ele><time>2026-04-11T07:41:35.922Z</time></trkpt><trkpt lat="43.76328" lon="11.28831"><ele>53.0</ele><time>2026-04-11T07:41:38.922Z</time></trkpt><trkpt lat="43.76328" lon="11.2884183"><ele>53.00000000000001</ele><time>2026-04-11T07:41:40.922Z</time></trkpt><trkpt lat="43.7632817" lon="11.2885433"><ele>53.0</ele><time>2026-04-11T07:41:42.923Z</time></trkpt><trkpt lat="43.7632717" lon="11.288665"><ele>52.66666666666667</ele><time>2026-04-11T07:41:44.922Z</time></trkpt><trkpt lat="43.7632517" lon="11.2887883"><ele>52.333333333333336</ele><time>2026-04-11T07:41:46.922Z</time></trkpt><trkpt lat="43.7632367" lon="11.288905"><ele>52.0</ele><time>2026-04-11T07:41:48.922Z</time></trkpt><trkpt lat="43.76322" lon="11.2890167"><ele>51.66666666666667</ele><time>2026-04-11T07:41:50.922Z</time></trkpt><trkpt lat="43.7632" lon="11.2891333"><ele>51.333333333333336</ele><time>2026-04-11T07:41:52.922Z</time></trkpt><trkpt lat="43.763185" lon="11.2892367"><ele>51.0</ele><time>2026-04-11T07:41:54.923Z</time></trkpt><trkpt lat="43.7631733" lon="11.289355"><ele>51.0</ele><time>2026-04-11T07:41:56.922Z</time></trkpt><trkpt lat="43.7631717" lon="11.289455"><ele>51.0</ele><time>2026-04-11T07:41:58.922Z</time></trkpt><trkpt lat="43.7631567" lon="11.2895633"><ele>51.0</ele><time>2026-04-11T07:42:00.922Z</time></trkpt><trkpt lat="43.76315" lon="11.289665"><ele>51.0</ele><time>2026-04-11T07:42:02.923Z</time></trkpt><trkpt lat="43.7631483" lon="11.2897767"><ele>51.0</ele><time>2026-04-11T07:42:04.922Z</time></trkpt><trkpt lat="43.7631517" lon="11.2898933"><ele>51.0</ele><time>2026-04-11T07:42:06.922Z</time></trkpt><trkpt lat="43.7631483" lon="11.29001"><ele>50.833333333333336</ele><time>2026-04-11T07:42:08.923Z</time></trkpt><trkpt lat="43.7631383" lon="11.29012"><ele>50.66666666666667</ele><time>2026-04-11T07:42:10.922Z</time></trkpt><trkpt lat="43.763135" lon="11.2902367"><ele>50.5</ele><time>2026-04-11T07:42:12.922Z</time></trkpt><trkpt lat="43.7631267" lon="11.2903567"><ele>50.333333333333336</ele><time>2026-04-11T07:42:14.922Z</time></trkpt><trkpt lat="43.76312" lon="11.2904767"><ele>50.16666666666667</ele><time>2026-04-11T07:42:16.923Z</time></trkpt><trkpt lat="43.7631067" lon="11.2905967"><ele>50.0</ele><time>2026-04-11T07:42:18.922Z</time></trkpt><trkpt lat="43.7631017" lon="11.29072"><ele>49.8</ele><time>2026-04-11T07:42:20.922Z</time></trkpt><trkpt lat="43.7630983" lon="11.290845"><ele>49.6</ele><time>2026-04-11T07:42:22.922Z</time></trkpt><trkpt lat="43.7630883" lon="11.2909683"><ele>49.400000000000006</ele><time>2026-04-11T07:42:24.922Z</time></trkpt><trkpt lat="43.7630767" lon="11.291095"><ele>49.2</ele><time>2026-04-11T07:42:26.922Z</time></trkpt><trkpt lat="43.76307" lon="11.291225"><ele>49.0</ele><time>2026-04-11T07:42:28.922Z</time></trkpt><trkpt lat="43.76306" lon="11.2913433"><ele>49.166666666666664</ele><time>2026-04-11T07:42:30.922Z</time></trkpt><trkpt lat="43.76305" lon="11.2914683"><ele>49.33333333333333</ele><time>2026-04-11T07:42:32.922Z</time></trkpt><trkpt lat="43.7630467" lon="11.2915817"><ele>49.5</ele><time>2026-04-11T07:42:34.922Z</time></trkpt><trkpt lat="43.763055" lon="11.291685"><ele>49.66666666666667</ele><time>2026-04-11T07:42:36.922Z</time></trkpt><trkpt lat="43.76305" lon="11.29181"><ele>49.833333333333336</ele><time>2026-04-11T07:42:38.922Z</time></trkpt><trkpt lat="43.76304" lon="11.291925"><ele>50.0</ele><time>2026-04-11T07:42:40.922Z</time></trkpt><trkpt lat="43.7630267" lon="11.2920433"><ele>50.00000000000001</ele><time>2026-04-11T07:42:42.922Z</time></trkpt><trkpt lat="43.763005" lon="11.292155"><ele>50.0</ele><time>2026-04-11T07:42:44.922Z</time></trkpt><trkpt lat="43.7629667" lon="11.2922667"><ele>50.0</ele><time>2026-04-11T07:42:46.922Z</time></trkpt><trkpt lat="43.7629467" lon="11.2923867"><ele>50.0</ele><time>2026-04-11T07:42:48.923Z</time></trkpt><trkpt lat="43.7629367" lon="11.2925067"><ele>50.00000000000001</ele><time>2026-04-11T07:42:50.922Z</time></trkpt><trkpt lat="43.7629383" lon="11.2926383"><ele>50.0</ele><time>2026-04-11T07:42:52.922Z</time></trkpt><trkpt lat="43.7629333" lon="11.2927533"><ele>50.333333333333336</ele><time>2026-04-11T07:42:54.922Z</time></trkpt><trkpt lat="43.7629283" lon="11.292865"><ele>50.66666666666667</ele><time>2026-04-11T07:42:56.922Z</time></trkpt><trkpt lat="43.7629233" lon="11.2929783"><ele>51.0</ele><time>2026-04-11T07:42:58.923Z</time></trkpt><trkpt lat="43.7629183" lon="11.2930883"><ele>51.33333333333333</ele><time>2026-04-11T07:43:00.922Z</time></trkpt><trkpt lat="43.7629117" lon="11.29318"><ele>51.666666666666664</ele><time>2026-04-11T07:43:02.923Z</time></trkpt><trkpt lat="43.762915" lon="11.2932817"><ele>52.0</ele><time>2026-04-11T07:43:04.923Z</time></trkpt><trkpt lat="43.7629033" lon="11.29338"><ele>51.99999999999999</ele><time>2026-04-11T07:43:06.922Z</time></trkpt><trkpt lat="43.7629033" lon="11.2934883"><ele>52.0</ele><time>2026-04-11T07:43:08.922Z</time></trkpt><trkpt lat="43.7629033" lon="11.293585"><ele>52.0</ele><time>2026-04-11T07:43:10.922Z</time></trkpt><trkpt lat="43.7628917" lon="11.2937"><ele>52.0</ele><time>2026-04-11T07:43:12.923Z</time></trkpt><trkpt lat="43.7628917" lon="11.2938167"><ele>51.99999999999999</ele><time>2026-04-11T07:43:14.922Z</time></trkpt><trkpt lat="43.7628917" lon="11.293945"><ele>52.0</ele><time>2026-04-11T07:43:16.922Z</time></trkpt><trkpt lat="43.7628783" lon="11.2940883"><ele>51.83333333333333</ele><time>2026-04-11T07:43:18.922Z</time></trkpt><trkpt lat="43.7628667" lon="11.2942117"><ele>51.666666666666664</ele><time>2026-04-11T07:43:20.922Z</time></trkpt><trkpt lat="43.7628567" lon="11.2943417"><ele>51.5</ele><time>2026-04-11T07:43:22.922Z</time></trkpt><trkpt lat="43.7628433" lon="11.29445"><ele>51.33333333333333</ele><time>2026-04-11T07:43:24.923Z</time></trkpt><trkpt lat="43.762835" lon="11.2945667"><ele>51.166666666666664</ele><time>2026-04-11T07:43:26.923Z</time></trkpt><trkpt lat="43.7628317" lon="11.2946867"><ele>51.0</ele><time>2026-04-11T07:43:28.922Z</time></trkpt><trkpt lat="43.7628267" lon="11.294805"><ele>51.0</ele><time>2026-04-11T07:43:30.922Z</time></trkpt><trkpt lat="43.7628233" lon="11.2949283"><ele>51.0</ele><time>2026-04-11T07:43:32.923Z</time></trkpt><trkpt lat="43.7628167" lon="11.29505"><ele>51.0</ele><time>2026-04-11T07:43:34.923Z</time></trkpt><trkpt lat="43.762805" lon="11.2951717"><ele>51.0</ele><time>2026-04-11T07:43:36.922Z</time></trkpt><trkpt lat="43.7628" lon="11.2952967"><ele>51.0</ele><time>2026-04-11T07:43:38.922Z</time></trkpt><trkpt lat="43.76279" lon="11.29543"><ele>51.0</ele><time>2026-04-11T07:43:40.922Z</time></trkpt><trkpt lat="43.762775" lon="11.2955517"><ele>51.0</ele><time>2026-04-11T07:43:42.922Z</time></trkpt><trkpt lat="43.7627667" lon="11.2956683"><ele>51.0</ele><time>2026-04-11T07:43:44.922Z</time></trkpt><trkpt lat="43.7627617" lon="11.2957783"><ele>51.0</ele><time>2026-04-11T07:43:46.922Z</time></trkpt><trkpt lat="43.7627533" lon="11.2958933"><ele>51.0</ele><time>2026-04-11T07:43:48.922Z</time></trkpt><trkpt lat="43.7627467" lon="11.2960117"><ele>51.0</ele><time>2026-04-11T07:43:50.922Z</time></trkpt><trkpt lat="43.76274" lon="11.2961167"><ele>51.285714285714285</ele><time>2026-04-11T07:43:52.922Z</time></trkpt><trkpt lat="43.762735" lon="11.2962167"><ele>51.57142857142857</ele><time>2026-04-11T07:43:54.923Z</time></trkpt><trkpt lat="43.76273" lon="11.29632"><ele>51.85714285714286</ele><time>2026-04-11T07:43:57.922Z</time></trkpt><trkpt lat="43.7627133" lon="11.2964067"><ele>52.14285714285714</ele><time>2026-04-11T07:44:06.922Z</time></trkpt><trkpt lat="43.7626433" lon="11.2964167"><ele>52.42857142857142</ele><time>2026-04-11T07:44:14.922Z</time></trkpt><trkpt lat="43.7626317" lon="11.2965033"><ele>52.714285714285715</ele><time>2026-04-11T07:44:18.922Z</time></trkpt><trkpt lat="43.7626217" lon="11.2966017"><ele>53.0</ele><time>2026-04-11T07:44:20.922Z</time></trkpt><trkpt lat="43.762615" lon="11.29671"><ele>53.16666666666667</ele><time>2026-04-11T07:44:22.922Z</time></trkpt><trkpt lat="43.7626117" lon="11.2968317"><ele>53.333333333333336</ele><time>2026-04-11T07:44:24.922Z</time></trkpt><trkpt lat="43.7626017" lon="11.29697"><ele>53.5</ele><time>2026-04-11T07:44:26.922Z</time></trkpt><trkpt lat="43.7626" lon="11.2970867"><ele>53.66666666666667</ele><time>2026-04-11T07:44:28.922Z</time></trkpt><trkpt lat="43.7625883" lon="11.2971983"><ele>53.833333333333336</ele><time>2026-04-11T07:44:30.922Z</time></trkpt><trkpt lat="43.7625833" lon="11.2973167"><ele>54.0</ele><time>2026-04-11T07:44:32.922Z</time></trkpt><trkpt lat="43.7625717" lon="11.29743"><ele>54.0</ele><time>2026-04-11T07:44:34.923Z</time></trkpt><trkpt lat="43.7625583" lon="11.2975367"><ele>54.0</ele><time>2026-04-11T07:44:36.922Z</time></trkpt><trkpt lat="43.762545" lon="11.2976533"><ele>54.0</ele><time>2026-04-11T07:44:38.922Z</time></trkpt><trkpt lat="43.76254" lon="11.2977733"><ele>54.0</ele><time>2026-04-11T07:44:40.922Z</time></trkpt><trkpt lat="43.76252" lon="11.29789"><ele>54.0</ele><time>2026-04-11T07:44:42.923Z</time></trkpt><trkpt lat="43.7625067" lon="11.2980033"><ele>54.0</ele><time>2026-04-11T07:44:44.922Z</time></trkpt><trkpt lat="43.762505" lon="11.2981217"><ele>53.666666666666664</ele><time>2026-04-11T07:44:46.923Z</time></trkpt><trkpt lat="43.7624967" lon="11.29822"><ele>53.33333333333333</ele><time>2026-04-11T07:44:48.922Z</time></trkpt><trkpt lat="43.7624817" lon="11.2983283"><ele>53.0</ele><time>2026-04-11T07:44:50.922Z</time></trkpt><trkpt lat="43.762465" lon="11.29844"><ele>52.666666666666664</ele><time>2026-04-11T07:44:52.922Z</time></trkpt><trkpt lat="43.762455" lon="11.2985467"><ele>52.33333333333333</ele><time>2026-04-11T07:44:54.922Z</time></trkpt><trkpt lat="43.762455" lon="11.2986717"><ele>52.0</ele><time>2026-04-11T07:44:56.923Z</time></trkpt><trkpt lat="43.7624433" lon="11.29877"><ele>51.99999999999999</ele><time>2026-04-11T07:44:58.922Z</time></trkpt><trkpt lat="43.76243" lon="11.2988767"><ele>52.0</ele><time>2026-04-11T07:45:00.922Z</time></trkpt><trkpt lat="43.7624417" lon="11.2990133"><ele>52.0</ele><time>2026-04-11T07:45:02.922Z</time></trkpt><trkpt lat="43.76244" lon="11.299115"><ele>52.0</ele><time>2026-04-11T07:45:04.923Z</time></trkpt><trkpt lat="43.7624367" lon="11.2992217"><ele>51.99999999999999</ele><time>2026-04-11T07:45:07.922Z</time></trkpt><trkpt lat="43.7624267" lon="11.2993117"><ele>52.0</ele><time>2026-04-11T07:45:12.922Z</time></trkpt><trkpt lat="43.76242" lon="11.2994033"><ele>52.166666666666664</ele><time>2026-04-11T07:45:15.922Z</time></trkpt><trkpt lat="43.7624183" lon="11.2995017"><ele>52.33333333333333</ele><time>2026-04-11T07:45:17.922Z</time></trkpt><trkpt lat="43.7624083" lon="11.29961"><ele>52.5</ele><time>2026-04-11T07:45:19.922Z</time></trkpt><trkpt lat="43.7624017" lon="11.2997267"><ele>52.66666666666667</ele><time>2026-04-11T07:45:21.922Z</time></trkpt><trkpt lat="43.7623967" lon="11.29982"><ele>52.833333333333336</ele><time>2026-04-11T07:45:23.922Z</time></trkpt><trkpt lat="43.76239" lon="11.2999183"><ele>53.0</ele><time>2026-04-11T07:45:25.923Z</time></trkpt><trkpt lat="43.7623833" lon="11.300025"><ele>53.0</ele><time>2026-04-11T07:45:27.922Z</time></trkpt><trkpt lat="43.76237" lon="11.3001433"><ele>53.0</ele><time>2026-04-11T07:45:29.923Z</time></trkpt><trkpt lat="43.7623583" lon="11.300265"><ele>53.0</ele><time>2026-04-11T07:45:31.923Z</time></trkpt><trkpt lat="43.76235" lon="11.3003967"><ele>53.0</ele><time>2026-04-11T07:45:33.922Z</time></trkpt><trkpt lat="43.7623433" lon="11.30053"><ele>53.0</ele><time>2026-04-11T07:45:35.922Z</time></trkpt><trkpt lat="43.7623433" lon="11.3006517"><ele>52.833333333333336</ele><time>2026-04-11T07:45:37.923Z</time></trkpt><trkpt lat="43.76234" lon="11.3007467"><ele>52.66666666666667</ele><time>2026-04-11T07:45:39.922Z</time></trkpt><trkpt lat="43.7623467" lon="11.3008483"><ele>52.5</ele><time>2026-04-11T07:45:41.923Z</time></trkpt><trkpt lat="43.76234" lon="11.3009633"><ele>52.33333333333333</ele><time>2026-04-11T07:45:43.923Z</time></trkpt><trkpt lat="43.76233" lon="11.301075"><ele>52.166666666666664</ele><time>2026-04-11T07:45:45.922Z</time></trkpt><trkpt lat="43.7623267" lon="11.30118"><ele>52.0</ele><time>2026-04-11T07:45:47.922Z</time></trkpt><trkpt lat="43.7623217" lon="11.3012817"><ele>51.99999999999999</ele><time>2026-04-11T07:45:49.922Z</time></trkpt><trkpt lat="43.7623167" lon="11.3013917"><ele>52.0</ele><time>2026-04-11T07:45:51.922Z</time></trkpt><trkpt lat="43.7623117" lon="11.3014917"><ele>52.0</ele><time>2026-04-11T07:45:53.922Z</time></trkpt><trkpt lat="43.7623117" lon="11.3016217"><ele>52.0</ele><time>2026-04-11T07:45:56.922Z</time></trkpt><trkpt lat="43.7623067" lon="11.30173"><ele>51.99999999999999</ele><time>2026-04-11T07:45:58.923Z</time></trkpt><trkpt lat="43.7622883" lon="11.3018633"><ele>52.0</ele><time>2026-04-11T07:46:00.923Z</time></trkpt><trkpt lat="43.76228" lon="11.3019767"><ele>51.99999999999999</ele><time>2026-04-11T07:46:02.922Z</time></trkpt><trkpt lat="43.76227" lon="11.302085"><ele>52.0</ele><time>2026-04-11T07:46:04.922Z</time></trkpt><trkpt lat="43.762245" lon="11.3021833"><ele>52.0</ele><time>2026-04-11T07:46:06.922Z</time></trkpt><trkpt lat="43.7622267" lon="11.3022867"><ele>52.0</ele><time>2026-04-11T07:46:08.922Z</time></trkpt><trkpt lat="43.7622133" lon="11.3023983"><ele>51.99999999999999</ele><time>2026-04-11T07:46:10.922Z</time></trkpt><trkpt lat="43.76219" lon="11.3024967"><ele>52.0</ele><time>2026-04-11T07:46:12.922Z</time></trkpt><trkpt lat="43.762145" lon="11.3026117"><ele>51.99999999999999</ele><time>2026-04-11T07:46:14.923Z</time></trkpt><trkpt lat="43.7621017" lon="11.302695"><ele>52.0</ele><time>2026-04-11T07:46:16.923Z</time></trkpt><trkpt lat="43.76203" lon="11.30282"><ele>52.0</ele><time>2026-04-11T07:46:19.922Z</time></trkpt><trkpt lat="43.7619833" lon="11.302895"><ele>52.0</ele><time>2026-04-11T07:46:21.922Z</time></trkpt><trkpt lat="43.7619633" lon="11.3029883"><ele>51.99999999999999</ele><time>2026-04-11T07:46:23.922Z</time></trkpt><trkpt lat="43.76196" lon="11.3030933"><ele>52.0</ele><time>2026-04-11T07:46:25.923Z</time></trkpt><trkpt lat="43.7619333" lon="11.303205"><ele>52.166666666666664</ele><time>2026-04-11T07:46:27.922Z</time></trkpt><trkpt lat="43.7618883" lon="11.3033067"><ele>52.33333333333333</ele><time>2026-04-11T07:46:29.923Z</time></trkpt><trkpt lat="43.7618533" lon="11.3034033"><ele>52.5</ele><time>2026-04-11T07:46:31.923Z</time></trkpt><trkpt lat="43.76181" lon="11.3034967"><ele>52.66666666666667</ele><time>2026-04-11T07:46:33.923Z</time></trkpt><trkpt lat="43.7617817" lon="11.3035883"><ele>52.833333333333336</ele><time>2026-04-11T07:46:35.922Z</time></trkpt><trkpt lat="43.7617433" lon="11.3036767"><ele>53.0</ele><time>2026-04-11T07:46:37.922Z</time></trkpt><trkpt lat="43.7617233" lon="11.30377"><ele>53.16666666666667</ele><time>2026-04-11T07:46:39.922Z</time></trkpt><trkpt lat="43.7617033" lon="11.3038817"><ele>53.333333333333336</ele><time>2026-04-11T07:46:41.923Z</time></trkpt><trkpt lat="43.761695" lon="11.3039917"><ele>53.5</ele><time>2026-04-11T07:46:43.922Z</time></trkpt><trkpt lat="43.7616833" lon="11.3040933"><ele>53.66666666666667</ele><time>2026-04-11T07:46:45.922Z</time></trkpt><trkpt lat="43.7616717" lon="11.3041983"><ele>53.833333333333336</ele><time>2026-04-11T07:46:47.922Z</time></trkpt><trkpt lat="43.7616633" lon="11.3043267"><ele>54.0</ele><time>2026-04-11T07:46:49.923Z</time></trkpt><trkpt lat="43.7616517" lon="11.3044467"><ele>54.0</ele><time>2026-04-11T07:46:51.922Z</time></trkpt><trkpt lat="43.761645" lon="11.3045783"><ele>54.00000000000001</ele><time>2026-04-11T07:46:53.923Z</time></trkpt><trkpt lat="43.7616433" lon="11.304705"><ele>54.00000000000001</ele><time>2026-04-11T07:46:55.922Z</time></trkpt><trkpt lat="43.7616467" lon="11.304855"><ele>54.0</ele><time>2026-04-11T07:46:57.922Z</time></trkpt><trkpt lat="43.7616333" lon="11.30499"><ele>54.0</ele><time>2026-04-11T07:46:59.922Z</time></trkpt><trkpt lat="43.7616467" lon="11.3051317"><ele>53.5</ele><time>2026-04-11T07:47:01.922Z</time></trkpt><trkpt lat="43.7616583" lon="11.3052617"><ele>53.0</ele><time>2026-04-11T07:47:03.923Z</time></trkpt><trkpt lat="43.7616733" lon="11.3053917"><ele>52.5</ele><time>2026-04-11T07:47:05.922Z</time></trkpt><trkpt lat="43.7616817" lon="11.3055067"><ele>52.0</ele><time>2026-04-11T07:47:07.922Z</time></trkpt><trkpt lat="43.7616817" lon="11.3056233"><ele>51.5</ele><time>2026-04-11T07:47:09.922Z</time></trkpt><trkpt lat="43.7616717" lon="11.305745"><ele>51.0</ele><time>2026-04-11T07:47:11.922Z</time></trkpt><trkpt lat="43.7616633" lon="11.3058833"><ele>51.0</ele><time>2026-04-11T07:47:13.922Z</time></trkpt><trkpt lat="43.7616517" lon="11.305985"><ele>51.0</ele><time>2026-04-11T07:47:15.922Z</time></trkpt><trkpt lat="43.7616467" lon="11.3060967"><ele>51.0</ele><time>2026-04-11T07:47:17.922Z</time></trkpt><trkpt lat="43.7616233" lon="11.306205"><ele>51.0</ele><time>2026-04-11T07:47:19.922Z</time></trkpt><trkpt lat="43.7616017" lon="11.3063"><ele>51.0</ele><time>2026-04-11T07:47:21.923Z</time></trkpt><trkpt lat="43.7615967" lon="11.3064317"><ele>51.0</ele><time>2026-04-11T07:47:23.922Z</time></trkpt><trkpt lat="43.76159" lon="11.3065483"><ele>51.333333333333336</ele><time>2026-04-11T07:47:25.923Z</time></trkpt><trkpt lat="43.7615883" lon="11.3066567"><ele>51.66666666666667</ele><time>2026-04-11T07:47:27.923Z</time></trkpt><trkpt lat="43.7615883" lon="11.306755"><ele>52.0</ele><time>2026-04-11T07:47:29.922Z</time></trkpt><trkpt lat="43.7615883" lon="11.3068667"><ele>52.333333333333336</ele><time>2026-04-11T07:47:31.922Z</time></trkpt><trkpt lat="43.7615933" lon="11.3069767"><ele>52.66666666666667</ele><time>2026-04-11T07:47:33.922Z</time></trkpt><trkpt lat="43.7615917" lon="11.3070967"><ele>53.0</ele><time>2026-04-11T07:47:35.922Z</time></trkpt><trkpt lat="43.7615833" lon="11.3072233"><ele>53.2</ele><time>2026-04-11T07:47:37.922Z</time></trkpt><trkpt lat="43.7615767" lon="11.3073467"><ele>53.4</ele><time>2026-04-11T07:47:39.922Z</time></trkpt><trkpt lat="43.7615733" lon="11.3074767"><ele>53.60000000000001</ele><time>2026-04-11T07:47:41.923Z</time></trkpt><trkpt lat="43.761565" lon="11.3076033"><ele>53.800000000000004</ele><time>2026-04-11T07:47:43.922Z</time></trkpt><trkpt lat="43.76156" lon="11.3077233"><ele>54.0</ele><time>2026-04-11T07:47:45.922Z</time></trkpt><trkpt lat="43.761565" lon="11.307845"><ele>54.0</ele><time>2026-04-11T07:47:47.922Z</time></trkpt><trkpt lat="43.7615733" lon="11.3079667"><ele>54.0</ele><time>2026-04-11T07:47:49.923Z</time></trkpt><trkpt lat="43.7615733" lon="11.3080783"><ele>54.0</ele><time>2026-04-11T07:47:51.922Z</time></trkpt><trkpt lat="43.76157" lon="11.3081983"><ele>54.0</ele><time>2026-04-11T07:47:53.923Z</time></trkpt><trkpt lat="43.76158" lon="11.308315"><ele>54.0</ele><time>2026-04-11T07:47:55.922Z</time></trkpt><trkpt lat="43.7615917" lon="11.3084267"><ele>54.0</ele><time>2026-04-11T07:47:57.922Z</time></trkpt><trkpt lat="43.7616017" lon="11.3085467"><ele>54.0</ele><time>2026-04-11T07:47:59.922Z</time></trkpt><trkpt lat="43.76161" lon="11.30866"><ele>54.00000000000001</ele><time>2026-04-11T07:48:01.922Z</time></trkpt><trkpt lat="43.761605" lon="11.308785"><ele>54.00000000000001</ele><time>2026-04-11T07:48:03.923Z</time></trkpt><trkpt lat="43.76159" lon="11.3089083"><ele>54.0</ele><time>2026-04-11T07:48:05.922Z</time></trkpt><trkpt lat="43.7615867" lon="11.3090467"><ele>54.0</ele><time>2026-04-11T07:48:07.923Z</time></trkpt><trkpt lat="43.7615833" lon="11.30917"><ele>54.0</ele><time>2026-04-11T07:48:09.923Z</time></trkpt><trkpt lat="43.76158" lon="11.3092717"><ele>54.0</ele><time>2026-04-11T07:48:11.922Z</time></trkpt><trkpt lat="43.7615817" lon="11.309365"><ele>54.0</ele><time>2026-04-11T07:48:13.923Z</time></trkpt><trkpt lat="43.7615967" lon="11.3094833"><ele>54.0</ele><time>2026-04-11T07:48:15.922Z</time></trkpt><trkpt lat="43.7616117" lon="11.3096117"><ele>54.0</ele><time>2026-04-11T07:48:17.922Z</time></trkpt><trkpt lat="43.7616417" lon="11.3097483"><ele>54.0</ele><time>2026-04-11T07:48:19.922Z</time></trkpt><trkpt lat="43.7616533" lon="11.3098717"><ele>54.0</ele><time>2026-04-11T07:48:21.923Z</time></trkpt><trkpt lat="43.7616567" lon="11.3100067"><ele>54.0</ele><time>2026-04-11T07:48:23.922Z</time></trkpt><trkpt lat="43.761655" lon="11.3101267"><ele>54.0</ele><time>2026-04-11T07:48:25.922Z</time></trkpt><trkpt lat="43.7616567" lon="11.3102433"><ele>54.0</ele><time>2026-04-11T07:48:27.923Z</time></trkpt><trkpt lat="43.76166" lon="11.3103333"><ele>54.0</ele><time>2026-04-11T07:48:29.923Z</time></trkpt><trkpt lat="43.76169" lon="11.3104383"><ele>54.0</ele><time>2026-04-11T07:48:31.923Z</time></trkpt><trkpt lat="43.7616817" lon="11.3105517"><ele>54.333333333333336</ele><time>2026-04-11T07:48:33.922Z</time></trkpt><trkpt lat="43.761675" lon="11.3106583"><ele>54.66666666666667</ele><time>2026-04-11T07:48:35.922Z</time></trkpt><trkpt lat="43.7616633" lon="11.31076"><ele>55.0</ele><time>2026-04-11T07:48:37.922Z</time></trkpt><trkpt lat="43.761655" lon="11.3108617"><ele>55.333333333333336</ele><time>2026-04-11T07:48:39.922Z</time></trkpt><trkpt lat="43.76166" lon="11.3109867"><ele>55.66666666666667</ele><time>2026-04-11T07:48:42.922Z</time></trkpt><trkpt lat="43.7616733" lon="11.3110983"><ele>56.0</ele><time>2026-04-11T07:48:45.922Z</time></trkpt><trkpt lat="43.7617133" lon="11.3111767"><ele>56.00000000000001</ele><time>2026-04-11T07:48:53.922Z</time></trkpt><trkpt lat="43.7617783" lon="11.311265"><ele>56.0</ele><time>2026-04-11T07:48:57.922Z</time></trkpt><trkpt lat="43.7618083" lon="11.3113517"><ele>56.0</ele><time>2026-04-11T07:48:59.923Z</time></trkpt><trkpt lat="43.76183" lon="11.31145"><ele>56.0</ele><time>2026-04-11T07:49:01.923Z</time></trkpt><trkpt lat="43.7618333" lon="11.3115633"><ele>56.00000000000001</ele><time>2026-04-11T07:49:03.922Z</time></trkpt><trkpt lat="43.7618433" lon="11.3116817"><ele>56.0</ele><time>2026-04-11T07:49:05.922Z</time></trkpt><trkpt lat="43.7618217" lon="11.3117783"><ele>55.833333333333336</ele><time>2026-04-11T07:49:07.923Z</time></trkpt><trkpt lat="43.76183" lon="11.311865"><ele>55.66666666666667</ele><time>2026-04-11T07:49:08.922Z</time></trkpt><trkpt lat="43.7618317" lon="11.3120017"><ele>55.5</ele><time>2026-04-11T07:49:10.922Z</time></trkpt><trkpt lat="43.7618233" lon="11.31213"><ele>55.33333333333333</ele><time>2026-04-11T07:49:12.922Z</time></trkpt><trkpt lat="43.7618167" lon="11.31226"><ele>55.166666666666664</ele><time>2026-04-11T07:49:14.923Z</time></trkpt><trkpt lat="43.7617733" lon="11.3123617"><ele>55.0</ele><time>2026-04-11T07:49:16.923Z</time></trkpt><trkpt lat="43.7617133" lon="11.3124233"><ele>54.49999999999999</ele><time>2026-04-11T07:49:18.922Z</time></trkpt><trkpt lat="43.7616567" lon="11.3124767"><ele>54.0</ele><time>2026-04-11T07:49:20.922Z</time></trkpt><trkpt lat="43.7615967" lon="11.3125583"><ele>53.5</ele><time>2026-04-11T07:49:23.922Z</time></trkpt><trkpt lat="43.7615367" lon="11.3126617"><ele>53.0</ele><time>2026-04-11T07:49:26.922Z</time></trkpt><trkpt lat="43.7614683" lon="11.31276"><ele>52.49999999999999</ele><time>2026-04-11T07:49:29.922Z</time></trkpt><trkpt lat="43.7614117" lon="11.31284"><ele>52.0</ele><time>2026-04-11T07:49:31.923Z</time></trkpt><trkpt lat="43.7613583" lon="11.3129167"><ele>51.99999999999999</ele><time>2026-04-11T07:49:33.922Z</time></trkpt><trkpt lat="43.7613033" lon="11.312995"><ele>52.0</ele><time>2026-04-11T07:49:35.923Z</time></trkpt><trkpt lat="43.76124" lon="11.3130833"><ele>52.0</ele><time>2026-04-11T07:49:37.922Z</time></trkpt><trkpt lat="43.7611733" lon="11.3131533"><ele>52.0</ele><time>2026-04-11T07:49:39.922Z</time></trkpt><trkpt lat="43.7611133" lon="11.31322"><ele>51.99999999999999</ele><time>2026-04-11T07:49:41.922Z</time></trkpt><trkpt lat="43.7610517" lon="11.3132867"><ele>52.0</ele><time>2026-04-11T07:49:43.922Z</time></trkpt><trkpt lat="43.76099" lon="11.3133583"><ele>52.285714285714285</ele><time>2026-04-11T07:49:45.922Z</time></trkpt><trkpt lat="43.7609383" lon="11.31342"><ele>52.57142857142858</ele><time>2026-04-11T07:49:47.922Z</time></trkpt><trkpt lat="43.7608833" lon="11.3134817"><ele>52.85714285714286</ele><time>2026-04-11T07:49:49.923Z</time></trkpt><trkpt lat="43.7608233" lon="11.3135333"><ele>53.14285714285714</ele><time>2026-04-11T07:49:51.922Z</time></trkpt><trkpt lat="43.760765" lon="11.3135817"><ele>53.42857142857143</ele><time>2026-04-11T07:49:53.922Z</time></trkpt><trkpt lat="43.7607067" lon="11.3136417"><ele>53.714285714285715</ele><time>2026-04-11T07:49:55.922Z</time></trkpt><trkpt lat="43.760645" lon="11.3137083"><ele>54.0</ele><time>2026-04-11T07:49:57.922Z</time></trkpt><trkpt lat="43.760575" lon="11.31379"><ele>54.0</ele><time>2026-04-11T07:49:59.922Z</time></trkpt><trkpt lat="43.760505" lon="11.3138517"><ele>54.00000000000001</ele><time>2026-04-11T07:50:01.922Z</time></trkpt><trkpt lat="43.760425" lon="11.3139467"><ele>54.00000000000001</ele><time>2026-04-11T07:50:03.922Z</time></trkpt><trkpt lat="43.7603567" lon="11.3140167"><ele>54.0</ele><time>2026-04-11T07:50:05.922Z</time></trkpt><trkpt lat="43.7602817" lon="11.3141"><ele>54.0</ele><time>2026-04-11T07:50:07.922Z</time></trkpt><trkpt lat="43.7602117" lon="11.3141833"><ele>54.666666666666664</ele><time>2026-04-11T07:50:09.923Z</time></trkpt><trkpt lat="43.7601583" lon="11.314245"><ele>55.33333333333333</ele><time>2026-04-11T07:50:11.922Z</time></trkpt><trkpt lat="43.7601033" lon="11.3143"><ele>56.0</ele><time>2026-04-11T07:50:13.922Z</time></trkpt><trkpt lat="43.76002" lon="11.3143517"><ele>56.666666666666664</ele><time>2026-04-11T07:50:16.922Z</time></trkpt><trkpt lat="43.75994" lon="11.3144083"><ele>57.33333333333333</ele><time>2026-04-11T07:50:18.922Z</time></trkpt><trkpt lat="43.7598717" lon="11.3144433"><ele>58.0</ele><time>2026-04-11T07:50:20.922Z</time></trkpt><trkpt lat="43.75979" lon="11.3144867"><ele>57.99999999999999</ele><time>2026-04-11T07:50:22.923Z</time></trkpt><trkpt lat="43.759725" lon="11.3145333"><ele>58.0</ele><time>2026-04-11T07:50:24.922Z</time></trkpt><trkpt lat="43.75965" lon="11.3146017"><ele>58.0</ele><time>2026-04-11T07:50:27.922Z</time></trkpt><trkpt lat="43.75961" lon="11.31469"><ele>58.0</ele><time>2026-04-11T07:50:30.923Z</time></trkpt><trkpt lat="43.7595483" lon="11.31477"><ele>57.99999999999999</ele><time>2026-04-11T07:50:33.922Z</time></trkpt><trkpt lat="43.7595017" lon="11.3148633"><ele>58.0</ele><time>2026-04-11T07:50:36.922Z</time></trkpt><trkpt lat="43.75948" lon="11.3149533"><ele>57.99999999999999</ele><time>2026-04-11T07:50:38.922Z</time></trkpt><trkpt lat="43.7594567" lon="11.3150617"><ele>58.0</ele><time>2026-04-11T07:50:41.922Z</time></trkpt><trkpt lat="43.7594283" lon="11.3151733"><ele>58.0</ele><time>2026-04-11T07:50:44.922Z</time></trkpt><trkpt lat="43.7594067" lon="11.31527"><ele>58.0</ele><time>2026-04-11T07:50:46.922Z</time></trkpt><trkpt lat="43.7593917" lon="11.3153717"><ele>57.99999999999999</ele><time>2026-04-11T07:50:48.922Z</time></trkpt><trkpt lat="43.7593733" lon="11.3154733"><ele>58.0</ele><time>2026-04-11T07:50:50.923Z</time></trkpt><trkpt lat="43.7593617" lon="11.31557"><ele>58.33333333333333</ele><time>2026-04-11T07:50:52.922Z</time></trkpt><trkpt lat="43.75935" lon="11.3156783"><ele>58.666666666666664</ele><time>2026-04-11T07:50:54.922Z</time></trkpt><trkpt lat="43.759345" lon="11.3158"><ele>59.0</ele><time>2026-04-11T07:50:56.922Z</time></trkpt><trkpt lat="43.7593333" lon="11.3159233"><ele>59.33333333333333</ele><time>2026-04-11T07:50:58.923Z</time></trkpt><trkpt lat="43.7593333" lon="11.3160517"><ele>59.666666666666664</ele><time>2026-04-11T07:51:00.923Z</time></trkpt><trkpt lat="43.7593283" lon="11.31618"><ele>60.0</ele><time>2026-04-11T07:51:02.922Z</time></trkpt><trkpt lat="43.7593533" lon="11.3163383"><ele>60.2</ele><time>2026-04-11T07:51:04.923Z</time></trkpt><trkpt lat="43.759385" lon="11.316505"><ele>60.4</ele><time>2026-04-11T07:51:06.923Z</time></trkpt><trkpt lat="43.7593967" lon="11.3166417"><ele>60.599999999999994</ele><time>2026-04-11T07:51:08.922Z</time></trkpt><trkpt lat="43.7594033" lon="11.31676"><ele>60.8</ele><time>2026-04-11T07:51:10.922Z</time></trkpt><trkpt lat="43.7594067" lon="11.316875"><ele>61.0</ele><time>2026-04-11T07:51:12.922Z</time></trkpt><trkpt lat="43.7594083" lon="11.31697"><ele>61.0</ele><time>2026-04-11T07:51:14.922Z</time></trkpt><trkpt lat="43.7594167" lon="11.317095"><ele>60.99999999999999</ele><time>2026-04-11T07:51:17.922Z</time></trkpt><trkpt lat="43.759435" lon="11.3172167"><ele>60.99999999999999</ele><time>2026-04-11T07:51:19.922Z</time></trkpt><trkpt lat="43.759405" lon="11.3173367"><ele>61.0</ele><time>2026-04-11T07:51:21.922Z</time></trkpt><trkpt lat="43.759345" lon="11.3174567"><ele>61.0</ele><time>2026-04-11T07:51:23.922Z</time></trkpt><trkpt lat="43.7592867" lon="11.3175467"><ele>61.666666666666664</ele><time>2026-04-11T07:51:25.922Z</time></trkpt><trkpt lat="43.759225" lon="11.3175983"><ele>62.33333333333333</ele><time>2026-04-11T07:51:27.922Z</time></trkpt><trkpt lat="43.7591483" lon="11.3176367"><ele>63.0</ele><time>2026-04-11T07:51:29.922Z</time></trkpt><trkpt lat="43.7590617" lon="11.317675"><ele>63.66666666666667</ele><time>2026-04-11T07:51:31.922Z</time></trkpt><trkpt lat="43.7589617" lon="11.31772"><ele>64.33333333333334</ele><time>2026-04-11T07:51:33.922Z</time></trkpt><trkpt lat="43.7588683" lon="11.3177433"><ele>65.0</ele><time>2026-04-11T07:51:35.922Z</time></trkpt><trkpt lat="43.7587883" lon="11.3177783"><ele>65.0</ele><time>2026-04-11T07:51:37.923Z</time></trkpt><trkpt lat="43.75873" lon="11.3178433"><ele>65.0</ele><time>2026-04-11T07:51:39.922Z</time></trkpt><trkpt lat="43.7587133" lon="11.3179567"><ele>65.0</ele><time>2026-04-11T07:51:41.922Z</time></trkpt><trkpt lat="43.7587333" lon="11.318065"><ele>65.0</ele><time>2026-04-11T07:51:43.922Z</time></trkpt><trkpt lat="43.7587583" lon="11.3181667"><ele>65.0</ele><time>2026-04-11T07:51:45.922Z</time></trkpt><trkpt lat="43.7587867" lon="11.3182633"><ele>65.0</ele><time>2026-04-11T07:51:47.922Z</time></trkpt><trkpt lat="43.7588133" lon="11.31837"><ele>65.16666666666667</ele><time>2026-04-11T07:51:49.922Z</time></trkpt><trkpt lat="43.758855" lon="11.3184833"><ele>65.33333333333334</ele><time>2026-04-11T07:51:51.922Z</time></trkpt><trkpt lat="43.7588983" lon="11.3185967"><ele>65.5</ele><time>2026-04-11T07:51:53.923Z</time></trkpt><trkpt lat="43.7589467" lon="11.318695"><ele>65.66666666666667</ele><time>2026-04-11T07:51:55.922Z</time></trkpt><trkpt lat="43.758995" lon="11.3188"><ele>65.83333333333333</ele><time>2026-04-11T07:51:57.922Z</time></trkpt><trkpt lat="43.7590383" lon="11.3188917"><ele>66.0</ele><time>2026-04-11T07:51:59.922Z</time></trkpt><trkpt lat="43.75909" lon="11.318995"><ele>65.39999999999999</ele><time>2026-04-11T07:52:01.922Z</time></trkpt><trkpt lat="43.7591517" lon="11.3190767"><ele>64.8</ele><time>2026-04-11T07:52:03.922Z</time></trkpt><trkpt lat="43.7592117" lon="11.3191583"><ele>64.19999999999999</ele><time>2026-04-11T07:52:05.922Z</time></trkpt><trkpt lat="43.7592867" lon="11.31925"><ele>63.599999999999994</ele><time>2026-04-11T07:52:07.923Z</time></trkpt><trkpt lat="43.759375" lon="11.3193367"><ele>63.0</ele><time>2026-04-11T07:52:09.922Z</time></trkpt><trkpt lat="43.7594683" lon="11.3194117"><ele>62.8</ele><time>2026-04-11T07:52:11.922Z</time></trkpt><trkpt lat="43.759555" lon="11.3194667"><ele>62.599999999999994</ele><time>2026-04-11T07:52:13.922Z</time></trkpt><trkpt lat="43.7596367" lon="11.3195217"><ele>62.400000000000006</ele><time>2026-04-11T07:52:15.922Z</time></trkpt><trkpt lat="43.7597233" lon="11.3195633"><ele>62.2</ele><time>2026-04-11T07:52:17.923Z</time></trkpt><trkpt lat="43.759815" lon="11.3196117"><ele>62.0</ele><time>2026-04-11T07:52:19.922Z</time></trkpt><trkpt lat="43.759915" lon="11.3196583"><ele>62.0</ele><time>2026-04-11T07:52:21.922Z</time></trkpt><trkpt lat="43.760015" lon="11.31973"><ele>62.0</ele><time>2026-04-11T07:52:23.922Z</time></trkpt><trkpt lat="43.76011" lon="11.3198267"><ele>62.0</ele><time>2026-04-11T07:52:25.922Z</time></trkpt><trkpt lat="43.7601967" lon="11.3199183"><ele>62.0</ele><time>2026-04-11T07:52:27.922Z</time></trkpt><trkpt lat="43.7602867" lon="11.3200067"><ele>61.400000000000006</ele><time>2026-04-11T07:52:29.922Z</time></trkpt><trkpt lat="43.7603683" lon="11.3200883"><ele>60.800000000000004</ele><time>2026-04-11T07:52:31.922Z</time></trkpt><trkpt lat="43.7604433" lon="11.3201733"><ele>60.2</ele><time>2026-04-11T07:52:33.922Z</time></trkpt><trkpt lat="43.7605167" lon="11.3202567"><ele>59.6</ele><time>2026-04-11T07:52:35.922Z</time></trkpt><trkpt lat="43.7605983" lon="11.3203267"><ele>59.0</ele><time>2026-04-11T07:52:37.923Z</time></trkpt><trkpt lat="43.7606783" lon="11.32039"><ele>59.0</ele><time>2026-04-11T07:52:39.923Z</time></trkpt><trkpt lat="43.760755" lon="11.32047"><ele>59.00000000000001</ele><time>2026-04-11T07:52:41.922Z</time></trkpt><trkpt lat="43.760825" lon="11.3205733"><ele>59.00000000000001</ele><time>2026-04-11T07:52:43.922Z</time></trkpt><trkpt lat="43.7608783" lon="11.32068"><ele>59.0</ele><time>2026-04-11T07:52:45.922Z</time></trkpt><trkpt lat="43.76094" lon="11.320785"><ele>59.0</ele><time>2026-04-11T07:52:47.922Z</time></trkpt><trkpt lat="43.761005" lon="11.3208917"><ele>58.800000000000004</ele><time>2026-04-11T07:52:49.922Z</time></trkpt><trkpt lat="43.76107" lon="11.3209783"><ele>58.60000000000001</ele><time>2026-04-11T07:52:51.922Z</time></trkpt><trkpt lat="43.7611367" lon="11.3210617"><ele>58.4</ele><time>2026-04-11T07:52:53.923Z</time></trkpt><trkpt lat="43.761215" lon="11.3211617"><ele>58.2</ele><time>2026-04-11T07:52:55.922Z</time></trkpt><trkpt lat="43.7612767" lon="11.3212467"><ele>58.0</ele><time>2026-04-11T07:52:57.922Z</time></trkpt><trkpt lat="43.7613433" lon="11.3213083"><ele>58.00000000000001</ele><time>2026-04-11T07:53:01.923Z</time></trkpt><trkpt lat="43.7614067" lon="11.321275"><ele>58.0</ele><time>2026-04-11T07:53:04.923Z</time></trkpt><trkpt lat="43.7614483" lon="11.3212017"><ele>58.00000000000001</ele><time>2026-04-11T07:53:06.922Z</time></trkpt><trkpt lat="43.76149" lon="11.3211217"><ele>58.00000000000001</ele><time>2026-04-11T07:53:08.922Z</time></trkpt><trkpt lat="43.761525" lon="11.3210433"><ele>58.0</ele><time>2026-04-11T07:53:10.922Z</time></trkpt><trkpt lat="43.76156" lon="11.3209633"><ele>58.00000000000001</ele><time>2026-04-11T07:53:12.922Z</time></trkpt><trkpt lat="43.7616133" lon="11.3208617"><ele>58.00000000000001</ele><time>2026-04-11T07:53:14.922Z</time></trkpt><trkpt lat="43.7616733" lon="11.3207583"><ele>57.99999999999999</ele><time>2026-04-11T07:53:16.923Z</time></trkpt><trkpt lat="43.7617067" lon="11.3206517"><ele>58.0</ele><time>2026-04-11T07:53:18.923Z</time></trkpt><trkpt lat="43.7617567" lon="11.3205583"><ele>58.0</ele><time>2026-04-11T07:53:20.922Z</time></trkpt><trkpt lat="43.7617983" lon="11.3204667"><ele>58.0</ele><time>2026-04-11T07:53:22.922Z</time></trkpt><trkpt lat="43.7618433" lon="11.3203683"><ele>57.99999999999999</ele><time>2026-04-11T07:53:24.922Z</time></trkpt><trkpt lat="43.7618933" lon="11.3202667"><ele>58.0</ele><time>2026-04-11T07:53:26.922Z</time></trkpt><trkpt lat="43.76192" lon="11.3201683"><ele>58.2</ele><time>2026-04-11T07:53:28.922Z</time></trkpt><trkpt lat="43.7619817" lon="11.3200633"><ele>58.4</ele><time>2026-04-11T07:53:30.923Z</time></trkpt><trkpt lat="43.7620367" lon="11.3199583"><ele>58.60000000000001</ele><time>2026-04-11T07:53:32.923Z</time></trkpt><trkpt lat="43.762095" lon="11.31987"><ele>58.800000000000004</ele><time>2026-04-11T07:53:34.922Z</time></trkpt><trkpt lat="43.762165" lon="11.3198517"><ele>59.0</ele><time>2026-04-11T07:53:36.922Z</time></trkpt><trkpt lat="43.7622933" lon="11.3198983"><ele>59.00000000000001</ele><time>2026-04-11T07:53:38.922Z</time></trkpt><trkpt lat="43.7623617" lon="11.3199383"><ele>59.0</ele><time>2026-04-11T07:53:40.922Z</time></trkpt><trkpt lat="43.7624333" lon="11.3199983"><ele>59.0</ele><time>2026-04-11T07:53:42.922Z</time></trkpt><trkpt lat="43.7624967" lon="11.3200633"><ele>59.0</ele><time>2026-04-11T07:53:44.922Z</time></trkpt><trkpt lat="43.7625617" lon="11.3201233"><ele>59.00000000000001</ele><time>2026-04-11T07:53:46.922Z</time></trkpt><trkpt lat="43.7626183" lon="11.3202083"><ele>59.0</ele><time>2026-04-11T07:53:48.922Z</time></trkpt><trkpt lat="43.76267" lon="11.3202867"><ele>58.66666666666667</ele><time>2026-04-11T07:53:50.922Z</time></trkpt><trkpt lat="43.7627067" lon="11.32038"><ele>58.333333333333336</ele><time>2026-04-11T07:53:52.922Z</time></trkpt><trkpt lat="43.7627333" lon="11.3204667"><ele>58.0</ele><time>2026-04-11T07:53:54.922Z</time></trkpt><trkpt lat="43.7627567" lon="11.3205717"><ele>57.66666666666667</ele><time>2026-04-11T07:53:56.922Z</time></trkpt><trkpt lat="43.7627767" lon="11.3206733"><ele>57.333333333333336</ele><time>2026-04-11T07:53:58.923Z</time></trkpt><trkpt lat="43.7627967" lon="11.3207883"><ele>57.0</ele><time>2026-04-11T07:54:00.923Z</time></trkpt><trkpt lat="43.7628117" lon="11.3208983"><ele>56.833333333333336</ele><time>2026-04-11T07:54:02.922Z</time></trkpt><trkpt lat="43.7628283" lon="11.320995"><ele>56.66666666666667</ele><time>2026-04-11T07:54:04.923Z</time></trkpt><trkpt lat="43.7628517" lon="11.3211"><ele>56.5</ele><time>2026-04-11T07:54:06.922Z</time></trkpt><trkpt lat="43.7628783" lon="11.3212133"><ele>56.333333333333336</ele><time>2026-04-11T07:54:08.922Z</time></trkpt><trkpt lat="43.7628933" lon="11.321305"><ele>56.16666666666667</ele><time>2026-04-11T07:54:10.922Z</time></trkpt><trkpt lat="43.7629117" lon="11.32143"><ele>56.0</ele><time>2026-04-11T07:54:12.922Z</time></trkpt><trkpt lat="43.7629317" lon="11.3215283"><ele>56.833333333333336</ele><time>2026-04-11T07:54:14.923Z</time></trkpt><trkpt lat="43.7629467" lon="11.3216183"><ele>57.66666666666667</ele><time>2026-04-11T07:54:16.922Z</time></trkpt><trkpt lat="43.7629667" lon="11.321715"><ele>58.5</ele><time>2026-04-11T07:54:18.922Z</time></trkpt><trkpt lat="43.7629833" lon="11.32184"><ele>59.33333333333333</ele><time>2026-04-11T07:54:20.922Z</time></trkpt><trkpt lat="43.7629883" lon="11.32199"><ele>60.166666666666664</ele><time>2026-04-11T07:54:22.922Z</time></trkpt><trkpt lat="43.7629967" lon="11.322115"><ele>61.0</ele><time>2026-04-11T07:54:24.922Z</time></trkpt><trkpt lat="43.76301" lon="11.3222467"><ele>60.99999999999999</ele><time>2026-04-11T07:54:26.922Z</time></trkpt><trkpt lat="43.7630167" lon="11.3223783"><ele>61.0</ele><time>2026-04-11T07:54:28.922Z</time></trkpt><trkpt lat="43.7630317" lon="11.32249"><ele>61.0</ele><time>2026-04-11T07:54:30.922Z</time></trkpt><trkpt lat="43.7630383" lon="11.32259"><ele>61.0</ele><time>2026-04-11T07:54:32.922Z</time></trkpt><trkpt lat="43.7630533" lon="11.3226867"><ele>60.99999999999999</ele><time>2026-04-11T07:54:34.922Z</time></trkpt><trkpt lat="43.7630633" lon="11.32279"><ele>61.0</ele><time>2026-04-11T07:54:36.922Z</time></trkpt><trkpt lat="43.7630717" lon="11.3228917"><ele>61.0</ele><time>2026-04-11T07:54:38.922Z</time></trkpt><trkpt lat="43.76309" lon="11.32302"><ele>60.99999999999999</ele><time>2026-04-11T07:54:40.922Z</time></trkpt><trkpt lat="43.763095" lon="11.3231317"><ele>60.99999999999999</ele><time>2026-04-11T07:54:42.923Z</time></trkpt><trkpt lat="43.763095" lon="11.3232717"><ele>61.0</ele><time>2026-04-11T07:54:44.922Z</time></trkpt><trkpt lat="43.763095" lon="11.32338"><ele>61.0</ele><time>2026-04-11T07:54:46.922Z</time></trkpt><trkpt lat="43.7631167" lon="11.3235217"><ele>61.0</ele><time>2026-04-11T07:54:48.922Z</time></trkpt><trkpt lat="43.7631283" lon="11.32366"><ele>60.99999999999999</ele><time>2026-04-11T07:54:50.922Z</time></trkpt><trkpt lat="43.76315" lon="11.323795"><ele>60.99999999999999</ele><time>2026-04-11T07:54:52.922Z</time></trkpt><trkpt lat="43.763165" lon="11.3239217"><ele>61.0</ele><time>2026-04-11T07:54:54.922Z</time></trkpt><trkpt lat="43.7632" lon="11.3240567"><ele>61.0</ele><time>2026-04-11T07:54:56.922Z</time></trkpt><trkpt lat="43.7632267" lon="11.3241817"><ele>60.8</ele><time>2026-04-11T07:54:58.922Z</time></trkpt><trkpt lat="43.7632533" lon="11.32432"><ele>60.599999999999994</ele><time>2026-04-11T07:55:00.922Z</time></trkpt><trkpt lat="43.7632733" lon="11.3244517"><ele>60.4</ele><time>2026-04-11T07:55:02.923Z</time></trkpt><trkpt lat="43.763285" lon="11.3245917"><ele>60.2</ele><time>2026-04-11T07:55:04.923Z</time></trkpt><trkpt lat="43.7632867" lon="11.3247233"><ele>60.0</ele><time>2026-04-11T07:55:06.923Z</time></trkpt><trkpt lat="43.76328" lon="11.324845"><ele>60.0</ele><time>2026-04-11T07:55:08.922Z</time></trkpt><trkpt lat="43.7632733" lon="11.324965"><ele>60.0</ele><time>2026-04-11T07:55:10.922Z</time></trkpt><trkpt lat="43.7632717" lon="11.3250867"><ele>60.0</ele><time>2026-04-11T07:55:12.922Z</time></trkpt><trkpt lat="43.7632667" lon="11.32519"><ele>60.0</ele><time>2026-04-11T07:55:14.922Z</time></trkpt><trkpt lat="43.7632683" lon="11.3252983"><ele>60.0</ele><time>2026-04-11T07:55:16.922Z</time></trkpt><trkpt lat="43.76326" lon="11.3254133"><ele>60.0</ele><time>2026-04-11T07:55:18.922Z</time></trkpt><trkpt lat="43.7632583" lon="11.3255083"><ele>60.0</ele><time>2026-04-11T07:55:20.923Z</time></trkpt><trkpt lat="43.7632483" lon="11.3256183"><ele>60.0</ele><time>2026-04-11T07:55:22.923Z</time></trkpt><trkpt lat="43.7632333" lon="11.32573"><ele>60.0</ele><time>2026-04-11T07:55:24.922Z</time></trkpt><trkpt lat="43.763215" lon="11.3258483"><ele>60.0</ele><time>2026-04-11T07:55:26.923Z</time></trkpt><trkpt lat="43.76319" lon="11.3259733"><ele>60.0</ele><time>2026-04-11T07:55:29.922Z</time></trkpt><trkpt lat="43.7631633" lon="11.326065"><ele>60.0</ele><time>2026-04-11T07:55:31.922Z</time></trkpt><trkpt lat="43.7631317" lon="11.3261683"><ele>60.0</ele><time>2026-04-11T07:55:33.923Z</time></trkpt><trkpt lat="43.7630933" lon="11.3262583"><ele>60.0</ele><time>2026-04-11T07:55:35.922Z</time></trkpt><trkpt lat="43.7630617" lon="11.3263467"><ele>60.0</ele><time>2026-04-11T07:55:37.923Z</time></trkpt><trkpt lat="43.7630317" lon="11.326445"><ele>60.0</ele><time>2026-04-11T07:55:39.923Z</time></trkpt><trkpt lat="43.7630017" lon="11.3265283"><ele>60.0</ele><time>2026-04-11T07:55:41.922Z</time></trkpt><trkpt lat="43.76296" lon="11.3266317"><ele>60.0</ele><time>2026-04-11T07:55:43.923Z</time></trkpt><trkpt lat="43.7629217" lon="11.326725"><ele>60.166666666666664</ele><time>2026-04-11T07:55:45.922Z</time></trkpt><trkpt lat="43.7628817" lon="11.3268133"><ele>60.33333333333333</ele><time>2026-04-11T07:55:47.922Z</time></trkpt><trkpt lat="43.7628417" lon="11.3269"><ele>60.5</ele><time>2026-04-11T07:55:49.922Z</time></trkpt><trkpt lat="43.7628033" lon="11.3269883"><ele>60.666666666666664</ele><time>2026-04-11T07:55:51.922Z</time></trkpt><trkpt lat="43.76276" lon="11.3270733"><ele>60.83333333333333</ele><time>2026-04-11T07:55:53.922Z</time></trkpt><trkpt lat="43.7627117" lon="11.3271483"><ele>61.0</ele><time>2026-04-11T07:55:55.922Z</time></trkpt><trkpt lat="43.7626667" lon="11.3272417"><ele>61.49999999999999</ele><time>2026-04-11T07:55:57.922Z</time></trkpt><trkpt lat="43.7626283" lon="11.327325"><ele>62.0</ele><time>2026-04-11T07:55:59.922Z</time></trkpt><trkpt lat="43.7625833" lon="11.327415"><ele>62.5</ele><time>2026-04-11T07:56:01.923Z</time></trkpt><trkpt lat="43.762545" lon="11.3274983"><ele>63.0</ele><time>2026-04-11T07:56:03.922Z</time></trkpt><trkpt lat="43.7625083" lon="11.3275817"><ele>63.49999999999999</ele><time>2026-04-11T07:56:05.922Z</time></trkpt><trkpt lat="43.76247" lon="11.327675"><ele>64.0</ele><time>2026-04-11T07:56:07.922Z</time></trkpt><trkpt lat="43.762425" lon="11.327775"><ele>63.99999999999999</ele><time>2026-04-11T07:56:09.922Z</time></trkpt><trkpt lat="43.762385" lon="11.3278783"><ele>64.0</ele><time>2026-04-11T07:56:11.923Z</time></trkpt><trkpt lat="43.7623467" lon="11.3279783"><ele>64.0</ele><time>2026-04-11T07:56:13.923Z</time></trkpt><trkpt lat="43.76231" lon="11.3280867"><ele>64.0</ele><time>2026-04-11T07:56:15.922Z</time></trkpt><trkpt lat="43.7622733" lon="11.3281917"><ele>63.99999999999999</ele><time>2026-04-11T07:56:17.922Z</time></trkpt><trkpt lat="43.76224" lon="11.3282883"><ele>64.0</ele><time>2026-04-11T07:56:19.922Z</time></trkpt><trkpt lat="43.762205" lon="11.328385"><ele>63.99999999999999</ele><time>2026-04-11T07:56:21.922Z</time></trkpt><trkpt lat="43.7621717" lon="11.3284867"><ele>64.0</ele><time>2026-04-11T07:56:23.922Z</time></trkpt><trkpt lat="43.7621633" lon="11.3285933"><ele>64.0</ele><time>2026-04-11T07:56:25.922Z</time></trkpt><trkpt lat="43.7621717" lon="11.328705"><ele>64.0</ele><time>2026-04-11T07:56:27.923Z</time></trkpt><trkpt lat="43.762185" lon="11.32882"><ele>63.99999999999999</ele><time>2026-04-11T07:56:29.922Z</time></trkpt><trkpt lat="43.7622" lon="11.3289333"><ele>64.0</ele><time>2026-04-11T07:56:31.922Z</time></trkpt><trkpt lat="43.7622183" lon="11.3290417"><ele>64.16666666666666</ele><time>2026-04-11T07:56:33.922Z</time></trkpt><trkpt lat="43.7622367" lon="11.3291567"><ele>64.33333333333333</ele><time>2026-04-11T07:56:35.922Z</time></trkpt><trkpt lat="43.7622533" lon="11.3292667"><ele>64.5</ele><time>2026-04-11T07:56:37.923Z</time></trkpt><trkpt lat="43.76227" lon="11.32937"><ele>64.66666666666667</ele><time>2026-04-11T07:56:39.923Z</time></trkpt><trkpt lat="43.7622917" lon="11.3294733"><ele>64.83333333333334</ele><time>2026-04-11T07:56:41.922Z</time></trkpt><trkpt lat="43.76231" lon="11.32957"><ele>65.0</ele><time>2026-04-11T07:56:43.922Z</time></trkpt><trkpt lat="43.7623267" lon="11.3296633"><ele>65.16666666666667</ele><time>2026-04-11T07:56:45.922Z</time></trkpt><trkpt lat="43.762355" lon="11.3297833"><ele>65.33333333333334</ele><time>2026-04-11T07:56:48.923Z</time></trkpt><trkpt lat="43.7623583" lon="11.329895"><ele>65.5</ele><time>2026-04-11T07:56:51.923Z</time></trkpt><trkpt lat="43.7623767" lon="11.33003"><ele>65.66666666666667</ele><time>2026-04-11T07:56:54.922Z</time></trkpt><trkpt lat="43.7623867" lon="11.33014"><ele>65.83333333333333</ele><time>2026-04-11T07:56:56.922Z</time></trkpt><trkpt lat="43.7623933" lon="11.3302267"><ele>66.0</ele><time>2026-04-11T07:56:58.922Z</time></trkpt><trkpt lat="43.7623883" lon="11.33033"><ele>66.0</ele><time>2026-04-11T07:57:00.922Z</time></trkpt><trkpt lat="43.7623833" lon="11.3304517"><ele>66.0</ele><time>2026-04-11T07:57:02.922Z</time></trkpt><trkpt lat="43.762365" lon="11.3305717"><ele>66.0</ele><time>2026-04-11T07:57:04.922Z</time></trkpt><trkpt lat="43.7623533" lon="11.3307017"><ele>66.0</ele><time>2026-04-11T07:57:06.922Z</time></trkpt><trkpt lat="43.7623417" lon="11.3308217"><ele>66.0</ele><time>2026-04-11T07:57:08.922Z</time></trkpt><trkpt lat="43.762335" lon="11.3309317"><ele>66.0</ele><time>2026-04-11T07:57:10.922Z</time></trkpt><trkpt lat="43.76233" lon="11.3310433"><ele>66.16666666666667</ele><time>2026-04-11T07:57:12.922Z</time></trkpt><trkpt lat="43.76232" lon="11.3311483"><ele>66.33333333333333</ele><time>2026-04-11T07:57:14.922Z</time></trkpt><trkpt lat="43.7623083" lon="11.3312533"><ele>66.5</ele><time>2026-04-11T07:57:16.922Z</time></trkpt><trkpt lat="43.7622967" lon="11.331365"><ele>66.66666666666666</ele><time>2026-04-11T07:57:18.922Z</time></trkpt><trkpt lat="43.7622833" lon="11.3314783"><ele>66.83333333333333</ele><time>2026-04-11T07:57:20.922Z</time></trkpt><trkpt lat="43.7622683" lon="11.331595"><ele>67.0</ele><time>2026-04-11T07:57:22.922Z</time></trkpt><trkpt lat="43.762255" lon="11.3317133"><ele>67.0</ele><time>2026-04-11T07:57:24.922Z</time></trkpt><trkpt lat="43.7622483" lon="11.3318283"><ele>67.0</ele><time>2026-04-11T07:57:26.922Z</time></trkpt><trkpt lat="43.7622383" lon="11.33193"><ele>67.0</ele><time>2026-04-11T07:57:28.923Z</time></trkpt><trkpt lat="43.76223" lon="11.3320367"><ele>67.0</ele><time>2026-04-11T07:57:30.922Z</time></trkpt><trkpt lat="43.7622183" lon="11.33214"><ele>67.0</ele><time>2026-04-11T07:57:32.922Z</time></trkpt><trkpt lat="43.7622067" lon="11.33224"><ele>67.0</ele><time>2026-04-11T07:57:34.922Z</time></trkpt><trkpt lat="43.7622017" lon="11.3323683"><ele>67.0</ele><time>2026-04-11T07:57:37.922Z</time></trkpt><trkpt lat="43.7621833" lon="11.3324867"><ele>67.0</ele><time>2026-04-11T07:57:40.922Z</time></trkpt><trkpt lat="43.76218" lon="11.3325817"><ele>67.0</ele><time>2026-04-11T07:57:43.922Z</time></trkpt><trkpt lat="43.7621867" lon="11.3326733"><ele>67.0</ele><time>2026-04-11T07:57:46.922Z</time></trkpt><trkpt lat="43.7621667" lon="11.332775"><ele>67.0</ele><time>2026-04-11T07:57:50.922Z</time></trkpt><trkpt lat="43.7621567" lon="11.3328683"><ele>67.0</ele><time>2026-04-11T07:57:54.923Z</time></trkpt><trkpt lat="43.7621683" lon="11.33297"><ele>67.0</ele><time>2026-04-11T07:57:58.922Z</time></trkpt><trkpt lat="43.7621783" lon="11.3330817"><ele>67.42857142857143</ele><time>2026-04-11T07:58:03.922Z</time></trkpt><trkpt lat="43.762195" lon="11.3331733"><ele>67.85714285714286</ele><time>2026-04-11T07:58:06.922Z</time></trkpt><trkpt lat="43.7621833" lon="11.3332733"><ele>68.28571428571428</ele><time>2026-04-11T07:58:12.922Z</time></trkpt><trkpt lat="43.7621783" lon="11.3333817"><ele>68.71428571428572</ele><time>2026-04-11T07:58:15.922Z</time></trkpt><trkpt lat="43.7621983" lon="11.33347"><ele>69.14285714285714</ele><time>2026-04-11T07:58:17.921Z</time></trkpt><trkpt lat="43.7622267" lon="11.3335767"><ele>69.57142857142857</ele><time>2026-04-11T07:58:20.921Z</time></trkpt><trkpt lat="43.76225" lon="11.333665"><ele>70.0</ele><time>2026-04-11T07:58:24.921Z</time></trkpt><trkpt lat="43.762275" lon="11.3337517"><ele>70.0</ele><time>2026-04-11T07:58:28.921Z</time></trkpt><trkpt lat="43.7622867" lon="11.3338817"><ele>70.0</ele><time>2026-04-11T07:58:31.921Z</time></trkpt><trkpt lat="43.7623033" lon="11.333975"><ele>70.0</ele><time>2026-04-11T07:58:33.921Z</time></trkpt><trkpt lat="43.7623217" lon="11.3340683"><ele>70.0</ele><time>2026-04-11T07:58:35.921Z</time></trkpt><trkpt lat="43.7623383" lon="11.3341833"><ele>70.0</ele><time>2026-04-11T07:58:37.922Z</time></trkpt><trkpt lat="43.7623367" lon="11.3342767"><ele>70.0</ele><time>2026-04-11T07:58:39.922Z</time></trkpt><trkpt lat="43.76233" lon="11.3343817"><ele>70.16666666666666</ele><time>2026-04-11T07:58:41.921Z</time></trkpt><trkpt lat="43.7623133" lon="11.3344983"><ele>70.33333333333333</ele><time>2026-04-11T07:58:44.921Z</time></trkpt><trkpt lat="43.7623033" lon="11.33461"><ele>70.5</ele><time>2026-04-11T07:58:47.921Z</time></trkpt><trkpt lat="43.7623" lon="11.3347317"><ele>70.66666666666667</ele><time>2026-04-11T07:58:50.921Z</time></trkpt><trkpt lat="43.76234" lon="11.3348283"><ele>70.83333333333334</ele><time>2026-04-11T07:58:54.921Z</time></trkpt><trkpt lat="43.7623683" lon="11.3349267"><ele>71.0</ele><time>2026-04-11T07:58:58.921Z</time></trkpt><trkpt lat="43.76237" lon="11.335015"><ele>71.28571428571428</ele><time>2026-04-11T07:59:03.921Z</time></trkpt><trkpt lat="43.7623833" lon="11.335105"><ele>71.57142857142857</ele><time>2026-04-11T07:59:11.921Z</time></trkpt><trkpt lat="43.7623817" lon="11.3351933"><ele>71.85714285714286</ele><time>2026-04-11T07:59:19.921Z</time></trkpt><trkpt lat="43.7624483" lon="11.3352767"><ele>72.14285714285714</ele><time>2026-04-11T08:10:10.922Z</time></trkpt><trkpt lat="43.76239" lon="11.33535"><ele>72.42857142857143</ele><time>2026-04-11T08:10:14.921Z</time></trkpt><trkpt lat="43.76235" lon="11.3354417"><ele>72.71428571428571</ele><time>2026-04-11T08:10:18.921Z</time></trkpt><trkpt lat="43.7623367" lon="11.3355283"><ele>73.0</ele><time>2026-04-11T08:10:21.921Z</time></trkpt><trkpt lat="43.76236" lon="11.3356283"><ele>74.16666666666666</ele><time>2026-04-11T08:10:25.922Z</time></trkpt><trkpt lat="43.7623967" lon="11.3357183"><ele>75.33333333333333</ele><time>2026-04-11T08:10:28.921Z</time></trkpt><trkpt lat="43.7624183" lon="11.335815"><ele>76.5</ele><time>2026-04-11T08:10:31.921Z</time></trkpt><trkpt lat="43.76244" lon="11.33591"><ele>77.66666666666667</ele><time>2026-04-11T08:10:34.921Z</time></trkpt><trkpt lat="43.762475" lon="11.3360083"><ele>78.83333333333334</ele><time>2026-04-11T08:10:37.921Z</time></trkpt><trkpt lat="43.7625133" lon="11.3360933"><ele>80.0</ele><time>2026-04-11T08:10:40.921Z</time></trkpt><trkpt lat="43.7625633" lon="11.336185"><ele>80.0</ele><time>2026-04-11T08:10:44.922Z</time></trkpt><trkpt lat="43.7626" lon="11.3362567"><ele>80.0</ele><time>2026-04-11T08:10:47.922Z</time></trkpt><trkpt lat="43.762635" lon="11.3363367"><ele>80.0</ele><time>2026-04-11T08:10:50.921Z</time></trkpt><trkpt lat="43.7626767" lon="11.336415"><ele>80.0</ele><time>2026-04-11T08:10:53.921Z</time></trkpt><trkpt lat="43.76271" lon="11.33651"><ele>80.0</ele><time>2026-04-11T08:10:56.922Z</time></trkpt><trkpt lat="43.76273" lon="11.3366217"><ele>80.0</ele><time>2026-04-11T08:10:59.921Z</time></trkpt><trkpt lat="43.7627867" lon="11.3367033"><ele>80.0</ele><time>2026-04-11T08:11:02.922Z</time></trkpt><trkpt lat="43.7628383" lon="11.3367867"><ele>79.42857142857143</ele><time>2026-04-11T08:11:05.921Z</time></trkpt><trkpt lat="43.7628867" lon="11.3368517"><ele>78.85714285714286</ele><time>2026-04-11T08:11:07.922Z</time></trkpt><trkpt lat="43.76295" lon="11.3369417"><ele>78.28571428571428</ele><time>2026-04-11T08:11:10.921Z</time></trkpt><trkpt lat="43.7629917" lon="11.337015"><ele>77.71428571428572</ele><time>2026-04-11T08:11:12.921Z</time></trkpt><trkpt lat="43.7629917" lon="11.33711"><ele>77.14285714285715</ele><time>2026-04-11T08:11:15.921Z</time></trkpt><trkpt lat="43.7629983" lon="11.3372233"><ele>76.57142857142857</ele><time>2026-04-11T08:11:19.921Z</time></trkpt><trkpt lat="43.76301" lon="11.3373167"><ele>76.0</ele><time>2026-04-11T08:11:22.921Z</time></trkpt><trkpt lat="43.7630217" lon="11.3374067"><ele>76.0</ele><time>2026-04-11T08:11:25.921Z</time></trkpt><trkpt lat="43.7630367" lon="11.3375083"><ele>76.0</ele><time>2026-04-11T08:11:28.922Z</time></trkpt><trkpt lat="43.7630433" lon="11.337615"><ele>76.0</ele><time>2026-04-11T08:11:31.921Z</time></trkpt><trkpt lat="43.7630517" lon="11.3377183"><ele>76.0</ele><time>2026-04-11T08:11:34.922Z</time></trkpt><trkpt lat="43.7630533" lon="11.3378083"><ele>76.0</ele><time>2026-04-11T08:11:37.921Z</time></trkpt><trkpt lat="43.7630683" lon="11.3379117"><ele>76.0</ele><time>2026-04-11T08:11:41.921Z</time></trkpt><trkpt lat="43.763085" lon="11.3380217"><ele>77.16666666666666</ele><time>2026-04-11T08:11:45.921Z</time></trkpt><trkpt lat="43.763095" lon="11.3381317"><ele>78.33333333333333</ele><time>2026-04-11T08:11:49.922Z</time></trkpt><trkpt lat="43.763105" lon="11.3382667"><ele>79.5</ele><time>2026-04-11T08:11:54.922Z</time></trkpt><trkpt lat="43.7631267" lon="11.3383717"><ele>80.66666666666667</ele><time>2026-04-11T08:11:58.921Z</time></trkpt><trkpt lat="43.763145" lon="11.3384683"><ele>81.83333333333334</ele><time>2026-04-11T08:12:02.921Z</time></trkpt><trkpt lat="43.7631467" lon="11.3385783"><ele>83.0</ele><time>2026-04-11T08:12:06.922Z</time></trkpt><trkpt lat="43.7631567" lon="11.33867"><ele>83.0</ele><time>2026-04-11T08:12:10.922Z</time></trkpt><trkpt lat="43.7631867" lon="11.3387533"><ele>83.0</ele><time>2026-04-11T08:12:14.921Z</time></trkpt><trkpt lat="43.7632017" lon="11.3388633"><ele>83.0</ele><time>2026-04-11T08:12:19.922Z</time></trkpt><trkpt lat="43.763225" lon="11.3389483"><ele>83.0</ele><time>2026-04-11T08:12:23.921Z</time></trkpt><trkpt lat="43.76324" lon="11.3390583"><ele>83.0</ele><time>2026-04-11T08:12:28.921Z</time></trkpt><trkpt lat="43.763245" lon="11.3391583"><ele>83.0</ele><time>2026-04-11T08:12:32.921Z</time></trkpt><trkpt lat="43.7632567" lon="11.3392517"><ele>83.0</ele><time>2026-04-11T08:12:36.921Z</time></trkpt><trkpt lat="43.7632783" lon="11.339345"><ele>84.42857142857143</ele><time>2026-04-11T08:12:41.921Z</time></trkpt><trkpt lat="43.7632867" lon="11.3394317"><ele>85.85714285714286</ele><time>2026-04-11T08:12:45.921Z</time></trkpt><trkpt lat="43.7632983" lon="11.3395317"><ele>87.28571428571429</ele><time>2026-04-11T08:12:50.921Z</time></trkpt><trkpt lat="43.76331" lon="11.3396283"><ele>88.71428571428572</ele><time>2026-04-11T08:12:54.921Z</time></trkpt><trkpt lat="43.763295" lon="11.3397283"><ele>90.14285714285714</ele><time>2026-04-11T08:12:58.922Z</time></trkpt><trkpt lat="43.7632867" lon="11.33982"><ele>91.57142857142858</ele><time>2026-04-11T08:13:02.921Z</time></trkpt><trkpt lat="43.7632717" lon="11.3399183"><ele>93.0</ele><time>2026-04-11T08:13:06.921Z</time></trkpt><trkpt lat="43.763255" lon="11.3400117"><ele>94.00000000000001</ele><time>2026-04-11T08:13:10.922Z</time></trkpt><trkpt lat="43.76325" lon="11.3401183"><ele>95.0</ele><time>2026-04-11T08:13:15.921Z</time></trkpt><trkpt lat="43.7632317" lon="11.3402217"><ele>96.0</ele><time>2026-04-11T08:13:19.921Z</time></trkpt><trkpt lat="43.763215" lon="11.3403083"><ele>97.0</ele><time>2026-04-11T08:13:23.922Z</time></trkpt><trkpt lat="43.7632" lon="11.3404"><ele>98.0</ele><time>2026-04-11T08:13:27.921Z</time></trkpt><trkpt lat="43.763195" lon="11.3404883"><ele>99.00000000000001</ele><time>2026-04-11T08:13:31.921Z</time></trkpt><trkpt lat="43.76318" lon="11.34058"><ele>100.0</ele><time>2026-04-11T08:13:36.922Z</time></trkpt><trkpt lat="43.7631767" lon="11.34067"><ele>100.57142857142858</ele><time>2026-04-11T08:13:40.921Z</time></trkpt><trkpt lat="43.7631767" lon="11.34077"><ele>101.14285714285714</ele><time>2026-04-11T08:13:45.921Z</time></trkpt><trkpt lat="43.7631767" lon="11.3408667"><ele>101.71428571428572</ele><time>2026-04-11T08:13:50.921Z</time></trkpt><trkpt lat="43.7631567" lon="11.3409633"><ele>102.28571428571429</ele><time>2026-04-11T08:13:56.921Z</time></trkpt><trkpt lat="43.76315" lon="11.3410683"><ele>102.85714285714286</ele><time>2026-04-11T08:14:02.921Z</time></trkpt><trkpt lat="43.76314" lon="11.3411617"><ele>103.42857142857143</ele><time>2026-04-11T08:14:07.921Z</time></trkpt><trkpt lat="43.763155" lon="11.34125"><ele>104.0</ele><time>2026-04-11T08:14:13.921Z</time></trkpt><trkpt lat="43.76314" lon="11.341345"><ele>105.28571428571428</ele><time>2026-04-11T08:14:18.921Z</time></trkpt><trkpt lat="43.763115" lon="11.34143"><ele>106.57142857142858</ele><time>2026-04-11T08:14:22.921Z</time></trkpt><trkpt lat="43.7631" lon="11.341525"><ele>107.85714285714286</ele><time>2026-04-11T08:14:27.922Z</time></trkpt><trkpt lat="43.7630717" lon="11.3416183"><ele>109.14285714285714</ele><time>2026-04-11T08:14:33.921Z</time></trkpt><trkpt lat="43.7630583" lon="11.341725"><ele>110.42857142857142</ele><time>2026-04-11T08:14:38.921Z</time></trkpt><trkpt lat="43.7630667" lon="11.3418117"><ele>111.71428571428572</ele><time>2026-04-11T08:14:42.922Z</time></trkpt><trkpt lat="43.7630867" lon="11.341915"><ele>113.0</ele><time>2026-04-11T08:14:47.921Z</time></trkpt><trkpt lat="43.76312" lon="11.3419917"><ele>113.0</ele><time>2026-04-11T08:14:51.921Z</time></trkpt><trkpt lat="43.76315" lon="11.34208"><ele>113.0</ele><time>2026-04-11T08:14:55.922Z</time></trkpt><trkpt lat="43.7631783" lon="11.3421733"><ele>113.0</ele><time>2026-04-11T08:14:59.921Z</time></trkpt><trkpt lat="43.763205" lon="11.342255"><ele>113.0</ele><time>2026-04-11T08:15:03.921Z</time></trkpt><trkpt lat="43.7632333" lon="11.3423433"><ele>113.0</ele><time>2026-04-11T08:15:08.921Z</time></trkpt><trkpt lat="43.763255" lon="11.3424517"><ele>113.0</ele><time>2026-04-11T08:15:13.922Z</time></trkpt><trkpt lat="43.7633083" lon="11.3425317"><ele>113.0</ele><time>2026-04-11T08:15:18.921Z</time></trkpt><trkpt lat="43.7633583" lon="11.342595"><ele>112.57142857142857</ele><time>2026-04-11T08:15:22.921Z</time></trkpt><trkpt lat="43.7634017" lon="11.342665"><ele>112.14285714285714</ele><time>2026-04-11T08:15:26.922Z</time></trkpt><trkpt lat="43.7634533" lon="11.342735"><ele>111.71428571428571</ele><time>2026-04-11T08:15:31.921Z</time></trkpt><trkpt lat="43.7635" lon="11.3428017"><ele>111.28571428571428</ele><time>2026-04-11T08:15:35.921Z</time></trkpt><trkpt lat="43.7635467" lon="11.3428717"><ele>110.85714285714286</ele><time>2026-04-11T08:15:39.922Z</time></trkpt><trkpt lat="43.7636033" lon="11.3429317"><ele>110.42857142857142</ele><time>2026-04-11T08:15:43.922Z</time></trkpt><trkpt lat="43.7636567" lon="11.3430033"><ele>110.0</ele><time>2026-04-11T08:15:47.921Z</time></trkpt><trkpt lat="43.763705" lon="11.34308"><ele>112.71428571428571</ele><time>2026-04-11T08:15:51.922Z</time></trkpt><trkpt lat="43.7637633" lon="11.34316"><ele>115.42857142857142</ele><time>2026-04-11T08:15:55.921Z</time></trkpt><trkpt lat="43.7638" lon="11.3432367"><ele>118.14285714285714</ele><time>2026-04-11T08:15:59.922Z</time></trkpt><trkpt lat="43.7638517" lon="11.34332"><ele>120.85714285714285</ele><time>2026-04-11T08:16:04.922Z</time></trkpt><trkpt lat="43.7639" lon="11.343385"><ele>123.57142857142857</ele><time>2026-04-11T08:16:09.921Z</time></trkpt><trkpt lat="43.7639483" lon="11.3434433"><ele>126.28571428571426</ele><time>2026-04-11T08:16:13.921Z</time></trkpt><trkpt lat="43.7640033" lon="11.3434983"><ele>129.0</ele><time>2026-04-11T08:16:18.921Z</time></trkpt><trkpt lat="43.76406" lon="11.3435417"><ele>129.0</ele><time>2026-04-11T08:16:22.921Z</time></trkpt><trkpt lat="43.7641133" lon="11.3435983"><ele>129.0</ele><time>2026-04-11T08:16:26.922Z</time></trkpt><trkpt lat="43.764175" lon="11.343655"><ele>129.0</ele><time>2026-04-11T08:16:31.921Z</time></trkpt><trkpt lat="43.7642367" lon="11.3437233"><ele>129.0</ele><time>2026-04-11T08:16:36.921Z</time></trkpt><trkpt lat="43.76429" lon="11.3438033"><ele>129.0</ele><time>2026-04-11T08:16:41.921Z</time></trkpt><trkpt lat="43.764325" lon="11.3438983"><ele>129.0</ele><time>2026-04-11T08:16:45.921Z</time></trkpt><trkpt lat="43.764355" lon="11.344015"><ele>128.33333333333334</ele><time>2026-04-11T08:16:49.921Z</time></trkpt><trkpt lat="43.7643767" lon="11.3441183"><ele>127.66666666666666</ele><time>2026-04-11T08:16:52.921Z</time></trkpt><trkpt lat="43.7643783" lon="11.3442267"><ele>127.0</ele><time>2026-04-11T08:16:55.921Z</time></trkpt><trkpt lat="43.7643867" lon="11.34436"><ele>126.33333333333333</ele><time>2026-04-11T08:16:58.922Z</time></trkpt><trkpt lat="43.7644" lon="11.3444833"><ele>125.66666666666666</ele><time>2026-04-11T08:17:01.921Z</time></trkpt><trkpt lat="43.7644017" lon="11.3445767"><ele>125.0</ele><time>2026-04-11T08:17:03.921Z</time></trkpt><trkpt lat="43.764405" lon="11.3446967"><ele>126.57142857142857</ele><time>2026-04-11T08:17:06.921Z</time></trkpt><trkpt lat="43.7644333" lon="11.3448033"><ele>128.14285714285714</ele><time>2026-04-11T08:17:09.921Z</time></trkpt><trkpt lat="43.7644517" lon="11.3448967"><ele>129.71428571428572</ele><time>2026-04-11T08:17:12.922Z</time></trkpt><trkpt lat="43.7644733" lon="11.3449933"><ele>131.28571428571428</ele><time>2026-04-11T08:17:15.921Z</time></trkpt><trkpt lat="43.7645017" lon="11.345095"><ele>132.85714285714286</ele><time>2026-04-11T08:17:18.921Z</time></trkpt><trkpt lat="43.7645467" lon="11.345175"><ele>134.42857142857142</ele><time>2026-04-11T08:17:21.921Z</time></trkpt><trkpt lat="43.7645867" lon="11.3452517"><ele>136.0</ele><time>2026-04-11T08:17:24.921Z</time></trkpt><trkpt lat="43.76463" lon="11.3453467"><ele>135.99999999999997</ele><time>2026-04-11T08:17:28.921Z</time></trkpt><trkpt lat="43.76469" lon="11.345415"><ele>136.0</ele><time>2026-04-11T08:17:32.921Z</time></trkpt><trkpt lat="43.7647467" lon="11.345465"><ele>136.0</ele><time>2026-04-11T08:17:36.922Z</time></trkpt><trkpt lat="43.764805" lon="11.34551"><ele>136.0</ele><time>2026-04-11T08:17:40.921Z</time></trkpt><trkpt lat="43.76487" lon="11.3455617"><ele>136.0</ele><time>2026-04-11T08:17:44.921Z</time></trkpt><trkpt lat="43.7649133" lon="11.3456367"><ele>135.99999999999997</ele><time>2026-04-11T08:17:49.921Z</time></trkpt><trkpt lat="43.7649383" lon="11.3457283"><ele>136.0</ele><time>2026-04-11T08:17:54.921Z</time></trkpt><trkpt lat="43.7649467" lon="11.34583"><ele>137.7142857142857</ele><time>2026-04-11T08:17:59.921Z</time></trkpt><trkpt lat="43.7649483" lon="11.34593"><ele>139.42857142857142</ele><time>2026-04-11T08:18:05.921Z</time></trkpt><trkpt lat="43.76496" lon="11.3460233"><ele>141.14285714285714</ele><time>2026-04-11T08:18:09.922Z</time></trkpt><trkpt lat="43.7649583" lon="11.3461133"><ele>142.85714285714283</ele><time>2026-04-11T08:18:13.921Z</time></trkpt><trkpt lat="43.7649633" lon="11.3462117"><ele>144.57142857142856</ele><time>2026-04-11T08:18:17.922Z</time></trkpt><trkpt lat="43.76497" lon="11.346315"><ele>146.28571428571428</ele><time>2026-04-11T08:18:21.921Z</time></trkpt><trkpt lat="43.764995" lon="11.3464067"><ele>148.0</ele><time>2026-04-11T08:18:25.921Z</time></trkpt><trkpt lat="43.7650267" lon="11.346515"><ele>150.33333333333334</ele><time>2026-04-11T08:18:29.921Z</time></trkpt><trkpt lat="43.7650383" lon="11.3466133"><ele>152.66666666666669</ele><time>2026-04-11T08:18:33.921Z</time></trkpt><trkpt lat="43.7650533" lon="11.3467133"><ele>155.0</ele><time>2026-04-11T08:18:36.921Z</time></trkpt><trkpt lat="43.76507" lon="11.3468133"><ele>157.33333333333334</ele><time>2026-04-11T08:18:39.921Z</time></trkpt><trkpt lat="43.765075" lon="11.346925"><ele>159.66666666666666</ele><time>2026-04-11T08:18:42.921Z</time></trkpt><trkpt lat="43.76509" lon="11.34703"><ele>162.0</ele><time>2026-04-11T08:18:45.921Z</time></trkpt><trkpt lat="43.7651017" lon="11.3471367"><ele>163.33333333333334</ele><time>2026-04-11T08:18:48.922Z</time></trkpt><trkpt lat="43.7651117" lon="11.3472467"><ele>164.66666666666666</ele><time>2026-04-11T08:18:51.921Z</time></trkpt><trkpt lat="43.765115" lon="11.3473683"><ele>166.0</ele><time>2026-04-11T08:18:54.922Z</time></trkpt><trkpt lat="43.7651267" lon="11.3474617"><ele>167.33333333333331</ele><time>2026-04-11T08:18:56.922Z</time></trkpt><trkpt lat="43.7651217" lon="11.3475533"><ele>168.66666666666666</ele><time>2026-04-11T08:18:58.921Z</time></trkpt><trkpt lat="43.7651083" lon="11.3476633"><ele>170.0</ele><time>2026-04-11T08:19:01.921Z</time></trkpt><trkpt lat="43.765115" lon="11.34777"><ele>170.0</ele><time>2026-04-11T08:19:03.921Z</time></trkpt><trkpt lat="43.7651367" lon="11.3478967"><ele>170.0</ele><time>2026-04-11T08:19:06.921Z</time></trkpt><trkpt lat="43.76516" lon="11.3480067"><ele>170.0</ele><time>2026-04-11T08:19:09.922Z</time></trkpt><trkpt lat="43.765165" lon="11.34811"><ele>170.0</ele><time>2026-04-11T08:19:12.921Z</time></trkpt><trkpt lat="43.7651733" lon="11.3482067"><ele>170.0</ele><time>2026-04-11T08:19:14.922Z</time></trkpt><trkpt lat="43.76518" lon="11.3482967"><ele>170.0</ele><time>2026-04-11T08:19:16.921Z</time></trkpt><trkpt lat="43.76521" lon="11.3484133"><ele>166.83333333333331</ele><time>2026-04-11T08:19:19.922Z</time></trkpt><trkpt lat="43.76521" lon="11.348525"><ele>163.66666666666666</ele><time>2026-04-11T08:19:22.922Z</time></trkpt><trkpt lat="43.7652183" lon="11.3486133"><ele>160.5</ele><time>2026-04-11T08:19:25.921Z</time></trkpt><trkpt lat="43.7652333" lon="11.3487167"><ele>157.33333333333334</ele><time>2026-04-11T08:19:28.921Z</time></trkpt><trkpt lat="43.7652567" lon="11.3488233"><ele>154.16666666666669</ele><time>2026-04-11T08:19:31.921Z</time></trkpt><trkpt lat="43.76528" lon="11.3489083"><ele>151.0</ele><time>2026-04-11T08:19:34.922Z</time></trkpt><trkpt lat="43.7653183" lon="11.3490133"><ele>151.0</ele><time>2026-04-11T08:19:38.921Z</time></trkpt><trkpt lat="43.765375" lon="11.3491167"><ele>151.0</ele><time>2026-04-11T08:19:41.922Z</time></trkpt><trkpt lat="43.7654333" lon="11.3491867"><ele>151.0</ele><time>2026-04-11T08:19:43.922Z</time></trkpt><trkpt lat="43.7654833" lon="11.3492433"><ele>151.0</ele><time>2026-04-11T08:19:44.922Z</time></trkpt><trkpt lat="43.7655633" lon="11.34932"><ele>151.0</ele><time>2026-04-11T08:19:46.921Z</time></trkpt><trkpt lat="43.76563" lon="11.3493783"><ele>151.0</ele><time>2026-04-11T08:19:48.921Z</time></trkpt><trkpt lat="43.7656917" lon="11.3494233"><ele>151.0</ele><time>2026-04-11T08:19:50.921Z</time></trkpt><trkpt lat="43.7657633" lon="11.349475"><ele>151.0</ele><time>2026-04-11T08:19:53.922Z</time></trkpt><trkpt lat="43.7658417" lon="11.3495467"><ele>151.0</ele><time>2026-04-11T08:19:56.921Z</time></trkpt><trkpt lat="43.7659033" lon="11.3495733"><ele>151.0</ele><time>2026-04-11T08:19:59.922Z</time></trkpt><trkpt lat="43.7659717" lon="11.3496083"><ele>151.0</ele><time>2026-04-11T08:20:03.921Z</time></trkpt><trkpt lat="43.7660483" lon="11.3496517"><ele>151.0</ele><time>2026-04-11T08:20:07.921Z</time></trkpt><trkpt lat="43.766115" lon="11.3497117"><ele>150.14285714285717</ele><time>2026-04-11T08:20:11.921Z</time></trkpt><trkpt lat="43.766175" lon="11.3497917"><ele>149.28571428571428</ele><time>2026-04-11T08:20:15.921Z</time></trkpt><trkpt lat="43.76622" lon="11.3498733"><ele>148.42857142857144</ele><time>2026-04-11T08:20:19.922Z</time></trkpt><trkpt lat="43.76624" lon="11.3499583"><ele>147.57142857142858</ele><time>2026-04-11T08:20:23.921Z</time></trkpt><trkpt lat="43.766255" lon="11.3500467"><ele>146.71428571428572</ele><time>2026-04-11T08:20:27.921Z</time></trkpt><trkpt lat="43.7662717" lon="11.3501367"><ele>145.85714285714286</ele><time>2026-04-11T08:20:31.921Z</time></trkpt><trkpt lat="43.7662917" lon="11.350235"><ele>145.0</ele><time>2026-04-11T08:20:35.922Z</time></trkpt><trkpt lat="43.7663133" lon="11.3503333"><ele>145.0</ele><time>2026-04-11T08:20:39.921Z</time></trkpt><trkpt lat="43.7663383" lon="11.3504333"><ele>145.0</ele><time>2026-04-11T08:20:43.922Z</time></trkpt><trkpt lat="43.7663633" lon="11.35052"><ele>145.0</ele><time>2026-04-11T08:20:46.921Z</time></trkpt><trkpt lat="43.7663833" lon="11.350605"><ele>145.0</ele><time>2026-04-11T08:20:48.921Z</time></trkpt><trkpt lat="43.7664117" lon="11.350725"><ele>145.0</ele><time>2026-04-11T08:20:51.921Z</time></trkpt><trkpt lat="43.766435" lon="11.3508517"><ele>145.0</ele><time>2026-04-11T08:20:54.921Z</time></trkpt><trkpt lat="43.76645" lon="11.3509483"><ele>146.33333333333334</ele><time>2026-04-11T08:20:56.921Z</time></trkpt><trkpt lat="43.7664883" lon="11.3510617"><ele>147.66666666666669</ele><time>2026-04-11T08:20:59.921Z</time></trkpt><trkpt lat="43.76654" lon="11.3511617"><ele>149.0</ele><time>2026-04-11T08:21:02.921Z</time></trkpt><trkpt lat="43.76657" lon="11.3512517"><ele>150.33333333333334</ele><time>2026-04-11T08:21:04.921Z</time></trkpt><trkpt lat="43.7665917" lon="11.3513417"><ele>151.66666666666666</ele><time>2026-04-11T08:21:06.921Z</time></trkpt><trkpt lat="43.7666167" lon="11.3514417"><ele>153.0</ele><time>2026-04-11T08:21:08.921Z</time></trkpt><trkpt lat="43.7666367" lon="11.3515517"><ele>154.0</ele><time>2026-04-11T08:21:10.922Z</time></trkpt><trkpt lat="43.7666567" lon="11.35168"><ele>155.0</ele><time>2026-04-11T08:21:12.921Z</time></trkpt><trkpt lat="43.7666733" lon="11.3518067"><ele>156.0</ele><time>2026-04-11T08:21:14.921Z</time></trkpt><trkpt lat="43.766695" lon="11.351935"><ele>157.0</ele><time>2026-04-11T08:21:16.922Z</time></trkpt><trkpt lat="43.766715" lon="11.352075"><ele>158.0</ele><time>2026-04-11T08:21:18.922Z</time></trkpt><trkpt lat="43.7667333" lon="11.3522133"><ele>158.20000000000002</ele><time>2026-04-11T08:21:20.921Z</time></trkpt><trkpt lat="43.7667467" lon="11.3523517"><ele>158.4</ele><time>2026-04-11T08:21:22.922Z</time></trkpt><trkpt lat="43.7667633" lon="11.35249"><ele>158.60000000000002</ele><time>2026-04-11T08:21:24.921Z</time></trkpt><trkpt lat="43.7667767" lon="11.35263"><ele>158.8</ele><time>2026-04-11T08:21:26.921Z</time></trkpt><trkpt lat="43.766785" lon="11.352775"><ele>159.0</ele><time>2026-04-11T08:21:28.921Z</time></trkpt><trkpt lat="43.7668083" lon="11.352915"><ele>159.0</ele><time>2026-04-11T08:21:30.921Z</time></trkpt><trkpt lat="43.76682" lon="11.3530783"><ele>159.0</ele><time>2026-04-11T08:21:32.921Z</time></trkpt><trkpt lat="43.7668267" lon="11.3531683"><ele>159.0</ele><time>2026-04-11T08:21:33.921Z</time></trkpt><trkpt lat="43.7668333" lon="11.35327"><ele>159.0</ele><time>2026-04-11T08:21:34.921Z</time></trkpt><trkpt lat="43.7668317" lon="11.3533817"><ele>159.0</ele><time>2026-04-11T08:21:35.922Z</time></trkpt><trkpt lat="43.7668267" lon="11.3534883"><ele>159.0</ele><time>2026-04-11T08:21:36.921Z</time></trkpt><trkpt lat="43.7668183" lon="11.3535933"><ele>159.0</ele><time>2026-04-11T08:21:37.921Z</time></trkpt><trkpt lat="43.7667983" lon="11.3537033"><ele>159.0</ele><time>2026-04-11T08:21:38.921Z</time></trkpt><trkpt lat="43.7667717" lon="11.3538117"><ele>159.0</ele><time>2026-04-11T08:21:39.921Z</time></trkpt><trkpt lat="43.7667433" lon="11.3539167"><ele>159.0</ele><time>2026-04-11T08:21:40.921Z</time></trkpt><trkpt lat="43.7667133" lon="11.354015"><ele>159.0</ele><time>2026-04-11T08:21:41.921Z</time></trkpt><trkpt lat="43.7666867" lon="11.3541017"><ele>159.0</ele><time>2026-04-11T08:21:42.922Z</time></trkpt><trkpt lat="43.76666" lon="11.354205"><ele>158.33333333333334</ele><time>2026-04-11T08:21:43.922Z</time></trkpt><trkpt lat="43.766635" lon="11.3543017"><ele>157.66666666666666</ele><time>2026-04-11T08:21:44.921Z</time></trkpt><trkpt lat="43.7666067" lon="11.3543883"><ele>157.0</ele><time>2026-04-11T08:21:45.921Z</time></trkpt><trkpt lat="43.7665667" lon="11.35454"><ele>156.33333333333331</ele><time>2026-04-11T08:21:47.922Z</time></trkpt><trkpt lat="43.7665367" lon="11.3546517"><ele>155.66666666666666</ele><time>2026-04-11T08:21:49.921Z</time></trkpt><trkpt lat="43.7665067" lon="11.35476"><ele>155.0</ele><time>2026-04-11T08:21:52.921Z</time></trkpt><trkpt lat="43.7664783" lon="11.354855"><ele>154.66666666666666</ele><time>2026-04-11T08:21:55.921Z</time></trkpt><trkpt lat="43.7664533" lon="11.354965"><ele>154.33333333333331</ele><time>2026-04-11T08:21:58.921Z</time></trkpt><trkpt lat="43.7664233" lon="11.3550683"><ele>154.0</ele><time>2026-04-11T08:22:01.921Z</time></trkpt><trkpt lat="43.766395" lon="11.3551667"><ele>153.66666666666666</ele><time>2026-04-11T08:22:04.921Z</time></trkpt><trkpt lat="43.7663733" lon="11.3552633"><ele>153.33333333333334</ele><time>2026-04-11T08:22:07.922Z</time></trkpt><trkpt lat="43.7663367" lon="11.355365"><ele>153.0</ele><time>2026-04-11T08:22:10.922Z</time></trkpt><trkpt lat="43.7662917" lon="11.35546"><ele>152.5</ele><time>2026-04-11T08:22:13.921Z</time></trkpt><trkpt lat="43.7662617" lon="11.355565"><ele>152.0</ele><time>2026-04-11T08:22:16.921Z</time></trkpt><trkpt lat="43.7662417" lon="11.355675"><ele>151.5</ele><time>2026-04-11T08:22:19.921Z</time></trkpt><trkpt lat="43.7662167" lon="11.35577"><ele>151.0</ele><time>2026-04-11T08:22:23.921Z</time></trkpt><trkpt lat="43.7661817" lon="11.355865"><ele>150.5</ele><time>2026-04-11T08:22:27.922Z</time></trkpt><trkpt lat="43.7661583" lon="11.3559633"><ele>150.0</ele><time>2026-04-11T08:22:31.921Z</time></trkpt><trkpt lat="43.7661233" lon="11.35605"><ele>149.99999999999997</ele><time>2026-04-11T08:22:35.921Z</time></trkpt><trkpt lat="43.7660817" lon="11.3561333"><ele>150.0</ele><time>2026-04-11T08:22:39.922Z</time></trkpt><trkpt lat="43.7660367" lon="11.3562133"><ele>150.0</ele><time>2026-04-11T08:22:43.921Z</time></trkpt><trkpt lat="43.7659783" lon="11.356275"><ele>150.0</ele><time>2026-04-11T08:22:47.921Z</time></trkpt><trkpt lat="43.7659333" lon="11.3563383"><ele>150.0</ele><time>2026-04-11T08:22:50.921Z</time></trkpt><trkpt lat="43.7658883" lon="11.356425"><ele>149.99999999999997</ele><time>2026-04-11T08:22:54.921Z</time></trkpt><trkpt lat="43.7658383" lon="11.3565"><ele>150.0</ele><time>2026-04-11T08:22:57.921Z</time></trkpt><trkpt lat="43.765795" lon="11.3565667"><ele>152.83333333333334</ele><time>2026-04-11T08:23:00.921Z</time></trkpt><trkpt lat="43.7657417" lon="11.3566517"><ele>155.66666666666666</ele><time>2026-04-11T08:23:03.921Z</time></trkpt><trkpt lat="43.7656917" lon="11.3567383"><ele>158.5</ele><time>2026-04-11T08:23:06.921Z</time></trkpt><trkpt lat="43.7656467" lon="11.35683"><ele>161.33333333333331</ele><time>2026-04-11T08:23:09.922Z</time></trkpt><trkpt lat="43.7656017" lon="11.3569117"><ele>164.16666666666666</ele><time>2026-04-11T08:23:12.921Z</time></trkpt><trkpt lat="43.765545" lon="11.3570033"><ele>167.0</ele><time>2026-04-11T08:23:15.921Z</time></trkpt><trkpt lat="43.7654933" lon="11.35709"><ele>167.0</ele><time>2026-04-11T08:23:18.921Z</time></trkpt><trkpt lat="43.7654383" lon="11.3571633"><ele>167.0</ele><time>2026-04-11T08:23:21.922Z</time></trkpt><trkpt lat="43.76538" lon="11.3572283"><ele>167.0</ele><time>2026-04-11T08:23:24.921Z</time></trkpt><trkpt lat="43.7653283" lon="11.3572933"><ele>167.0</ele><time>2026-04-11T08:23:27.921Z</time></trkpt><trkpt lat="43.76526" lon="11.3573667"><ele>167.0</ele><time>2026-04-11T08:23:31.921Z</time></trkpt><trkpt lat="43.7651983" lon="11.35746"><ele>167.0</ele><time>2026-04-11T08:23:34.921Z</time></trkpt><trkpt lat="43.76515" lon="11.3575567"><ele>166.33333333333331</ele><time>2026-04-11T08:23:37.921Z</time></trkpt><trkpt lat="43.7651217" lon="11.3576533"><ele>165.66666666666666</ele><time>2026-04-11T08:23:40.922Z</time></trkpt><trkpt lat="43.7651183" lon="11.3577617"><ele>165.0</ele><time>2026-04-11T08:23:43.922Z</time></trkpt><trkpt lat="43.7651217" lon="11.357855"><ele>164.33333333333334</ele><time>2026-04-11T08:23:46.922Z</time></trkpt><trkpt lat="43.7651633" lon="11.357955"><ele>163.66666666666669</ele><time>2026-04-11T08:23:49.921Z</time></trkpt><trkpt lat="43.7652167" lon="11.3580467"><ele>163.0</ele><time>2026-04-11T08:23:52.921Z</time></trkpt><trkpt lat="43.76525" lon="11.3581417"><ele>163.0</ele><time>2026-04-11T08:23:55.922Z</time></trkpt><trkpt lat="43.7652883" lon="11.3582383"><ele>163.0</ele><time>2026-04-11T08:23:58.921Z</time></trkpt><trkpt lat="43.7653267" lon="11.3583383"><ele>163.0</ele><time>2026-04-11T08:24:01.921Z</time></trkpt><trkpt lat="43.7653583" lon="11.3584283"><ele>163.0</ele><time>2026-04-11T08:24:04.921Z</time></trkpt><trkpt lat="43.7653983" lon="11.3585433"><ele>163.0</ele><time>2026-04-11T08:24:07.922Z</time></trkpt><trkpt lat="43.7654483" lon="11.3586617"><ele>163.0</ele><time>2026-04-11T08:24:10.921Z</time></trkpt><trkpt lat="43.7654867" lon="11.3587683"><ele>163.0</ele><time>2026-04-11T08:24:13.922Z</time></trkpt><trkpt lat="43.7655233" lon="11.35885"><ele>163.0</ele><time>2026-04-11T08:24:16.922Z</time></trkpt><trkpt lat="43.7655633" lon="11.3589367"><ele>163.0</ele><time>2026-04-11T08:24:20.921Z</time></trkpt><trkpt lat="43.7655933" lon="11.3590167"><ele>163.0</ele><time>2026-04-11T08:24:24.922Z</time></trkpt><trkpt lat="43.7656233" lon="11.3591233"><ele>163.0</ele><time>2026-04-11T08:24:28.921Z</time></trkpt><trkpt lat="43.7656667" lon="11.3592067"><ele>163.0</ele><time>2026-04-11T08:24:32.921Z</time></trkpt><trkpt lat="43.7657067" lon="11.359295"><ele>163.0</ele><time>2026-04-11T08:24:37.921Z</time></trkpt><trkpt lat="43.7657367" lon="11.3593717"><ele>164.83333333333334</ele><time>2026-04-11T08:24:42.922Z</time></trkpt><trkpt lat="43.7657767" lon="11.3594517"><ele>166.66666666666669</ele><time>2026-04-11T08:24:47.921Z</time></trkpt><trkpt lat="43.7658117" lon="11.35954"><ele>168.5</ele><time>2026-04-11T08:24:52.921Z</time></trkpt><trkpt lat="43.76585" lon="11.3596317"><ele>170.33333333333334</ele><time>2026-04-11T08:24:57.922Z</time></trkpt><trkpt lat="43.7659" lon="11.35975"><ele>172.16666666666666</ele><time>2026-04-11T08:25:04.921Z</time></trkpt><trkpt lat="43.7659183" lon="11.3598433"><ele>174.0</ele><time>2026-04-11T08:25:09.921Z</time></trkpt><trkpt lat="43.765945" lon="11.35994"><ele>174.14285714285714</ele><time>2026-04-11T08:25:14.921Z</time></trkpt><trkpt lat="43.7659633" lon="11.3600383"><ele>174.28571428571428</ele><time>2026-04-11T08:25:19.922Z</time></trkpt><trkpt lat="43.7659783" lon="11.3601233"><ele>174.42857142857144</ele><time>2026-04-11T08:25:23.92Z</time></trkpt><trkpt lat="43.766" lon="11.3602217"><ele>174.57142857142856</ele><time>2026-04-11T08:25:28.92Z</time></trkpt><trkpt lat="43.7660083" lon="11.3603083"><ele>174.71428571428572</ele><time>2026-04-11T08:25:32.92Z</time></trkpt><trkpt lat="43.7660183" lon="11.3603967"><ele>174.85714285714286</ele><time>2026-04-11T08:25:36.92Z</time></trkpt><trkpt lat="43.7660483" lon="11.360485"><ele>175.0</ele><time>2026-04-11T08:25:41.92Z</time></trkpt><trkpt lat="43.7660583" lon="11.3606133"><ele>177.4</ele><time>2026-04-11T08:25:49.921Z</time></trkpt><trkpt lat="43.7660683" lon="11.3607983"><ele>179.8</ele><time>2026-04-11T08:25:58.921Z</time></trkpt><trkpt lat="43.766075" lon="11.3609183"><ele>182.2</ele><time>2026-04-11T08:26:04.921Z</time></trkpt><trkpt lat="43.766085" lon="11.3610867"><ele>184.6</ele><time>2026-04-11T08:26:13.92Z</time></trkpt><trkpt lat="43.7660783" lon="11.361175"><ele>187.0</ele><time>2026-04-11T08:26:18.92Z</time></trkpt><trkpt lat="43.766065" lon="11.3613083"><ele>188.5</ele><time>2026-04-11T08:26:26.92Z</time></trkpt><trkpt lat="43.7660583" lon="11.3614383"><ele>190.0</ele><time>2026-04-11T08:26:33.92Z</time></trkpt><trkpt lat="43.76604" lon="11.3615383"><ele>191.5</ele><time>2026-04-11T08:26:39.92Z</time></trkpt><trkpt lat="43.7660217" lon="11.3616233"><ele>193.0</ele><time>2026-04-11T08:26:43.92Z</time></trkpt><trkpt lat="43.7659883" lon="11.3617033"><ele>194.49999999999997</ele><time>2026-04-11T08:26:48.92Z</time></trkpt><trkpt lat="43.7659367" lon="11.3618267"><ele>196.0</ele><time>2026-04-11T08:26:58.92Z</time></trkpt><trkpt lat="43.7659033" lon="11.3619083"><ele>197.99999999999997</ele><time>2026-04-11T08:27:02.92Z</time></trkpt><trkpt lat="43.7658667" lon="11.3619983"><ele>200.0</ele><time>2026-04-11T08:27:07.92Z</time></trkpt><trkpt lat="43.765835" lon="11.362095"><ele>202.0</ele><time>2026-04-11T08:27:12.92Z</time></trkpt><trkpt lat="43.7658183" lon="11.3622067"><ele>204.0</ele><time>2026-04-11T08:27:18.921Z</time></trkpt><trkpt lat="43.7657833" lon="11.3623633"><ele>205.99999999999997</ele><time>2026-04-11T08:27:27.92Z</time></trkpt><trkpt lat="43.7657683" lon="11.3624517"><ele>208.0</ele><time>2026-04-11T08:27:31.921Z</time></trkpt><trkpt lat="43.7657333" lon="11.3625583"><ele>208.28571428571428</ele><time>2026-04-11T08:27:35.92Z</time></trkpt><trkpt lat="43.7656933" lon="11.3626383"><ele>208.57142857142858</ele><time>2026-04-11T08:27:39.92Z</time></trkpt><trkpt lat="43.7656583" lon="11.3627117"><ele>208.85714285714286</ele><time>2026-04-11T08:27:44.92Z</time></trkpt><trkpt lat="43.7656117" lon="11.3627933"><ele>209.14285714285714</ele><time>2026-04-11T08:27:49.92Z</time></trkpt><trkpt lat="43.765545" lon="11.3628683"><ele>209.42857142857144</ele><time>2026-04-11T08:27:53.92Z</time></trkpt><trkpt lat="43.765525" lon="11.3629617"><ele>209.71428571428572</ele><time>2026-04-11T08:27:57.921Z</time></trkpt><trkpt lat="43.7655417" lon="11.3630617"><ele>210.0</ele><time>2026-04-11T08:28:01.92Z</time></trkpt><trkpt lat="43.7655833" lon="11.363155"><ele>211.14285714285714</ele><time>2026-04-11T08:28:05.92Z</time></trkpt><trkpt lat="43.7656367" lon="11.3632033"><ele>212.28571428571428</ele><time>2026-04-11T08:28:09.92Z</time></trkpt><trkpt lat="43.7657083" lon="11.3632017"><ele>213.42857142857144</ele><time>2026-04-11T08:28:13.921Z</time></trkpt><trkpt lat="43.7657817" lon="11.3631833"><ele>214.57142857142856</ele><time>2026-04-11T08:28:16.92Z</time></trkpt><trkpt lat="43.765855" lon="11.3631733"><ele>215.71428571428572</ele><time>2026-04-11T08:28:19.92Z</time></trkpt><trkpt lat="43.765925" lon="11.3631767"><ele>216.85714285714286</ele><time>2026-04-11T08:28:22.92Z</time></trkpt><trkpt lat="43.7659983" lon="11.3631683"><ele>218.0</ele><time>2026-04-11T08:28:25.92Z</time></trkpt><trkpt lat="43.7660717" lon="11.3631717"><ele>218.00000000000003</ele><time>2026-04-11T08:28:28.92Z</time></trkpt><trkpt lat="43.7661483" lon="11.363175"><ele>218.0</ele><time>2026-04-11T08:28:32.92Z</time></trkpt><trkpt lat="43.7662283" lon="11.3631767"><ele>218.0</ele><time>2026-04-11T08:28:36.92Z</time></trkpt><trkpt lat="43.76631" lon="11.363185"><ele>218.0</ele><time>2026-04-11T08:28:40.92Z</time></trkpt><trkpt lat="43.7663817" lon="11.3631967"><ele>218.00000000000003</ele><time>2026-04-11T08:28:44.92Z</time></trkpt><trkpt lat="43.7664567" lon="11.3632183"><ele>218.0</ele><time>2026-04-11T08:28:48.92Z</time></trkpt><trkpt lat="43.7665517" lon="11.36324"><ele>218.0</ele><time>2026-04-11T08:28:54.921Z</time></trkpt><trkpt lat="43.76663" lon="11.3632583"><ele>218.0</ele><time>2026-04-11T08:28:58.92Z</time></trkpt><trkpt lat="43.7666883" lon="11.3632983"><ele>218.0</ele><time>2026-04-11T08:29:01.92Z</time></trkpt><trkpt lat="43.766755" lon="11.363345"><ele>218.0</ele><time>2026-04-11T08:29:04.92Z</time></trkpt><trkpt lat="43.7668017" lon="11.3634117"><ele>218.0</ele><time>2026-04-11T08:29:07.921Z</time></trkpt><trkpt lat="43.7668317" lon="11.363495"><ele>218.0</ele><time>2026-04-11T08:29:10.921Z</time></trkpt><trkpt lat="43.7668517" lon="11.3636033"><ele>218.0</ele><time>2026-04-11T08:29:14.92Z</time></trkpt><trkpt lat="43.7668483" lon="11.3637083"><ele>218.0</ele><time>2026-04-11T08:29:18.92Z</time></trkpt><trkpt lat="43.76684" lon="11.363795"><ele>218.0</ele><time>2026-04-11T08:29:22.92Z</time></trkpt><trkpt lat="43.76683" lon="11.3638917"><ele>218.0</ele><time>2026-04-11T08:29:26.92Z</time></trkpt><trkpt lat="43.7668183" lon="11.363995"><ele>218.0</ele><time>2026-04-11T08:29:31.92Z</time></trkpt><trkpt lat="43.7667933" lon="11.3640967"><ele>218.0</ele><time>2026-04-11T08:29:36.92Z</time></trkpt><trkpt lat="43.766785" lon="11.3642017"><ele>218.0</ele><time>2026-04-11T08:29:40.92Z</time></trkpt><trkpt lat="43.7667733" lon="11.3643067"><ele>218.0</ele><time>2026-04-11T08:29:44.92Z</time></trkpt><trkpt lat="43.7667533" lon="11.3644033"><ele>220.14285714285714</ele><time>2026-04-11T08:29:48.921Z</time></trkpt><trkpt lat="43.7667517" lon="11.3644933"><ele>222.28571428571428</ele><time>2026-04-11T08:29:52.921Z</time></trkpt><trkpt lat="43.7667533" lon="11.3646"><ele>224.42857142857144</ele><time>2026-04-11T08:29:57.92Z</time></trkpt><trkpt lat="43.7667667" lon="11.36469"><ele>226.57142857142856</ele><time>2026-04-11T08:30:01.92Z</time></trkpt><trkpt lat="43.766755" lon="11.3647867"><ele>228.7142857142857</ele><time>2026-04-11T08:30:05.92Z</time></trkpt><trkpt lat="43.7667517" lon="11.3648983"><ele>230.85714285714286</ele><time>2026-04-11T08:30:10.921Z</time></trkpt><trkpt lat="43.76675" lon="11.3649967"><ele>233.0</ele><time>2026-04-11T08:30:14.92Z</time></trkpt><trkpt lat="43.7667567" lon="11.3651"><ele>234.00000000000003</ele><time>2026-04-11T08:30:19.92Z</time></trkpt><trkpt lat="43.7667517" lon="11.3652133"><ele>235.0</ele><time>2026-04-11T08:30:24.921Z</time></trkpt><trkpt lat="43.7667567" lon="11.3653033"><ele>236.0</ele><time>2026-04-11T08:30:28.92Z</time></trkpt><trkpt lat="43.7667483" lon="11.3653983"><ele>237.0</ele><time>2026-04-11T08:30:33.92Z</time></trkpt><trkpt lat="43.76674" lon="11.365485"><ele>238.00000000000003</ele><time>2026-04-11T08:30:37.92Z</time></trkpt><trkpt lat="43.766695" lon="11.3656383"><ele>239.0</ele><time>2026-04-11T08:30:46.92Z</time></trkpt><trkpt lat="43.766625" lon="11.365775"><ele>239.00000000000003</ele><time>2026-04-11T08:30:55.92Z</time></trkpt><trkpt lat="43.76659" lon="11.3658667"><ele>239.0</ele><time>2026-04-11T08:30:59.92Z</time></trkpt><trkpt lat="43.7665567" lon="11.365945"><ele>239.00000000000003</ele><time>2026-04-11T08:31:03.92Z</time></trkpt><trkpt lat="43.7665283" lon="11.366035"><ele>239.00000000000003</ele><time>2026-04-11T08:31:09.92Z</time></trkpt><trkpt lat="43.7665117" lon="11.366135"><ele>239.0</ele><time>2026-04-11T08:31:13.92Z</time></trkpt><trkpt lat="43.7664683" lon="11.36622"><ele>239.00000000000003</ele><time>2026-04-11T08:31:18.92Z</time></trkpt><trkpt lat="43.7664167" lon="11.3663017"><ele>239.00000000000003</ele><time>2026-04-11T08:31:23.921Z</time></trkpt><trkpt lat="43.7663817" lon="11.3663867"><ele>237.50000000000003</ele><time>2026-04-11T08:31:28.92Z</time></trkpt><trkpt lat="43.766345" lon="11.36646"><ele>236.0</ele><time>2026-04-11T08:31:32.92Z</time></trkpt><trkpt lat="43.7663" lon="11.36654"><ele>234.5</ele><time>2026-04-11T08:31:36.92Z</time></trkpt><trkpt lat="43.76622" lon="11.366745"><ele>233.0</ele><time>2026-04-11T08:31:48.92Z</time></trkpt><trkpt lat="43.7661817" lon="11.36684"><ele>231.50000000000003</ele><time>2026-04-11T08:31:53.92Z</time></trkpt><trkpt lat="43.7661467" lon="11.3669133"><ele>230.0</ele><time>2026-04-11T08:31:57.92Z</time></trkpt><trkpt lat="43.7661133" lon="11.367"><ele>230.00000000000003</ele><time>2026-04-11T08:32:02.92Z</time></trkpt><trkpt lat="43.7660783" lon="11.3670917"><ele>230.0</ele><time>2026-04-11T08:32:07.92Z</time></trkpt><trkpt lat="43.7660533" lon="11.3671817"><ele>230.0</ele><time>2026-04-11T08:32:12.92Z</time></trkpt><trkpt lat="43.766075" lon="11.367345"><ele>230.0</ele><time>2026-04-11T08:34:46.92Z</time></trkpt><trkpt lat="43.7660083" lon="11.3674033"><ele>230.00000000000003</ele><time>2026-04-11T08:35:04.92Z</time></trkpt><trkpt lat="43.765965" lon="11.3674717"><ele>230.0</ele><time>2026-04-11T08:35:08.92Z</time></trkpt><trkpt lat="43.7659283" lon="11.3675483"><ele>233.85714285714283</ele><time>2026-04-11T08:35:12.92Z</time></trkpt><trkpt lat="43.76589" lon="11.3676217"><ele>237.71428571428572</ele><time>2026-04-11T08:35:15.92Z</time></trkpt><trkpt lat="43.7658417" lon="11.3676967"><ele>241.57142857142856</ele><time>2026-04-11T08:35:19.921Z</time></trkpt><trkpt lat="43.765795" lon="11.3677817"><ele>245.42857142857142</ele><time>2026-04-11T08:35:23.92Z</time></trkpt><trkpt lat="43.76575" lon="11.36786"><ele>249.28571428571428</ele><time>2026-04-11T08:35:27.92Z</time></trkpt><trkpt lat="43.76571" lon="11.3679333"><ele>253.14285714285714</ele><time>2026-04-11T08:35:31.92Z</time></trkpt><trkpt lat="43.7656583" lon="11.368015"><ele>257.0</ele><time>2026-04-11T08:35:36.921Z</time></trkpt><trkpt lat="43.7656067" lon="11.36809"><ele>257.0</ele><time>2026-04-11T08:35:40.92Z</time></trkpt><trkpt lat="43.7655683" lon="11.3681633"><ele>257.0</ele><time>2026-04-11T08:35:44.92Z</time></trkpt><trkpt lat="43.765555" lon="11.368265"><ele>257.0</ele><time>2026-04-11T08:35:48.92Z</time></trkpt><trkpt lat="43.7655717" lon="11.3683733"><ele>257.0</ele><time>2026-04-11T08:35:52.92Z</time></trkpt><trkpt lat="43.7655867" lon="11.3684633"><ele>257.0</ele><time>2026-04-11T08:35:55.92Z</time></trkpt><trkpt lat="43.7656017" lon="11.368565"><ele>257.0</ele><time>2026-04-11T08:36:00.92Z</time></trkpt><trkpt lat="43.765615" lon="11.3686667"><ele>257.0</ele><time>2026-04-11T08:36:04.921Z</time></trkpt><trkpt lat="43.765635" lon="11.3687733"><ele>257.33333333333337</ele><time>2026-04-11T08:36:08.92Z</time></trkpt><trkpt lat="43.7656617" lon="11.36888"><ele>257.6666666666667</ele><time>2026-04-11T08:36:12.92Z</time></trkpt><trkpt lat="43.7656683" lon="11.3689683"><ele>258.0</ele><time>2026-04-11T08:36:15.92Z</time></trkpt><trkpt lat="43.7656667" lon="11.369075"><ele>258.3333333333333</ele><time>2026-04-11T08:36:19.92Z</time></trkpt><trkpt lat="43.7656767" lon="11.369185"><ele>258.66666666666663</ele><time>2026-04-11T08:36:23.92Z</time></trkpt><trkpt lat="43.7656783" lon="11.3692933"><ele>259.0</ele><time>2026-04-11T08:36:27.921Z</time></trkpt><trkpt lat="43.7656683" lon="11.3694017"><ele>259.0</ele><time>2026-04-11T08:36:31.92Z</time></trkpt><trkpt lat="43.7656517" lon="11.3694983"><ele>259.0</ele><time>2026-04-11T08:36:35.921Z</time></trkpt><trkpt lat="43.76564" lon="11.3695867"><ele>259.0</ele><time>2026-04-11T08:36:38.92Z</time></trkpt><trkpt lat="43.7656317" lon="11.3696933"><ele>259.0</ele><time>2026-04-11T08:36:42.92Z</time></trkpt><trkpt lat="43.7656217" lon="11.369805"><ele>259.0</ele><time>2026-04-11T08:36:46.92Z</time></trkpt><trkpt lat="43.76561" lon="11.3699033"><ele>259.0</ele><time>2026-04-11T08:36:49.92Z</time></trkpt><trkpt lat="43.76561" lon="11.369995"><ele>259.0</ele><time>2026-04-11T08:36:52.92Z</time></trkpt><trkpt lat="43.7655883" lon="11.3701117"><ele>259.2857142857143</ele><time>2026-04-11T08:36:56.921Z</time></trkpt><trkpt lat="43.7655533" lon="11.3702033"><ele>259.57142857142856</ele><time>2026-04-11T08:36:59.92Z</time></trkpt><trkpt lat="43.7655233" lon="11.370285"><ele>259.8571428571429</ele><time>2026-04-11T08:37:02.92Z</time></trkpt><trkpt lat="43.7654717" lon="11.3703567"><ele>260.1428571428571</ele><time>2026-04-11T08:37:05.92Z</time></trkpt><trkpt lat="43.7654117" lon="11.37043"><ele>260.42857142857144</ele><time>2026-04-11T08:37:09.921Z</time></trkpt><trkpt lat="43.7653433" lon="11.3704783"><ele>260.7142857142857</ele><time>2026-04-11T08:37:12.92Z</time></trkpt><trkpt lat="43.7652867" lon="11.3705367"><ele>261.0</ele><time>2026-04-11T08:37:16.92Z</time></trkpt><trkpt lat="43.7652333" lon="11.3705867"><ele>264.5</ele><time>2026-04-11T08:37:19.921Z</time></trkpt><trkpt lat="43.7651883" lon="11.3706733"><ele>268.0</ele><time>2026-04-11T08:37:23.921Z</time></trkpt><trkpt lat="43.765135" lon="11.3707567"><ele>271.5</ele><time>2026-04-11T08:37:26.921Z</time></trkpt><trkpt lat="43.76509" lon="11.3708433"><ele>275.0</ele><time>2026-04-11T08:37:29.92Z</time></trkpt><trkpt lat="43.7650683" lon="11.3709433"><ele>278.5</ele><time>2026-04-11T08:37:32.921Z</time></trkpt><trkpt lat="43.7650533" lon="11.371055"><ele>282.0</ele><time>2026-04-11T08:37:36.92Z</time></trkpt><trkpt lat="43.7650383" lon="11.3711667"><ele>282.0</ele><time>2026-04-11T08:37:39.92Z</time></trkpt><trkpt lat="43.7650483" lon="11.3712633"><ele>282.0</ele><time>2026-04-11T08:37:43.92Z</time></trkpt><trkpt lat="43.76505" lon="11.37138"><ele>282.0</ele><time>2026-04-11T08:37:48.92Z</time></trkpt><trkpt lat="43.765065" lon="11.3714783"><ele>282.0</ele><time>2026-04-11T08:37:51.921Z</time></trkpt><trkpt lat="43.7650783" lon="11.3715667"><ele>282.0</ele><time>2026-04-11T08:37:54.92Z</time></trkpt><trkpt lat="43.76509" lon="11.3716717"><ele>282.0</ele><time>2026-04-11T08:37:57.92Z</time></trkpt><trkpt lat="43.765095" lon="11.3717733"><ele>282.0</ele><time>2026-04-11T08:38:00.92Z</time></trkpt><trkpt lat="43.76512" lon="11.3718817"><ele>282.3333333333333</ele><time>2026-04-11T08:38:03.921Z</time></trkpt><trkpt lat="43.765145" lon="11.3719733"><ele>282.6666666666667</ele><time>2026-04-11T08:38:06.92Z</time></trkpt><trkpt lat="43.7651983" lon="11.3720717"><ele>283.0</ele><time>2026-04-11T08:38:09.92Z</time></trkpt><trkpt lat="43.7652583" lon="11.3721317"><ele>283.33333333333337</ele><time>2026-04-11T08:38:12.92Z</time></trkpt><trkpt lat="43.76533" lon="11.3721867"><ele>283.6666666666667</ele><time>2026-04-11T08:38:15.92Z</time></trkpt><trkpt lat="43.765395" lon="11.3722283"><ele>284.0</ele><time>2026-04-11T08:38:18.92Z</time></trkpt><trkpt lat="43.7654583" lon="11.37227"><ele>281.42857142857144</ele><time>2026-04-11T08:38:21.92Z</time></trkpt><trkpt lat="43.76552" lon="11.3723133"><ele>278.85714285714283</ele><time>2026-04-11T08:38:24.92Z</time></trkpt><trkpt lat="43.7655783" lon="11.3723683"><ele>276.2857142857143</ele><time>2026-04-11T08:38:27.92Z</time></trkpt><trkpt lat="43.76564" lon="11.3724467"><ele>273.7142857142857</ele><time>2026-04-11T08:38:30.92Z</time></trkpt><trkpt lat="43.7656833" lon="11.3725383"><ele>271.1428571428571</ele><time>2026-04-11T08:38:33.92Z</time></trkpt><trkpt lat="43.7656917" lon="11.3726433"><ele>268.57142857142856</ele><time>2026-04-11T08:38:36.921Z</time></trkpt><trkpt lat="43.7656733" lon="11.3727283"><ele>266.0</ele><time>2026-04-11T08:38:39.92Z</time></trkpt><trkpt lat="43.7656483" lon="11.3728133"><ele>266.0</ele><time>2026-04-11T08:38:42.92Z</time></trkpt><trkpt lat="43.765625" lon="11.372905"><ele>266.0</ele><time>2026-04-11T08:38:46.921Z</time></trkpt><trkpt lat="43.7655917" lon="11.3729933"><ele>266.0</ele><time>2026-04-11T08:38:50.92Z</time></trkpt><trkpt lat="43.7655433" lon="11.3730767"><ele>266.0</ele><time>2026-04-11T08:38:54.92Z</time></trkpt><trkpt lat="43.765475" lon="11.3731317"><ele>266.0</ele><time>2026-04-11T08:38:58.921Z</time></trkpt><trkpt lat="43.76541" lon="11.3731683"><ele>266.0</ele><time>2026-04-11T08:39:01.92Z</time></trkpt><trkpt lat="43.7653433" lon="11.373195"><ele>266.0</ele><time>2026-04-11T08:39:04.92Z</time></trkpt><trkpt lat="43.7652817" lon="11.3732317"><ele>265.2857142857143</ele><time>2026-04-11T08:39:07.92Z</time></trkpt><trkpt lat="43.7652083" lon="11.373275"><ele>264.57142857142856</ele><time>2026-04-11T08:39:10.92Z</time></trkpt><trkpt lat="43.7651433" lon="11.37334"><ele>263.8571428571429</ele><time>2026-04-11T08:39:13.92Z</time></trkpt><trkpt lat="43.76508" lon="11.3733883"><ele>263.1428571428571</ele><time>2026-04-11T08:39:16.92Z</time></trkpt><trkpt lat="43.7650217" lon="11.3734333"><ele>262.42857142857144</ele><time>2026-04-11T08:39:19.92Z</time></trkpt><trkpt lat="43.76496" lon="11.37347"><ele>261.7142857142857</ele><time>2026-04-11T08:39:22.92Z</time></trkpt><trkpt lat="43.7648883" lon="11.3735267"><ele>261.0</ele><time>2026-04-11T08:39:26.92Z</time></trkpt><trkpt lat="43.7648333" lon="11.3735717"><ele>261.0</ele><time>2026-04-11T08:39:29.92Z</time></trkpt><trkpt lat="43.7647733" lon="11.3736067"><ele>261.0</ele><time>2026-04-11T08:39:32.92Z</time></trkpt><trkpt lat="43.76469" lon="11.3736367"><ele>261.0</ele><time>2026-04-11T08:39:36.92Z</time></trkpt><trkpt lat="43.764635" lon="11.3736883"><ele>261.0</ele><time>2026-04-11T08:39:39.92Z</time></trkpt><trkpt lat="43.7645917" lon="11.37376"><ele>261.0</ele><time>2026-04-11T08:39:42.921Z</time></trkpt><trkpt lat="43.7645367" lon="11.3738233"><ele>261.0</ele><time>2026-04-11T08:39:45.92Z</time></trkpt><trkpt lat="43.7644783" lon="11.373895"><ele>261.0</ele><time>2026-04-11T08:39:49.92Z</time></trkpt><trkpt lat="43.7644283" lon="11.3739617"><ele>264.0</ele><time>2026-04-11T08:39:52.92Z</time></trkpt><trkpt lat="43.7643583" lon="11.3740017"><ele>267.0</ele><time>2026-04-11T08:39:55.92Z</time></trkpt><trkpt lat="43.7642833" lon="11.37404"><ele>270.0</ele><time>2026-04-11T08:39:58.92Z</time></trkpt><trkpt lat="43.764215" lon="11.3740483"><ele>273.0</ele><time>2026-04-11T08:40:01.921Z</time></trkpt><trkpt lat="43.7641383" lon="11.3740517"><ele>276.0</ele><time>2026-04-11T08:40:05.92Z</time></trkpt><trkpt lat="43.76407" lon="11.3740733"><ele>279.0</ele><time>2026-04-11T08:40:08.921Z</time></trkpt><trkpt lat="43.7639983" lon="11.3741083"><ele>282.0</ele><time>2026-04-11T08:40:11.92Z</time></trkpt><trkpt lat="43.7639267" lon="11.37414"><ele>282.0</ele><time>2026-04-11T08:40:14.92Z</time></trkpt><trkpt lat="43.7638483" lon="11.37418"><ele>282.0</ele><time>2026-04-11T08:40:17.92Z</time></trkpt><trkpt lat="43.76378" lon="11.374225"><ele>282.0</ele><time>2026-04-11T08:40:20.92Z</time></trkpt><trkpt lat="43.7637033" lon="11.3742583"><ele>282.0</ele><time>2026-04-11T08:40:23.92Z</time></trkpt><trkpt lat="43.7636367" lon="11.3743233"><ele>282.0</ele><time>2026-04-11T08:40:26.92Z</time></trkpt><trkpt lat="43.7635783" lon="11.3743967"><ele>282.0</ele><time>2026-04-11T08:40:29.921Z</time></trkpt><trkpt lat="43.7635217" lon="11.374475"><ele>282.3333333333333</ele><time>2026-04-11T08:40:32.92Z</time></trkpt><trkpt lat="43.7634733" lon="11.37456"><ele>282.6666666666667</ele><time>2026-04-11T08:40:35.92Z</time></trkpt><trkpt lat="43.76345" lon="11.3746467"><ele>283.0</ele><time>2026-04-11T08:40:37.92Z</time></trkpt><trkpt lat="43.7634217" lon="11.3747533"><ele>283.33333333333337</ele><time>2026-04-11T08:40:39.92Z</time></trkpt><trkpt lat="43.76339" lon="11.37489"><ele>283.6666666666667</ele><time>2026-04-11T08:40:41.92Z</time></trkpt><trkpt lat="43.763365" lon="11.375035"><ele>284.0</ele><time>2026-04-11T08:40:43.92Z</time></trkpt><trkpt lat="43.7633467" lon="11.3751667"><ele>284.0</ele><time>2026-04-11T08:40:45.92Z</time></trkpt><trkpt lat="43.7633283" lon="11.3752867"><ele>284.0</ele><time>2026-04-11T08:40:47.92Z</time></trkpt><trkpt lat="43.76331" lon="11.3753967"><ele>284.0</ele><time>2026-04-11T08:40:49.921Z</time></trkpt><trkpt lat="43.7632883" lon="11.3754933"><ele>284.0</ele><time>2026-04-11T08:40:51.92Z</time></trkpt><trkpt lat="43.7632667" lon="11.3755833"><ele>284.0</ele><time>2026-04-11T08:40:53.921Z</time></trkpt><trkpt lat="43.7632333" lon="11.3757033"><ele>284.0</ele><time>2026-04-11T08:40:56.92Z</time></trkpt><trkpt lat="43.76321" lon="11.3757983"><ele>283.7142857142857</ele><time>2026-04-11T08:40:59.92Z</time></trkpt><trkpt lat="43.7631617" lon="11.3758733"><ele>283.4285714285714</ele><time>2026-04-11T08:41:03.92Z</time></trkpt><trkpt lat="43.763125" lon="11.3759633"><ele>283.1428571428571</ele><time>2026-04-11T08:41:07.92Z</time></trkpt><trkpt lat="43.7630917" lon="11.37606"><ele>282.85714285714283</ele><time>2026-04-11T08:41:11.92Z</time></trkpt><trkpt lat="43.763065" lon="11.376155"><ele>282.57142857142856</ele><time>2026-04-11T08:41:15.92Z</time></trkpt><trkpt lat="43.7630417" lon="11.376245"><ele>282.2857142857143</ele><time>2026-04-11T08:41:19.921Z</time></trkpt><trkpt lat="43.7630133" lon="11.376335"><ele>282.0</ele><time>2026-04-11T08:41:23.92Z</time></trkpt><trkpt lat="43.7629767" lon="11.3764233"><ele>281.42857142857144</ele><time>2026-04-11T08:41:27.92Z</time></trkpt><trkpt lat="43.762945" lon="11.3765133"><ele>280.85714285714283</ele><time>2026-04-11T08:41:31.92Z</time></trkpt><trkpt lat="43.7629117" lon="11.3766"><ele>280.2857142857143</ele><time>2026-04-11T08:41:35.92Z</time></trkpt><trkpt lat="43.76287" lon="11.3766817"><ele>279.7142857142857</ele><time>2026-04-11T08:41:40.919Z</time></trkpt><trkpt lat="43.7628317" lon="11.376765"><ele>279.14285714285717</ele><time>2026-04-11T08:41:44.92Z</time></trkpt><trkpt lat="43.76279" lon="11.3768383"><ele>278.57142857142856</ele><time>2026-04-11T08:41:48.919Z</time></trkpt><trkpt lat="43.7627483" lon="11.3769333"><ele>278.0</ele><time>2026-04-11T08:41:53.92Z</time></trkpt><trkpt lat="43.762705" lon="11.3769983"><ele>280.42857142857144</ele><time>2026-04-11T08:41:56.919Z</time></trkpt><trkpt lat="43.7626667" lon="11.3770883"><ele>282.8571428571429</ele><time>2026-04-11T08:42:00.919Z</time></trkpt><trkpt lat="43.7626333" lon="11.3771667"><ele>285.28571428571433</ele><time>2026-04-11T08:42:03.919Z</time></trkpt><trkpt lat="43.7625917" lon="11.3772483"><ele>287.7142857142857</ele><time>2026-04-11T08:42:07.92Z</time></trkpt><trkpt lat="43.7625417" lon="11.3773333"><ele>290.14285714285717</ele><time>2026-04-11T08:42:11.919Z</time></trkpt><trkpt lat="43.7625033" lon="11.37742"><ele>292.5714285714286</ele><time>2026-04-11T08:42:15.919Z</time></trkpt><trkpt lat="43.762465" lon="11.3775083"><ele>295.0</ele><time>2026-04-11T08:42:19.919Z</time></trkpt><trkpt lat="43.762425" lon="11.3775883"><ele>295.0</ele><time>2026-04-11T08:42:23.919Z</time></trkpt><trkpt lat="43.7623767" lon="11.3776733"><ele>295.0</ele><time>2026-04-11T08:42:27.919Z</time></trkpt><trkpt lat="43.7623317" lon="11.3777667"><ele>295.0</ele><time>2026-04-11T08:42:31.92Z</time></trkpt><trkpt lat="43.7622867" lon="11.3778383"><ele>295.0</ele><time>2026-04-11T08:42:34.92Z</time></trkpt><trkpt lat="43.76224" lon="11.3779233"><ele>295.0</ele><time>2026-04-11T08:42:37.92Z</time></trkpt><trkpt lat="43.7622017" lon="11.3779983"><ele>295.0</ele><time>2026-04-11T08:42:40.919Z</time></trkpt><trkpt lat="43.76215" lon="11.3781"><ele>293.66666666666663</ele><time>2026-04-11T08:42:44.92Z</time></trkpt><trkpt lat="43.76211" lon="11.3781933"><ele>292.3333333333333</ele><time>2026-04-11T08:42:47.92Z</time></trkpt><trkpt lat="43.7620817" lon="11.3782867"><ele>291.0</ele><time>2026-04-11T08:42:50.919Z</time></trkpt><trkpt lat="43.7620517" lon="11.3783917"><ele>289.6666666666667</ele><time>2026-04-11T08:42:53.919Z</time></trkpt><trkpt lat="43.7620333" lon="11.3785133"><ele>288.33333333333337</ele><time>2026-04-11T08:42:56.919Z</time></trkpt><trkpt lat="43.7620167" lon="11.3786383"><ele>287.0</ele><time>2026-04-11T08:42:59.919Z</time></trkpt><trkpt lat="43.76201" lon="11.378755"><ele>287.2857142857143</ele><time>2026-04-11T08:43:02.919Z</time></trkpt><trkpt lat="43.7620067" lon="11.3788517"><ele>287.57142857142856</ele><time>2026-04-11T08:43:05.919Z</time></trkpt><trkpt lat="43.762015" lon="11.378955"><ele>287.8571428571429</ele><time>2026-04-11T08:43:09.919Z</time></trkpt><trkpt lat="43.76201" lon="11.379055"><ele>288.1428571428571</ele><time>2026-04-11T08:43:13.919Z</time></trkpt><trkpt lat="43.7620133" lon="11.379165"><ele>288.42857142857144</ele><time>2026-04-11T08:43:17.92Z</time></trkpt><trkpt lat="43.7620133" lon="11.3792733"><ele>288.7142857142857</ele><time>2026-04-11T08:43:21.919Z</time></trkpt><trkpt lat="43.76201" lon="11.379365"><ele>289.0</ele><time>2026-04-11T08:43:25.919Z</time></trkpt><trkpt lat="43.761995" lon="11.379475"><ele>289.0</ele><time>2026-04-11T08:43:29.92Z</time></trkpt><trkpt lat="43.76199" lon="11.3795633"><ele>289.0</ele><time>2026-04-11T08:43:32.919Z</time></trkpt><trkpt lat="43.7619833" lon="11.3796567"><ele>289.0</ele><time>2026-04-11T08:43:36.919Z</time></trkpt><trkpt lat="43.7619867" lon="11.379745"><ele>289.0</ele><time>2026-04-11T08:43:40.92Z</time></trkpt><trkpt lat="43.7619867" lon="11.37985"><ele>289.0</ele><time>2026-04-11T08:43:44.92Z</time></trkpt><trkpt lat="43.76198" lon="11.3799467"><ele>289.0</ele><time>2026-04-11T08:43:48.919Z</time></trkpt><trkpt lat="43.761975" lon="11.380055"><ele>289.0</ele><time>2026-04-11T08:43:52.92Z</time></trkpt><trkpt lat="43.7619683" lon="11.3801633"><ele>290.5</ele><time>2026-04-11T08:43:56.92Z</time></trkpt><trkpt lat="43.7619617" lon="11.3802567"><ele>292.0</ele><time>2026-04-11T08:44:00.919Z</time></trkpt><trkpt lat="43.761955" lon="11.3803633"><ele>293.5</ele><time>2026-04-11T08:44:04.919Z</time></trkpt><trkpt lat="43.7619467" lon="11.3804733"><ele>295.0</ele><time>2026-04-11T08:44:08.919Z</time></trkpt><trkpt lat="43.761935" lon="11.3805767"><ele>296.5</ele><time>2026-04-11T08:44:12.919Z</time></trkpt><trkpt lat="43.7619317" lon="11.38068"><ele>298.0</ele><time>2026-04-11T08:44:16.92Z</time></trkpt><trkpt lat="43.7619217" lon="11.3807933"><ele>299.0</ele><time>2026-04-11T08:44:20.919Z</time></trkpt><trkpt lat="43.76191" lon="11.3808967"><ele>300.0</ele><time>2026-04-11T08:44:24.919Z</time></trkpt><trkpt lat="43.76191" lon="11.3809883"><ele>301.0</ele><time>2026-04-11T08:44:27.92Z</time></trkpt><trkpt lat="43.761895" lon="11.381095"><ele>302.0</ele><time>2026-04-11T08:44:31.919Z</time></trkpt><trkpt lat="43.7618833" lon="11.381195"><ele>303.0</ele><time>2026-04-11T08:44:35.919Z</time></trkpt><trkpt lat="43.7618683" lon="11.3812867"><ele>304.0</ele><time>2026-04-11T08:44:39.92Z</time></trkpt><trkpt lat="43.7618683" lon="11.3813767"><ele>305.0</ele><time>2026-04-11T08:44:43.919Z</time></trkpt><trkpt lat="43.761865" lon="11.381465"><ele>307.2857142857143</ele><time>2026-04-11T08:44:47.919Z</time></trkpt><trkpt lat="43.761845" lon="11.3815583"><ele>309.57142857142856</ele><time>2026-04-11T08:44:51.919Z</time></trkpt><trkpt lat="43.761845" lon="11.3816683"><ele>311.85714285714283</ele><time>2026-04-11T08:44:55.919Z</time></trkpt><trkpt lat="43.7618367" lon="11.38177"><ele>314.1428571428571</ele><time>2026-04-11T08:44:59.92Z</time></trkpt><trkpt lat="43.76181" lon="11.38186"><ele>316.42857142857144</ele><time>2026-04-11T08:45:03.92Z</time></trkpt><trkpt lat="43.7617983" lon="11.381955"><ele>318.71428571428567</ele><time>2026-04-11T08:45:08.919Z</time></trkpt><trkpt lat="43.7618083" lon="11.3820417"><ele>321.0</ele><time>2026-04-11T08:45:13.92Z</time></trkpt><trkpt lat="43.7618133" lon="11.3821467"><ele>321.3333333333333</ele><time>2026-04-11T08:45:18.919Z</time></trkpt><trkpt lat="43.761805" lon="11.3822367"><ele>321.6666666666667</ele><time>2026-04-11T08:45:22.919Z</time></trkpt><trkpt lat="43.7617817" lon="11.3823633"><ele>322.0</ele><time>2026-04-11T08:45:29.92Z</time></trkpt><trkpt lat="43.7617683" lon="11.3824567"><ele>322.33333333333337</ele><time>2026-04-11T08:45:34.92Z</time></trkpt><trkpt lat="43.761665" lon="11.382365"><ele>322.6666666666667</ele><time>2026-04-11T09:17:38.919Z</time></trkpt><trkpt lat="43.7616033" lon="11.3823367"><ele>323.0</ele><time>2026-04-11T09:17:41.917Z</time></trkpt><trkpt lat="43.7615283" lon="11.3823017"><ele>323.00000000000006</ele><time>2026-04-11T09:18:39.917Z</time></trkpt><trkpt lat="43.76147" lon="11.3822667"><ele>323.0</ele><time>2026-04-11T09:18:43.917Z</time></trkpt><trkpt lat="43.7614167" lon="11.3822117"><ele>323.0</ele><time>2026-04-11T09:18:48.917Z</time></trkpt><trkpt lat="43.7613533" lon="11.382205"><ele>323.0</ele><time>2026-04-11T09:18:52.917Z</time></trkpt><trkpt lat="43.7612783" lon="11.3821917"><ele>323.0</ele><time>2026-04-11T09:18:56.917Z</time></trkpt><trkpt lat="43.76121" lon="11.3821817"><ele>323.00000000000006</ele><time>2026-04-11T09:19:00.917Z</time></trkpt><trkpt lat="43.7611367" lon="11.382155"><ele>323.0</ele><time>2026-04-11T09:19:05.917Z</time></trkpt><trkpt lat="43.7610617" lon="11.3821433"><ele>324.00000000000006</ele><time>2026-04-11T09:19:10.917Z</time></trkpt><trkpt lat="43.7609867" lon="11.3821217"><ele>325.0</ele><time>2026-04-11T09:19:14.917Z</time></trkpt><trkpt lat="43.7609267" lon="11.3820733"><ele>326.0</ele><time>2026-04-11T09:19:20.917Z</time></trkpt><trkpt lat="43.76089" lon="11.3819883"><ele>327.0</ele><time>2026-04-11T09:19:26.917Z</time></trkpt><trkpt lat="43.7608767" lon="11.38189"><ele>328.0</ele><time>2026-04-11T09:19:30.917Z</time></trkpt><trkpt lat="43.7608583" lon="11.3817833"><ele>329.00000000000006</ele><time>2026-04-11T09:19:34.917Z</time></trkpt><trkpt lat="43.7608483" lon="11.3816767"><ele>330.0</ele><time>2026-04-11T09:19:38.917Z</time></trkpt><trkpt lat="43.76083" lon="11.381585"><ele>330.0</ele><time>2026-04-11T09:19:42.917Z</time></trkpt><trkpt lat="43.7607883" lon="11.3814933"><ele>330.0</ele><time>2026-04-11T09:19:46.917Z</time></trkpt><trkpt lat="43.760735" lon="11.3814183"><ele>330.0</ele><time>2026-04-11T09:19:50.918Z</time></trkpt><trkpt lat="43.7606833" lon="11.381345"><ele>330.0</ele><time>2026-04-11T09:19:54.918Z</time></trkpt><trkpt lat="43.7606233" lon="11.3812917"><ele>330.0</ele><time>2026-04-11T09:19:58.918Z</time></trkpt><trkpt lat="43.7605733" lon="11.3812117"><ele>330.0</ele><time>2026-04-11T09:20:02.917Z</time></trkpt><trkpt lat="43.760525" lon="11.3811283"><ele>329.8333333333333</ele><time>2026-04-11T09:20:07.918Z</time></trkpt><trkpt lat="43.7604817" lon="11.3810317"><ele>329.6666666666667</ele><time>2026-04-11T09:20:11.917Z</time></trkpt><trkpt lat="43.76044" lon="11.3809617"><ele>329.5</ele><time>2026-04-11T09:20:15.917Z</time></trkpt><trkpt lat="43.7604067" lon="11.3808783"><ele>329.33333333333337</ele><time>2026-04-11T09:20:19.917Z</time></trkpt><trkpt lat="43.760375" lon="11.3807917"><ele>329.1666666666667</ele><time>2026-04-11T09:20:23.918Z</time></trkpt><trkpt lat="43.7603367" lon="11.3806717"><ele>329.0</ele><time>2026-04-11T09:20:29.917Z</time></trkpt><trkpt lat="43.7603017" lon="11.3805817"><ele>329.6666666666667</ele><time>2026-04-11T09:20:33.917Z</time></trkpt><trkpt lat="43.7602883" lon="11.380495"><ele>330.33333333333337</ele><time>2026-04-11T09:20:37.917Z</time></trkpt><trkpt lat="43.7602883" lon="11.3804"><ele>331.0</ele><time>2026-04-11T09:20:41.917Z</time></trkpt><trkpt lat="43.760275" lon="11.3802867"><ele>331.6666666666667</ele><time>2026-04-11T09:20:46.918Z</time></trkpt><trkpt lat="43.76027" lon="11.3801867"><ele>332.3333333333333</ele><time>2026-04-11T09:20:50.917Z</time></trkpt><trkpt lat="43.7602417" lon="11.380085"><ele>333.0</ele><time>2026-04-11T09:20:54.917Z</time></trkpt><trkpt lat="43.7601483" lon="11.38"><ele>334.42857142857144</ele><time>2026-04-11T09:21:01.917Z</time></trkpt><trkpt lat="43.7600733" lon="11.379985"><ele>335.85714285714283</ele><time>2026-04-11T09:21:05.917Z</time></trkpt><trkpt lat="43.7600017" lon="11.379975"><ele>337.2857142857143</ele><time>2026-04-11T09:21:09.917Z</time></trkpt><trkpt lat="43.75993" lon="11.3799717"><ele>338.7142857142857</ele><time>2026-04-11T09:21:13.917Z</time></trkpt><trkpt lat="43.759865" lon="11.3799617"><ele>340.1428571428571</ele><time>2026-04-11T09:21:17.917Z</time></trkpt><trkpt lat="43.7597917" lon="11.3799533"><ele>341.57142857142856</ele><time>2026-04-11T09:21:22.917Z</time></trkpt><trkpt lat="43.7597233" lon="11.3799667"><ele>343.0</ele><time>2026-04-11T09:21:27.918Z</time></trkpt><trkpt lat="43.7596483" lon="11.37995"><ele>343.0</ele><time>2026-04-11T09:21:32.917Z</time></trkpt><trkpt lat="43.7595717" lon="11.379955"><ele>343.0</ele><time>2026-04-11T09:21:37.917Z</time></trkpt><trkpt lat="43.7595033" lon="11.37995"><ele>343.0</ele><time>2026-04-11T09:21:42.918Z</time></trkpt><trkpt lat="43.7594333" lon="11.3799533"><ele>343.0</ele><time>2026-04-11T09:21:47.917Z</time></trkpt><trkpt lat="43.759365" lon="11.3799367"><ele>343.0</ele><time>2026-04-11T09:21:52.917Z</time></trkpt><trkpt lat="43.7592933" lon="11.3799533"><ele>343.0</ele><time>2026-04-11T09:21:58.917Z</time></trkpt><trkpt lat="43.7592283" lon="11.3799883"><ele>343.0</ele><time>2026-04-11T09:22:03.917Z</time></trkpt><trkpt lat="43.7591833" lon="11.3800517"><ele>345.0</ele><time>2026-04-11T09:22:08.917Z</time></trkpt><trkpt lat="43.759165" lon="11.3801467"><ele>347.0</ele><time>2026-04-11T09:22:13.917Z</time></trkpt><trkpt lat="43.7591383" lon="11.3802367"><ele>349.0</ele><time>2026-04-11T09:22:17.917Z</time></trkpt><trkpt lat="43.7591183" lon="11.38034"><ele>351.0</ele><time>2026-04-11T09:22:22.917Z</time></trkpt><trkpt lat="43.759105" lon="11.380435"><ele>353.0</ele><time>2026-04-11T09:22:27.917Z</time></trkpt><trkpt lat="43.7590833" lon="11.380535"><ele>355.0</ele><time>2026-04-11T09:22:32.917Z</time></trkpt><trkpt lat="43.75907" lon="11.3806383"><ele>357.0</ele><time>2026-04-11T09:22:37.917Z</time></trkpt><trkpt lat="43.7590567" lon="11.3807283"><ele>357.57142857142856</ele><time>2026-04-11T09:22:42.917Z</time></trkpt><trkpt lat="43.7590567" lon="11.3808217"><ele>358.1428571428571</ele><time>2026-04-11T09:22:47.917Z</time></trkpt><trkpt lat="43.7590467" lon="11.3809217"><ele>358.7142857142857</ele><time>2026-04-11T09:22:52.917Z</time></trkpt><trkpt lat="43.7590433" lon="11.3810133"><ele>359.2857142857143</ele><time>2026-04-11T09:22:56.917Z</time></trkpt><trkpt lat="43.75904" lon="11.381105"><ele>359.85714285714283</ele><time>2026-04-11T09:23:01.917Z</time></trkpt><trkpt lat="43.75904" lon="11.3811967"><ele>360.42857142857144</ele><time>2026-04-11T09:23:06.917Z</time></trkpt><trkpt lat="43.7590283" lon="11.381295"><ele>361.0</ele><time>2026-04-11T09:23:11.917Z</time></trkpt><trkpt lat="43.7590083" lon="11.38139"><ele>361.5714285714286</ele><time>2026-04-11T09:23:16.917Z</time></trkpt><trkpt lat="43.7590167" lon="11.3814883"><ele>362.1428571428571</ele><time>2026-04-11T09:23:21.917Z</time></trkpt><trkpt lat="43.759005" lon="11.381575"><ele>362.7142857142857</ele><time>2026-04-11T09:23:25.918Z</time></trkpt><trkpt lat="43.758985" lon="11.381665"><ele>363.28571428571433</ele><time>2026-04-11T09:23:30.917Z</time></trkpt><trkpt lat="43.758955" lon="11.3817617"><ele>363.8571428571429</ele><time>2026-04-11T09:23:36.917Z</time></trkpt><trkpt lat="43.758945" lon="11.3818683"><ele>364.42857142857144</ele><time>2026-04-11T09:23:42.917Z</time></trkpt><trkpt lat="43.75892" lon="11.38195"><ele>365.0</ele><time>2026-04-11T09:23:47.917Z</time></trkpt><trkpt lat="43.7588567" lon="11.3820467"><ele>365.00000000000006</ele><time>2026-04-11T09:23:56.918Z</time></trkpt><trkpt lat="43.758805" lon="11.381975"><ele>365.0</ele><time>2026-04-11T09:24:01.917Z</time></trkpt><trkpt lat="43.7587883" lon="11.381875"><ele>365.0</ele><time>2026-04-11T09:24:07.917Z</time></trkpt><trkpt lat="43.7587683" lon="11.38178"><ele>365.0</ele><time>2026-04-11T09:24:12.917Z</time></trkpt><trkpt lat="43.75875" lon="11.38169"><ele>365.0</ele><time>2026-04-11T09:24:17.917Z</time></trkpt><trkpt lat="43.7587233" lon="11.3815883"><ele>365.00000000000006</ele><time>2026-04-11T09:24:22.917Z</time></trkpt><trkpt lat="43.7586883" lon="11.381495"><ele>365.0</ele><time>2026-04-11T09:24:28.917Z</time></trkpt><trkpt lat="43.7586567" lon="11.3814117"><ele>364.42857142857144</ele><time>2026-04-11T09:24:33.917Z</time></trkpt><trkpt lat="43.7586083" lon="11.38133"><ele>363.8571428571429</ele><time>2026-04-11T09:24:38.917Z</time></trkpt><trkpt lat="43.758565" lon="11.3812567"><ele>363.28571428571433</ele><time>2026-04-11T09:24:42.917Z</time></trkpt><trkpt lat="43.7585133" lon="11.3811933"><ele>362.7142857142857</ele><time>2026-04-11T09:24:47.917Z</time></trkpt><trkpt lat="43.7584517" lon="11.3811383"><ele>362.1428571428571</ele><time>2026-04-11T09:24:51.917Z</time></trkpt><trkpt lat="43.7583817" lon="11.3811433"><ele>361.5714285714286</ele><time>2026-04-11T09:24:56.918Z</time></trkpt><trkpt lat="43.758315" lon="11.3811783"><ele>361.0</ele><time>2026-04-11T09:25:00.918Z</time></trkpt><trkpt lat="43.7582567" lon="11.381225"><ele>364.7142857142857</ele><time>2026-04-11T09:25:04.917Z</time></trkpt><trkpt lat="43.758235" lon="11.3813083"><ele>368.4285714285714</ele><time>2026-04-11T09:25:08.917Z</time></trkpt><trkpt lat="43.7582217" lon="11.3813967"><ele>372.1428571428571</ele><time>2026-04-11T09:25:12.917Z</time></trkpt><trkpt lat="43.75821" lon="11.3814917"><ele>375.8571428571429</ele><time>2026-04-11T09:25:17.918Z</time></trkpt><trkpt lat="43.7581883" lon="11.3815883"><ele>379.57142857142856</ele><time>2026-04-11T09:25:22.917Z</time></trkpt><trkpt lat="43.758145" lon="11.3816667"><ele>383.2857142857143</ele><time>2026-04-11T09:25:27.917Z</time></trkpt><trkpt lat="43.758135" lon="11.3817717"><ele>387.0</ele><time>2026-04-11T09:25:32.918Z</time></trkpt><trkpt lat="43.758095" lon="11.3818567"><ele>387.0</ele><time>2026-04-11T09:25:37.917Z</time></trkpt><trkpt lat="43.7580583" lon="11.3819417"><ele>387.0</ele><time>2026-04-11T09:25:42.917Z</time></trkpt><trkpt lat="43.7580383" lon="11.3820333"><ele>387.0</ele><time>2026-04-11T09:25:46.918Z</time></trkpt><trkpt lat="43.7580267" lon="11.382135"><ele>387.0</ele><time>2026-04-11T09:25:51.917Z</time></trkpt><trkpt lat="43.75801" lon="11.38224"><ele>387.0</ele><time>2026-04-11T09:25:56.917Z</time></trkpt><trkpt lat="43.7579917" lon="11.3823317"><ele>387.0</ele><time>2026-04-11T09:26:01.918Z</time></trkpt><trkpt lat="43.75797" lon="11.382415"><ele>387.0</ele><time>2026-04-11T09:26:05.917Z</time></trkpt><trkpt lat="43.7579483" lon="11.3825067"><ele>386.57142857142856</ele><time>2026-04-11T09:26:09.918Z</time></trkpt><trkpt lat="43.75792" lon="11.3825867"><ele>386.14285714285717</ele><time>2026-04-11T09:26:13.918Z</time></trkpt><trkpt lat="43.7578833" lon="11.38268"><ele>385.71428571428567</ele><time>2026-04-11T09:26:18.918Z</time></trkpt><trkpt lat="43.757835" lon="11.3827533"><ele>385.2857142857143</ele><time>2026-04-11T09:26:22.917Z</time></trkpt><trkpt lat="43.7577883" lon="11.3828133"><ele>384.85714285714283</ele><time>2026-04-11T09:26:26.917Z</time></trkpt><trkpt lat="43.7577333" lon="11.3828783"><ele>384.4285714285714</ele><time>2026-04-11T09:26:30.918Z</time></trkpt><trkpt lat="43.75768" lon="11.3829433"><ele>384.0</ele><time>2026-04-11T09:26:34.917Z</time></trkpt><trkpt lat="43.7576283" lon="11.3830167"><ele>386.4285714285714</ele><time>2026-04-11T09:26:38.917Z</time></trkpt><trkpt lat="43.7575917" lon="11.3830933"><ele>388.85714285714283</ele><time>2026-04-11T09:26:42.917Z</time></trkpt><trkpt lat="43.7575567" lon="11.383195"><ele>391.2857142857143</ele><time>2026-04-11T09:26:46.917Z</time></trkpt><trkpt lat="43.7575383" lon="11.38328"><ele>393.71428571428567</ele><time>2026-04-11T09:26:49.917Z</time></trkpt><trkpt lat="43.7575317" lon="11.3833733"><ele>396.14285714285717</ele><time>2026-04-11T09:26:52.918Z</time></trkpt><trkpt lat="43.7575283" lon="11.38347"><ele>398.57142857142856</ele><time>2026-04-11T09:26:56.917Z</time></trkpt><trkpt lat="43.75752" lon="11.3835567"><ele>401.0</ele><time>2026-04-11T09:26:59.917Z</time></trkpt><trkpt lat="43.757485" lon="11.3836567"><ele>401.0</ele><time>2026-04-11T09:27:02.917Z</time></trkpt><trkpt lat="43.7574567" lon="11.3837583"><ele>401.0</ele><time>2026-04-11T09:27:06.918Z</time></trkpt><trkpt lat="43.757435" lon="11.383845"><ele>401.0</ele><time>2026-04-11T09:27:09.918Z</time></trkpt><trkpt lat="43.75743" lon="11.3839417"><ele>401.0</ele><time>2026-04-11T09:27:12.917Z</time></trkpt><trkpt lat="43.7574183" lon="11.3840367"><ele>401.0</ele><time>2026-04-11T09:27:15.917Z</time></trkpt><trkpt lat="43.7573983" lon="11.3841333"><ele>401.0</ele><time>2026-04-11T09:27:18.917Z</time></trkpt><trkpt lat="43.7573833" lon="11.384225"><ele>401.0</ele><time>2026-04-11T09:27:21.917Z</time></trkpt><trkpt lat="43.7573567" lon="11.3843167"><ele>401.0</ele><time>2026-04-11T09:27:25.917Z</time></trkpt><trkpt lat="43.7573167" lon="11.3844067"><ele>401.0</ele><time>2026-04-11T09:27:29.917Z</time></trkpt><trkpt lat="43.7572833" lon="11.384485"><ele>401.0</ele><time>2026-04-11T09:27:32.917Z</time></trkpt><trkpt lat="43.7572633" lon="11.3845717"><ele>401.0</ele><time>2026-04-11T09:27:35.917Z</time></trkpt><trkpt lat="43.7572767" lon="11.3846733"><ele>401.0</ele><time>2026-04-11T09:27:38.917Z</time></trkpt><trkpt lat="43.7573083" lon="11.3847717"><ele>401.0</ele><time>2026-04-11T09:27:41.917Z</time></trkpt><trkpt lat="43.7573183" lon="11.38486"><ele>401.0</ele><time>2026-04-11T09:27:44.917Z</time></trkpt><trkpt lat="43.757315" lon="11.3849717"><ele>401.0</ele><time>2026-04-11T09:27:48.917Z</time></trkpt><trkpt lat="43.7573117" lon="11.385075"><ele>401.0</ele><time>2026-04-11T09:27:51.917Z</time></trkpt><trkpt lat="43.757305" lon="11.3851967"><ele>401.0</ele><time>2026-04-11T09:27:54.917Z</time></trkpt><trkpt lat="43.7573033" lon="11.3852933"><ele>401.0</ele><time>2026-04-11T09:27:57.917Z</time></trkpt><trkpt lat="43.757305" lon="11.38539"><ele>401.0</ele><time>2026-04-11T09:28:00.917Z</time></trkpt><trkpt lat="43.75728" lon="11.3854917"><ele>401.0</ele><time>2026-04-11T09:28:03.917Z</time></trkpt><trkpt lat="43.75727" lon="11.385585"><ele>401.0</ele><time>2026-04-11T09:28:06.917Z</time></trkpt><trkpt lat="43.7572667" lon="11.3856733"><ele>401.14285714285717</ele><time>2026-04-11T09:28:09.918Z</time></trkpt><trkpt lat="43.7572467" lon="11.385775"><ele>401.28571428571433</ele><time>2026-04-11T09:28:12.917Z</time></trkpt><trkpt lat="43.7572283" lon="11.38587"><ele>401.42857142857144</ele><time>2026-04-11T09:28:15.918Z</time></trkpt><trkpt lat="43.75722" lon="11.3859667"><ele>401.57142857142856</ele><time>2026-04-11T09:28:18.917Z</time></trkpt><trkpt lat="43.7572333" lon="11.3860567"><ele>401.7142857142857</ele><time>2026-04-11T09:28:21.917Z</time></trkpt><trkpt lat="43.7572367" lon="11.3861683"><ele>401.85714285714283</ele><time>2026-04-11T09:28:25.917Z</time></trkpt><trkpt lat="43.7572367" lon="11.386275"><ele>402.0</ele><time>2026-04-11T09:28:29.918Z</time></trkpt><trkpt lat="43.75725" lon="11.38638"><ele>402.0</ele><time>2026-04-11T09:28:33.917Z</time></trkpt><trkpt lat="43.7572483" lon="11.38647"><ele>402.0</ele><time>2026-04-11T09:28:36.917Z</time></trkpt><trkpt lat="43.7572383" lon="11.3865667"><ele>402.0</ele><time>2026-04-11T09:28:40.917Z</time></trkpt><trkpt lat="43.7572433" lon="11.3866733"><ele>402.0</ele><time>2026-04-11T09:28:44.917Z</time></trkpt><trkpt lat="43.7572317" lon="11.3867817"><ele>402.0</ele><time>2026-04-11T09:28:48.918Z</time></trkpt><trkpt lat="43.75721" lon="11.3868717"><ele>402.0</ele><time>2026-04-11T09:28:52.917Z</time></trkpt><trkpt lat="43.7571733" lon="11.3869667"><ele>402.0</ele><time>2026-04-11T09:28:56.917Z</time></trkpt><trkpt lat="43.7571383" lon="11.387045"><ele>402.0</ele><time>2026-04-11T09:28:59.918Z</time></trkpt><trkpt lat="43.75708" lon="11.38711"><ele>402.0</ele><time>2026-04-11T09:29:03.917Z</time></trkpt><trkpt lat="43.7570117" lon="11.3871183"><ele>402.0</ele><time>2026-04-11T09:29:08.918Z</time></trkpt><trkpt lat="43.7569567" lon="11.3870533"><ele>402.0</ele><time>2026-04-11T09:29:13.918Z</time></trkpt><trkpt lat="43.7569517" lon="11.38695"><ele>402.0</ele><time>2026-04-11T09:29:18.917Z</time></trkpt><trkpt lat="43.7569683" lon="11.38686"><ele>402.0</ele><time>2026-04-11T09:29:23.918Z</time></trkpt><trkpt lat="43.75697" lon="11.38675"><ele>402.0</ele><time>2026-04-11T09:29:28.917Z</time></trkpt><trkpt lat="43.7569767" lon="11.3866517"><ele>402.0</ele><time>2026-04-11T09:29:32.917Z</time></trkpt><trkpt lat="43.75697" lon="11.3865583"><ele>402.0</ele><time>2026-04-11T09:29:36.918Z</time></trkpt><trkpt lat="43.7569667" lon="11.386465"><ele>402.0</ele><time>2026-04-11T09:29:40.918Z</time></trkpt><trkpt lat="43.75697" lon="11.386375"><ele>402.0</ele><time>2026-04-11T09:29:44.917Z</time></trkpt><trkpt lat="43.756955" lon="11.3862633"><ele>402.0</ele><time>2026-04-11T09:29:48.917Z</time></trkpt><trkpt lat="43.7569467" lon="11.386175"><ele>402.0</ele><time>2026-04-11T09:29:52.917Z</time></trkpt><trkpt lat="43.7569317" lon="11.386085"><ele>402.0</ele><time>2026-04-11T09:29:57.917Z</time></trkpt><trkpt lat="43.75691" lon="11.3859933"><ele>402.0</ele><time>2026-04-11T09:30:02.918Z</time></trkpt><trkpt lat="43.7569133" lon="11.3858417"><ele>402.0</ele><time>2026-04-11T09:30:10.917Z</time></trkpt><trkpt lat="43.7569033" lon="11.3857183"><ele>402.0</ele><time>2026-04-11T09:30:16.917Z</time></trkpt><trkpt lat="43.7568967" lon="11.3856283"><ele>402.0</ele><time>2026-04-11T09:30:20.917Z</time></trkpt><trkpt lat="43.7568667" lon="11.3855083"><ele>402.0</ele><time>2026-04-11T09:30:28.917Z</time></trkpt><trkpt lat="43.756835" lon="11.3854033"><ele>402.0</ele><time>2026-04-11T09:30:34.917Z</time></trkpt><trkpt lat="43.7567817" lon="11.38529"><ele>406.3333333333333</ele><time>2026-04-11T09:30:43.917Z</time></trkpt><trkpt lat="43.7567433" lon="11.3852183"><ele>410.66666666666663</ele><time>2026-04-11T09:30:47.917Z</time></trkpt><trkpt lat="43.7566817" lon="11.3851583"><ele>415.0</ele><time>2026-04-11T09:30:52.917Z</time></trkpt><trkpt lat="43.75662" lon="11.3851117"><ele>419.3333333333333</ele><time>2026-04-11T09:30:58.917Z</time></trkpt><trkpt lat="43.7565633" lon="11.3850567"><ele>423.66666666666663</ele><time>2026-04-11T09:31:03.918Z</time></trkpt><trkpt lat="43.7565167" lon="11.3849783"><ele>428.0</ele><time>2026-04-11T09:31:10.917Z</time></trkpt><trkpt lat="43.7564483" lon="11.3848667"><ele>427.99999999999994</ele><time>2026-04-11T09:31:21.917Z</time></trkpt><trkpt lat="43.756425" lon="11.384725"><ele>428.0</ele><time>2026-04-11T09:34:10.916Z</time></trkpt><trkpt lat="43.75645" lon="11.3846233"><ele>428.0</ele><time>2026-04-11T09:34:13.916Z</time></trkpt><trkpt lat="43.7564683" lon="11.3845267"><ele>428.0</ele><time>2026-04-11T09:34:16.917Z</time></trkpt><trkpt lat="43.7564717" lon="11.3844383"><ele>427.99999999999994</ele><time>2026-04-11T09:34:18.916Z</time></trkpt><trkpt lat="43.7564917" lon="11.38432"><ele>428.0</ele><time>2026-04-11T09:34:21.916Z</time></trkpt><trkpt lat="43.7564917" lon="11.38421"><ele>428.00000000000006</ele><time>2026-04-11T09:34:24.916Z</time></trkpt><trkpt lat="43.7564717" lon="11.3841083"><ele>428.0</ele><time>2026-04-11T09:34:27.916Z</time></trkpt><trkpt lat="43.7564583" lon="11.384005"><ele>428.0</ele><time>2026-04-11T09:34:31.916Z</time></trkpt><trkpt lat="43.7564333" lon="11.3838933"><ele>428.0</ele><time>2026-04-11T09:34:35.916Z</time></trkpt><trkpt lat="43.756435" lon="11.383785"><ele>428.0</ele><time>2026-04-11T09:34:40.917Z</time></trkpt><trkpt lat="43.756405" lon="11.3837033"><ele>428.00000000000006</ele><time>2026-04-11T09:34:43.916Z</time></trkpt><trkpt lat="43.756405" lon="11.38361"><ele>428.0</ele><time>2026-04-11T09:34:47.916Z</time></trkpt><trkpt lat="43.7564033" lon="11.3835167"><ele>428.00000000000006</ele><time>2026-04-11T09:34:51.916Z</time></trkpt><trkpt lat="43.7563767" lon="11.3834167"><ele>428.0</ele><time>2026-04-11T09:34:56.916Z</time></trkpt><trkpt lat="43.7563867" lon="11.3833167"><ele>428.0</ele><time>2026-04-11T09:34:59.916Z</time></trkpt><trkpt lat="43.7564033" lon="11.3832217"><ele>428.0</ele><time>2026-04-11T09:35:01.916Z</time></trkpt><trkpt lat="43.7563933" lon="11.3831183"><ele>428.0</ele><time>2026-04-11T09:35:04.917Z</time></trkpt><trkpt lat="43.7564233" lon="11.3830317"><ele>428.00000000000006</ele><time>2026-04-11T09:35:08.917Z</time></trkpt><trkpt lat="43.7564467" lon="11.382945"><ele>428.0</ele><time>2026-04-11T09:35:10.916Z</time></trkpt><trkpt lat="43.75648" lon="11.3828433"><ele>429.28571428571433</ele><time>2026-04-11T09:35:12.917Z</time></trkpt><trkpt lat="43.7565067" lon="11.38275"><ele>430.57142857142856</ele><time>2026-04-11T09:35:14.916Z</time></trkpt><trkpt lat="43.7565283" lon="11.3826567"><ele>431.8571428571429</ele><time>2026-04-11T09:35:17.917Z</time></trkpt><trkpt lat="43.7565533" lon="11.3825467"><ele>433.14285714285717</ele><time>2026-04-11T09:35:21.916Z</time></trkpt><trkpt lat="43.7565967" lon="11.3824667"><ele>434.42857142857144</ele><time>2026-04-11T09:35:25.916Z</time></trkpt><trkpt lat="43.75663" lon="11.3823817"><ele>435.7142857142857</ele><time>2026-04-11T09:35:29.916Z</time></trkpt><trkpt lat="43.7566833" lon="11.3823117"><ele>437.0</ele><time>2026-04-11T09:35:34.916Z</time></trkpt><trkpt lat="43.7567333" lon="11.3822333"><ele>438.71428571428567</ele><time>2026-04-11T09:35:38.916Z</time></trkpt><trkpt lat="43.75676" lon="11.3821533"><ele>440.42857142857144</ele><time>2026-04-11T09:35:43.917Z</time></trkpt><trkpt lat="43.7568017" lon="11.382075"><ele>442.1428571428571</ele><time>2026-04-11T09:35:47.916Z</time></trkpt><trkpt lat="43.756835" lon="11.3819983"><ele>443.85714285714283</ele><time>2026-04-11T09:35:50.917Z</time></trkpt><trkpt lat="43.7568667" lon="11.381885"><ele>445.57142857142856</ele><time>2026-04-11T09:35:53.916Z</time></trkpt><trkpt lat="43.75689" lon="11.381785"><ele>447.2857142857143</ele><time>2026-04-11T09:35:56.916Z</time></trkpt><trkpt lat="43.756915" lon="11.3816733"><ele>449.0</ele><time>2026-04-11T09:36:00.917Z</time></trkpt><trkpt lat="43.7569317" lon="11.3815667"><ele>444.8333333333333</ele><time>2026-04-11T09:36:04.916Z</time></trkpt><trkpt lat="43.757" lon="11.38141"><ele>440.66666666666663</ele><time>2026-04-11T09:36:15.916Z</time></trkpt><trkpt lat="43.7570617" lon="11.3813433"><ele>436.5</ele><time>2026-04-11T09:36:18.916Z</time></trkpt><trkpt lat="43.7571167" lon="11.3812567"><ele>432.33333333333337</ele><time>2026-04-11T09:36:21.916Z</time></trkpt><trkpt lat="43.75713" lon="11.3811517"><ele>428.1666666666667</ele><time>2026-04-11T09:36:25.916Z</time></trkpt><trkpt lat="43.75715" lon="11.3810667"><ele>424.0</ele><time>2026-04-11T09:36:29.916Z</time></trkpt><trkpt lat="43.7571933" lon="11.3809917"><ele>424.00000000000006</ele><time>2026-04-11T09:36:32.916Z</time></trkpt><trkpt lat="43.7572267" lon="11.380895"><ele>424.0</ele><time>2026-04-11T09:36:35.916Z</time></trkpt><trkpt lat="43.75725" lon="11.38078"><ele>424.0</ele><time>2026-04-11T09:36:38.916Z</time></trkpt><trkpt lat="43.7572417" lon="11.3806083"><ele>424.0</ele><time>2026-04-11T09:36:46.916Z</time></trkpt><trkpt lat="43.7571767" lon="11.3805583"><ele>424.00000000000006</ele><time>2026-04-11T09:36:49.916Z</time></trkpt><trkpt lat="43.7571367" lon="11.38047"><ele>424.0</ele><time>2026-04-11T09:36:54.916Z</time></trkpt><trkpt lat="43.757085" lon="11.3803567"><ele>422.6</ele><time>2026-04-11T09:37:00.916Z</time></trkpt><trkpt lat="43.757045" lon="11.3802633"><ele>421.2</ele><time>2026-04-11T09:37:03.916Z</time></trkpt><trkpt lat="43.75702" lon="11.3801783"><ele>419.8</ele><time>2026-04-11T09:37:05.917Z</time></trkpt><trkpt lat="43.7569767" lon="11.3800633"><ele>418.40000000000003</ele><time>2026-04-11T09:37:08.916Z</time></trkpt><trkpt lat="43.75695" lon="11.3798333"><ele>417.0</ele><time>2026-04-11T09:38:39.917Z</time></trkpt><trkpt lat="43.75693" lon="11.3797433"><ele>415.0</ele><time>2026-04-11T09:38:42.916Z</time></trkpt><trkpt lat="43.7568967" lon="11.37966"><ele>413.0</ele><time>2026-04-11T09:38:45.916Z</time></trkpt><trkpt lat="43.75686" lon="11.3795817"><ele>411.0</ele><time>2026-04-11T09:38:48.916Z</time></trkpt><trkpt lat="43.756825" lon="11.3793833"><ele>409.0</ele><time>2026-04-11T09:38:57.917Z</time></trkpt><trkpt lat="43.7568267" lon="11.3792683"><ele>407.0</ele><time>2026-04-11T09:39:00.916Z</time></trkpt><trkpt lat="43.7567933" lon="11.379185"><ele>405.0</ele><time>2026-04-11T09:39:03.916Z</time></trkpt><trkpt lat="43.7567483" lon="11.3790817"><ele>408.99999999999994</ele><time>2026-04-11T09:39:07.916Z</time></trkpt><trkpt lat="43.7567167" lon="11.3789817"><ele>413.0</ele><time>2026-04-11T09:39:10.916Z</time></trkpt><trkpt lat="43.7567367" lon="11.3788767"><ele>417.0</ele><time>2026-04-11T09:39:14.917Z</time></trkpt><trkpt lat="43.75675" lon="11.3787683"><ele>421.0</ele><time>2026-04-11T09:39:18.916Z</time></trkpt><trkpt lat="43.7567583" lon="11.3786817"><ele>425.0</ele><time>2026-04-11T09:39:21.917Z</time></trkpt><trkpt lat="43.756765" lon="11.378595"><ele>428.99999999999994</ele><time>2026-04-11T09:39:24.916Z</time></trkpt><trkpt lat="43.756755" lon="11.3784867"><ele>433.0</ele><time>2026-04-11T09:39:28.917Z</time></trkpt><trkpt lat="43.75674" lon="11.3784017"><ele>432.99999999999994</ele><time>2026-04-11T09:39:31.916Z</time></trkpt><trkpt lat="43.756715" lon="11.378315"><ele>433.0</ele><time>2026-04-11T09:39:34.916Z</time></trkpt><trkpt lat="43.75668" lon="11.3782167"><ele>433.0</ele><time>2026-04-11T09:39:38.916Z</time></trkpt><trkpt lat="43.7566483" lon="11.3781383"><ele>433.0</ele><time>2026-04-11T09:39:42.916Z</time></trkpt><trkpt lat="43.75661" lon="11.3780533"><ele>433.0</ele><time>2026-04-11T09:39:46.917Z</time></trkpt><trkpt lat="43.7565517" lon="11.3779867"><ele>432.99999999999994</ele><time>2026-04-11T09:39:51.916Z</time></trkpt><trkpt lat="43.7564867" lon="11.3779317"><ele>433.0</ele><time>2026-04-11T09:39:55.916Z</time></trkpt><trkpt lat="43.7564267" lon="11.3779017"><ele>432.33333333333337</ele><time>2026-04-11T09:39:59.916Z</time></trkpt><trkpt lat="43.7563717" lon="11.3778117"><ele>431.6666666666667</ele><time>2026-04-11T09:40:03.916Z</time></trkpt><trkpt lat="43.7563233" lon="11.3777233"><ele>431.0</ele><time>2026-04-11T09:40:07.917Z</time></trkpt><trkpt lat="43.7562917" lon="11.3776217"><ele>430.33333333333337</ele><time>2026-04-11T09:40:11.916Z</time></trkpt><trkpt lat="43.75627" lon="11.3775217"><ele>429.6666666666667</ele><time>2026-04-11T09:40:15.917Z</time></trkpt><trkpt lat="43.75625" lon="11.377435"><ele>429.0</ele><time>2026-04-11T09:40:19.917Z</time></trkpt><trkpt lat="43.756245" lon="11.377345"><ele>429.0</ele><time>2026-04-11T09:40:23.917Z</time></trkpt><trkpt lat="43.7562233" lon="11.37724"><ele>429.0</ele><time>2026-04-11T09:40:28.916Z</time></trkpt><trkpt lat="43.7562" lon="11.377155"><ele>429.0</ele><time>2026-04-11T09:40:32.916Z</time></trkpt><trkpt lat="43.756195" lon="11.376985"><ele>429.0</ele><time>2026-04-11T09:40:40.916Z</time></trkpt><trkpt lat="43.7561983" lon="11.376815"><ele>429.0</ele><time>2026-04-11T09:41:06.916Z</time></trkpt><trkpt lat="43.7561883" lon="11.3767117"><ele>428.8571428571429</ele><time>2026-04-11T09:41:12.916Z</time></trkpt><trkpt lat="43.7561917" lon="11.3766167"><ele>428.7142857142857</ele><time>2026-04-11T09:41:16.917Z</time></trkpt><trkpt lat="43.756185" lon="11.3765133"><ele>428.57142857142856</ele><time>2026-04-11T09:41:21.916Z</time></trkpt><trkpt lat="43.75619" lon="11.37642"><ele>428.42857142857144</ele><time>2026-04-11T09:41:25.916Z</time></trkpt><trkpt lat="43.7562117" lon="11.3763283"><ele>428.2857142857143</ele><time>2026-04-11T09:41:29.917Z</time></trkpt><trkpt lat="43.7562417" lon="11.3762467"><ele>428.14285714285717</ele><time>2026-04-11T09:41:33.916Z</time></trkpt><trkpt lat="43.7562717" lon="11.3761583"><ele>428.0</ele><time>2026-04-11T09:41:37.916Z</time></trkpt><trkpt lat="43.7562967" lon="11.3760617"><ele>427.99999999999994</ele><time>2026-04-11T09:41:41.916Z</time></trkpt><trkpt lat="43.7563083" lon="11.37597"><ele>428.0</ele><time>2026-04-11T09:41:45.916Z</time></trkpt><trkpt lat="43.756355" lon="11.3758767"><ele>428.0</ele><time>2026-04-11T09:41:48.916Z</time></trkpt><trkpt lat="43.7563917" lon="11.3757833"><ele>428.0</ele><time>2026-04-11T09:41:50.916Z</time></trkpt><trkpt lat="43.7564267" lon="11.3756817"><ele>427.99999999999994</ele><time>2026-04-11T09:41:52.916Z</time></trkpt><trkpt lat="43.75646" lon="11.3755667"><ele>428.0</ele><time>2026-04-11T09:41:54.916Z</time></trkpt><trkpt lat="43.75648" lon="11.3754433"><ele>428.59999999999997</ele><time>2026-04-11T09:41:56.916Z</time></trkpt><trkpt lat="43.7565" lon="11.3753067"><ele>429.19999999999993</ele><time>2026-04-11T09:41:58.916Z</time></trkpt><trkpt lat="43.7565117" lon="11.37517"><ele>429.8</ele><time>2026-04-11T09:42:00.916Z</time></trkpt><trkpt lat="43.7565367" lon="11.375015"><ele>430.4</ele><time>2026-04-11T09:42:02.916Z</time></trkpt><trkpt lat="43.7565683" lon="11.3748817"><ele>431.0</ele><time>2026-04-11T09:42:04.917Z</time></trkpt><trkpt lat="43.7565917" lon="11.37474"><ele>431.16666666666663</ele><time>2026-04-11T09:42:06.916Z</time></trkpt><trkpt lat="43.7566167" lon="11.374615"><ele>431.3333333333333</ele><time>2026-04-11T09:42:08.916Z</time></trkpt><trkpt lat="43.7566417" lon="11.374485"><ele>431.5</ele><time>2026-04-11T09:42:10.917Z</time></trkpt><trkpt lat="43.7566467" lon="11.37436"><ele>431.66666666666663</ele><time>2026-04-11T09:42:12.916Z</time></trkpt><trkpt lat="43.7566433" lon="11.3742617"><ele>431.8333333333333</ele><time>2026-04-11T09:42:14.916Z</time></trkpt><trkpt lat="43.756655" lon="11.374135"><ele>432.0</ele><time>2026-04-11T09:42:17.916Z</time></trkpt><trkpt lat="43.756675" lon="11.3740283"><ele>432.0</ele><time>2026-04-11T09:42:19.916Z</time></trkpt><trkpt lat="43.756685" lon="11.37391"><ele>432.00000000000006</ele><time>2026-04-11T09:42:21.916Z</time></trkpt><trkpt lat="43.756685" lon="11.3737617"><ele>432.00000000000006</ele><time>2026-04-11T09:42:23.916Z</time></trkpt><trkpt lat="43.756685" lon="11.373635"><ele>432.0</ele><time>2026-04-11T09:42:25.916Z</time></trkpt><trkpt lat="43.756705" lon="11.3735117"><ele>432.0</ele><time>2026-04-11T09:42:27.916Z</time></trkpt><trkpt lat="43.75672" lon="11.3734067"><ele>431.6666666666667</ele><time>2026-04-11T09:42:29.916Z</time></trkpt><trkpt lat="43.7567233" lon="11.373305"><ele>431.33333333333337</ele><time>2026-04-11T09:42:31.916Z</time></trkpt><trkpt lat="43.756715" lon="11.3731967"><ele>431.0</ele><time>2026-04-11T09:42:35.916Z</time></trkpt><trkpt lat="43.7567217" lon="11.3730917"><ele>430.6666666666667</ele><time>2026-04-11T09:42:38.916Z</time></trkpt><trkpt lat="43.756725" lon="11.372995"><ele>430.33333333333337</ele><time>2026-04-11T09:42:41.917Z</time></trkpt><trkpt lat="43.7567017" lon="11.3728917"><ele>430.0</ele><time>2026-04-11T09:42:45.916Z</time></trkpt><trkpt lat="43.7567267" lon="11.372795"><ele>430.57142857142856</ele><time>2026-04-11T09:42:49.916Z</time></trkpt><trkpt lat="43.7567417" lon="11.3726933"><ele>431.14285714285717</ele><time>2026-04-11T09:42:54.916Z</time></trkpt><trkpt lat="43.7567433" lon="11.37259"><ele>431.7142857142857</ele><time>2026-04-11T09:42:59.917Z</time></trkpt><trkpt lat="43.7567433" lon="11.3724883"><ele>432.2857142857143</ele><time>2026-04-11T09:43:04.916Z</time></trkpt><trkpt lat="43.7567417" lon="11.3724"><ele>432.8571428571429</ele><time>2026-04-11T09:43:08.917Z</time></trkpt><trkpt lat="43.756745" lon="11.372305"><ele>433.42857142857144</ele><time>2026-04-11T09:43:12.917Z</time></trkpt><trkpt lat="43.7567483" lon="11.372215"><ele>434.0</ele><time>2026-04-11T09:43:16.916Z</time></trkpt><trkpt lat="43.7567517" lon="11.3721183"><ele>435.16666666666663</ele><time>2026-04-11T09:43:20.917Z</time></trkpt><trkpt lat="43.75676" lon="11.3720233"><ele>436.3333333333333</ele><time>2026-04-11T09:43:24.916Z</time></trkpt><trkpt lat="43.7567733" lon="11.37192"><ele>437.5</ele><time>2026-04-11T09:43:29.916Z</time></trkpt><trkpt lat="43.756785" lon="11.3718167"><ele>438.66666666666663</ele><time>2026-04-11T09:43:34.916Z</time></trkpt><trkpt lat="43.756795" lon="11.3716883"><ele>439.8333333333333</ele><time>2026-04-11T09:43:41.917Z</time></trkpt><trkpt lat="43.7567867" lon="11.3715983"><ele>441.0</ele><time>2026-04-11T09:43:47.916Z</time></trkpt><trkpt lat="43.7567767" lon="11.371495"><ele>441.0</ele><time>2026-04-11T09:43:54.916Z</time></trkpt><trkpt lat="43.7567733" lon="11.3713833"><ele>441.0</ele><time>2026-04-11T09:44:01.916Z</time></trkpt><trkpt lat="43.756765" lon="11.3712833"><ele>441.0</ele><time>2026-04-11T09:44:06.916Z</time></trkpt><trkpt lat="43.75678" lon="11.3711867"><ele>441.0</ele><time>2026-04-11T09:44:11.916Z</time></trkpt><trkpt lat="43.7568167" lon="11.3711133"><ele>441.0</ele><time>2026-04-11T09:44:16.916Z</time></trkpt><trkpt lat="43.7568333" lon="11.3710117"><ele>441.0</ele><time>2026-04-11T09:44:22.916Z</time></trkpt><trkpt lat="43.7568267" lon="11.3709233"><ele>441.0</ele><time>2026-04-11T09:44:27.916Z</time></trkpt><trkpt lat="43.75684" lon="11.37083"><ele>440.8333333333333</ele><time>2026-04-11T09:44:31.917Z</time></trkpt><trkpt lat="43.7568983" lon="11.3707267"><ele>440.66666666666663</ele><time>2026-04-11T09:44:39.915Z</time></trkpt><trkpt lat="43.756925" lon="11.3706417"><ele>440.5</ele><time>2026-04-11T09:44:43.915Z</time></trkpt><trkpt lat="43.75693" lon="11.3705383"><ele>440.3333333333333</ele><time>2026-04-11T09:44:47.915Z</time></trkpt><trkpt lat="43.7569533" lon="11.3704233"><ele>440.16666666666663</ele><time>2026-04-11T09:44:50.915Z</time></trkpt><trkpt lat="43.75695" lon="11.370335"><ele>440.0</ele><time>2026-04-11T09:44:52.915Z</time></trkpt><trkpt lat="43.7569367" lon="11.3702117"><ele>440.1428571428571</ele><time>2026-04-11T09:44:55.915Z</time></trkpt><trkpt lat="43.75692" lon="11.3701233"><ele>440.2857142857143</ele><time>2026-04-11T09:44:57.915Z</time></trkpt><trkpt lat="43.7569017" lon="11.3700183"><ele>440.42857142857144</ele><time>2026-04-11T09:44:59.915Z</time></trkpt><trkpt lat="43.756875" lon="11.3699067"><ele>440.57142857142856</ele><time>2026-04-11T09:45:02.915Z</time></trkpt><trkpt lat="43.756855" lon="11.3698183"><ele>440.7142857142857</ele><time>2026-04-11T09:45:04.916Z</time></trkpt><trkpt lat="43.7568283" lon="11.3697217"><ele>440.85714285714283</ele><time>2026-04-11T09:45:06.915Z</time></trkpt><trkpt lat="43.7567983" lon="11.3696233"><ele>441.0</ele><time>2026-04-11T09:45:08.915Z</time></trkpt><trkpt lat="43.7567717" lon="11.3695283"><ele>440.6666666666667</ele><time>2026-04-11T09:45:10.915Z</time></trkpt><trkpt lat="43.756735" lon="11.3694333"><ele>440.33333333333337</ele><time>2026-04-11T09:45:12.915Z</time></trkpt><trkpt lat="43.7567083" lon="11.3693467"><ele>440.0</ele><time>2026-04-11T09:45:14.915Z</time></trkpt><trkpt lat="43.756675" lon="11.3692467"><ele>439.6666666666667</ele><time>2026-04-11T09:45:16.915Z</time></trkpt><trkpt lat="43.7566267" lon="11.3691283"><ele>439.33333333333337</ele><time>2026-04-11T09:45:19.915Z</time></trkpt><trkpt lat="43.7565967" lon="11.3690083"><ele>439.0</ele><time>2026-04-11T09:45:21.915Z</time></trkpt><trkpt lat="43.756575" lon="11.3688983"><ele>437.83333333333337</ele><time>2026-04-11T09:45:23.915Z</time></trkpt><trkpt lat="43.75659" lon="11.36879"><ele>436.6666666666667</ele><time>2026-04-11T09:45:26.915Z</time></trkpt><trkpt lat="43.7565867" lon="11.3686783"><ele>435.5</ele><time>2026-04-11T09:45:29.916Z</time></trkpt><trkpt lat="43.7565517" lon="11.368605"><ele>434.33333333333337</ele><time>2026-04-11T09:45:31.915Z</time></trkpt><trkpt lat="43.7565167" lon="11.368495"><ele>433.1666666666667</ele><time>2026-04-11T09:45:34.915Z</time></trkpt><trkpt lat="43.7564917" lon="11.3683833"><ele>432.0</ele><time>2026-04-11T09:45:37.915Z</time></trkpt><trkpt lat="43.7564767" lon="11.3682917"><ele>432.0</ele><time>2026-04-11T09:45:40.915Z</time></trkpt><trkpt lat="43.7564967" lon="11.3681917"><ele>432.0</ele><time>2026-04-11T09:45:44.915Z</time></trkpt><trkpt lat="43.756485" lon="11.3681"><ele>432.0</ele><time>2026-04-11T09:45:47.915Z</time></trkpt><trkpt lat="43.7564783" lon="11.3679883"><ele>432.0</ele><time>2026-04-11T09:45:51.915Z</time></trkpt><trkpt lat="43.7564783" lon="11.3678933"><ele>432.0</ele><time>2026-04-11T09:45:54.915Z</time></trkpt><trkpt lat="43.7564483" lon="11.3677817"><ele>432.0</ele><time>2026-04-11T09:45:57.915Z</time></trkpt><trkpt lat="43.7564333" lon="11.3676583"><ele>430.0</ele><time>2026-04-11T09:46:00.915Z</time></trkpt><trkpt lat="43.756415" lon="11.3675467"><ele>428.0</ele><time>2026-04-11T09:46:03.915Z</time></trkpt><trkpt lat="43.75641" lon="11.3674483"><ele>426.0</ele><time>2026-04-11T09:46:05.915Z</time></trkpt><trkpt lat="43.7564033" lon="11.367335"><ele>424.0</ele><time>2026-04-11T09:46:08.915Z</time></trkpt><trkpt lat="43.7563983" lon="11.3672033"><ele>422.0</ele><time>2026-04-11T09:46:11.915Z</time></trkpt><trkpt lat="43.7564117" lon="11.3671083"><ele>420.0</ele><time>2026-04-11T09:46:13.915Z</time></trkpt><trkpt lat="43.7564167" lon="11.3670117"><ele>418.1666666666667</ele><time>2026-04-11T09:46:15.915Z</time></trkpt><trkpt lat="43.7564333" lon="11.3669267"><ele>416.33333333333337</ele><time>2026-04-11T09:46:17.915Z</time></trkpt><trkpt lat="43.756435" lon="11.3668333"><ele>414.5</ele><time>2026-04-11T09:46:19.915Z</time></trkpt><trkpt lat="43.7564133" lon="11.3667133"><ele>412.6666666666667</ele><time>2026-04-11T09:46:22.915Z</time></trkpt><trkpt lat="43.7564" lon="11.36659"><ele>410.83333333333337</ele><time>2026-04-11T09:46:25.915Z</time></trkpt><trkpt lat="43.756385" lon="11.366475"><ele>409.0</ele><time>2026-04-11T09:46:28.915Z</time></trkpt><trkpt lat="43.7564133" lon="11.36636"><ele>408.50000000000006</ele><time>2026-04-11T09:46:31.915Z</time></trkpt><trkpt lat="43.75646" lon="11.366265"><ele>408.0</ele><time>2026-04-11T09:46:33.915Z</time></trkpt><trkpt lat="43.756495" lon="11.366135"><ele>407.5</ele><time>2026-04-11T09:46:35.915Z</time></trkpt><trkpt lat="43.7565167" lon="11.3660167"><ele>407.0</ele><time>2026-04-11T09:46:37.915Z</time></trkpt><trkpt lat="43.756515" lon="11.3658967"><ele>406.50000000000006</ele><time>2026-04-11T09:46:40.915Z</time></trkpt><trkpt lat="43.7565033" lon="11.3657917"><ele>406.0</ele><time>2026-04-11T09:46:42.916Z</time></trkpt><trkpt lat="43.7564983" lon="11.3656917"><ele>406.0</ele><time>2026-04-11T09:46:44.915Z</time></trkpt><trkpt lat="43.7564883" lon="11.365605"><ele>406.0</ele><time>2026-04-11T09:46:46.916Z</time></trkpt><trkpt lat="43.7564567" lon="11.3654867"><ele>406.0</ele><time>2026-04-11T09:46:49.915Z</time></trkpt><trkpt lat="43.7564367" lon="11.365385"><ele>406.0</ele><time>2026-04-11T09:46:52.915Z</time></trkpt><trkpt lat="43.75643" lon="11.3652817"><ele>406.0</ele><time>2026-04-11T09:46:56.916Z</time></trkpt><trkpt lat="43.75641" lon="11.36519"><ele>406.0</ele><time>2026-04-11T09:46:59.915Z</time></trkpt><trkpt lat="43.75637" lon="11.365105"><ele>406.0</ele><time>2026-04-11T09:47:02.915Z</time></trkpt><trkpt lat="43.7563567" lon="11.36501"><ele>406.00000000000006</ele><time>2026-04-11T09:47:05.915Z</time></trkpt><trkpt lat="43.7563483" lon="11.3648983"><ele>406.0</ele><time>2026-04-11T09:47:09.915Z</time></trkpt><trkpt lat="43.75635" lon="11.3648017"><ele>406.0</ele><time>2026-04-11T09:47:13.915Z</time></trkpt><trkpt lat="43.7563633" lon="11.3647083"><ele>406.0</ele><time>2026-04-11T09:47:16.916Z</time></trkpt><trkpt lat="43.756365" lon="11.3645783"><ele>406.00000000000006</ele><time>2026-04-11T09:47:19.916Z</time></trkpt><trkpt lat="43.756355" lon="11.3644633"><ele>406.0</ele><time>2026-04-11T09:47:22.915Z</time></trkpt><trkpt lat="43.7562983" lon="11.36428"><ele>406.00000000000006</ele><time>2026-04-11T09:47:39.915Z</time></trkpt><trkpt lat="43.75624" lon="11.3641383"><ele>406.0</ele><time>2026-04-11T09:47:58.915Z</time></trkpt><trkpt lat="43.75619" lon="11.3640783"><ele>406.0</ele><time>2026-04-11T09:48:03.916Z</time></trkpt><trkpt lat="43.75616" lon="11.3639883"><ele>406.0</ele><time>2026-04-11T09:48:07.915Z</time></trkpt><trkpt lat="43.75615" lon="11.3638933"><ele>406.00000000000006</ele><time>2026-04-11T09:48:11.916Z</time></trkpt><trkpt lat="43.7560833" lon="11.3637817"><ele>406.0</ele><time>2026-04-11T09:48:27.915Z</time></trkpt><trkpt lat="43.7560683" lon="11.3636367"><ele>405.42857142857144</ele><time>2026-04-11T09:48:39.915Z</time></trkpt><trkpt lat="43.7560217" lon="11.3635433"><ele>404.8571428571429</ele><time>2026-04-11T09:48:43.915Z</time></trkpt><trkpt lat="43.7559883" lon="11.363455"><ele>404.2857142857143</ele><time>2026-04-11T09:48:46.916Z</time></trkpt><trkpt lat="43.7559783" lon="11.3633633"><ele>403.7142857142857</ele><time>2026-04-11T09:48:49.915Z</time></trkpt><trkpt lat="43.75599" lon="11.3632733"><ele>403.14285714285717</ele><time>2026-04-11T09:48:52.915Z</time></trkpt><trkpt lat="43.7559717" lon="11.3631833"><ele>402.57142857142856</ele><time>2026-04-11T09:48:56.915Z</time></trkpt><trkpt lat="43.7559267" lon="11.3630767"><ele>402.0</ele><time>2026-04-11T09:49:01.916Z</time></trkpt><trkpt lat="43.755885" lon="11.3629817"><ele>402.0</ele><time>2026-04-11T09:49:06.915Z</time></trkpt><trkpt lat="43.7558567" lon="11.36288"><ele>402.0</ele><time>2026-04-11T09:49:10.915Z</time></trkpt><trkpt lat="43.7558317" lon="11.3627867"><ele>402.0</ele><time>2026-04-11T09:49:13.915Z</time></trkpt><trkpt lat="43.7558033" lon="11.3627017"><ele>402.0</ele><time>2026-04-11T09:49:16.916Z</time></trkpt><trkpt lat="43.75575" lon="11.3625467"><ele>402.0</ele><time>2026-04-11T09:49:29.915Z</time></trkpt><trkpt lat="43.7556817" lon="11.36243"><ele>402.0</ele><time>2026-04-11T09:49:34.915Z</time></trkpt><trkpt lat="43.75565" lon="11.3623267"><ele>402.0</ele><time>2026-04-11T09:49:38.915Z</time></trkpt><trkpt lat="43.7556317" lon="11.36222"><ele>402.0</ele><time>2026-04-11T09:49:41.915Z</time></trkpt><trkpt lat="43.755595" lon="11.3621333"><ele>402.0</ele><time>2026-04-11T09:49:44.915Z</time></trkpt><trkpt lat="43.7555667" lon="11.362045"><ele>402.0</ele><time>2026-04-11T09:49:46.915Z</time></trkpt><trkpt lat="43.755545" lon="11.3619417"><ele>402.0</ele><time>2026-04-11T09:49:48.915Z</time></trkpt><trkpt lat="43.7555217" lon="11.3618433"><ele>402.5</ele><time>2026-04-11T09:49:50.915Z</time></trkpt><trkpt lat="43.7555183" lon="11.36172"><ele>403.0</ele><time>2026-04-11T09:49:53.915Z</time></trkpt><trkpt lat="43.7554933" lon="11.3615983"><ele>403.5</ele><time>2026-04-11T09:49:56.916Z</time></trkpt><trkpt lat="43.7555" lon="11.3615"><ele>404.0</ele><time>2026-04-11T09:49:59.915Z</time></trkpt><trkpt lat="43.755495" lon="11.3613933"><ele>404.5</ele><time>2026-04-11T09:50:02.915Z</time></trkpt><trkpt lat="43.75549" lon="11.3613033"><ele>405.0</ele><time>2026-04-11T09:50:05.916Z</time></trkpt><trkpt lat="43.755465" lon="11.36116"><ele>405.0</ele><time>2026-04-11T09:50:18.915Z</time></trkpt><trkpt lat="43.7554367" lon="11.3610583"><ele>405.0</ele><time>2026-04-11T09:50:22.915Z</time></trkpt><trkpt lat="43.7554133" lon="11.3609617"><ele>405.0</ele><time>2026-04-11T09:50:26.915Z</time></trkpt><trkpt lat="43.7554283" lon="11.3608617"><ele>405.0</ele><time>2026-04-11T09:50:29.915Z</time></trkpt><trkpt lat="43.75542" lon="11.3606667"><ele>405.0</ele><time>2026-04-11T09:50:43.915Z</time></trkpt><trkpt lat="43.7554183" lon="11.3605583"><ele>405.0</ele><time>2026-04-11T09:50:47.916Z</time></trkpt><trkpt lat="43.7554133" lon="11.36045"><ele>405.0</ele><time>2026-04-11T09:50:52.916Z</time></trkpt><trkpt lat="43.75541" lon="11.3603417"><ele>405.0</ele><time>2026-04-11T09:50:56.915Z</time></trkpt><trkpt lat="43.755385" lon="11.3601933"><ele>405.0</ele><time>2026-04-11T09:51:02.915Z</time></trkpt><trkpt lat="43.755375" lon="11.36009"><ele>405.0</ele><time>2026-04-11T09:51:05.915Z</time></trkpt><trkpt lat="43.7553433" lon="11.3599"><ele>405.0</ele><time>2026-04-11T09:51:21.915Z</time></trkpt><trkpt lat="43.7553017" lon="11.3597867"><ele>406.0</ele><time>2026-04-11T09:51:25.915Z</time></trkpt><trkpt lat="43.7552767" lon="11.3596717"><ele>407.0</ele><time>2026-04-11T09:51:28.915Z</time></trkpt><trkpt lat="43.7552517" lon="11.3595633"><ele>408.0</ele><time>2026-04-11T09:51:31.916Z</time></trkpt><trkpt lat="43.755225" lon="11.35946"><ele>409.0</ele><time>2026-04-11T09:51:34.915Z</time></trkpt><trkpt lat="43.75521" lon="11.3593317"><ele>410.0</ele><time>2026-04-11T09:51:40.916Z</time></trkpt><trkpt lat="43.7551433" lon="11.3591067"><ele>404.2857142857143</ele><time>2026-04-11T09:52:32.915Z</time></trkpt><trkpt lat="43.7551167" lon="11.35902"><ele>398.57142857142856</ele><time>2026-04-11T09:52:37.915Z</time></trkpt><trkpt lat="43.7550783" lon="11.3589433"><ele>392.85714285714283</ele><time>2026-04-11T09:52:42.915Z</time></trkpt><trkpt lat="43.7550617" lon="11.3588583"><ele>387.1428571428571</ele><time>2026-04-11T09:52:45.915Z</time></trkpt><trkpt lat="43.7550483" lon="11.358765"><ele>381.42857142857144</ele><time>2026-04-11T09:52:48.915Z</time></trkpt><trkpt lat="43.7550067" lon="11.35867"><ele>375.71428571428567</ele><time>2026-04-11T09:52:52.915Z</time></trkpt><trkpt lat="43.7549733" lon="11.3585633"><ele>370.0</ele><time>2026-04-11T09:52:56.916Z</time></trkpt><trkpt lat="43.7549533" lon="11.3584617"><ele>370.0</ele><time>2026-04-11T09:53:00.915Z</time></trkpt><trkpt lat="43.7549583" lon="11.3583333"><ele>370.0</ele><time>2026-04-11T09:53:06.915Z</time></trkpt><trkpt lat="43.7549583" lon="11.35824"><ele>370.0</ele><time>2026-04-11T09:53:09.915Z</time></trkpt><trkpt lat="43.7549483" lon="11.35815"><ele>370.0</ele><time>2026-04-11T09:53:12.915Z</time></trkpt><trkpt lat="43.75496" lon="11.3580367"><ele>370.0</ele><time>2026-04-11T09:53:16.915Z</time></trkpt><trkpt lat="43.7549967" lon="11.35793"><ele>370.0</ele><time>2026-04-11T09:53:22.915Z</time></trkpt><trkpt lat="43.7550117" lon="11.3578267"><ele>368.3333333333333</ele><time>2026-04-11T09:53:26.915Z</time></trkpt><trkpt lat="43.7550167" lon="11.35769"><ele>366.66666666666663</ele><time>2026-04-11T09:53:32.915Z</time></trkpt><trkpt lat="43.755025" lon="11.3575933"><ele>365.0</ele><time>2026-04-11T09:53:35.916Z</time></trkpt><trkpt lat="43.7550317" lon="11.357495"><ele>363.3333333333333</ele><time>2026-04-11T09:53:38.915Z</time></trkpt><trkpt lat="43.7550383" lon="11.3573967"><ele>361.6666666666667</ele><time>2026-04-11T09:53:41.915Z</time></trkpt><trkpt lat="43.755045" lon="11.3572867"><ele>360.0</ele><time>2026-04-11T09:53:45.915Z</time></trkpt><trkpt lat="43.7550433" lon="11.3571767"><ele>359.2857142857143</ele><time>2026-04-11T09:53:49.916Z</time></trkpt><trkpt lat="43.7550333" lon="11.35709"><ele>358.5714285714286</ele><time>2026-04-11T09:53:52.915Z</time></trkpt><trkpt lat="43.75502" lon="11.356995"><ele>357.8571428571429</ele><time>2026-04-11T09:53:57.916Z</time></trkpt><trkpt lat="43.7550117" lon="11.3569083"><ele>357.1428571428571</ele><time>2026-04-11T09:54:00.915Z</time></trkpt><trkpt lat="43.7550133" lon="11.35681"><ele>356.42857142857144</ele><time>2026-04-11T09:54:03.915Z</time></trkpt><trkpt lat="43.7550283" lon="11.3567217"><ele>355.7142857142857</ele><time>2026-04-11T09:54:08.916Z</time></trkpt><trkpt lat="43.7550367" lon="11.3566283"><ele>355.0</ele><time>2026-04-11T09:54:12.916Z</time></trkpt><trkpt lat="43.7550183" lon="11.3565433"><ele>355.0</ele><time>2026-04-11T09:54:15.915Z</time></trkpt><trkpt lat="43.754995" lon="11.3564317"><ele>355.0</ele><time>2026-04-11T09:54:19.915Z</time></trkpt><trkpt lat="43.75496" lon="11.356325"><ele>355.0</ele><time>2026-04-11T09:54:22.915Z</time></trkpt><trkpt lat="43.75493" lon="11.3562333"><ele>355.0</ele><time>2026-04-11T09:54:25.915Z</time></trkpt><trkpt lat="43.7549133" lon="11.3561483"><ele>355.0</ele><time>2026-04-11T09:54:28.916Z</time></trkpt><trkpt lat="43.75489" lon="11.356045"><ele>355.0</ele><time>2026-04-11T09:54:32.915Z</time></trkpt><trkpt lat="43.7548683" lon="11.3559433"><ele>355.42857142857144</ele><time>2026-04-11T09:54:36.915Z</time></trkpt><trkpt lat="43.7548333" lon="11.3558633"><ele>355.8571428571429</ele><time>2026-04-11T09:54:40.915Z</time></trkpt><trkpt lat="43.7547883" lon="11.35577"><ele>356.28571428571433</ele><time>2026-04-11T09:54:44.915Z</time></trkpt><trkpt lat="43.7547633" lon="11.35569"><ele>356.7142857142857</ele><time>2026-04-11T09:54:47.915Z</time></trkpt><trkpt lat="43.7547383" lon="11.35561"><ele>357.14285714285717</ele><time>2026-04-11T09:54:50.915Z</time></trkpt><trkpt lat="43.7546967" lon="11.3555417"><ele>357.5714285714286</ele><time>2026-04-11T09:54:53.915Z</time></trkpt><trkpt lat="43.7546617" lon="11.35544"><ele>358.0</ele><time>2026-04-11T09:54:57.916Z</time></trkpt><trkpt lat="43.7546117" lon="11.3553633"><ele>359.28571428571433</ele><time>2026-04-11T09:55:00.915Z</time></trkpt><trkpt lat="43.7545767" lon="11.3552833"><ele>360.57142857142856</ele><time>2026-04-11T09:55:03.915Z</time></trkpt><trkpt lat="43.7545133" lon="11.355215"><ele>361.8571428571429</ele><time>2026-04-11T09:55:07.915Z</time></trkpt><trkpt lat="43.7544783" lon="11.3551317"><ele>363.14285714285717</ele><time>2026-04-11T09:55:10.915Z</time></trkpt><trkpt lat="43.7544117" lon="11.3550767"><ele>364.42857142857144</ele><time>2026-04-11T09:55:13.916Z</time></trkpt><trkpt lat="43.7543533" lon="11.355025"><ele>365.7142857142857</ele><time>2026-04-11T09:55:16.915Z</time></trkpt><trkpt lat="43.7542833" lon="11.3549717"><ele>367.0</ele><time>2026-04-11T09:55:20.916Z</time></trkpt><trkpt lat="43.7542183" lon="11.3549267"><ele>362.66666666666663</ele><time>2026-04-11T09:55:23.916Z</time></trkpt><trkpt lat="43.7541233" lon="11.3547917"><ele>358.3333333333333</ele><time>2026-04-11T09:55:45.915Z</time></trkpt><trkpt lat="43.7540683" lon="11.3547083"><ele>354.0</ele><time>2026-04-11T09:55:49.915Z</time></trkpt><trkpt lat="43.7540367" lon="11.3546267"><ele>349.6666666666667</ele><time>2026-04-11T09:55:52.915Z</time></trkpt><trkpt lat="43.7540233" lon="11.3545383"><ele>345.33333333333337</ele><time>2026-04-11T09:55:54.916Z</time></trkpt><trkpt lat="43.7539983" lon="11.3544233"><ele>341.0</ele><time>2026-04-11T09:55:57.915Z</time></trkpt><trkpt lat="43.7539617" lon="11.3543117"><ele>341.0</ele><time>2026-04-11T09:56:00.916Z</time></trkpt><trkpt lat="43.7539133" lon="11.3542117"><ele>341.0</ele><time>2026-04-11T09:56:03.915Z</time></trkpt><trkpt lat="43.7538667" lon="11.3541333"><ele>341.0</ele><time>2026-04-11T09:56:06.916Z</time></trkpt><trkpt lat="43.753815" lon="11.3540633"><ele>341.0</ele><time>2026-04-11T09:56:09.915Z</time></trkpt><trkpt lat="43.7537667" lon="11.3539883"><ele>341.0</ele><time>2026-04-11T09:56:12.915Z</time></trkpt><trkpt lat="43.7537267" lon="11.3538967"><ele>341.0</ele><time>2026-04-11T09:56:15.915Z</time></trkpt><trkpt lat="43.75369" lon="11.3538133"><ele>342.2857142857143</ele><time>2026-04-11T09:56:18.915Z</time></trkpt><trkpt lat="43.7536483" lon="11.3537233"><ele>343.57142857142856</ele><time>2026-04-11T09:56:22.915Z</time></trkpt><trkpt lat="43.7536017" lon="11.35365"><ele>344.8571428571429</ele><time>2026-04-11T09:56:25.915Z</time></trkpt><trkpt lat="43.753565" lon="11.3535733"><ele>346.1428571428571</ele><time>2026-04-11T09:56:28.915Z</time></trkpt><trkpt lat="43.7535133" lon="11.353495"><ele>347.42857142857144</ele><time>2026-04-11T09:56:31.915Z</time></trkpt><trkpt lat="43.7534883" lon="11.3533983"><ele>348.7142857142857</ele><time>2026-04-11T09:56:34.915Z</time></trkpt><trkpt lat="43.7534283" lon="11.3533217"><ele>350.0</ele><time>2026-04-11T09:56:38.915Z</time></trkpt><trkpt lat="43.753405" lon="11.3532283"><ele>346.2857142857143</ele><time>2026-04-11T09:56:42.915Z</time></trkpt><trkpt lat="43.75335" lon="11.3531583"><ele>342.57142857142856</ele><time>2026-04-11T09:56:46.916Z</time></trkpt><trkpt lat="43.7533083" lon="11.3530783"><ele>338.8571428571429</ele><time>2026-04-11T09:56:50.915Z</time></trkpt><trkpt lat="43.7532667" lon="11.353005"><ele>335.1428571428571</ele><time>2026-04-11T09:56:54.915Z</time></trkpt><trkpt lat="43.7532283" lon="11.3529267"><ele>331.42857142857144</ele><time>2026-04-11T09:56:57.915Z</time></trkpt><trkpt lat="43.7531683" lon="11.3528533"><ele>327.7142857142857</ele><time>2026-04-11T09:57:00.915Z</time></trkpt><trkpt lat="43.7531167" lon="11.3527817"><ele>324.0</ele><time>2026-04-11T09:57:03.915Z</time></trkpt><trkpt lat="43.7530767" lon="11.35268"><ele>324.0</ele><time>2026-04-11T09:57:06.915Z</time></trkpt><trkpt lat="43.7530533" lon="11.352595"><ele>324.0</ele><time>2026-04-11T09:57:08.915Z</time></trkpt><trkpt lat="43.7530267" lon="11.3524867"><ele>324.0</ele><time>2026-04-11T09:57:11.915Z</time></trkpt><trkpt lat="43.75299" lon="11.3523617"><ele>324.0</ele><time>2026-04-11T09:57:14.915Z</time></trkpt><trkpt lat="43.7529517" lon="11.3522917"><ele>324.0</ele><time>2026-04-11T09:57:16.916Z</time></trkpt><trkpt lat="43.7529267" lon="11.3522033"><ele>324.0</ele><time>2026-04-11T09:57:18.915Z</time></trkpt><trkpt lat="43.7529033" lon="11.3521183"><ele>324.0</ele><time>2026-04-11T09:57:20.915Z</time></trkpt><trkpt lat="43.752875" lon="11.3520267"><ele>325.0</ele><time>2026-04-11T09:57:23.916Z</time></trkpt><trkpt lat="43.7528367" lon="11.3519383"><ele>326.0</ele><time>2026-04-11T09:57:26.915Z</time></trkpt><trkpt lat="43.7527933" lon="11.35185"><ele>327.0</ele><time>2026-04-11T09:57:29.916Z</time></trkpt><trkpt lat="43.7527517" lon="11.351755"><ele>328.0</ele><time>2026-04-11T09:57:32.915Z</time></trkpt><trkpt lat="43.7527" lon="11.3516583"><ele>329.0</ele><time>2026-04-11T09:57:35.915Z</time></trkpt><trkpt lat="43.7526283" lon="11.35157"><ele>330.0</ele><time>2026-04-11T09:57:38.915Z</time></trkpt><trkpt lat="43.7525767" lon="11.3514917"><ele>325.3333333333333</ele><time>2026-04-11T09:57:41.916Z</time></trkpt><trkpt lat="43.7525283" lon="11.3513933"><ele>320.6666666666667</ele><time>2026-04-11T09:57:44.915Z</time></trkpt><trkpt lat="43.7524817" lon="11.3513083"><ele>316.0</ele><time>2026-04-11T09:57:47.915Z</time></trkpt><trkpt lat="43.7524117" lon="11.3511783"><ele>311.33333333333337</ele><time>2026-04-11T09:58:03.915Z</time></trkpt><trkpt lat="43.7523483" lon="11.3511067"><ele>306.6666666666667</ele><time>2026-04-11T09:58:07.915Z</time></trkpt><trkpt lat="43.7523033" lon="11.351045"><ele>302.0</ele><time>2026-04-11T09:58:09.915Z</time></trkpt><trkpt lat="43.75227" lon="11.3509567"><ele>302.0</ele><time>2026-04-11T09:58:12.915Z</time></trkpt><trkpt lat="43.7522433" lon="11.3508417"><ele>302.0</ele><time>2026-04-11T09:58:15.915Z</time></trkpt><trkpt lat="43.7522283" lon="11.3507533"><ele>302.0</ele><time>2026-04-11T09:58:18.915Z</time></trkpt><trkpt lat="43.7522217" lon="11.35065"><ele>302.0</ele><time>2026-04-11T09:58:21.915Z</time></trkpt><trkpt lat="43.7522317" lon="11.3505467"><ele>302.0</ele><time>2026-04-11T09:58:24.916Z</time></trkpt><trkpt lat="43.75224" lon="11.3504333"><ele>302.0</ele><time>2026-04-11T09:58:27.915Z</time></trkpt><trkpt lat="43.75225" lon="11.35032"><ele>298.6</ele><time>2026-04-11T09:58:30.916Z</time></trkpt><trkpt lat="43.752245" lon="11.350215"><ele>295.2</ele><time>2026-04-11T09:58:34.916Z</time></trkpt><trkpt lat="43.7522483" lon="11.3500967"><ele>291.8</ele><time>2026-04-11T09:58:38.915Z</time></trkpt><trkpt lat="43.7522567" lon="11.35"><ele>288.4</ele><time>2026-04-11T09:58:41.915Z</time></trkpt><trkpt lat="43.752205" lon="11.3497783"><ele>285.0</ele><time>2026-04-11T09:59:04.915Z</time></trkpt><trkpt lat="43.7521817" lon="11.3496767"><ele>281.2</ele><time>2026-04-11T09:59:09.915Z</time></trkpt><trkpt lat="43.75224" lon="11.3496017"><ele>277.4</ele><time>2026-04-11T09:59:20.915Z</time></trkpt><trkpt lat="43.7523617" lon="11.3495333"><ele>273.6</ele><time>2026-04-11T10:09:27.915Z</time></trkpt><trkpt lat="43.7524017" lon="11.3493917"><ele>269.8</ele><time>2026-04-11T10:10:12.914Z</time></trkpt><trkpt lat="43.7523383" lon="11.349285"><ele>266.0</ele><time>2026-04-11T10:10:31.914Z</time></trkpt><trkpt lat="43.7522633" lon="11.3492867"><ele>266.0</ele><time>2026-04-11T10:10:34.914Z</time></trkpt><trkpt lat="43.7521967" lon="11.349275"><ele>266.0</ele><time>2026-04-11T10:10:37.914Z</time></trkpt><trkpt lat="43.7521117" lon="11.3492917"><ele>266.0</ele><time>2026-04-11T10:10:40.915Z</time></trkpt><trkpt lat="43.7521517" lon="11.3491933"><ele>266.0</ele><time>2026-04-11T10:12:02.914Z</time></trkpt><trkpt lat="43.7522067" lon="11.3491467"><ele>266.0</ele><time>2026-04-11T10:12:04.915Z</time></trkpt><trkpt lat="43.7522717" lon="11.3491317"><ele>266.0</ele><time>2026-04-11T10:12:06.914Z</time></trkpt><trkpt lat="43.75234" lon="11.3491217"><ele>266.0</ele><time>2026-04-11T10:12:08.915Z</time></trkpt><trkpt lat="43.7524317" lon="11.3490867"><ele>266.0</ele><time>2026-04-11T10:12:10.914Z</time></trkpt><trkpt lat="43.7525233" lon="11.349065"><ele>266.0</ele><time>2026-04-11T10:12:12.914Z</time></trkpt><trkpt lat="43.752605" lon="11.349055"><ele>266.0</ele><time>2026-04-11T10:12:14.914Z</time></trkpt><trkpt lat="43.7526733" lon="11.3490417"><ele>266.0</ele><time>2026-04-11T10:12:16.914Z</time></trkpt><trkpt lat="43.752635" lon="11.34892"><ele>266.0</ele><time>2026-04-11T10:12:19.914Z</time></trkpt><trkpt lat="43.7525667" lon="11.3488267"><ele>266.0</ele><time>2026-04-11T10:12:21.914Z</time></trkpt><trkpt lat="43.7525183" lon="11.3487183"><ele>262.2</ele><time>2026-04-11T10:12:23.914Z</time></trkpt><trkpt lat="43.7524533" lon="11.3486183"><ele>258.40000000000003</ele><time>2026-04-11T10:12:25.914Z</time></trkpt><trkpt lat="43.752385" lon="11.34851"><ele>254.6</ele><time>2026-04-11T10:12:27.914Z</time></trkpt><trkpt lat="43.752335" lon="11.3484"><ele>250.8</ele><time>2026-04-11T10:12:29.914Z</time></trkpt><trkpt lat="43.7523067" lon="11.3482933"><ele>247.0</ele><time>2026-04-11T10:12:31.915Z</time></trkpt><trkpt lat="43.7522817" lon="11.34818"><ele>246.99999999999997</ele><time>2026-04-11T10:12:33.914Z</time></trkpt><trkpt lat="43.7522567" lon="11.34808"><ele>247.0</ele><time>2026-04-11T10:12:35.914Z</time></trkpt><trkpt lat="43.75224" lon="11.347985"><ele>247.0</ele><time>2026-04-11T10:12:37.914Z</time></trkpt><trkpt lat="43.7522117" lon="11.347875"><ele>247.0</ele><time>2026-04-11T10:12:40.914Z</time></trkpt><trkpt lat="43.7521883" lon="11.3477667"><ele>246.99999999999997</ele><time>2026-04-11T10:12:43.915Z</time></trkpt><trkpt lat="43.75218" lon="11.347665"><ele>247.0</ele><time>2026-04-11T10:12:45.915Z</time></trkpt><trkpt lat="43.752185" lon="11.3475433"><ele>244.0</ele><time>2026-04-11T10:12:47.914Z</time></trkpt><trkpt lat="43.7522083" lon="11.3474067"><ele>241.0</ele><time>2026-04-11T10:12:49.915Z</time></trkpt><trkpt lat="43.7522333" lon="11.3473233"><ele>238.0</ele><time>2026-04-11T10:12:50.914Z</time></trkpt><trkpt lat="43.75228" lon="11.3471767"><ele>235.0</ele><time>2026-04-11T10:12:52.914Z</time></trkpt><trkpt lat="43.7523283" lon="11.3470283"><ele>232.0</ele><time>2026-04-11T10:12:54.914Z</time></trkpt><trkpt lat="43.7523583" lon="11.3468683"><ele>229.2</ele><time>2026-04-11T10:12:56.915Z</time></trkpt><trkpt lat="43.7524133" lon="11.3467217"><ele>226.39999999999998</ele><time>2026-04-11T10:12:58.914Z</time></trkpt><trkpt lat="43.7524733" lon="11.3465967"><ele>223.60000000000002</ele><time>2026-04-11T10:13:00.914Z</time></trkpt><trkpt lat="43.75254" lon="11.3464833"><ele>220.8</ele><time>2026-04-11T10:13:02.914Z</time></trkpt><trkpt lat="43.75259" lon="11.346355"><ele>218.0</ele><time>2026-04-11T10:13:04.914Z</time></trkpt><trkpt lat="43.7526433" lon="11.3462"><ele>216.60000000000002</ele><time>2026-04-11T10:13:06.914Z</time></trkpt><trkpt lat="43.7526717" lon="11.3461217"><ele>215.20000000000002</ele><time>2026-04-11T10:13:07.914Z</time></trkpt><trkpt lat="43.7527117" lon="11.345975"><ele>213.8</ele><time>2026-04-11T10:13:09.914Z</time></trkpt><trkpt lat="43.7527517" lon="11.3458467"><ele>212.4</ele><time>2026-04-11T10:13:11.914Z</time></trkpt><trkpt lat="43.7527667" lon="11.34572"><ele>211.0</ele><time>2026-04-11T10:13:13.914Z</time></trkpt><trkpt lat="43.75277" lon="11.3455717"><ele>209.4</ele><time>2026-04-11T10:13:15.914Z</time></trkpt><trkpt lat="43.7527467" lon="11.3454367"><ele>207.8</ele><time>2026-04-11T10:13:17.914Z</time></trkpt><trkpt lat="43.7526783" lon="11.3453367"><ele>206.20000000000002</ele><time>2026-04-11T10:13:19.914Z</time></trkpt><trkpt lat="43.7525817" lon="11.345245"><ele>204.60000000000002</ele><time>2026-04-11T10:13:21.915Z</time></trkpt><trkpt lat="43.7525167" lon="11.3451683"><ele>203.0</ele><time>2026-04-11T10:13:23.914Z</time></trkpt><trkpt lat="43.7524633" lon="11.3451067"><ele>203.00000000000003</ele><time>2026-04-11T10:13:25.915Z</time></trkpt><trkpt lat="43.752445" lon="11.3450083"><ele>203.0</ele><time>2026-04-11T10:13:28.914Z</time></trkpt><trkpt lat="43.7524183" lon="11.3448717"><ele>203.0</ele><time>2026-04-11T10:16:03.914Z</time></trkpt><trkpt lat="43.7524633" lon="11.3448083"><ele>203.0</ele><time>2026-04-11T10:16:05.914Z</time></trkpt><trkpt lat="43.75255" lon="11.3447933"><ele>203.00000000000003</ele><time>2026-04-11T10:16:07.914Z</time></trkpt><trkpt lat="43.75265" lon="11.3447817"><ele>203.0</ele><time>2026-04-11T10:16:09.914Z</time></trkpt><trkpt lat="43.7527167" lon="11.3447817"><ele>200.0</ele><time>2026-04-11T10:16:11.914Z</time></trkpt><trkpt lat="43.7528717" lon="11.3447833"><ele>197.0</ele><time>2026-04-11T10:16:58.914Z</time></trkpt><trkpt lat="43.7529383" lon="11.3448433"><ele>194.0</ele><time>2026-04-11T10:17:00.914Z</time></trkpt><trkpt lat="43.7530583" lon="11.344945"><ele>191.0</ele><time>2026-04-11T10:17:02.915Z</time></trkpt><trkpt lat="43.7531367" lon="11.3450133"><ele>191.0</ele><time>2026-04-11T10:17:03.914Z</time></trkpt><trkpt lat="43.75322" lon="11.345085"><ele>191.0</ele><time>2026-04-11T10:17:04.914Z</time></trkpt><trkpt lat="43.7533017" lon="11.3451483"><ele>191.0</ele><time>2026-04-11T10:17:05.914Z</time></trkpt><trkpt lat="43.7533817" lon="11.3452117"><ele>191.0</ele><time>2026-04-11T10:17:06.915Z</time></trkpt><trkpt lat="43.7534433" lon="11.345265"><ele>191.0</ele><time>2026-04-11T10:17:07.915Z</time></trkpt><trkpt lat="43.753535" lon="11.3452767"><ele>191.0</ele><time>2026-04-11T10:17:09.915Z</time></trkpt><trkpt lat="43.7536033" lon="11.34516"><ele>190.66666666666666</ele><time>2026-04-11T10:17:11.914Z</time></trkpt><trkpt lat="43.753645" lon="11.3450333"><ele>190.33333333333331</ele><time>2026-04-11T10:17:13.914Z</time></trkpt><trkpt lat="43.753685" lon="11.3449117"><ele>190.0</ele><time>2026-04-11T10:17:15.914Z</time></trkpt><trkpt lat="43.7537167" lon="11.344795"><ele>189.66666666666666</ele><time>2026-04-11T10:17:17.914Z</time></trkpt><trkpt lat="43.75375" lon="11.3446867"><ele>189.33333333333334</ele><time>2026-04-11T10:17:19.914Z</time></trkpt><trkpt lat="43.753785" lon="11.3445933"><ele>189.0</ele><time>2026-04-11T10:17:21.914Z</time></trkpt><trkpt lat="43.7538117" lon="11.3445017"><ele>189.0</ele><time>2026-04-11T10:17:23.915Z</time></trkpt><trkpt lat="43.75386" lon="11.3444217"><ele>189.0</ele><time>2026-04-11T10:17:26.914Z</time></trkpt><trkpt lat="43.753885" lon="11.3443383"><ele>189.0</ele><time>2026-04-11T10:17:29.914Z</time></trkpt><trkpt lat="43.753925" lon="11.3442533"><ele>189.0</ele><time>2026-04-11T10:17:33.915Z</time></trkpt><trkpt lat="43.75396" lon="11.344155"><ele>189.0</ele><time>2026-04-11T10:17:37.914Z</time></trkpt><trkpt lat="43.7540283" lon="11.3440617"><ele>189.0</ele><time>2026-04-11T10:17:43.915Z</time></trkpt><trkpt lat="43.7541017" lon="11.344035"><ele>189.0</ele><time>2026-04-11T10:17:49.914Z</time></trkpt><trkpt lat="43.7541717" lon="11.3440217"><ele>189.0</ele><time>2026-04-11T10:17:52.914Z</time></trkpt><trkpt lat="43.7542417" lon="11.34403"><ele>189.0</ele><time>2026-04-11T10:17:55.914Z</time></trkpt><trkpt lat="43.7543083" lon="11.344035"><ele>189.0</ele><time>2026-04-11T10:17:58.914Z</time></trkpt><trkpt lat="43.7543933" lon="11.3440233"><ele>189.0</ele><time>2026-04-11T10:18:01.914Z</time></trkpt><trkpt lat="43.7544767" lon="11.3440383"><ele>189.0</ele><time>2026-04-11T10:18:03.914Z</time></trkpt><trkpt lat="43.7545733" lon="11.3440667"><ele>188.0</ele><time>2026-04-11T10:18:05.914Z</time></trkpt><trkpt lat="43.7546383" lon="11.344065"><ele>187.0</ele><time>2026-04-11T10:18:06.914Z</time></trkpt><trkpt lat="43.75478" lon="11.34412"><ele>186.0</ele><time>2026-04-11T10:18:08.914Z</time></trkpt><trkpt lat="43.75486" lon="11.3441733"><ele>185.0</ele><time>2026-04-11T10:18:09.914Z</time></trkpt><trkpt lat="43.75494" lon="11.3442417"><ele>184.0</ele><time>2026-04-11T10:18:10.914Z</time></trkpt><trkpt lat="43.755005" lon="11.3442917"><ele>184.0</ele><time>2026-04-11T10:18:11.914Z</time></trkpt><trkpt lat="43.7550717" lon="11.344325"><ele>184.0</ele><time>2026-04-11T10:18:12.914Z</time></trkpt><trkpt lat="43.7551367" lon="11.3443617"><ele>184.0</ele><time>2026-04-11T10:18:13.914Z</time></trkpt><trkpt lat="43.7551983" lon="11.3443883"><ele>184.0</ele><time>2026-04-11T10:18:14.914Z</time></trkpt><trkpt lat="43.7552683" lon="11.3444033"><ele>184.0</ele><time>2026-04-11T10:18:15.915Z</time></trkpt><trkpt lat="43.755395" lon="11.344445"><ele>184.0</ele><time>2026-04-11T10:18:17.914Z</time></trkpt><trkpt lat="43.7554617" lon="11.344455"><ele>183.0</ele><time>2026-04-11T10:18:18.914Z</time></trkpt><trkpt lat="43.7555283" lon="11.3444367"><ele>182.0</ele><time>2026-04-11T10:18:19.914Z</time></trkpt><trkpt lat="43.7556483" lon="11.34438"><ele>181.0</ele><time>2026-04-11T10:18:21.915Z</time></trkpt><trkpt lat="43.75572" lon="11.34435"><ele>180.0</ele><time>2026-04-11T10:18:22.914Z</time></trkpt><trkpt lat="43.7557967" lon="11.3443083"><ele>179.0</ele><time>2026-04-11T10:18:23.914Z</time></trkpt><trkpt lat="43.75587" lon="11.34429"><ele>178.0</ele><time>2026-04-11T10:18:24.914Z</time></trkpt><trkpt lat="43.7559333" lon="11.3442667"><ele>178.0</ele><time>2026-04-11T10:18:25.914Z</time></trkpt><trkpt lat="43.7560017" lon="11.34422"><ele>178.0</ele><time>2026-04-11T10:18:26.914Z</time></trkpt><trkpt lat="43.7560617" lon="11.3441883"><ele>178.0</ele><time>2026-04-11T10:18:27.914Z</time></trkpt><trkpt lat="43.7561633" lon="11.3441667"><ele>178.0</ele><time>2026-04-11T10:18:29.915Z</time></trkpt><trkpt lat="43.756245" lon="11.3441533"><ele>178.0</ele><time>2026-04-11T10:18:31.914Z</time></trkpt><trkpt lat="43.7563267" lon="11.3441283"><ele>178.0</ele><time>2026-04-11T10:18:33.915Z</time></trkpt><trkpt lat="43.7564067" lon="11.344115"><ele>178.16666666666669</ele><time>2026-04-11T10:18:35.914Z</time></trkpt><trkpt lat="43.7564817" lon="11.3440933"><ele>178.33333333333334</ele><time>2026-04-11T10:18:37.914Z</time></trkpt><trkpt lat="43.7565517" lon="11.344075"><ele>178.5</ele><time>2026-04-11T10:18:39.914Z</time></trkpt><trkpt lat="43.75663" lon="11.3440533"><ele>178.66666666666666</ele><time>2026-04-11T10:18:41.914Z</time></trkpt><trkpt lat="43.7567117" lon="11.34398"><ele>178.83333333333331</ele><time>2026-04-11T10:18:43.914Z</time></trkpt><trkpt lat="43.756795" lon="11.343905"><ele>179.0</ele><time>2026-04-11T10:18:45.914Z</time></trkpt><trkpt lat="43.7568667" lon="11.3438333"><ele>178.0</ele><time>2026-04-11T10:18:47.914Z</time></trkpt><trkpt lat="43.7569313" lon="11.3437806"><ele>177.0</ele><time>2026-04-11T10:18:50.914Z</time></trkpt><trkpt lat="43.756932" lon="11.3436898"><ele>176.0</ele><time>2026-04-11T10:18:53.914Z</time></trkpt><trkpt lat="43.7569097" lon="11.3436019"><ele>175.0</ele><time>2026-04-11T10:18:55.914Z</time></trkpt><trkpt lat="43.7568864" lon="11.3434838"><ele>174.0</ele><time>2026-04-11T10:18:57.914Z</time></trkpt><trkpt lat="43.7568668" lon="11.3433556"><ele>173.0</ele><time>2026-04-11T10:18:59.914Z</time></trkpt><trkpt lat="43.7568466" lon="11.3432057"><ele>172.7142857142857</ele><time>2026-04-11T10:19:01.914Z</time></trkpt><trkpt lat="43.7568339" lon="11.3431188"><ele>172.42857142857144</ele><time>2026-04-11T10:19:02.914Z</time></trkpt><trkpt lat="43.7568198" lon="11.343032"><ele>172.14285714285714</ele><time>2026-04-11T10:19:03.914Z</time></trkpt><trkpt lat="43.7568023" lon="11.3428934"><ele>171.85714285714283</ele><time>2026-04-11T10:19:05.915Z</time></trkpt><trkpt lat="43.7567995" lon="11.3427947"><ele>171.57142857142856</ele><time>2026-04-11T10:19:07.914Z</time></trkpt><trkpt lat="43.7568216" lon="11.3427072"><ele>171.28571428571428</ele><time>2026-04-11T10:19:09.914Z</time></trkpt><trkpt lat="43.7568458" lon="11.3426017"><ele>171.0</ele><time>2026-04-11T10:19:11.915Z</time></trkpt><trkpt lat="43.7568682" lon="11.3424508"><ele>168.0</ele><time>2026-04-11T10:19:13.914Z</time></trkpt><trkpt lat="43.7568892" lon="11.3422884"><ele>165.0</ele><time>2026-04-11T10:19:15.914Z</time></trkpt><trkpt lat="43.756913" lon="11.3421372"><ele>162.0</ele><time>2026-04-11T10:19:17.914Z</time></trkpt><trkpt lat="43.7569374" lon="11.3419922"><ele>159.0</ele><time>2026-04-11T10:19:19.914Z</time></trkpt><trkpt lat="43.756957" lon="11.3418408"><ele>156.8</ele><time>2026-04-11T10:19:21.914Z</time></trkpt><trkpt lat="43.7569799" lon="11.3416861"><ele>154.60000000000002</ele><time>2026-04-11T10:19:23.914Z</time></trkpt><trkpt lat="43.7570073" lon="11.341556"><ele>152.4</ele><time>2026-04-11T10:19:25.914Z</time></trkpt><trkpt lat="43.7570413" lon="11.3414584"><ele>150.20000000000002</ele><time>2026-04-11T10:19:27.915Z</time></trkpt><trkpt lat="43.7570609" lon="11.3413449"><ele>148.0</ele><time>2026-04-11T10:19:29.915Z</time></trkpt><trkpt lat="43.7570714" lon="11.3412188"><ele>146.0</ele><time>2026-04-11T10:19:31.915Z</time></trkpt><trkpt lat="43.7570543" lon="11.3410909"><ele>144.0</ele><time>2026-04-11T10:19:33.914Z</time></trkpt><trkpt lat="43.7570296" lon="11.3409374"><ele>142.0</ele><time>2026-04-11T10:19:35.915Z</time></trkpt><trkpt lat="43.7570058" lon="11.3407826"><ele>140.0</ele><time>2026-04-11T10:19:37.915Z</time></trkpt><trkpt lat="43.7569783" lon="11.34062"><ele>138.0</ele><time>2026-04-11T10:19:39.914Z</time></trkpt><trkpt lat="43.756965" lon="11.3405167"><ele>136.20000000000002</ele><time>2026-04-11T10:19:40.914Z</time></trkpt><trkpt lat="43.7569483" lon="11.3403967"><ele>134.4</ele><time>2026-04-11T10:19:41.914Z</time></trkpt><trkpt lat="43.75693" lon="11.3402767"><ele>132.60000000000002</ele><time>2026-04-11T10:19:42.914Z</time></trkpt><trkpt lat="43.7569167" lon="11.34014"><ele>130.8</ele><time>2026-04-11T10:19:43.914Z</time></trkpt><trkpt lat="43.75691" lon="11.3399917"><ele>129.0</ele><time>2026-04-11T10:19:44.915Z</time></trkpt><trkpt lat="43.7568933" lon="11.3398317"><ele>128.0</ele><time>2026-04-11T10:19:45.914Z</time></trkpt><trkpt lat="43.7568717" lon="11.3396767"><ele>127.0</ele><time>2026-04-11T10:19:46.914Z</time></trkpt><trkpt lat="43.7568467" lon="11.3395217"><ele>126.0</ele><time>2026-04-11T10:19:47.915Z</time></trkpt><trkpt lat="43.75682" lon="11.33937"><ele>125.0</ele><time>2026-04-11T10:19:48.914Z</time></trkpt><trkpt lat="43.7567967" lon="11.339225"><ele>124.0</ele><time>2026-04-11T10:19:49.914Z</time></trkpt><trkpt lat="43.7567783" lon="11.3390833"><ele>124.0</ele><time>2026-04-11T10:19:50.914Z</time></trkpt><trkpt lat="43.7567533" lon="11.33894"><ele>124.0</ele><time>2026-04-11T10:19:51.914Z</time></trkpt><trkpt lat="43.756735" lon="11.338805"><ele>124.0</ele><time>2026-04-11T10:19:52.914Z</time></trkpt><trkpt lat="43.756725" lon="11.338675"><ele>124.0</ele><time>2026-04-11T10:19:53.914Z</time></trkpt><trkpt lat="43.7567167" lon="11.338545"><ele>124.0</ele><time>2026-04-11T10:19:54.915Z</time></trkpt><trkpt lat="43.7567117" lon="11.3384183"><ele>122.6</ele><time>2026-04-11T10:19:55.914Z</time></trkpt><trkpt lat="43.7567017" lon="11.3382933"><ele>121.2</ele><time>2026-04-11T10:19:56.914Z</time></trkpt><trkpt lat="43.7567017" lon="11.33816"><ele>119.79999999999998</ele><time>2026-04-11T10:19:57.914Z</time></trkpt><trkpt lat="43.7567033" lon="11.3380217"><ele>118.39999999999999</ele><time>2026-04-11T10:19:58.914Z</time></trkpt><trkpt lat="43.7567183" lon="11.3378733"><ele>117.0</ele><time>2026-04-11T10:19:59.914Z</time></trkpt><trkpt lat="43.7567367" lon="11.3377233"><ele>115.8</ele><time>2026-04-11T10:20:00.915Z</time></trkpt><trkpt lat="43.75676" lon="11.3375767"><ele>114.6</ele><time>2026-04-11T10:20:01.915Z</time></trkpt><trkpt lat="43.7567917" lon="11.3374367"><ele>113.39999999999999</ele><time>2026-04-11T10:20:02.914Z</time></trkpt><trkpt lat="43.7568283" lon="11.3372883"><ele>112.19999999999999</ele><time>2026-04-11T10:20:03.914Z</time></trkpt><trkpt lat="43.7568533" lon="11.3371567"><ele>111.0</ele><time>2026-04-11T10:20:04.914Z</time></trkpt><trkpt lat="43.75688" lon="11.3370267"><ele>109.4</ele><time>2026-04-11T10:20:05.914Z</time></trkpt><trkpt lat="43.7568933" lon="11.3368867"><ele>107.8</ele><time>2026-04-11T10:20:06.914Z</time></trkpt><trkpt lat="43.7569133" lon="11.3367533"><ele>106.2</ele><time>2026-04-11T10:20:07.915Z</time></trkpt><trkpt lat="43.756945" lon="11.3366233"><ele>104.60000000000001</ele><time>2026-04-11T10:20:08.914Z</time></trkpt><trkpt lat="43.7569767" lon="11.3364783"><ele>103.0</ele><time>2026-04-11T10:20:09.915Z</time></trkpt><trkpt lat="43.7570067" lon="11.3363283"><ele>102.4</ele><time>2026-04-11T10:20:10.914Z</time></trkpt><trkpt lat="43.7570333" lon="11.3361767"><ele>101.80000000000001</ele><time>2026-04-11T10:20:11.914Z</time></trkpt><trkpt lat="43.7570633" lon="11.33603"><ele>101.2</ele><time>2026-04-11T10:20:12.914Z</time></trkpt><trkpt lat="43.7570967" lon="11.33588"><ele>100.6</ele><time>2026-04-11T10:20:13.915Z</time></trkpt><trkpt lat="43.7571317" lon="11.3357333"><ele>100.0</ele><time>2026-04-11T10:20:14.915Z</time></trkpt><trkpt lat="43.7571633" lon="11.33559"><ele>99.4</ele><time>2026-04-11T10:20:15.914Z</time></trkpt><trkpt lat="43.7571917" lon="11.3354483"><ele>98.8</ele><time>2026-04-11T10:20:16.914Z</time></trkpt><trkpt lat="43.757215" lon="11.33531"><ele>98.19999999999999</ele><time>2026-04-11T10:20:17.914Z</time></trkpt><trkpt lat="43.7572367" lon="11.3351683"><ele>97.6</ele><time>2026-04-11T10:20:18.914Z</time></trkpt><trkpt lat="43.75725" lon="11.3350417"><ele>97.0</ele><time>2026-04-11T10:20:19.914Z</time></trkpt><trkpt lat="43.7572633" lon="11.3349333"><ele>97.00000000000001</ele><time>2026-04-11T10:20:20.914Z</time></trkpt><trkpt lat="43.7572817" lon="11.3348383"><ele>97.0</ele><time>2026-04-11T10:20:21.914Z</time></trkpt><trkpt lat="43.7573017" lon="11.3347517"><ele>97.0</ele><time>2026-04-11T10:20:22.915Z</time></trkpt><trkpt lat="43.7573383" lon="11.3345967"><ele>97.0</ele><time>2026-04-11T10:20:24.914Z</time></trkpt><trkpt lat="43.75737" lon="11.3345167"><ele>97.00000000000001</ele><time>2026-04-11T10:20:25.914Z</time></trkpt><trkpt lat="43.7574167" lon="11.3344333"><ele>97.0</ele><time>2026-04-11T10:20:26.914Z</time></trkpt><trkpt lat="43.75747" lon="11.334345"><ele>96.16666666666667</ele><time>2026-04-11T10:20:27.914Z</time></trkpt><trkpt lat="43.7575233" lon="11.334255"><ele>95.33333333333334</ele><time>2026-04-11T10:20:28.914Z</time></trkpt><trkpt lat="43.7575817" lon="11.3341633"><ele>94.5</ele><time>2026-04-11T10:20:29.914Z</time></trkpt><trkpt lat="43.7576267" lon="11.3340667"><ele>93.66666666666667</ele><time>2026-04-11T10:20:30.914Z</time></trkpt><trkpt lat="43.7576567" lon="11.3339583"><ele>92.83333333333334</ele><time>2026-04-11T10:20:31.915Z</time></trkpt><trkpt lat="43.7576633" lon="11.3338433"><ele>92.0</ele><time>2026-04-11T10:20:32.914Z</time></trkpt><trkpt lat="43.7576517" lon="11.3337167"><ele>90.6</ele><time>2026-04-11T10:20:33.914Z</time></trkpt><trkpt lat="43.7576317" lon="11.33358"><ele>89.19999999999999</ele><time>2026-04-11T10:20:34.914Z</time></trkpt><trkpt lat="43.7576133" lon="11.3334283"><ele>87.8</ele><time>2026-04-11T10:20:35.914Z</time></trkpt><trkpt lat="43.7575967" lon="11.33327"><ele>86.4</ele><time>2026-04-11T10:20:36.915Z</time></trkpt><trkpt lat="43.757585" lon="11.3331067"><ele>85.0</ele><time>2026-04-11T10:20:37.914Z</time></trkpt><trkpt lat="43.75758" lon="11.3329417"><ele>84.25</ele><time>2026-04-11T10:20:38.914Z</time></trkpt><trkpt lat="43.7575817" lon="11.332775"><ele>83.5</ele><time>2026-04-11T10:20:39.914Z</time></trkpt><trkpt lat="43.7575967" lon="11.3326167"><ele>82.75</ele><time>2026-04-11T10:20:40.914Z</time></trkpt><trkpt lat="43.75762" lon="11.3324617"><ele>82.0</ele><time>2026-04-11T10:20:41.915Z</time></trkpt><trkpt lat="43.7576433" lon="11.3323133"><ele>81.6</ele><time>2026-04-11T10:20:42.915Z</time></trkpt><trkpt lat="43.7576733" lon="11.3321567"><ele>81.19999999999999</ele><time>2026-04-11T10:20:43.914Z</time></trkpt><trkpt lat="43.7576967" lon="11.33201"><ele>80.8</ele><time>2026-04-11T10:20:44.914Z</time></trkpt><trkpt lat="43.7577167" lon="11.3318833"><ele>80.4</ele><time>2026-04-11T10:20:45.914Z</time></trkpt><trkpt lat="43.757735" lon="11.3317683"><ele>80.0</ele><time>2026-04-11T10:20:46.914Z</time></trkpt><trkpt lat="43.75776" lon="11.33166"><ele>79.5</ele><time>2026-04-11T10:20:47.914Z</time></trkpt><trkpt lat="43.7577917" lon="11.3315533"><ele>79.0</ele><time>2026-04-11T10:20:48.914Z</time></trkpt><trkpt lat="43.7578317" lon="11.3314533"><ele>78.5</ele><time>2026-04-11T10:20:49.914Z</time></trkpt><trkpt lat="43.7578783" lon="11.33135"><ele>78.0</ele><time>2026-04-11T10:20:50.914Z</time></trkpt><trkpt lat="43.757925" lon="11.3312517"><ele>77.5</ele><time>2026-04-11T10:20:51.914Z</time></trkpt><trkpt lat="43.7579717" lon="11.3311567"><ele>77.0</ele><time>2026-04-11T10:20:52.915Z</time></trkpt><trkpt lat="43.7580133" lon="11.3310683"><ele>77.0</ele><time>2026-04-11T10:20:53.914Z</time></trkpt><trkpt lat="43.7580583" lon="11.33099"><ele>77.0</ele><time>2026-04-11T10:20:54.914Z</time></trkpt><trkpt lat="43.7581017" lon="11.3309117"><ele>77.0</ele><time>2026-04-11T10:20:55.914Z</time></trkpt><trkpt lat="43.7581317" lon="11.3308333"><ele>77.0</ele><time>2026-04-11T10:20:56.914Z</time></trkpt><trkpt lat="43.7581633" lon="11.3307517"><ele>77.0</ele><time>2026-04-11T10:20:57.914Z</time></trkpt><trkpt lat="43.7581883" lon="11.3306633"><ele>77.0</ele><time>2026-04-11T10:20:58.914Z</time></trkpt><trkpt lat="43.7582083" lon="11.330575"><ele>77.0</ele><time>2026-04-11T10:20:59.915Z</time></trkpt><trkpt lat="43.75823" lon="11.3304867"><ele>77.0</ele><time>2026-04-11T10:21:00.914Z</time></trkpt><trkpt lat="43.7582533" lon="11.330405"><ele>77.0</ele><time>2026-04-11T10:21:01.914Z</time></trkpt><trkpt lat="43.75829" lon="11.3302517"><ele>77.0</ele><time>2026-04-11T10:21:03.914Z</time></trkpt><trkpt lat="43.7583283" lon="11.3300983"><ele>77.0</ele><time>2026-04-11T10:21:05.915Z</time></trkpt><trkpt lat="43.7583533" lon="11.3299367"><ele>77.0</ele><time>2026-04-11T10:21:07.915Z</time></trkpt><trkpt lat="43.7583833" lon="11.3297733"><ele>76.4</ele><time>2026-04-11T10:21:09.914Z</time></trkpt><trkpt lat="43.7584167" lon="11.3296117"><ele>75.80000000000001</ele><time>2026-04-11T10:21:11.914Z</time></trkpt><trkpt lat="43.7584383" lon="11.3294383"><ele>75.2</ele><time>2026-04-11T10:21:13.914Z</time></trkpt><trkpt lat="43.7584467" lon="11.3293483"><ele>74.60000000000001</ele><time>2026-04-11T10:21:14.915Z</time></trkpt><trkpt lat="43.7584717" lon="11.329175"><ele>74.0</ele><time>2026-04-11T10:21:16.915Z</time></trkpt><trkpt lat="43.7584933" lon="11.3290083"><ele>73.66666666666667</ele><time>2026-04-11T10:21:18.914Z</time></trkpt><trkpt lat="43.7585117" lon="11.328835"><ele>73.33333333333334</ele><time>2026-04-11T10:21:20.915Z</time></trkpt><trkpt lat="43.75853" lon="11.32875"><ele>73.0</ele><time>2026-04-11T10:21:21.914Z</time></trkpt><trkpt lat="43.7585633" lon="11.3285917"><ele>72.66666666666667</ele><time>2026-04-11T10:21:23.915Z</time></trkpt><trkpt lat="43.75858" lon="11.3284983"><ele>72.33333333333333</ele><time>2026-04-11T10:21:24.914Z</time></trkpt><trkpt lat="43.7586017" lon="11.3284117"><ele>72.0</ele><time>2026-04-11T10:21:25.914Z</time></trkpt><trkpt lat="43.7586217" lon="11.3282683"><ele>71.5</ele><time>2026-04-11T10:21:27.914Z</time></trkpt><trkpt lat="43.7586383" lon="11.328175"><ele>71.0</ele><time>2026-04-11T10:21:29.914Z</time></trkpt><trkpt lat="43.758645" lon="11.3280817"><ele>70.5</ele><time>2026-04-11T10:21:43.915Z</time></trkpt><trkpt lat="43.7586717" lon="11.3279833"><ele>70.0</ele><time>2026-04-11T10:21:47.914Z</time></trkpt><trkpt lat="43.7586717" lon="11.3278717"><ele>69.5</ele><time>2026-04-11T10:21:51.915Z</time></trkpt><trkpt lat="43.758685" lon="11.3277667"><ele>69.0</ele><time>2026-04-11T10:21:54.914Z</time></trkpt><trkpt lat="43.7587483" lon="11.3276333"><ele>69.0</ele><time>2026-04-11T10:21:58.914Z</time></trkpt><trkpt lat="43.7587917" lon="11.3275633"><ele>69.0</ele><time>2026-04-11T10:22:00.914Z</time></trkpt><trkpt lat="43.7588383" lon="11.3274917"><ele>69.0</ele><time>2026-04-11T10:22:02.914Z</time></trkpt><trkpt lat="43.7588867" lon="11.3274317"><ele>69.0</ele><time>2026-04-11T10:22:04.914Z</time></trkpt><trkpt lat="43.758935" lon="11.3273683"><ele>69.0</ele><time>2026-04-11T10:22:06.914Z</time></trkpt><trkpt lat="43.7589883" lon="11.327305"><ele>69.0</ele><time>2026-04-11T10:22:08.914Z</time></trkpt><trkpt lat="43.7590347" lon="11.3272384"><ele>69.0</ele><time>2026-04-11T10:22:10.914Z</time></trkpt><trkpt lat="43.7590886" lon="11.3271674"><ele>69.0</ele><time>2026-04-11T10:22:12.914Z</time></trkpt><trkpt lat="43.7591365" lon="11.327096"><ele>69.0</ele><time>2026-04-11T10:22:14.914Z</time></trkpt><trkpt lat="43.7591929" lon="11.3270241"><ele>69.0</ele><time>2026-04-11T10:22:16.914Z</time></trkpt><trkpt lat="43.7592715" lon="11.3269617"><ele>69.0</ele><time>2026-04-11T10:22:18.915Z</time></trkpt><trkpt lat="43.7593578" lon="11.3269003"><ele>69.0</ele><time>2026-04-11T10:22:20.914Z</time></trkpt><trkpt lat="43.7594499" lon="11.3268594"><ele>69.0</ele><time>2026-04-11T10:22:22.914Z</time></trkpt><trkpt lat="43.7595428" lon="11.3268063"><ele>69.0</ele><time>2026-04-11T10:22:24.914Z</time></trkpt><trkpt lat="43.7596415" lon="11.3267576"><ele>69.0</ele><time>2026-04-11T10:22:26.914Z</time></trkpt><trkpt lat="43.7597253" lon="11.3267037"><ele>69.0</ele><time>2026-04-11T10:22:28.914Z</time></trkpt><trkpt lat="43.7597958" lon="11.3266271"><ele>69.0</ele><time>2026-04-11T10:22:30.914Z</time></trkpt><trkpt lat="43.7598477" lon="11.3265222"><ele>69.0</ele><time>2026-04-11T10:22:32.915Z</time></trkpt><trkpt lat="43.7598851" lon="11.3264009"><ele>68.60000000000001</ele><time>2026-04-11T10:22:34.914Z</time></trkpt><trkpt lat="43.7599288" lon="11.3262643"><ele>68.2</ele><time>2026-04-11T10:22:36.915Z</time></trkpt><trkpt lat="43.7599704" lon="11.3261382"><ele>67.80000000000001</ele><time>2026-04-11T10:22:38.914Z</time></trkpt><trkpt lat="43.7600144" lon="11.3260065"><ele>67.4</ele><time>2026-04-11T10:22:40.914Z</time></trkpt><trkpt lat="43.7600538" lon="11.3258726"><ele>67.0</ele><time>2026-04-11T10:22:42.914Z</time></trkpt><trkpt lat="43.7600713" lon="11.3257092"><ele>66.5</ele><time>2026-04-11T10:22:44.914Z</time></trkpt><trkpt lat="43.760092" lon="11.3255445"><ele>66.0</ele><time>2026-04-11T10:22:46.915Z</time></trkpt><trkpt lat="43.7601083" lon="11.3253869"><ele>65.5</ele><time>2026-04-11T10:22:48.914Z</time></trkpt><trkpt lat="43.7601231" lon="11.3252291"><ele>65.0</ele><time>2026-04-11T10:22:50.914Z</time></trkpt><trkpt lat="43.7601364" lon="11.3250841"><ele>65.0</ele><time>2026-04-11T10:22:52.914Z</time></trkpt><trkpt lat="43.7601392" lon="11.3249435"><ele>65.0</ele><time>2026-04-11T10:22:54.914Z</time></trkpt><trkpt lat="43.7601458" lon="11.3248008"><ele>65.0</ele><time>2026-04-11T10:22:56.914Z</time></trkpt><trkpt lat="43.7601483" lon="11.3246597"><ele>65.0</ele><time>2026-04-11T10:22:58.915Z</time></trkpt><trkpt lat="43.7601528" lon="11.3245183"><ele>65.0</ele><time>2026-04-11T10:23:00.915Z</time></trkpt><trkpt lat="43.7601517" lon="11.324375"><ele>65.0</ele><time>2026-04-11T10:23:02.914Z</time></trkpt><trkpt lat="43.7601717" lon="11.3242283"><ele>65.0</ele><time>2026-04-11T10:23:04.914Z</time></trkpt><trkpt lat="43.7602017" lon="11.3240733"><ele>65.0</ele><time>2026-04-11T10:23:06.914Z</time></trkpt><trkpt lat="43.760255" lon="11.3239333"><ele>65.0</ele><time>2026-04-11T10:23:08.914Z</time></trkpt><trkpt lat="43.7603083" lon="11.3238117"><ele>65.0</ele><time>2026-04-11T10:23:10.914Z</time></trkpt><trkpt lat="43.7603583" lon="11.3236617"><ele>64.8</ele><time>2026-04-11T10:23:12.914Z</time></trkpt><trkpt lat="43.7604083" lon="11.323525"><ele>64.6</ele><time>2026-04-11T10:23:14.914Z</time></trkpt><trkpt lat="43.7604617" lon="11.3233983"><ele>64.4</ele><time>2026-04-11T10:23:16.914Z</time></trkpt><trkpt lat="43.760525" lon="11.3232633"><ele>64.2</ele><time>2026-04-11T10:23:18.914Z</time></trkpt><trkpt lat="43.7605917" lon="11.323135"><ele>64.0</ele><time>2026-04-11T10:23:20.914Z</time></trkpt><trkpt lat="43.76066" lon="11.323015"><ele>63.800000000000004</ele><time>2026-04-11T10:23:22.914Z</time></trkpt><trkpt lat="43.7607317" lon="11.3229"><ele>63.60000000000001</ele><time>2026-04-11T10:23:24.914Z</time></trkpt><trkpt lat="43.7608" lon="11.32278"><ele>63.4</ele><time>2026-04-11T10:23:26.914Z</time></trkpt><trkpt lat="43.760855" lon="11.322655"><ele>63.2</ele><time>2026-04-11T10:23:28.914Z</time></trkpt><trkpt lat="43.7609083" lon="11.322545"><ele>63.0</ele><time>2026-04-11T10:23:30.914Z</time></trkpt><trkpt lat="43.7609683" lon="11.32243"><ele>63.0</ele><time>2026-04-11T10:23:32.915Z</time></trkpt><trkpt lat="43.7610217" lon="11.3223133"><ele>63.0</ele><time>2026-04-11T10:23:34.914Z</time></trkpt><trkpt lat="43.761065" lon="11.3221983"><ele>63.0</ele><time>2026-04-11T10:23:36.914Z</time></trkpt><trkpt lat="43.7611195" lon="11.3221001"><ele>63.0</ele><time>2026-04-11T10:23:38.914Z</time></trkpt><trkpt lat="43.7611693" lon="11.3219999"><ele>63.0</ele><time>2026-04-11T10:23:40.915Z</time></trkpt><trkpt lat="43.7612283" lon="11.3219069"><ele>62.4</ele><time>2026-04-11T10:23:42.914Z</time></trkpt><trkpt lat="43.7612814" lon="11.3218074"><ele>61.8</ele><time>2026-04-11T10:23:44.915Z</time></trkpt><trkpt lat="43.7613361" lon="11.3216968"><ele>61.2</ele><time>2026-04-11T10:23:46.914Z</time></trkpt><trkpt lat="43.7613937" lon="11.3215787"><ele>60.6</ele><time>2026-04-11T10:23:48.915Z</time></trkpt><trkpt lat="43.7614388" lon="11.3214402"><ele>60.0</ele><time>2026-04-11T10:23:50.914Z</time></trkpt><trkpt lat="43.761478" lon="11.3213095"><ele>59.6</ele><time>2026-04-11T10:23:52.915Z</time></trkpt><trkpt lat="43.7615308" lon="11.3211893"><ele>59.2</ele><time>2026-04-11T10:23:54.914Z</time></trkpt><trkpt lat="43.7615954" lon="11.3210667"><ele>58.8</ele><time>2026-04-11T10:23:56.915Z</time></trkpt><trkpt lat="43.7616611" lon="11.3209385"><ele>58.4</ele><time>2026-04-11T10:23:58.914Z</time></trkpt><trkpt lat="43.7617227" lon="11.3208155"><ele>58.0</ele><time>2026-04-11T10:24:00.915Z</time></trkpt><trkpt lat="43.7617832" lon="11.3206915"><ele>58.25</ele><time>2026-04-11T10:24:02.914Z</time></trkpt><trkpt lat="43.7618512" lon="11.3205653"><ele>58.5</ele><time>2026-04-11T10:24:04.914Z</time></trkpt><trkpt lat="43.761919" lon="11.3204432"><ele>58.75</ele><time>2026-04-11T10:24:06.915Z</time></trkpt><trkpt lat="43.7619804" lon="11.3203109"><ele>59.0</ele><time>2026-04-11T10:24:08.914Z</time></trkpt><trkpt lat="43.7620525" lon="11.3201864"><ele>59.0</ele><time>2026-04-11T10:24:10.914Z</time></trkpt><trkpt lat="43.762122" lon="11.3200746"><ele>59.00000000000001</ele><time>2026-04-11T10:24:12.914Z</time></trkpt><trkpt lat="43.7621805" lon="11.3199399"><ele>59.00000000000001</ele><time>2026-04-11T10:24:14.914Z</time></trkpt><trkpt lat="43.7622289" lon="11.3198033"><ele>59.0</ele><time>2026-04-11T10:24:16.915Z</time></trkpt><trkpt lat="43.7622776" lon="11.3196694"><ele>59.0</ele><time>2026-04-11T10:24:18.915Z</time></trkpt><trkpt lat="43.7623163" lon="11.3195346"><ele>58.0</ele><time>2026-04-11T10:24:20.915Z</time></trkpt><trkpt lat="43.7623556" lon="11.3193844"><ele>57.0</ele><time>2026-04-11T10:24:22.915Z</time></trkpt><trkpt lat="43.7624144" lon="11.3192332"><ele>56.0</ele><time>2026-04-11T10:24:24.914Z</time></trkpt><trkpt lat="43.7624869" lon="11.3191019"><ele>55.0</ele><time>2026-04-11T10:24:26.914Z</time></trkpt><trkpt lat="43.7625562" lon="11.318969"><ele>55.25</ele><time>2026-04-11T10:24:28.914Z</time></trkpt><trkpt lat="43.7626236" lon="11.3188299"><ele>55.5</ele><time>2026-04-11T10:24:30.914Z</time></trkpt><trkpt lat="43.7626547" lon="11.3186741"><ele>55.75</ele><time>2026-04-11T10:24:32.915Z</time></trkpt><trkpt lat="43.7626621" lon="11.3185019"><ele>56.0</ele><time>2026-04-11T10:24:34.914Z</time></trkpt><trkpt lat="43.762672" lon="11.3183284"><ele>56.0</ele><time>2026-04-11T10:24:36.914Z</time></trkpt><trkpt lat="43.7626718" lon="11.3181587"><ele>55.99999999999999</ele><time>2026-04-11T10:24:38.914Z</time></trkpt><trkpt lat="43.7626506" lon="11.3180148"><ele>55.99999999999999</ele><time>2026-04-11T10:24:40.915Z</time></trkpt><trkpt lat="43.7626173" lon="11.3178887"><ele>56.0</ele><time>2026-04-11T10:24:42.914Z</time></trkpt><trkpt lat="43.762575" lon="11.3177867"><ele>56.0</ele><time>2026-04-11T10:24:44.914Z</time></trkpt><trkpt lat="43.7625333" lon="11.317685"><ele>56.199999999999996</ele><time>2026-04-11T10:24:46.914Z</time></trkpt><trkpt lat="43.76249" lon="11.3175867"><ele>56.39999999999999</ele><time>2026-04-11T10:24:48.915Z</time></trkpt><trkpt lat="43.7624433" lon="11.3174917"><ele>56.6</ele><time>2026-04-11T10:24:50.915Z</time></trkpt><trkpt lat="43.76239" lon="11.3173833"><ele>56.8</ele><time>2026-04-11T10:24:52.914Z</time></trkpt><trkpt lat="43.76234" lon="11.31725"><ele>57.0</ele><time>2026-04-11T10:24:54.914Z</time></trkpt><trkpt lat="43.7622867" lon="11.3171067"><ele>56.0</ele><time>2026-04-11T10:24:56.914Z</time></trkpt><trkpt lat="43.7622633" lon="11.3170217"><ele>55.0</ele><time>2026-04-11T10:24:57.914Z</time></trkpt><trkpt lat="43.7622367" lon="11.31694"><ele>54.0</ele><time>2026-04-11T10:24:58.914Z</time></trkpt><trkpt lat="43.762195" lon="11.31678"><ele>53.0</ele><time>2026-04-11T10:25:00.914Z</time></trkpt><trkpt lat="43.762145" lon="11.3166217"><ele>52.0</ele><time>2026-04-11T10:25:02.914Z</time></trkpt><trkpt lat="43.7621133" lon="11.3165367"><ele>51.0</ele><time>2026-04-11T10:25:03.914Z</time></trkpt><trkpt lat="43.7620483" lon="11.3163933"><ele>51.0</ele><time>2026-04-11T10:25:05.915Z</time></trkpt><trkpt lat="43.7619983" lon="11.3162517"><ele>51.0</ele><time>2026-04-11T10:25:07.915Z</time></trkpt><trkpt lat="43.7619567" lon="11.3161083"><ele>51.0</ele><time>2026-04-11T10:25:09.915Z</time></trkpt><trkpt lat="43.7619467" lon="11.3159633"><ele>51.0</ele><time>2026-04-11T10:25:11.914Z</time></trkpt><trkpt lat="43.7619467" lon="11.3158117"><ele>51.0</ele><time>2026-04-11T10:25:13.914Z</time></trkpt><trkpt lat="43.7619433" lon="11.3156683"><ele>51.0</ele><time>2026-04-11T10:25:15.915Z</time></trkpt><trkpt lat="43.76195" lon="11.3155233"><ele>51.0</ele><time>2026-04-11T10:25:17.914Z</time></trkpt><trkpt lat="43.7619467" lon="11.3153767"><ele>51.0</ele><time>2026-04-11T10:25:19.915Z</time></trkpt><trkpt lat="43.76194" lon="11.31522"><ele>51.0</ele><time>2026-04-11T10:25:21.914Z</time></trkpt><trkpt lat="43.7619417" lon="11.3150633"><ele>51.0</ele><time>2026-04-11T10:25:23.914Z</time></trkpt><trkpt lat="43.7619367" lon="11.3149117"><ele>51.0</ele><time>2026-04-11T10:25:25.914Z</time></trkpt><trkpt lat="43.76193" lon="11.3147617"><ele>51.0</ele><time>2026-04-11T10:25:27.914Z</time></trkpt><trkpt lat="43.761935" lon="11.3146133"><ele>51.0</ele><time>2026-04-11T10:25:29.914Z</time></trkpt><trkpt lat="43.76193" lon="11.3144867"><ele>51.0</ele><time>2026-04-11T10:25:31.914Z</time></trkpt><trkpt lat="43.7619367" lon="11.3143617"><ele>51.0</ele><time>2026-04-11T10:25:33.914Z</time></trkpt><trkpt lat="43.7619433" lon="11.314225"><ele>51.0</ele><time>2026-04-11T10:25:35.914Z</time></trkpt><trkpt lat="43.7619617" lon="11.314095"><ele>51.0</ele><time>2026-04-11T10:25:37.914Z</time></trkpt><trkpt lat="43.7619783" lon="11.3139783"><ele>51.0</ele><time>2026-04-11T10:25:39.914Z</time></trkpt><trkpt lat="43.7619867" lon="11.313855"><ele>51.0</ele><time>2026-04-11T10:25:41.914Z</time></trkpt><trkpt lat="43.76199" lon="11.31374"><ele>51.0</ele><time>2026-04-11T10:25:43.914Z</time></trkpt><trkpt lat="43.7619867" lon="11.313605"><ele>51.0</ele><time>2026-04-11T10:25:45.914Z</time></trkpt><trkpt lat="43.7619767" lon="11.3134733"><ele>51.0</ele><time>2026-04-11T10:25:47.914Z</time></trkpt><trkpt lat="43.76197" lon="11.3133433"><ele>51.0</ele><time>2026-04-11T10:25:49.915Z</time></trkpt><trkpt lat="43.7619583" lon="11.31322"><ele>51.0</ele><time>2026-04-11T10:25:51.914Z</time></trkpt><trkpt lat="43.7619483" lon="11.3130867"><ele>51.0</ele><time>2026-04-11T10:25:53.914Z</time></trkpt><trkpt lat="43.76194" lon="11.312965"><ele>51.166666666666664</ele><time>2026-04-11T10:25:55.914Z</time></trkpt><trkpt lat="43.761925" lon="11.3128433"><ele>51.33333333333333</ele><time>2026-04-11T10:25:57.915Z</time></trkpt><trkpt lat="43.7619083" lon="11.3127167"><ele>51.5</ele><time>2026-04-11T10:25:59.914Z</time></trkpt><trkpt lat="43.761895" lon="11.31259"><ele>51.666666666666664</ele><time>2026-04-11T10:26:01.914Z</time></trkpt><trkpt lat="43.761885" lon="11.3124717"><ele>51.83333333333333</ele><time>2026-04-11T10:26:03.914Z</time></trkpt><trkpt lat="43.7618733" lon="11.31235"><ele>52.0</ele><time>2026-04-11T10:26:05.914Z</time></trkpt><trkpt lat="43.761865" lon="11.31224"><ele>51.83333333333333</ele><time>2026-04-11T10:26:07.915Z</time></trkpt><trkpt lat="43.7618617" lon="11.31212"><ele>51.666666666666664</ele><time>2026-04-11T10:26:09.915Z</time></trkpt><trkpt lat="43.7618683" lon="11.312015"><ele>51.5</ele><time>2026-04-11T10:26:11.914Z</time></trkpt><trkpt lat="43.761875" lon="11.3119083"><ele>51.33333333333333</ele><time>2026-04-11T10:26:13.914Z</time></trkpt><trkpt lat="43.76188" lon="11.3118"><ele>51.166666666666664</ele><time>2026-04-11T10:26:15.914Z</time></trkpt><trkpt lat="43.7618833" lon="11.3117067"><ele>51.0</ele><time>2026-04-11T10:26:17.914Z</time></trkpt><trkpt lat="43.76188" lon="11.3115917"><ele>51.0</ele><time>2026-04-11T10:26:20.914Z</time></trkpt><trkpt lat="43.7619167" lon="11.3114233"><ele>51.0</ele><time>2026-04-11T10:26:34.914Z</time></trkpt><trkpt lat="43.7619283" lon="11.3113167"><ele>51.0</ele><time>2026-04-11T10:26:37.914Z</time></trkpt><trkpt lat="43.7619483" lon="11.3112183"><ele>51.0</ele><time>2026-04-11T10:26:39.914Z</time></trkpt><trkpt lat="43.7619733" lon="11.3110917"><ele>51.0</ele><time>2026-04-11T10:26:41.914Z</time></trkpt><trkpt lat="43.7619867" lon="11.3109717"><ele>50.833333333333336</ele><time>2026-04-11T10:26:43.914Z</time></trkpt><trkpt lat="43.7620217" lon="11.3108583"><ele>50.66666666666667</ele><time>2026-04-11T10:26:45.914Z</time></trkpt><trkpt lat="43.7620483" lon="11.3107583"><ele>50.5</ele><time>2026-04-11T10:26:47.914Z</time></trkpt><trkpt lat="43.7620617" lon="11.31066"><ele>50.333333333333336</ele><time>2026-04-11T10:26:49.914Z</time></trkpt><trkpt lat="43.76206" lon="11.3105533"><ele>50.16666666666667</ele><time>2026-04-11T10:26:53.914Z</time></trkpt><trkpt lat="43.7620417" lon="11.3104617"><ele>50.0</ele><time>2026-04-11T10:26:56.914Z</time></trkpt><trkpt lat="43.7620633" lon="11.3103483"><ele>50.50000000000001</ele><time>2026-04-11T10:26:59.915Z</time></trkpt><trkpt lat="43.7620833" lon="11.310255"><ele>51.0</ele><time>2026-04-11T10:27:01.915Z</time></trkpt><trkpt lat="43.7621" lon="11.3101617"><ele>51.5</ele><time>2026-04-11T10:27:03.914Z</time></trkpt><trkpt lat="43.7621167" lon="11.3100633"><ele>52.0</ele><time>2026-04-11T10:27:05.914Z</time></trkpt><trkpt lat="43.7621433" lon="11.3099383"><ele>52.50000000000001</ele><time>2026-04-11T10:27:08.915Z</time></trkpt><trkpt lat="43.762155" lon="11.3098517"><ele>53.0</ele><time>2026-04-11T10:27:10.915Z</time></trkpt><trkpt lat="43.7621617" lon="11.3097267"><ele>53.00000000000001</ele><time>2026-04-11T10:27:13.914Z</time></trkpt><trkpt lat="43.762185" lon="11.3096167"><ele>53.0</ele><time>2026-04-11T10:27:16.914Z</time></trkpt><trkpt lat="43.762195" lon="11.30952"><ele>53.0</ele><time>2026-04-11T10:27:19.914Z</time></trkpt><trkpt lat="43.762175" lon="11.3094283"><ele>53.0</ele><time>2026-04-11T10:27:22.914Z</time></trkpt><trkpt lat="43.7621183" lon="11.30933"><ele>53.00000000000001</ele><time>2026-04-11T10:27:25.914Z</time></trkpt><trkpt lat="43.7620617" lon="11.30926"><ele>53.0</ele><time>2026-04-11T10:27:29.913Z</time></trkpt><trkpt lat="43.7620283" lon="11.3091717"><ele>53.00000000000001</ele><time>2026-04-11T10:27:34.913Z</time></trkpt><trkpt lat="43.762045" lon="11.30906"><ele>53.0</ele><time>2026-04-11T10:27:38.914Z</time></trkpt><trkpt lat="43.7620733" lon="11.308945"><ele>53.0</ele><time>2026-04-11T10:27:41.913Z</time></trkpt><trkpt lat="43.7620833" lon="11.308845"><ele>53.0</ele><time>2026-04-11T10:27:44.913Z</time></trkpt><trkpt lat="43.762105" lon="11.3087583"><ele>53.00000000000001</ele><time>2026-04-11T10:27:47.913Z</time></trkpt><trkpt lat="43.7621233" lon="11.308645"><ele>53.0</ele><time>2026-04-11T10:27:50.913Z</time></trkpt><trkpt lat="43.7621417" lon="11.30853"><ele>52.833333333333336</ele><time>2026-04-11T10:27:53.913Z</time></trkpt><trkpt lat="43.76215" lon="11.3084333"><ele>52.66666666666667</ele><time>2026-04-11T10:27:56.913Z</time></trkpt><trkpt lat="43.7621683" lon="11.3083283"><ele>52.5</ele><time>2026-04-11T10:27:59.913Z</time></trkpt><trkpt lat="43.7621883" lon="11.3082167"><ele>52.33333333333333</ele><time>2026-04-11T10:28:02.913Z</time></trkpt><trkpt lat="43.7622067" lon="11.308085"><ele>52.166666666666664</ele><time>2026-04-11T10:28:05.913Z</time></trkpt><trkpt lat="43.76222" lon="11.307995"><ele>52.0</ele><time>2026-04-11T10:28:07.913Z</time></trkpt><trkpt lat="43.7622333" lon="11.3078683"><ele>51.857142857142854</ele><time>2026-04-11T10:28:10.913Z</time></trkpt><trkpt lat="43.7622483" lon="11.307775"><ele>51.714285714285715</ele><time>2026-04-11T10:28:12.914Z</time></trkpt><trkpt lat="43.76226" lon="11.30768"><ele>51.57142857142857</ele><time>2026-04-11T10:28:14.913Z</time></trkpt><trkpt lat="43.762275" lon="11.30755"><ele>51.42857142857143</ele><time>2026-04-11T10:28:17.913Z</time></trkpt><trkpt lat="43.762285" lon="11.3074467"><ele>51.28571428571429</ele><time>2026-04-11T10:28:19.913Z</time></trkpt><trkpt lat="43.7623033" lon="11.30735"><ele>51.142857142857146</ele><time>2026-04-11T10:28:21.913Z</time></trkpt><trkpt lat="43.7623117" lon="11.3072583"><ele>51.0</ele><time>2026-04-11T10:28:23.913Z</time></trkpt><trkpt lat="43.7623117" lon="11.307165"><ele>51.333333333333336</ele><time>2026-04-11T10:28:25.913Z</time></trkpt><trkpt lat="43.7623267" lon="11.30708"><ele>51.66666666666667</ele><time>2026-04-11T10:28:27.913Z</time></trkpt><trkpt lat="43.7623417" lon="11.3069767"><ele>52.0</ele><time>2026-04-11T10:28:29.913Z</time></trkpt><trkpt lat="43.7623567" lon="11.3068783"><ele>52.333333333333336</ele><time>2026-04-11T10:28:31.914Z</time></trkpt><trkpt lat="43.76237" lon="11.3067817"><ele>52.66666666666667</ele><time>2026-04-11T10:28:33.913Z</time></trkpt><trkpt lat="43.7623917" lon="11.30666"><ele>53.0</ele><time>2026-04-11T10:28:36.913Z</time></trkpt><trkpt lat="43.7624067" lon="11.3065517"><ele>53.00000000000001</ele><time>2026-04-11T10:28:39.913Z</time></trkpt><trkpt lat="43.762425" lon="11.3064667"><ele>53.0</ele><time>2026-04-11T10:28:41.913Z</time></trkpt><trkpt lat="43.7624617" lon="11.3063717"><ele>53.0</ele><time>2026-04-11T10:28:44.913Z</time></trkpt><trkpt lat="43.7624817" lon="11.3062783"><ele>53.0</ele><time>2026-04-11T10:28:50.914Z</time></trkpt><trkpt lat="43.7625" lon="11.3061683"><ele>53.00000000000001</ele><time>2026-04-11T10:28:53.913Z</time></trkpt><trkpt lat="43.7625133" lon="11.3060433"><ele>53.0</ele><time>2026-04-11T10:28:56.913Z</time></trkpt><trkpt lat="43.76252" lon="11.3059533"><ele>52.85714285714286</ele><time>2026-04-11T10:28:58.914Z</time></trkpt><trkpt lat="43.76254" lon="11.3058683"><ele>52.71428571428571</ele><time>2026-04-11T10:29:00.913Z</time></trkpt><trkpt lat="43.762555" lon="11.3057733"><ele>52.57142857142857</ele><time>2026-04-11T10:29:02.913Z</time></trkpt><trkpt lat="43.76258" lon="11.30568"><ele>52.42857142857143</ele><time>2026-04-11T10:29:04.913Z</time></trkpt><trkpt lat="43.7625967" lon="11.305585"><ele>52.28571428571429</ele><time>2026-04-11T10:29:06.913Z</time></trkpt><trkpt lat="43.7626183" lon="11.3054967"><ele>52.14285714285714</ele><time>2026-04-11T10:29:08.913Z</time></trkpt><trkpt lat="43.762645" lon="11.3053817"><ele>52.0</ele><time>2026-04-11T10:29:11.913Z</time></trkpt><trkpt lat="43.762675" lon="11.3052683"><ele>52.166666666666664</ele><time>2026-04-11T10:29:14.913Z</time></trkpt><trkpt lat="43.7627067" lon="11.3051417"><ele>52.33333333333333</ele><time>2026-04-11T10:29:17.913Z</time></trkpt><trkpt lat="43.762725" lon="11.305055"><ele>52.5</ele><time>2026-04-11T10:29:19.913Z</time></trkpt><trkpt lat="43.7627417" lon="11.304965"><ele>52.66666666666667</ele><time>2026-04-11T10:29:21.914Z</time></trkpt><trkpt lat="43.7627617" lon="11.3048717"><ele>52.833333333333336</ele><time>2026-04-11T10:29:23.913Z</time></trkpt><trkpt lat="43.7627917" lon="11.30476"><ele>53.0</ele><time>2026-04-11T10:29:26.913Z</time></trkpt><trkpt lat="43.762825" lon="11.30464"><ele>52.16666666666667</ele><time>2026-04-11T10:29:29.913Z</time></trkpt><trkpt lat="43.7628417" lon="11.3045167"><ele>51.333333333333336</ele><time>2026-04-11T10:29:32.914Z</time></trkpt><trkpt lat="43.7628683" lon="11.3044"><ele>50.5</ele><time>2026-04-11T10:29:35.913Z</time></trkpt><trkpt lat="43.7628867" lon="11.3043117"><ele>49.66666666666667</ele><time>2026-04-11T10:29:37.913Z</time></trkpt><trkpt lat="43.7629017" lon="11.3041983"><ele>48.833333333333336</ele><time>2026-04-11T10:29:40.913Z</time></trkpt><trkpt lat="43.7629333" lon="11.3041083"><ele>48.0</ele><time>2026-04-11T10:29:43.913Z</time></trkpt><trkpt lat="43.76299" lon="11.3040267"><ele>48.0</ele><time>2026-04-11T10:29:45.913Z</time></trkpt><trkpt lat="43.7630267" lon="11.3038917"><ele>48.0</ele><time>2026-04-11T10:29:47.913Z</time></trkpt><trkpt lat="43.7630667" lon="11.3037467"><ele>48.0</ele><time>2026-04-11T10:29:49.914Z</time></trkpt><trkpt lat="43.76308" lon="11.303605"><ele>48.0</ele><time>2026-04-11T10:29:51.913Z</time></trkpt><trkpt lat="43.7631033" lon="11.3034517"><ele>48.0</ele><time>2026-04-11T10:29:53.913Z</time></trkpt><trkpt lat="43.7631317" lon="11.303325"><ele>48.0</ele><time>2026-04-11T10:29:55.913Z</time></trkpt><trkpt lat="43.7631567" lon="11.3032017"><ele>48.0</ele><time>2026-04-11T10:29:57.914Z</time></trkpt><trkpt lat="43.76318" lon="11.303075"><ele>48.0</ele><time>2026-04-11T10:29:59.913Z</time></trkpt><trkpt lat="43.763205" lon="11.3029583"><ele>48.0</ele><time>2026-04-11T10:30:01.913Z</time></trkpt><trkpt lat="43.763235" lon="11.3028517"><ele>48.0</ele><time>2026-04-11T10:30:03.914Z</time></trkpt><trkpt lat="43.763255" lon="11.3027633"><ele>48.0</ele><time>2026-04-11T10:30:05.913Z</time></trkpt><trkpt lat="43.7632867" lon="11.3026483"><ele>48.5</ele><time>2026-04-11T10:30:08.914Z</time></trkpt><trkpt lat="43.7633033" lon="11.302525"><ele>49.0</ele><time>2026-04-11T10:30:11.913Z</time></trkpt><trkpt lat="43.7633233" lon="11.3024167"><ele>49.5</ele><time>2026-04-11T10:30:13.914Z</time></trkpt><trkpt lat="43.763345" lon="11.302305"><ele>50.0</ele><time>2026-04-11T10:30:15.914Z</time></trkpt><trkpt lat="43.7633683" lon="11.3022"><ele>50.5</ele><time>2026-04-11T10:30:17.913Z</time></trkpt><trkpt lat="43.7633817" lon="11.30209"><ele>51.0</ele><time>2026-04-11T10:30:19.913Z</time></trkpt><trkpt lat="43.7633933" lon="11.3019933"><ele>51.333333333333336</ele><time>2026-04-11T10:30:21.913Z</time></trkpt><trkpt lat="43.7634133" lon="11.3018883"><ele>51.66666666666667</ele><time>2026-04-11T10:30:23.913Z</time></trkpt><trkpt lat="43.76343" lon="11.3017833"><ele>52.0</ele><time>2026-04-11T10:30:25.913Z</time></trkpt><trkpt lat="43.7634517" lon="11.3016717"><ele>52.333333333333336</ele><time>2026-04-11T10:30:27.913Z</time></trkpt><trkpt lat="43.7634683" lon="11.301565"><ele>52.66666666666667</ele><time>2026-04-11T10:30:29.913Z</time></trkpt><trkpt lat="43.763485" lon="11.3014517"><ele>53.0</ele><time>2026-04-11T10:30:31.913Z</time></trkpt><trkpt lat="43.7634967" lon="11.3013417"><ele>53.00000000000001</ele><time>2026-04-11T10:30:33.913Z</time></trkpt><trkpt lat="43.7635067" lon="11.3012333"><ele>53.0</ele><time>2026-04-11T10:30:35.913Z</time></trkpt><trkpt lat="43.7635267" lon="11.301125"><ele>53.0</ele><time>2026-04-11T10:30:37.913Z</time></trkpt><trkpt lat="43.7635533" lon="11.3010183"><ele>53.0</ele><time>2026-04-11T10:30:39.913Z</time></trkpt><trkpt lat="43.7635733" lon="11.3009017"><ele>53.00000000000001</ele><time>2026-04-11T10:30:41.914Z</time></trkpt><trkpt lat="43.7635983" lon="11.3008"><ele>53.0</ele><time>2026-04-11T10:30:43.913Z</time></trkpt><trkpt lat="43.7636267" lon="11.3007"><ele>53.142857142857146</ele><time>2026-04-11T10:30:45.913Z</time></trkpt><trkpt lat="43.7636633" lon="11.3006"><ele>53.285714285714285</ele><time>2026-04-11T10:30:47.913Z</time></trkpt><trkpt lat="43.7636917" lon="11.3005117"><ele>53.42857142857143</ele><time>2026-04-11T10:30:49.914Z</time></trkpt><trkpt lat="43.7637233" lon="11.300425"><ele>53.57142857142857</ele><time>2026-04-11T10:30:51.913Z</time></trkpt><trkpt lat="43.7637483" lon="11.3003317"><ele>53.71428571428571</ele><time>2026-04-11T10:30:53.913Z</time></trkpt><trkpt lat="43.763775" lon="11.3002467"><ele>53.857142857142854</ele><time>2026-04-11T10:30:55.914Z</time></trkpt><trkpt lat="43.763795" lon="11.3001633"><ele>54.0</ele><time>2026-04-11T10:30:57.913Z</time></trkpt><trkpt lat="43.7638033" lon="11.3000767"><ele>54.0</ele><time>2026-04-11T10:30:59.913Z</time></trkpt><trkpt lat="43.7638217" lon="11.2999883"><ele>54.0</ele><time>2026-04-11T10:31:01.913Z</time></trkpt><trkpt lat="43.7638367" lon="11.2999"><ele>54.0</ele><time>2026-04-11T10:31:03.913Z</time></trkpt><trkpt lat="43.7638717" lon="11.2997833"><ele>54.0</ele><time>2026-04-11T10:31:06.914Z</time></trkpt><trkpt lat="43.7639083" lon="11.2997083"><ele>54.0</ele><time>2026-04-11T10:31:08.914Z</time></trkpt><trkpt lat="43.7639433" lon="11.2996283"><ele>54.0</ele><time>2026-04-11T10:31:10.913Z</time></trkpt><trkpt lat="43.7639767" lon="11.29955"><ele>54.0</ele><time>2026-04-11T10:31:12.914Z</time></trkpt><trkpt lat="43.764" lon="11.2994667"><ele>54.333333333333336</ele><time>2026-04-11T10:31:14.913Z</time></trkpt><trkpt lat="43.7640267" lon="11.29935"><ele>54.66666666666667</ele><time>2026-04-11T10:31:17.913Z</time></trkpt><trkpt lat="43.7640517" lon="11.2992683"><ele>55.0</ele><time>2026-04-11T10:31:19.913Z</time></trkpt><trkpt lat="43.7640683" lon="11.299145"><ele>55.333333333333336</ele><time>2026-04-11T10:31:22.913Z</time></trkpt><trkpt lat="43.7641017" lon="11.299035"><ele>55.66666666666667</ele><time>2026-04-11T10:31:25.913Z</time></trkpt><trkpt lat="43.7641267" lon="11.2989533"><ele>56.0</ele><time>2026-04-11T10:31:27.913Z</time></trkpt><trkpt lat="43.7641567" lon="11.29886"><ele>56.00000000000001</ele><time>2026-04-11T10:31:30.913Z</time></trkpt><trkpt lat="43.7641967" lon="11.29875"><ele>56.0</ele><time>2026-04-11T10:31:33.913Z</time></trkpt><trkpt lat="43.7642267" lon="11.2986333"><ele>56.0</ele><time>2026-04-11T10:31:36.914Z</time></trkpt><trkpt lat="43.76424" lon="11.2985183"><ele>56.0</ele><time>2026-04-11T10:31:39.913Z</time></trkpt><trkpt lat="43.76421" lon="11.2984267"><ele>56.00000000000001</ele><time>2026-04-11T10:31:43.914Z</time></trkpt><trkpt lat="43.7641217" lon="11.2983867"><ele>56.0</ele><time>2026-04-11T10:31:47.913Z</time></trkpt><trkpt lat="43.7640267" lon="11.2983417"><ele>56.00000000000001</ele><time>2026-04-11T10:31:49.913Z</time></trkpt><trkpt lat="43.7639333" lon="11.2982933"><ele>56.0</ele><time>2026-04-11T10:31:51.913Z</time></trkpt><trkpt lat="43.7638883" lon="11.2981917"><ele>56.0</ele><time>2026-04-11T10:31:53.913Z</time></trkpt><trkpt lat="43.7639067" lon="11.29808"><ele>56.0</ele><time>2026-04-11T10:31:55.913Z</time></trkpt><trkpt lat="43.7639267" lon="11.29797"><ele>56.00000000000001</ele><time>2026-04-11T10:31:57.913Z</time></trkpt><trkpt lat="43.763925" lon="11.2978583"><ele>56.0</ele><time>2026-04-11T10:31:59.913Z</time></trkpt><trkpt lat="43.7639033" lon="11.2977383"><ele>56.0</ele><time>2026-04-11T10:32:01.914Z</time></trkpt><trkpt lat="43.7638633" lon="11.2976433"><ele>56.0</ele><time>2026-04-11T10:32:03.914Z</time></trkpt><trkpt lat="43.763825" lon="11.2975617"><ele>56.0</ele><time>2026-04-11T10:32:05.914Z</time></trkpt><trkpt lat="43.7637733" lon="11.2974967"><ele>56.0</ele><time>2026-04-11T10:32:07.913Z</time></trkpt><trkpt lat="43.763715" lon="11.297435"><ele>56.0</ele><time>2026-04-11T10:32:09.914Z</time></trkpt><trkpt lat="43.7636633" lon="11.2973833"><ele>56.0</ele><time>2026-04-11T10:32:11.914Z</time></trkpt><trkpt lat="43.7636167" lon="11.29732"><ele>56.0</ele><time>2026-04-11T10:32:13.913Z</time></trkpt><trkpt lat="43.7635617" lon="11.2972633"><ele>55.333333333333336</ele><time>2026-04-11T10:32:15.913Z</time></trkpt><trkpt lat="43.7635067" lon="11.2971967"><ele>54.66666666666667</ele><time>2026-04-11T10:32:17.913Z</time></trkpt><trkpt lat="43.7634467" lon="11.2971317"><ele>54.0</ele><time>2026-04-11T10:32:19.913Z</time></trkpt><trkpt lat="43.76339" lon="11.2970383"><ele>53.33333333333333</ele><time>2026-04-11T10:32:22.913Z</time></trkpt><trkpt lat="43.7633533" lon="11.29696"><ele>52.666666666666664</ele><time>2026-04-11T10:32:24.913Z</time></trkpt><trkpt lat="43.7633183" lon="11.2968633"><ele>52.0</ele><time>2026-04-11T10:32:26.913Z</time></trkpt><trkpt lat="43.763275" lon="11.2967583"><ele>51.99999999999999</ele><time>2026-04-11T10:32:29.913Z</time></trkpt><trkpt lat="43.76324" lon="11.2966667"><ele>52.0</ele><time>2026-04-11T10:32:31.913Z</time></trkpt><trkpt lat="43.76321" lon="11.29658"><ele>52.0</ele><time>2026-04-11T10:32:33.913Z</time></trkpt><trkpt lat="43.7631717" lon="11.2964983"><ele>52.0</ele><time>2026-04-11T10:32:35.914Z</time></trkpt><trkpt lat="43.7631117" lon="11.2964083"><ele>51.99999999999999</ele><time>2026-04-11T10:32:38.913Z</time></trkpt><trkpt lat="43.7630517" lon="11.29633"><ele>52.0</ele><time>2026-04-11T10:32:41.913Z</time></trkpt><trkpt lat="43.7629717" lon="11.2963283"><ele>52.166666666666664</ele><time>2026-04-11T10:32:44.913Z</time></trkpt><trkpt lat="43.762905" lon="11.2963467"><ele>52.33333333333333</ele><time>2026-04-11T10:32:46.913Z</time></trkpt><trkpt lat="43.7628333" lon="11.2963517"><ele>52.5</ele><time>2026-04-11T10:32:49.913Z</time></trkpt><trkpt lat="43.7627667" lon="11.296285"><ele>52.66666666666667</ele><time>2026-04-11T10:32:53.913Z</time></trkpt><trkpt lat="43.7627467" lon="11.2961767"><ele>52.833333333333336</ele><time>2026-04-11T10:32:57.914Z</time></trkpt><trkpt lat="43.7627567" lon="11.29605"><ele>53.0</ele><time>2026-04-11T10:33:00.913Z</time></trkpt><trkpt lat="43.762765" lon="11.2959533"><ele>53.00000000000001</ele><time>2026-04-11T10:33:02.913Z</time></trkpt><trkpt lat="43.7627767" lon="11.2958333"><ele>53.0</ele><time>2026-04-11T10:33:05.914Z</time></trkpt><trkpt lat="43.7627783" lon="11.295745"><ele>53.0</ele><time>2026-04-11T10:33:07.913Z</time></trkpt><trkpt lat="43.7627817" lon="11.295645"><ele>53.0</ele><time>2026-04-11T10:33:09.913Z</time></trkpt><trkpt lat="43.7627967" lon="11.2955383"><ele>53.00000000000001</ele><time>2026-04-11T10:33:11.914Z</time></trkpt><trkpt lat="43.762815" lon="11.2954233"><ele>53.0</ele><time>2026-04-11T10:33:13.914Z</time></trkpt><trkpt lat="43.7628217" lon="11.2953083"><ele>52.66666666666667</ele><time>2026-04-11T10:33:15.914Z</time></trkpt><trkpt lat="43.762825" lon="11.2951717"><ele>52.333333333333336</ele><time>2026-04-11T10:33:17.913Z</time></trkpt><trkpt lat="43.762835" lon="11.29506"><ele>52.0</ele><time>2026-04-11T10:33:19.913Z</time></trkpt><trkpt lat="43.762845" lon="11.2949483"><ele>51.66666666666667</ele><time>2026-04-11T10:33:21.913Z</time></trkpt><trkpt lat="43.762855" lon="11.2948433"><ele>51.333333333333336</ele><time>2026-04-11T10:33:23.913Z</time></trkpt><trkpt lat="43.7628633" lon="11.294735"><ele>51.0</ele><time>2026-04-11T10:33:25.913Z</time></trkpt><trkpt lat="43.7628667" lon="11.2946217"><ele>51.0</ele><time>2026-04-11T10:33:27.913Z</time></trkpt><trkpt lat="43.7628671" lon="11.2944979"><ele>51.0</ele><time>2026-04-11T10:33:29.913Z</time></trkpt><trkpt lat="43.7628743" lon="11.2943861"><ele>51.0</ele><time>2026-04-11T10:33:31.913Z</time></trkpt><trkpt lat="43.7628922" lon="11.2942714"><ele>51.0</ele><time>2026-04-11T10:33:33.913Z</time></trkpt><trkpt lat="43.7629112" lon="11.2941528"><ele>51.0</ele><time>2026-04-11T10:33:35.914Z</time></trkpt><trkpt lat="43.7629193" lon="11.2940383"><ele>51.0</ele><time>2026-04-11T10:33:37.913Z</time></trkpt><trkpt lat="43.7629307" lon="11.293931"><ele>51.166666666666664</ele><time>2026-04-11T10:33:39.913Z</time></trkpt><trkpt lat="43.762944" lon="11.2938269"><ele>51.33333333333333</ele><time>2026-04-11T10:33:41.913Z</time></trkpt><trkpt lat="43.7629539" lon="11.2937128"><ele>51.5</ele><time>2026-04-11T10:33:43.913Z</time></trkpt><trkpt lat="43.76297" lon="11.2935948"><ele>51.666666666666664</ele><time>2026-04-11T10:33:45.913Z</time></trkpt><trkpt lat="43.7629853" lon="11.2934783"><ele>51.83333333333333</ele><time>2026-04-11T10:33:47.914Z</time></trkpt><trkpt lat="43.7629983" lon="11.2933667"><ele>52.0</ele><time>2026-04-11T10:33:49.913Z</time></trkpt><trkpt lat="43.7629983" lon="11.29324"><ele>51.99999999999999</ele><time>2026-04-11T10:33:51.913Z</time></trkpt><trkpt lat="43.7630017" lon="11.293125"><ele>52.0</ele><time>2026-04-11T10:33:53.914Z</time></trkpt><trkpt lat="43.7630033" lon="11.2930117"><ele>52.0</ele><time>2026-04-11T10:33:55.913Z</time></trkpt><trkpt lat="43.763005" lon="11.2928883"><ele>52.0</ele><time>2026-04-11T10:33:57.913Z</time></trkpt><trkpt lat="43.76301" lon="11.2927667"><ele>51.99999999999999</ele><time>2026-04-11T10:33:59.914Z</time></trkpt><trkpt lat="43.7630217" lon="11.2926467"><ele>52.0</ele><time>2026-04-11T10:34:01.913Z</time></trkpt><trkpt lat="43.7630183" lon="11.2925267"><ele>51.99999999999999</ele><time>2026-04-11T10:34:03.914Z</time></trkpt><trkpt lat="43.7630133" lon="11.2924167"><ele>52.0</ele><time>2026-04-11T10:34:05.913Z</time></trkpt><trkpt lat="43.763015" lon="11.2923133"><ele>52.0</ele><time>2026-04-11T10:34:07.913Z</time></trkpt><trkpt lat="43.7630233" lon="11.2922133"><ele>52.0</ele><time>2026-04-11T10:34:09.913Z</time></trkpt><trkpt lat="43.7630483" lon="11.2921133"><ele>51.99999999999999</ele><time>2026-04-11T10:34:11.913Z</time></trkpt><trkpt lat="43.763065" lon="11.292015"><ele>52.0</ele><time>2026-04-11T10:34:13.913Z</time></trkpt><trkpt lat="43.7630667" lon="11.2918917"><ele>51.666666666666664</ele><time>2026-04-11T10:34:16.914Z</time></trkpt><trkpt lat="43.7630717" lon="11.2918017"><ele>51.33333333333333</ele><time>2026-04-11T10:34:18.913Z</time></trkpt><trkpt lat="43.763095" lon="11.2916783"><ele>51.0</ele><time>2026-04-11T10:34:21.913Z</time></trkpt><trkpt lat="43.7631183" lon="11.291585"><ele>50.66666666666667</ele><time>2026-04-11T10:34:23.914Z</time></trkpt><trkpt lat="43.7631167" lon="11.2914833"><ele>50.333333333333336</ele><time>2026-04-11T10:34:25.914Z</time></trkpt><trkpt lat="43.7631133" lon="11.2913717"><ele>50.0</ele><time>2026-04-11T10:34:27.913Z</time></trkpt><trkpt lat="43.7631117" lon="11.2912633"><ele>50.00000000000001</ele><time>2026-04-11T10:34:29.913Z</time></trkpt><trkpt lat="43.7631133" lon="11.291165"><ele>50.0</ele><time>2026-04-11T10:34:31.913Z</time></trkpt><trkpt lat="43.7631267" lon="11.2910767"><ele>50.0</ele><time>2026-04-11T10:34:33.913Z</time></trkpt><trkpt lat="43.7631383" lon="11.2909717"><ele>50.0</ele><time>2026-04-11T10:34:35.913Z</time></trkpt><trkpt lat="43.7631464" lon="11.2908636"><ele>50.0</ele><time>2026-04-11T10:34:37.913Z</time></trkpt><trkpt lat="43.7631524" lon="11.290761"><ele>50.00000000000001</ele><time>2026-04-11T10:34:39.914Z</time></trkpt><trkpt lat="43.7631592" lon="11.2906612"><ele>50.0</ele><time>2026-04-11T10:34:41.913Z</time></trkpt><trkpt lat="43.7631713" lon="11.290561"><ele>50.00000000000001</ele><time>2026-04-11T10:34:43.913Z</time></trkpt><trkpt lat="43.7631832" lon="11.2904497"><ele>50.0</ele><time>2026-04-11T10:34:45.914Z</time></trkpt><trkpt lat="43.7631921" lon="11.2903394"><ele>50.0</ele><time>2026-04-11T10:34:47.913Z</time></trkpt><trkpt lat="43.7631965" lon="11.2902286"><ele>50.0</ele><time>2026-04-11T10:34:49.913Z</time></trkpt><trkpt lat="43.7632004" lon="11.2901144"><ele>50.00000000000001</ele><time>2026-04-11T10:34:51.914Z</time></trkpt><trkpt lat="43.7632018" lon="11.289998"><ele>50.0</ele><time>2026-04-11T10:34:53.913Z</time></trkpt><trkpt lat="43.7632082" lon="11.2898792"><ele>50.00000000000001</ele><time>2026-04-11T10:34:55.913Z</time></trkpt><trkpt lat="43.7632175" lon="11.2897662"><ele>50.0</ele><time>2026-04-11T10:34:57.913Z</time></trkpt><trkpt lat="43.7632226" lon="11.2896484"><ele>50.0</ele><time>2026-04-11T10:34:59.914Z</time></trkpt><trkpt lat="43.7632261" lon="11.2895217"><ele>50.0</ele><time>2026-04-11T10:35:01.914Z</time></trkpt><trkpt lat="43.763245" lon="11.289395"><ele>50.00000000000001</ele><time>2026-04-11T10:35:03.913Z</time></trkpt><trkpt lat="43.7632567" lon="11.2892717"><ele>50.0</ele><time>2026-04-11T10:35:05.913Z</time></trkpt><trkpt lat="43.76327" lon="11.2891533"><ele>50.2</ele><time>2026-04-11T10:35:07.913Z</time></trkpt><trkpt lat="43.7632783" lon="11.2890233"><ele>50.4</ele><time>2026-04-11T10:35:09.913Z</time></trkpt><trkpt lat="43.7632883" lon="11.2888967"><ele>50.599999999999994</ele><time>2026-04-11T10:35:11.914Z</time></trkpt><trkpt lat="43.763295" lon="11.28876"><ele>50.8</ele><time>2026-04-11T10:35:13.913Z</time></trkpt><trkpt lat="43.7633" lon="11.2886417"><ele>51.0</ele><time>2026-04-11T10:35:15.914Z</time></trkpt><trkpt lat="43.7633" lon="11.2885133"><ele>51.0</ele><time>2026-04-11T10:35:17.913Z</time></trkpt><trkpt lat="43.7633067" lon="11.28839"><ele>51.0</ele><time>2026-04-11T10:35:19.913Z</time></trkpt><trkpt lat="43.7633117" lon="11.2882583"><ele>51.0</ele><time>2026-04-11T10:35:21.913Z</time></trkpt><trkpt lat="43.763325" lon="11.28812"><ele>51.0</ele><time>2026-04-11T10:35:23.913Z</time></trkpt><trkpt lat="43.76333" lon="11.2879933"><ele>51.0</ele><time>2026-04-11T10:35:25.913Z</time></trkpt><trkpt lat="43.76334" lon="11.2878667"><ele>51.333333333333336</ele><time>2026-04-11T10:35:27.913Z</time></trkpt><trkpt lat="43.7633533" lon="11.2877583"><ele>51.66666666666667</ele><time>2026-04-11T10:35:29.913Z</time></trkpt><trkpt lat="43.763365" lon="11.2876633"><ele>52.0</ele><time>2026-04-11T10:35:31.914Z</time></trkpt><trkpt lat="43.7633817" lon="11.2875633"><ele>52.333333333333336</ele><time>2026-04-11T10:35:33.913Z</time></trkpt><trkpt lat="43.76338" lon="11.28745"><ele>52.66666666666667</ele><time>2026-04-11T10:35:35.913Z</time></trkpt><trkpt lat="43.7633833" lon="11.2873317"><ele>53.0</ele><time>2026-04-11T10:35:37.914Z</time></trkpt><trkpt lat="43.763405" lon="11.2872217"><ele>53.16666666666667</ele><time>2026-04-11T10:35:39.913Z</time></trkpt><trkpt lat="43.763415" lon="11.2871083"><ele>53.333333333333336</ele><time>2026-04-11T10:35:41.913Z</time></trkpt><trkpt lat="43.7634017" lon="11.286995"><ele>53.5</ele><time>2026-04-11T10:35:43.913Z</time></trkpt><trkpt lat="43.76339" lon="11.2868883"><ele>53.66666666666667</ele><time>2026-04-11T10:35:45.913Z</time></trkpt><trkpt lat="43.7633933" lon="11.28678"><ele>53.833333333333336</ele><time>2026-04-11T10:35:47.914Z</time></trkpt><trkpt lat="43.7633933" lon="11.2866483"><ele>54.0</ele><time>2026-04-11T10:35:49.914Z</time></trkpt><trkpt lat="43.7633933" lon="11.2865333"><ele>53.5</ele><time>2026-04-11T10:35:51.913Z</time></trkpt><trkpt lat="43.76339" lon="11.2864233"><ele>53.0</ele><time>2026-04-11T10:35:53.913Z</time></trkpt><trkpt lat="43.7634017" lon="11.2862967"><ele>52.5</ele><time>2026-04-11T10:35:55.913Z</time></trkpt><trkpt lat="43.7634167" lon="11.2861683"><ele>52.0</ele><time>2026-04-11T10:35:57.913Z</time></trkpt><trkpt lat="43.7634333" lon="11.2860533"><ele>51.5</ele><time>2026-04-11T10:35:59.913Z</time></trkpt><trkpt lat="43.7634567" lon="11.285935"><ele>51.0</ele><time>2026-04-11T10:36:01.913Z</time></trkpt><trkpt lat="43.7634833" lon="11.2858033"><ele>51.0</ele><time>2026-04-11T10:36:03.913Z</time></trkpt><trkpt lat="43.76349" lon="11.2856833"><ele>51.0</ele><time>2026-04-11T10:36:05.914Z</time></trkpt><trkpt lat="43.7634983" lon="11.2855567"><ele>51.0</ele><time>2026-04-11T10:36:07.913Z</time></trkpt><trkpt lat="43.7634967" lon="11.285425"><ele>51.0</ele><time>2026-04-11T10:36:09.914Z</time></trkpt><trkpt lat="43.7635017" lon="11.2852867"><ele>51.0</ele><time>2026-04-11T10:36:11.914Z</time></trkpt><trkpt lat="43.7635067" lon="11.2851633"><ele>51.0</ele><time>2026-04-11T10:36:13.914Z</time></trkpt><trkpt lat="43.7635117" lon="11.2850367"><ele>51.0</ele><time>2026-04-11T10:36:15.913Z</time></trkpt><trkpt lat="43.7635217" lon="11.2849133"><ele>51.0</ele><time>2026-04-11T10:36:17.914Z</time></trkpt><trkpt lat="43.7635267" lon="11.28479"><ele>51.0</ele><time>2026-04-11T10:36:19.913Z</time></trkpt><trkpt lat="43.7635383" lon="11.28466"><ele>51.0</ele><time>2026-04-11T10:36:21.913Z</time></trkpt><trkpt lat="43.7635483" lon="11.284535"><ele>51.0</ele><time>2026-04-11T10:36:23.914Z</time></trkpt><trkpt lat="43.7635633" lon="11.2844117"><ele>51.0</ele><time>2026-04-11T10:36:25.913Z</time></trkpt><trkpt lat="43.7635667" lon="11.28429"><ele>51.0</ele><time>2026-04-11T10:36:27.913Z</time></trkpt><trkpt lat="43.7635733" lon="11.284165"><ele>51.0</ele><time>2026-04-11T10:36:29.913Z</time></trkpt><trkpt lat="43.7635783" lon="11.2840433"><ele>51.0</ele><time>2026-04-11T10:36:31.913Z</time></trkpt><trkpt lat="43.763585" lon="11.2839317"><ele>51.0</ele><time>2026-04-11T10:36:33.913Z</time></trkpt><trkpt lat="43.7635917" lon="11.28383"><ele>51.0</ele><time>2026-04-11T10:36:35.914Z</time></trkpt><trkpt lat="43.7635983" lon="11.28371"><ele>51.0</ele><time>2026-04-11T10:36:37.913Z</time></trkpt><trkpt lat="43.763605" lon="11.28359"><ele>51.0</ele><time>2026-04-11T10:36:39.914Z</time></trkpt><trkpt lat="43.7636317" lon="11.2834783"><ele>51.0</ele><time>2026-04-11T10:36:41.914Z</time></trkpt><trkpt lat="43.7636367" lon="11.2833633"><ele>51.0</ele><time>2026-04-11T10:36:43.913Z</time></trkpt><trkpt lat="43.7636267" lon="11.2832583"><ele>51.0</ele><time>2026-04-11T10:36:45.914Z</time></trkpt><trkpt lat="43.763625" lon="11.28314"><ele>50.666666666666664</ele><time>2026-04-11T10:36:47.913Z</time></trkpt><trkpt lat="43.7636417" lon="11.2830183"><ele>50.33333333333333</ele><time>2026-04-11T10:36:49.913Z</time></trkpt><trkpt lat="43.76364" lon="11.2828917"><ele>50.0</ele><time>2026-04-11T10:36:51.913Z</time></trkpt><trkpt lat="43.7636467" lon="11.28278"><ele>49.666666666666664</ele><time>2026-04-11T10:36:53.914Z</time></trkpt><trkpt lat="43.7636517" lon="11.2826833"><ele>49.33333333333333</ele><time>2026-04-11T10:36:55.913Z</time></trkpt><trkpt lat="43.7636733" lon="11.2825567"><ele>49.0</ele><time>2026-04-11T10:36:57.913Z</time></trkpt><trkpt lat="43.7636933" lon="11.28245"><ele>48.99999999999999</ele><time>2026-04-11T10:36:59.913Z</time></trkpt><trkpt lat="43.7636883" lon="11.28235"><ele>49.0</ele><time>2026-04-11T10:37:01.913Z</time></trkpt><trkpt lat="43.7637" lon="11.28223"><ele>49.0</ele><time>2026-04-11T10:37:04.913Z</time></trkpt><trkpt lat="43.7637483" lon="11.2821483"><ele>49.0</ele><time>2026-04-11T10:37:06.913Z</time></trkpt><trkpt lat="43.7638183" lon="11.2821"><ele>48.99999999999999</ele><time>2026-04-11T10:37:09.914Z</time></trkpt><trkpt lat="43.7638867" lon="11.282065"><ele>49.0</ele><time>2026-04-11T10:37:12.913Z</time></trkpt><trkpt lat="43.763955" lon="11.2820267"><ele>49.57142857142857</ele><time>2026-04-11T10:37:15.913Z</time></trkpt><trkpt lat="43.7640183" lon="11.2819767"><ele>50.14285714285714</ele><time>2026-04-11T10:37:18.913Z</time></trkpt><trkpt lat="43.76407" lon="11.28192"><ele>50.714285714285715</ele><time>2026-04-11T10:37:21.913Z</time></trkpt><trkpt lat="43.7641383" lon="11.28187"><ele>51.285714285714285</ele><time>2026-04-11T10:37:25.913Z</time></trkpt><trkpt lat="43.7642033" lon="11.28182"><ele>51.857142857142854</ele><time>2026-04-11T10:37:28.913Z</time></trkpt><trkpt lat="43.7642217" lon="11.281735"><ele>52.42857142857143</ele><time>2026-04-11T10:37:32.913Z</time></trkpt><trkpt lat="43.7642017" lon="11.2816217"><ele>53.0</ele><time>2026-04-11T10:37:36.913Z</time></trkpt><trkpt lat="43.7642183" lon="11.28152"><ele>53.00000000000001</ele><time>2026-04-11T10:37:39.913Z</time></trkpt><trkpt lat="43.764195" lon="11.2814283"><ele>53.0</ele><time>2026-04-11T10:37:42.914Z</time></trkpt><trkpt lat="43.764125" lon="11.281345"><ele>53.0</ele><time>2026-04-11T10:37:45.913Z</time></trkpt><trkpt lat="43.7640533" lon="11.28126"><ele>53.0</ele><time>2026-04-11T10:37:48.913Z</time></trkpt><trkpt lat="43.76401" lon="11.2811533"><ele>53.00000000000001</ele><time>2026-04-11T10:37:51.914Z</time></trkpt><trkpt lat="43.7640167" lon="11.2810633"><ele>53.0</ele><time>2026-04-11T10:37:53.913Z</time></trkpt><trkpt lat="43.764015" lon="11.28097"><ele>53.00000000000001</ele><time>2026-04-11T10:37:55.913Z</time></trkpt><trkpt lat="43.76402" lon="11.2808433"><ele>53.0</ele><time>2026-04-11T10:37:58.913Z</time></trkpt><trkpt lat="43.7640283" lon="11.2807067"><ele>53.0</ele><time>2026-04-11T10:38:01.913Z</time></trkpt><trkpt lat="43.764015" lon="11.2805733"><ele>53.0</ele><time>2026-04-11T10:38:04.913Z</time></trkpt><trkpt lat="43.7639917" lon="11.2804433"><ele>53.00000000000001</ele><time>2026-04-11T10:38:07.913Z</time></trkpt><trkpt lat="43.7639833" lon="11.280355"><ele>53.0</ele><time>2026-04-11T10:38:09.913Z</time></trkpt><trkpt lat="43.7639767" lon="11.280255"><ele>52.50000000000001</ele><time>2026-04-11T10:38:11.913Z</time></trkpt><trkpt lat="43.7639867" lon="11.2801567"><ele>52.0</ele><time>2026-04-11T10:38:13.914Z</time></trkpt><trkpt lat="43.7640017" lon="11.2800567"><ele>51.5</ele><time>2026-04-11T10:38:15.914Z</time></trkpt><trkpt lat="43.764" lon="11.2799283"><ele>51.0</ele><time>2026-04-11T10:38:18.914Z</time></trkpt><trkpt lat="43.7639983" lon="11.2798283"><ele>50.50000000000001</ele><time>2026-04-11T10:38:20.913Z</time></trkpt><trkpt lat="43.7640033" lon="11.2797183"><ele>50.0</ele><time>2026-04-11T10:38:22.914Z</time></trkpt><trkpt lat="43.7640067" lon="11.2795983"><ele>50.00000000000001</ele><time>2026-04-11T10:38:24.914Z</time></trkpt><trkpt lat="43.764" lon="11.2794967"><ele>50.0</ele><time>2026-04-11T10:38:26.913Z</time></trkpt><trkpt lat="43.7639883" lon="11.2793867"><ele>50.0</ele><time>2026-04-11T10:38:28.913Z</time></trkpt><trkpt lat="43.7639867" lon="11.2792683"><ele>50.0</ele><time>2026-04-11T10:38:30.913Z</time></trkpt><trkpt lat="43.764" lon="11.27918"><ele>50.00000000000001</ele><time>2026-04-11T10:38:32.913Z</time></trkpt><trkpt lat="43.764" lon="11.2790817"><ele>50.0</ele><time>2026-04-11T10:38:34.914Z</time></trkpt><trkpt lat="43.7639983" lon="11.278975"><ele>50.0</ele><time>2026-04-11T10:38:36.914Z</time></trkpt><trkpt lat="43.7640033" lon="11.2788467"><ele>50.0</ele><time>2026-04-11T10:38:38.914Z</time></trkpt><trkpt lat="43.7640083" lon="11.278735"><ele>50.0</ele><time>2026-04-11T10:38:40.913Z</time></trkpt><trkpt lat="43.764015" lon="11.2786"><ele>50.0</ele><time>2026-04-11T10:38:42.913Z</time></trkpt><trkpt lat="43.7640083" lon="11.2784433"><ele>50.0</ele><time>2026-04-11T10:38:44.913Z</time></trkpt><trkpt lat="43.7640033" lon="11.2782933"><ele>50.0</ele><time>2026-04-11T10:38:46.913Z</time></trkpt><trkpt lat="43.7640067" lon="11.2781683"><ele>50.0</ele><time>2026-04-11T10:38:48.913Z</time></trkpt><trkpt lat="43.76401" lon="11.27803"><ele>50.0</ele><time>2026-04-11T10:38:50.914Z</time></trkpt><trkpt lat="43.764" lon="11.277895"><ele>50.0</ele><time>2026-04-11T10:38:52.913Z</time></trkpt><trkpt lat="43.7640067" lon="11.2777517"><ele>50.0</ele><time>2026-04-11T10:38:54.913Z</time></trkpt><trkpt lat="43.7640067" lon="11.2776133"><ele>49.8</ele><time>2026-04-11T10:38:56.913Z</time></trkpt><trkpt lat="43.7640117" lon="11.2774767"><ele>49.6</ele><time>2026-04-11T10:38:58.913Z</time></trkpt><trkpt lat="43.764015" lon="11.2773333"><ele>49.400000000000006</ele><time>2026-04-11T10:39:00.913Z</time></trkpt><trkpt lat="43.7640217" lon="11.2772117"><ele>49.2</ele><time>2026-04-11T10:39:02.913Z</time></trkpt><trkpt lat="43.7640283" lon="11.2770933"><ele>49.0</ele><time>2026-04-11T10:39:04.913Z</time></trkpt><trkpt lat="43.7640267" lon="11.2769683"><ele>49.0</ele><time>2026-04-11T10:39:06.913Z</time></trkpt><trkpt lat="43.7640367" lon="11.2768567"><ele>49.0</ele><time>2026-04-11T10:39:08.913Z</time></trkpt><trkpt lat="43.7640417" lon="11.276735"><ele>49.0</ele><time>2026-04-11T10:39:10.913Z</time></trkpt><trkpt lat="43.76404" lon="11.2766033"><ele>49.0</ele><time>2026-04-11T10:39:12.913Z</time></trkpt><trkpt lat="43.764035" lon="11.2764783"><ele>49.0</ele><time>2026-04-11T10:39:14.914Z</time></trkpt><trkpt lat="43.7640333" lon="11.2763433"><ele>48.99999999999999</ele><time>2026-04-11T10:39:16.913Z</time></trkpt><trkpt lat="43.764035" lon="11.2762417"><ele>49.0</ele><time>2026-04-11T10:39:18.913Z</time></trkpt><trkpt lat="43.7640417" lon="11.2761517"><ele>49.0</ele><time>2026-04-11T10:39:20.913Z</time></trkpt><trkpt lat="43.7640483" lon="11.2760467"><ele>49.0</ele><time>2026-04-11T10:39:22.914Z</time></trkpt><trkpt lat="43.7640567" lon="11.2759333"><ele>48.99999999999999</ele><time>2026-04-11T10:39:24.913Z</time></trkpt><trkpt lat="43.7640617" lon="11.2758133"><ele>49.0</ele><time>2026-04-11T10:39:26.913Z</time></trkpt><trkpt lat="43.7640533" lon="11.2757017"><ele>49.2</ele><time>2026-04-11T10:39:28.913Z</time></trkpt><trkpt lat="43.764055" lon="11.2755683"><ele>49.400000000000006</ele><time>2026-04-11T10:39:30.913Z</time></trkpt><trkpt lat="43.764065" lon="11.27544"><ele>49.6</ele><time>2026-04-11T10:39:32.914Z</time></trkpt><trkpt lat="43.7640517" lon="11.2753067"><ele>49.8</ele><time>2026-04-11T10:39:34.913Z</time></trkpt><trkpt lat="43.764045" lon="11.2751917"><ele>50.0</ele><time>2026-04-11T10:39:36.913Z</time></trkpt><trkpt lat="43.7640467" lon="11.275065"><ele>50.0</ele><time>2026-04-11T10:39:38.913Z</time></trkpt><trkpt lat="43.7640433" lon="11.2749283"><ele>50.0</ele><time>2026-04-11T10:39:40.913Z</time></trkpt><trkpt lat="43.764045" lon="11.274805"><ele>50.0</ele><time>2026-04-11T10:39:42.913Z</time></trkpt><trkpt lat="43.764035" lon="11.2746917"><ele>50.0</ele><time>2026-04-11T10:39:44.914Z</time></trkpt><trkpt lat="43.7640283" lon="11.274555"><ele>50.0</ele><time>2026-04-11T10:39:46.913Z</time></trkpt><trkpt lat="43.76402" lon="11.2744317"><ele>50.333333333333336</ele><time>2026-04-11T10:39:48.913Z</time></trkpt><trkpt lat="43.7640167" lon="11.274295"><ele>50.66666666666667</ele><time>2026-04-11T10:39:50.913Z</time></trkpt><trkpt lat="43.764025" lon="11.274175"><ele>51.0</ele><time>2026-04-11T10:39:52.913Z</time></trkpt><trkpt lat="43.7640283" lon="11.2740483"><ele>51.33333333333333</ele><time>2026-04-11T10:39:54.913Z</time></trkpt><trkpt lat="43.764035" lon="11.2739367"><ele>51.666666666666664</ele><time>2026-04-11T10:39:56.913Z</time></trkpt><trkpt lat="43.7640333" lon="11.2738367"><ele>52.0</ele><time>2026-04-11T10:39:58.913Z</time></trkpt><trkpt lat="43.7640367" lon="11.2737083"><ele>52.166666666666664</ele><time>2026-04-11T10:40:00.913Z</time></trkpt><trkpt lat="43.7640417" lon="11.2735933"><ele>52.33333333333333</ele><time>2026-04-11T10:40:02.913Z</time></trkpt><trkpt lat="43.7640383" lon="11.27347"><ele>52.5</ele><time>2026-04-11T10:40:04.914Z</time></trkpt><trkpt lat="43.7640367" lon="11.2733583"><ele>52.66666666666667</ele><time>2026-04-11T10:40:06.913Z</time></trkpt><trkpt lat="43.76404" lon="11.273255"><ele>52.833333333333336</ele><time>2026-04-11T10:40:08.913Z</time></trkpt><trkpt lat="43.7640433" lon="11.2731333"><ele>53.0</ele><time>2026-04-11T10:40:10.914Z</time></trkpt><trkpt lat="43.7640483" lon="11.2730117"><ele>53.00000000000001</ele><time>2026-04-11T10:40:12.913Z</time></trkpt><trkpt lat="43.764055" lon="11.2728983"><ele>53.0</ele><time>2026-04-11T10:40:14.913Z</time></trkpt><trkpt lat="43.7640583" lon="11.27278"><ele>53.0</ele><time>2026-04-11T10:40:16.914Z</time></trkpt><trkpt lat="43.7640483" lon="11.272665"><ele>53.0</ele><time>2026-04-11T10:40:18.913Z</time></trkpt><trkpt lat="43.7640517" lon="11.27254"><ele>53.00000000000001</ele><time>2026-04-11T10:40:20.913Z</time></trkpt><trkpt lat="43.7640517" lon="11.2724167"><ele>53.0</ele><time>2026-04-11T10:40:22.913Z</time></trkpt><trkpt lat="43.76406" lon="11.2723017"><ele>52.50000000000001</ele><time>2026-04-11T10:40:24.913Z</time></trkpt><trkpt lat="43.7640617" lon="11.2721817"><ele>52.0</ele><time>2026-04-11T10:40:26.913Z</time></trkpt><trkpt lat="43.7640567" lon="11.2720567"><ele>51.5</ele><time>2026-04-11T10:40:28.913Z</time></trkpt><trkpt lat="43.7640667" lon="11.2719383"><ele>51.0</ele><time>2026-04-11T10:40:30.913Z</time></trkpt><trkpt lat="43.7640833" lon="11.27183"><ele>50.50000000000001</ele><time>2026-04-11T10:40:32.913Z</time></trkpt><trkpt lat="43.7641017" lon="11.2717367"><ele>50.0</ele><time>2026-04-11T10:40:34.913Z</time></trkpt><trkpt lat="43.7640652" lon="11.2716411"><ele>50.00000000000001</ele><time>2026-04-11T10:40:37.913Z</time></trkpt><trkpt lat="43.7639923" lon="11.2716241"><ele>50.0</ele><time>2026-04-11T10:40:43.913Z</time></trkpt><trkpt lat="43.76395" lon="11.2715504"><ele>50.0</ele><time>2026-04-11T10:40:46.913Z</time></trkpt><trkpt lat="43.7639586" lon="11.2714635"><ele>50.0</ele><time>2026-04-11T10:40:48.913Z</time></trkpt><trkpt lat="43.7639678" lon="11.2713583"><ele>50.0</ele><time>2026-04-11T10:40:50.913Z</time></trkpt><trkpt lat="43.7639795" lon="11.2712581"><ele>50.00000000000001</ele><time>2026-04-11T10:40:52.914Z</time></trkpt><trkpt lat="43.7640006" lon="11.2711701"><ele>50.0</ele><time>2026-04-11T10:40:54.913Z</time></trkpt><trkpt lat="43.7640454" lon="11.2710686"><ele>50.00000000000001</ele><time>2026-04-11T10:40:57.913Z</time></trkpt><trkpt lat="43.7640804" lon="11.2709918"><ele>50.0</ele><time>2026-04-11T10:41:00.913Z</time></trkpt><trkpt lat="43.7640883" lon="11.2709033"><ele>50.0</ele><time>2026-04-11T10:41:03.913Z</time></trkpt><trkpt lat="43.764115" lon="11.2707917"><ele>50.0</ele><time>2026-04-11T10:41:06.913Z</time></trkpt><trkpt lat="43.7641717" lon="11.2707017"><ele>50.00000000000001</ele><time>2026-04-11T10:41:09.913Z</time></trkpt><trkpt lat="43.7642233" lon="11.2706"><ele>50.0</ele><time>2026-04-11T10:41:12.914Z</time></trkpt><trkpt lat="43.7642717" lon="11.27049"><ele>50.00000000000001</ele><time>2026-04-11T10:41:15.913Z</time></trkpt><trkpt lat="43.76429" lon="11.2703867"><ele>50.0</ele><time>2026-04-11T10:41:17.913Z</time></trkpt><trkpt lat="43.7643033" lon="11.2702567"><ele>50.0</ele><time>2026-04-11T10:41:19.913Z</time></trkpt><trkpt lat="43.764315" lon="11.2701317"><ele>50.0</ele><time>2026-04-11T10:41:21.914Z</time></trkpt><trkpt lat="43.7643433" lon="11.2700083"><ele>50.00000000000001</ele><time>2026-04-11T10:41:23.913Z</time></trkpt><trkpt lat="43.7643583" lon="11.269885"><ele>50.0</ele><time>2026-04-11T10:41:25.913Z</time></trkpt><trkpt lat="43.7643717" lon="11.2697717"><ele>50.0</ele><time>2026-04-11T10:41:27.913Z</time></trkpt><trkpt lat="43.7643867" lon="11.2696533"><ele>50.0</ele><time>2026-04-11T10:41:29.913Z</time></trkpt><trkpt lat="43.7644067" lon="11.2695383"><ele>50.0</ele><time>2026-04-11T10:41:31.913Z</time></trkpt><trkpt lat="43.7644283" lon="11.2694033"><ele>50.0</ele><time>2026-04-11T10:41:33.913Z</time></trkpt><trkpt lat="43.7644417" lon="11.269275"><ele>50.0</ele><time>2026-04-11T10:41:35.913Z</time></trkpt><trkpt lat="43.76446" lon="11.2691417"><ele>50.0</ele><time>2026-04-11T10:41:37.913Z</time></trkpt><trkpt lat="43.7644667" lon="11.2690183"><ele>50.0</ele><time>2026-04-11T10:41:39.913Z</time></trkpt><trkpt lat="43.7644967" lon="11.2688883"><ele>50.0</ele><time>2026-04-11T10:41:41.914Z</time></trkpt><trkpt lat="43.7645167" lon="11.268755"><ele>50.0</ele><time>2026-04-11T10:41:43.913Z</time></trkpt><trkpt lat="43.764545" lon="11.2686367"><ele>50.0</ele><time>2026-04-11T10:41:45.913Z</time></trkpt><trkpt lat="43.764555" lon="11.2685133"><ele>50.0</ele><time>2026-04-11T10:41:47.914Z</time></trkpt><trkpt lat="43.76457" lon="11.2683933"><ele>50.0</ele><time>2026-04-11T10:41:49.913Z</time></trkpt><trkpt lat="43.7645867" lon="11.2682733"><ele>50.0</ele><time>2026-04-11T10:41:51.914Z</time></trkpt><trkpt lat="43.764605" lon="11.26814"><ele>50.0</ele><time>2026-04-11T10:41:53.913Z</time></trkpt><trkpt lat="43.7646183" lon="11.2680083"><ele>50.0</ele><time>2026-04-11T10:41:55.914Z</time></trkpt><trkpt lat="43.764625" lon="11.2678633"><ele>50.00000000000001</ele><time>2026-04-11T10:41:57.913Z</time></trkpt><trkpt lat="43.7646367" lon="11.267735"><ele>50.0</ele><time>2026-04-11T10:41:59.913Z</time></trkpt><trkpt lat="43.7646483" lon="11.2676017"><ele>50.0</ele><time>2026-04-11T10:42:01.913Z</time></trkpt><trkpt lat="43.7646567" lon="11.2674783"><ele>50.0</ele><time>2026-04-11T10:42:03.913Z</time></trkpt><trkpt lat="43.7646633" lon="11.2673533"><ele>50.00000000000001</ele><time>2026-04-11T10:42:05.913Z</time></trkpt><trkpt lat="43.764675" lon="11.2672483"><ele>50.0</ele><time>2026-04-11T10:42:07.913Z</time></trkpt><trkpt lat="43.7646933" lon="11.2671483"><ele>50.16666666666667</ele><time>2026-04-11T10:42:09.913Z</time></trkpt><trkpt lat="43.7647067" lon="11.2670433"><ele>50.333333333333336</ele><time>2026-04-11T10:42:11.913Z</time></trkpt><trkpt lat="43.7647267" lon="11.2669183"><ele>50.5</ele><time>2026-04-11T10:42:13.914Z</time></trkpt><trkpt lat="43.7647367" lon="11.266795"><ele>50.66666666666667</ele><time>2026-04-11T10:42:15.913Z</time></trkpt><trkpt lat="43.7647417" lon="11.2666867"><ele>50.833333333333336</ele><time>2026-04-11T10:42:17.913Z</time></trkpt><trkpt lat="43.7647517" lon="11.2665733"><ele>51.0</ele><time>2026-04-11T10:42:19.913Z</time></trkpt><trkpt lat="43.7647567" lon="11.266455"><ele>50.833333333333336</ele><time>2026-04-11T10:42:21.913Z</time></trkpt><trkpt lat="43.7647583" lon="11.2663383"><ele>50.66666666666667</ele><time>2026-04-11T10:42:23.914Z</time></trkpt><trkpt lat="43.764765" lon="11.2662167"><ele>50.5</ele><time>2026-04-11T10:42:25.914Z</time></trkpt><trkpt lat="43.7647783" lon="11.266095"><ele>50.333333333333336</ele><time>2026-04-11T10:42:27.914Z</time></trkpt><trkpt lat="43.76479" lon="11.265975"><ele>50.16666666666667</ele><time>2026-04-11T10:42:29.914Z</time></trkpt><trkpt lat="43.764795" lon="11.2658517"><ele>50.0</ele><time>2026-04-11T10:42:31.913Z</time></trkpt><trkpt lat="43.7648033" lon="11.2657233"><ele>50.8</ele><time>2026-04-11T10:42:33.914Z</time></trkpt><trkpt lat="43.76481" lon="11.265585"><ele>51.6</ele><time>2026-04-11T10:42:35.914Z</time></trkpt><trkpt lat="43.7648333" lon="11.2654467"><ele>52.400000000000006</ele><time>2026-04-11T10:42:37.913Z</time></trkpt><trkpt lat="43.7648567" lon="11.2653283"><ele>53.2</ele><time>2026-04-11T10:42:39.913Z</time></trkpt><trkpt lat="43.76488" lon="11.2652067"><ele>54.0</ele><time>2026-04-11T10:42:41.914Z</time></trkpt><trkpt lat="43.7649017" lon="11.2650983"><ele>54.0</ele><time>2026-04-11T10:42:43.913Z</time></trkpt><trkpt lat="43.76491" lon="11.2649883"><ele>54.0</ele><time>2026-04-11T10:42:45.913Z</time></trkpt><trkpt lat="43.7649167" lon="11.264865"><ele>54.0</ele><time>2026-04-11T10:42:47.913Z</time></trkpt><trkpt lat="43.7649217" lon="11.264735"><ele>54.0</ele><time>2026-04-11T10:42:49.913Z</time></trkpt><trkpt lat="43.7649367" lon="11.2646167"><ele>54.0</ele><time>2026-04-11T10:42:51.913Z</time></trkpt><trkpt lat="43.7649467" lon="11.2644833"><ele>54.0</ele><time>2026-04-11T10:42:53.913Z</time></trkpt><trkpt lat="43.7649483" lon="11.2643667"><ele>53.833333333333336</ele><time>2026-04-11T10:42:55.914Z</time></trkpt><trkpt lat="43.7649583" lon="11.264255"><ele>53.66666666666667</ele><time>2026-04-11T10:42:57.913Z</time></trkpt><trkpt lat="43.7649783" lon="11.2641433"><ele>53.5</ele><time>2026-04-11T10:42:59.913Z</time></trkpt><trkpt lat="43.7649833" lon="11.2640267"><ele>53.333333333333336</ele><time>2026-04-11T10:43:01.913Z</time></trkpt><trkpt lat="43.764995" lon="11.2639083"><ele>53.16666666666667</ele><time>2026-04-11T10:43:03.913Z</time></trkpt><trkpt lat="43.7650133" lon="11.2637983"><ele>53.0</ele><time>2026-04-11T10:43:05.913Z</time></trkpt><trkpt lat="43.7650333" lon="11.2636833"><ele>53.4</ele><time>2026-04-11T10:43:07.914Z</time></trkpt><trkpt lat="43.7650433" lon="11.2635533"><ele>53.8</ele><time>2026-04-11T10:43:09.914Z</time></trkpt><trkpt lat="43.7650533" lon="11.263425"><ele>54.2</ele><time>2026-04-11T10:43:11.914Z</time></trkpt><trkpt lat="43.7650583" lon="11.2633017"><ele>54.6</ele><time>2026-04-11T10:43:13.913Z</time></trkpt><trkpt lat="43.7650683" lon="11.2631733"><ele>55.0</ele><time>2026-04-11T10:43:15.914Z</time></trkpt><trkpt lat="43.7650883" lon="11.2630467"><ele>54.99999999999999</ele><time>2026-04-11T10:43:17.914Z</time></trkpt><trkpt lat="43.7651033" lon="11.26293"><ele>55.0</ele><time>2026-04-11T10:43:19.913Z</time></trkpt><trkpt lat="43.7651067" lon="11.2628033"><ele>55.0</ele><time>2026-04-11T10:43:21.914Z</time></trkpt><trkpt lat="43.7651133" lon="11.2626767"><ele>55.0</ele><time>2026-04-11T10:43:23.913Z</time></trkpt><trkpt lat="43.7651183" lon="11.2625583"><ele>54.99999999999999</ele><time>2026-04-11T10:43:25.914Z</time></trkpt><trkpt lat="43.7651317" lon="11.2624367"><ele>55.0</ele><time>2026-04-11T10:43:27.914Z</time></trkpt><trkpt lat="43.765145" lon="11.2623183"><ele>55.99999999999999</ele><time>2026-04-11T10:43:29.913Z</time></trkpt><trkpt lat="43.7651567" lon="11.2621933"><ele>57.0</ele><time>2026-04-11T10:43:31.914Z</time></trkpt><trkpt lat="43.765165" lon="11.2620733"><ele>58.0</ele><time>2026-04-11T10:43:33.914Z</time></trkpt><trkpt lat="43.7651683" lon="11.261945"><ele>59.0</ele><time>2026-04-11T10:43:35.913Z</time></trkpt><trkpt lat="43.7651817" lon="11.261835"><ele>59.99999999999999</ele><time>2026-04-11T10:43:37.913Z</time></trkpt><trkpt lat="43.7652017" lon="11.2617233"><ele>61.0</ele><time>2026-04-11T10:43:39.913Z</time></trkpt><trkpt lat="43.7652133" lon="11.2616067"><ele>58.599999999999994</ele><time>2026-04-11T10:43:41.914Z</time></trkpt><trkpt lat="43.7652233" lon="11.2614833"><ele>56.199999999999996</ele><time>2026-04-11T10:43:43.913Z</time></trkpt><trkpt lat="43.7652467" lon="11.2613617"><ele>53.8</ele><time>2026-04-11T10:43:45.913Z</time></trkpt><trkpt lat="43.7652683" lon="11.261235"><ele>51.400000000000006</ele><time>2026-04-11T10:43:47.913Z</time></trkpt><trkpt lat="43.7652833" lon="11.2611133"><ele>49.0</ele><time>2026-04-11T10:43:49.913Z</time></trkpt><trkpt lat="43.7652933" lon="11.2609867"><ele>48.83333333333333</ele><time>2026-04-11T10:43:51.913Z</time></trkpt><trkpt lat="43.7652967" lon="11.2608683"><ele>48.666666666666664</ele><time>2026-04-11T10:43:53.913Z</time></trkpt><trkpt lat="43.7653133" lon="11.260765"><ele>48.5</ele><time>2026-04-11T10:43:55.914Z</time></trkpt><trkpt lat="43.7653283" lon="11.2606567"><ele>48.33333333333333</ele><time>2026-04-11T10:43:57.914Z</time></trkpt><trkpt lat="43.76534" lon="11.2605483"><ele>48.166666666666664</ele><time>2026-04-11T10:43:59.913Z</time></trkpt><trkpt lat="43.76535" lon="11.2604317"><ele>48.0</ele><time>2026-04-11T10:44:01.913Z</time></trkpt><trkpt lat="43.76536" lon="11.260305"><ele>47.5</ele><time>2026-04-11T10:44:03.913Z</time></trkpt><trkpt lat="43.765365" lon="11.2601867"><ele>47.0</ele><time>2026-04-11T10:44:05.914Z</time></trkpt><trkpt lat="43.7653717" lon="11.2600617"><ele>46.5</ele><time>2026-04-11T10:44:07.914Z</time></trkpt><trkpt lat="43.7653867" lon="11.25995"><ele>46.0</ele><time>2026-04-11T10:44:09.913Z</time></trkpt><trkpt lat="43.7653967" lon="11.2598267"><ele>45.5</ele><time>2026-04-11T10:44:11.913Z</time></trkpt><trkpt lat="43.76541" lon="11.2597167"><ele>45.0</ele><time>2026-04-11T10:44:13.913Z</time></trkpt><trkpt lat="43.765425" lon="11.2595983"><ele>44.833333333333336</ele><time>2026-04-11T10:44:15.913Z</time></trkpt><trkpt lat="43.7654383" lon="11.259485"><ele>44.666666666666664</ele><time>2026-04-11T10:44:17.913Z</time></trkpt><trkpt lat="43.7654533" lon="11.2593683"><ele>44.5</ele><time>2026-04-11T10:44:19.913Z</time></trkpt><trkpt lat="43.7654733" lon="11.2592533"><ele>44.33333333333333</ele><time>2026-04-11T10:44:21.914Z</time></trkpt><trkpt lat="43.7654883" lon="11.2591483"><ele>44.166666666666664</ele><time>2026-04-11T10:44:23.913Z</time></trkpt><trkpt lat="43.7654883" lon="11.2590433"><ele>44.0</ele><time>2026-04-11T10:44:25.913Z</time></trkpt><trkpt lat="43.7654933" lon="11.25895"><ele>44.0</ele><time>2026-04-11T10:44:27.914Z</time></trkpt><trkpt lat="43.7654967" lon="11.2588583"><ele>44.0</ele><time>2026-04-11T10:44:29.913Z</time></trkpt><trkpt lat="43.765505" lon="11.2587433"><ele>44.0</ele><time>2026-04-11T10:44:32.913Z</time></trkpt><trkpt lat="43.765505" lon="11.258655"><ele>44.0</ele><time>2026-04-11T10:44:34.913Z</time></trkpt><trkpt lat="43.7655287" lon="11.2585373"><ele>44.0</ele><time>2026-04-11T10:44:37.913Z</time></trkpt><trkpt lat="43.7655898" lon="11.2584842"><ele>44.0</ele><time>2026-04-11T10:44:41.913Z</time></trkpt><trkpt lat="43.7656624" lon="11.2584887"><ele>44.0</ele><time>2026-04-11T10:44:44.914Z</time></trkpt><trkpt lat="43.76574" lon="11.2585367"><ele>44.0</ele><time>2026-04-11T10:44:47.913Z</time></trkpt><trkpt lat="43.7658083" lon="11.2585717"><ele>44.0</ele><time>2026-04-11T10:44:50.914Z</time></trkpt><trkpt lat="43.76589" lon="11.2586183"><ele>44.0</ele><time>2026-04-11T10:44:53.913Z</time></trkpt><trkpt lat="43.765955" lon="11.2586483"><ele>44.0</ele><time>2026-04-11T10:44:55.914Z</time></trkpt><trkpt lat="43.7660167" lon="11.2586817"><ele>44.0</ele><time>2026-04-11T10:44:57.913Z</time></trkpt><trkpt lat="43.7661117" lon="11.2587083"><ele>44.0</ele><time>2026-04-11T10:45:00.914Z</time></trkpt><trkpt lat="43.76618" lon="11.2587383"><ele>44.5</ele><time>2026-04-11T10:45:02.913Z</time></trkpt><trkpt lat="43.7662483" lon="11.258775"><ele>45.0</ele><time>2026-04-11T10:45:04.913Z</time></trkpt><trkpt lat="43.766325" lon="11.25881"><ele>45.5</ele><time>2026-04-11T10:45:06.913Z</time></trkpt><trkpt lat="43.7664017" lon="11.2588367"><ele>46.0</ele><time>2026-04-11T10:45:08.913Z</time></trkpt><trkpt lat="43.7664733" lon="11.2588683"><ele>46.5</ele><time>2026-04-11T10:45:10.913Z</time></trkpt><trkpt lat="43.766545" lon="11.2589"><ele>47.0</ele><time>2026-04-11T10:45:12.914Z</time></trkpt><trkpt lat="43.7666217" lon="11.2589283"><ele>46.83333333333333</ele><time>2026-04-11T10:45:14.913Z</time></trkpt><trkpt lat="43.7666883" lon="11.258955"><ele>46.666666666666664</ele><time>2026-04-11T10:45:16.913Z</time></trkpt><trkpt lat="43.7667583" lon="11.2589817"><ele>46.5</ele><time>2026-04-11T10:45:18.913Z</time></trkpt><trkpt lat="43.7668267" lon="11.25901"><ele>46.333333333333336</ele><time>2026-04-11T10:45:20.913Z</time></trkpt><trkpt lat="43.7669033" lon="11.25905"><ele>46.16666666666667</ele><time>2026-04-11T10:45:22.913Z</time></trkpt><trkpt lat="43.766985" lon="11.2590883"><ele>46.0</ele><time>2026-04-11T10:45:24.913Z</time></trkpt><trkpt lat="43.7670683" lon="11.2591367"><ele>48.199999999999996</ele><time>2026-04-11T10:45:26.913Z</time></trkpt><trkpt lat="43.7671633" lon="11.25919"><ele>50.4</ele><time>2026-04-11T10:45:28.914Z</time></trkpt><trkpt lat="43.76728" lon="11.2592367"><ele>52.6</ele><time>2026-04-11T10:45:30.913Z</time></trkpt><trkpt lat="43.7673733" lon="11.2592883"><ele>54.8</ele><time>2026-04-11T10:45:32.914Z</time></trkpt><trkpt lat="43.76746" lon="11.2593183"><ele>57.0</ele><time>2026-04-11T10:45:34.913Z</time></trkpt><trkpt lat="43.767545" lon="11.2593917"><ele>57.0</ele><time>2026-04-11T10:45:36.913Z</time></trkpt><trkpt lat="43.7676167" lon="11.259425"><ele>57.0</ele><time>2026-04-11T10:45:39.913Z</time></trkpt><trkpt lat="43.7676883" lon="11.259455"><ele>57.0</ele><time>2026-04-11T10:45:42.914Z</time></trkpt><trkpt lat="43.7677567" lon="11.2594867"><ele>57.0</ele><time>2026-04-11T10:45:45.913Z</time></trkpt><trkpt lat="43.767835" lon="11.2595233"><ele>57.0</ele><time>2026-04-11T10:45:47.913Z</time></trkpt><trkpt lat="43.7679217" lon="11.2595483"><ele>57.0</ele><time>2026-04-11T10:45:49.913Z</time></trkpt><trkpt lat="43.76801" lon="11.259605"><ele>57.333333333333336</ele><time>2026-04-11T10:45:51.914Z</time></trkpt><trkpt lat="43.7680767" lon="11.25968"><ele>57.66666666666667</ele><time>2026-04-11T10:45:53.914Z</time></trkpt><trkpt lat="43.768155" lon="11.25973"><ele>58.0</ele><time>2026-04-11T10:45:55.913Z</time></trkpt><trkpt lat="43.7682417" lon="11.25979"><ele>58.333333333333336</ele><time>2026-04-11T10:45:57.913Z</time></trkpt><trkpt lat="43.768305" lon="11.25985"><ele>58.66666666666667</ele><time>2026-04-11T10:45:59.914Z</time></trkpt><trkpt lat="43.768365" lon="11.2599317"><ele>59.0</ele><time>2026-04-11T10:46:01.913Z</time></trkpt><trkpt lat="43.7684283" lon="11.2600383"><ele>59.00000000000001</ele><time>2026-04-11T10:46:03.913Z</time></trkpt><trkpt lat="43.768475" lon="11.2601267"><ele>59.0</ele><time>2026-04-11T10:46:05.913Z</time></trkpt><trkpt lat="43.7685517" lon="11.260185"><ele>59.0</ele><time>2026-04-11T10:46:07.913Z</time></trkpt><trkpt lat="43.7686267" lon="11.2602433"><ele>59.0</ele><time>2026-04-11T10:46:09.913Z</time></trkpt><trkpt lat="43.7687" lon="11.260295"><ele>59.00000000000001</ele><time>2026-04-11T10:46:11.913Z</time></trkpt><trkpt lat="43.7687817" lon="11.2603567"><ele>59.0</ele><time>2026-04-11T10:46:13.913Z</time></trkpt><trkpt lat="43.7688606" lon="11.2604094"><ele>59.0</ele><time>2026-04-11T10:46:15.913Z</time></trkpt><trkpt lat="43.7689327" lon="11.2604882"><ele>59.00000000000001</ele><time>2026-04-11T10:46:17.913Z</time></trkpt><trkpt lat="43.7690255" lon="11.260551"><ele>59.00000000000001</ele><time>2026-04-11T10:46:19.914Z</time></trkpt><trkpt lat="43.7691093" lon="11.260626"><ele>59.0</ele><time>2026-04-11T10:46:21.913Z</time></trkpt><trkpt lat="43.7691886" lon="11.2606854"><ele>59.0</ele><time>2026-04-11T10:46:23.914Z</time></trkpt><trkpt lat="43.7692715" lon="11.2607473"><ele>59.333333333333336</ele><time>2026-04-11T10:46:25.914Z</time></trkpt><trkpt lat="43.7693718" lon="11.2607611"><ele>59.66666666666667</ele><time>2026-04-11T10:46:27.914Z</time></trkpt><trkpt lat="43.7694594" lon="11.2607778"><ele>60.0</ele><time>2026-04-11T10:46:29.913Z</time></trkpt><trkpt lat="43.7695299" lon="11.2608333"><ele>60.33333333333333</ele><time>2026-04-11T10:46:31.913Z</time></trkpt><trkpt lat="43.7695925" lon="11.2608691"><ele>60.666666666666664</ele><time>2026-04-11T10:46:33.913Z</time></trkpt><trkpt lat="43.7696506" lon="11.2609192"><ele>61.0</ele><time>2026-04-11T10:46:35.913Z</time></trkpt><trkpt lat="43.769725" lon="11.2610117"><ele>60.99999999999999</ele><time>2026-04-11T10:46:38.914Z</time></trkpt><trkpt lat="43.7697817" lon="11.2610833"><ele>61.0</ele><time>2026-04-11T10:46:40.913Z</time></trkpt><trkpt lat="43.7698567" lon="11.261135"><ele>61.0</ele><time>2026-04-11T10:46:42.913Z</time></trkpt><trkpt lat="43.7699317" lon="11.2611933"><ele>61.0</ele><time>2026-04-11T10:46:44.913Z</time></trkpt><trkpt lat="43.7699967" lon="11.2612467"><ele>60.99999999999999</ele><time>2026-04-11T10:46:46.913Z</time></trkpt><trkpt lat="43.77007" lon="11.2613267"><ele>61.0</ele><time>2026-04-11T10:46:49.913Z</time></trkpt><trkpt lat="43.7701217" lon="11.2614"><ele>60.14285714285713</ele><time>2026-04-11T10:46:52.913Z</time></trkpt><trkpt lat="43.7701717" lon="11.261465"><ele>59.285714285714285</ele><time>2026-04-11T10:46:55.913Z</time></trkpt><trkpt lat="43.7702317" lon="11.26152"><ele>58.42857142857142</ele><time>2026-04-11T10:46:59.913Z</time></trkpt><trkpt lat="43.7702967" lon="11.26158"><ele>57.57142857142857</ele><time>2026-04-11T10:47:02.914Z</time></trkpt><trkpt lat="43.77035" lon="11.2616417"><ele>56.71428571428571</ele><time>2026-04-11T10:47:04.913Z</time></trkpt><trkpt lat="43.770405" lon="11.2617083"><ele>55.857142857142854</ele><time>2026-04-11T10:47:06.913Z</time></trkpt><trkpt lat="43.770465" lon="11.2617583"><ele>55.0</ele><time>2026-04-11T10:47:08.914Z</time></trkpt><trkpt lat="43.7705317" lon="11.26181"><ele>54.83333333333333</ele><time>2026-04-11T10:47:10.913Z</time></trkpt><trkpt lat="43.7705917" lon="11.26187"><ele>54.666666666666664</ele><time>2026-04-11T10:47:12.914Z</time></trkpt><trkpt lat="43.7706517" lon="11.2619783"><ele>54.5</ele><time>2026-04-11T10:47:15.913Z</time></trkpt><trkpt lat="43.7707183" lon="11.262015"><ele>54.33333333333333</ele><time>2026-04-11T10:47:17.914Z</time></trkpt><trkpt lat="43.770795" lon="11.26203"><ele>54.166666666666664</ele><time>2026-04-11T10:47:19.913Z</time></trkpt><trkpt lat="43.7708883" lon="11.26205"><ele>54.0</ele><time>2026-04-11T10:47:21.914Z</time></trkpt><trkpt lat="43.7709683" lon="11.26208"><ele>54.285714285714285</ele><time>2026-04-11T10:47:23.914Z</time></trkpt><trkpt lat="43.7710433" lon="11.2621183"><ele>54.57142857142857</ele><time>2026-04-11T10:47:25.913Z</time></trkpt><trkpt lat="43.77111" lon="11.26215"><ele>54.85714285714286</ele><time>2026-04-11T10:47:27.913Z</time></trkpt><trkpt lat="43.7711583" lon="11.2622133"><ele>55.14285714285714</ele><time>2026-04-11T10:47:29.914Z</time></trkpt><trkpt lat="43.7712" lon="11.262285"><ele>55.42857142857143</ele><time>2026-04-11T10:47:31.914Z</time></trkpt><trkpt lat="43.7712683" lon="11.262345"><ele>55.714285714285715</ele><time>2026-04-11T10:47:33.913Z</time></trkpt><trkpt lat="43.7713317" lon="11.2623817"><ele>56.0</ele><time>2026-04-11T10:47:35.913Z</time></trkpt><trkpt lat="43.771395" lon="11.2624167"><ele>56.00000000000001</ele><time>2026-04-11T10:47:37.913Z</time></trkpt><trkpt lat="43.7714633" lon="11.26247"><ele>56.0</ele><time>2026-04-11T10:47:39.914Z</time></trkpt><trkpt lat="43.7715194" lon="11.2625198"><ele>56.0</ele><time>2026-04-11T10:47:42.913Z</time></trkpt><trkpt lat="43.7715739" lon="11.2625682"><ele>56.0</ele><time>2026-04-11T10:47:45.913Z</time></trkpt><trkpt lat="43.7716455" lon="11.2625839"><ele>56.00000000000001</ele><time>2026-04-11T10:47:48.913Z</time></trkpt><trkpt lat="43.7717161" lon="11.2626032"><ele>56.0</ele><time>2026-04-11T10:47:50.914Z</time></trkpt><trkpt lat="43.7718089" lon="11.2626544"><ele>56.50000000000001</ele><time>2026-04-11T10:47:52.913Z</time></trkpt><trkpt lat="43.7718967" lon="11.2627042"><ele>57.0</ele><time>2026-04-11T10:47:54.913Z</time></trkpt><trkpt lat="43.7719749" lon="11.2627674"><ele>57.5</ele><time>2026-04-11T10:47:56.913Z</time></trkpt><trkpt lat="43.7720461" lon="11.2628211"><ele>58.0</ele><time>2026-04-11T10:47:58.914Z</time></trkpt><trkpt lat="43.7721181" lon="11.2628741"><ele>58.50000000000001</ele><time>2026-04-11T10:48:00.913Z</time></trkpt><trkpt lat="43.7721805" lon="11.2629075"><ele>59.0</ele><time>2026-04-11T10:48:02.913Z</time></trkpt><trkpt lat="43.7722509" lon="11.2629654"><ele>59.00000000000001</ele><time>2026-04-11T10:48:05.913Z</time></trkpt><trkpt lat="43.7723152" lon="11.2630028"><ele>59.0</ele><time>2026-04-11T10:48:09.913Z</time></trkpt><trkpt lat="43.7723895" lon="11.2630741"><ele>59.0</ele><time>2026-04-11T10:48:13.913Z</time></trkpt><trkpt lat="43.7724444" lon="11.2631362"><ele>59.0</ele><time>2026-04-11T10:48:15.913Z</time></trkpt><trkpt lat="43.772511" lon="11.2631679"><ele>59.00000000000001</ele><time>2026-04-11T10:48:17.913Z</time></trkpt><trkpt lat="43.7725933" lon="11.263195"><ele>59.0</ele><time>2026-04-11T10:48:19.913Z</time></trkpt><trkpt lat="43.772665" lon="11.263245"><ele>59.00000000000001</ele><time>2026-04-11T10:48:21.913Z</time></trkpt><trkpt lat="43.77272" lon="11.2632983"><ele>59.0</ele><time>2026-04-11T10:48:23.913Z</time></trkpt><trkpt lat="43.7727967" lon="11.2633633"><ele>59.0</ele><time>2026-04-11T10:48:25.914Z</time></trkpt><trkpt lat="43.77288" lon="11.2634267"><ele>59.0</ele><time>2026-04-11T10:48:27.913Z</time></trkpt><trkpt lat="43.7729817" lon="11.2634683"><ele>59.00000000000001</ele><time>2026-04-11T10:48:29.914Z</time></trkpt><trkpt lat="43.7730633" lon="11.2635133"><ele>59.0</ele><time>2026-04-11T10:48:31.913Z</time></trkpt><trkpt lat="43.7731333" lon="11.2635783"><ele>59.00000000000001</ele><time>2026-04-11T10:48:34.913Z</time></trkpt><trkpt lat="43.7732183" lon="11.2636283"><ele>59.0</ele><time>2026-04-11T10:48:37.913Z</time></trkpt><trkpt lat="43.7732733" lon="11.263685"><ele>59.0</ele><time>2026-04-11T10:48:39.914Z</time></trkpt><trkpt lat="43.7733333" lon="11.26373"><ele>59.0</ele><time>2026-04-11T10:48:41.914Z</time></trkpt><trkpt lat="43.7733933" lon="11.263765"><ele>59.00000000000001</ele><time>2026-04-11T10:48:44.913Z</time></trkpt><trkpt lat="43.7735017" lon="11.2638083"><ele>59.0</ele><time>2026-04-11T10:48:51.914Z</time></trkpt><trkpt lat="43.773575" lon="11.2637533"><ele>58.833333333333336</ele><time>2026-04-11T10:48:53.914Z</time></trkpt><trkpt lat="43.7736383" lon="11.2637267"><ele>58.66666666666667</ele><time>2026-04-11T10:48:55.913Z</time></trkpt><trkpt lat="43.77371" lon="11.2636617"><ele>58.5</ele><time>2026-04-11T10:48:58.913Z</time></trkpt><trkpt lat="43.77377" lon="11.2636117"><ele>58.33333333333333</ele><time>2026-04-11T10:49:01.913Z</time></trkpt><trkpt lat="43.773845" lon="11.263545"><ele>58.166666666666664</ele><time>2026-04-11T10:49:04.913Z</time></trkpt><trkpt lat="43.7739017" lon="11.26346"><ele>58.0</ele><time>2026-04-11T10:49:07.913Z</time></trkpt><trkpt lat="43.7739483" lon="11.263365"><ele>58.00000000000001</ele><time>2026-04-11T10:49:10.913Z</time></trkpt><trkpt lat="43.7739933" lon="11.2633"><ele>58.0</ele><time>2026-04-11T10:49:12.913Z</time></trkpt><trkpt lat="43.774035" lon="11.2632233"><ele>58.00000000000001</ele><time>2026-04-11T10:49:15.913Z</time></trkpt><trkpt lat="43.7740883" lon="11.2631617"><ele>58.00000000000001</ele><time>2026-04-11T10:49:18.913Z</time></trkpt><trkpt lat="43.7741217" lon="11.2630667"><ele>58.0</ele><time>2026-04-11T10:49:24.913Z</time></trkpt><trkpt lat="43.774215" lon="11.263065"><ele>58.00000000000001</ele><time>2026-04-11T10:49:45.914Z</time></trkpt><trkpt lat="43.774215" lon="11.2629733"><ele>58.00000000000001</ele><time>2026-04-11T10:50:26.913Z</time></trkpt><trkpt lat="43.7742169" lon="11.2628596"><ele>57.8</ele><time>2026-04-11T10:55:45.271Z</time></trkpt><trkpt lat="43.7740683" lon="11.2628467"><ele>57.599999999999994</ele><time>2026-04-11T10:55:48.923Z</time></trkpt><trkpt lat="43.774155" lon="11.2628817"><ele>57.400000000000006</ele><time>2026-04-11T10:58:03.922Z</time></trkpt><trkpt lat="43.7740783" lon="11.262755"><ele>57.2</ele><time>2026-04-11T11:00:00.922Z</time></trkpt><trkpt lat="43.7740383" lon="11.262825"><ele>57.0</ele><time>2026-04-11T11:01:27.922Z</time></trkpt><trkpt lat="43.7739733" lon="11.262815"><ele>57.0</ele><time>2026-04-11T11:01:32.922Z</time></trkpt></trkseg></trk></gpx>